<?xml version="1.0" encoding="UTF-8" standalone="no" ?>
<gpx xmlns="http://www.topografix.com/GPX/1/1" xmlns:xsi="http://www.w3.org/2001/XMLSchema-instance" xsi:schemaLocation="http://www.topografix.com/GPX/1/1 http://www.topografix.com/GPX/1/1/gpx.xsd" version="1.1" creator="VisuGPX - https://www.visugpx.com">
  <metadata>
    <name>Tour de la roche pourrie</name>
    <desc><![CDATA[toujours au top !!!!!]]></desc>
  </metadata>
  <trk>
    <name><![CDATA[2016-06-22-01]]></name>
    <trkseg>
      <trkpt lat="45.67436" lon="6.39694">
        <ele>320.3</ele>
        <time>2016-06-22T09:15:18Z</time>
      </trkpt>
      <trkpt lat="45.67433" lon="6.39695">
        <ele>325</ele>
        <time>2016-06-22T09:15:19Z</time>
      </trkpt>
      <trkpt lat="45.67418" lon="6.39702">
        <ele>347</ele>
        <time>2016-06-22T09:15:27Z</time>
      </trkpt>
      <trkpt lat="45.67413" lon="6.39713">
        <ele>364.7</ele>
        <time>2016-06-22T09:15:39Z</time>
      </trkpt>
      <trkpt lat="45.67404" lon="6.39714">
        <ele>369.5</ele>
        <time>2016-06-22T09:15:44Z</time>
      </trkpt>
      <trkpt lat="45.67395" lon="6.39714">
        <ele>373.2</ele>
        <time>2016-06-22T09:15:49Z</time>
      </trkpt>
      <trkpt lat="45.67385" lon="6.39716">
        <ele>376.3</ele>
        <time>2016-06-22T09:15:54Z</time>
      </trkpt>
      <trkpt lat="45.67375" lon="6.39719">
        <ele>378.8</ele>
        <time>2016-06-22T09:15:59Z</time>
      </trkpt>
      <trkpt lat="45.67365" lon="6.39723">
        <ele>381.1</ele>
        <time>2016-06-22T09:16:04Z</time>
      </trkpt>
      <trkpt lat="45.67355" lon="6.39724">
        <ele>383.1</ele>
        <time>2016-06-22T09:16:09Z</time>
      </trkpt>
      <trkpt lat="45.67345" lon="6.39722">
        <ele>384.9</ele>
        <time>2016-06-22T09:16:14Z</time>
      </trkpt>
      <trkpt lat="45.67336" lon="6.39714">
        <ele>386.6</ele>
        <time>2016-06-22T09:16:19Z</time>
      </trkpt>
      <trkpt lat="45.67328" lon="6.39705">
        <ele>388</ele>
        <time>2016-06-22T09:16:24Z</time>
      </trkpt>
      <trkpt lat="45.67321" lon="6.39696">
        <ele>389.4</ele>
        <time>2016-06-22T09:16:29Z</time>
      </trkpt>
      <trkpt lat="45.67313" lon="6.39688">
        <ele>390.7</ele>
        <time>2016-06-22T09:16:34Z</time>
      </trkpt>
      <trkpt lat="45.67305" lon="6.39677">
        <ele>391.9</ele>
        <time>2016-06-22T09:16:39Z</time>
      </trkpt>
      <trkpt lat="45.67298" lon="6.39668">
        <ele>393</ele>
        <time>2016-06-22T09:16:44Z</time>
      </trkpt>
      <trkpt lat="45.67291" lon="6.39657">
        <ele>394.3</ele>
        <time>2016-06-22T09:16:49Z</time>
      </trkpt>
      <trkpt lat="45.67283" lon="6.3965">
        <ele>395.4</ele>
        <time>2016-06-22T09:16:54Z</time>
      </trkpt>
      <trkpt lat="45.67274" lon="6.39646">
        <ele>396.4</ele>
        <time>2016-06-22T09:16:58Z</time>
      </trkpt>
      <trkpt lat="45.67263" lon="6.39649">
        <ele>397.7</ele>
        <time>2016-06-22T09:17:03Z</time>
      </trkpt>
      <trkpt lat="45.67254" lon="6.39648">
        <ele>399</ele>
        <time>2016-06-22T09:17:08Z</time>
      </trkpt>
      <trkpt lat="45.67247" lon="6.39658">
        <ele>401.2</ele>
        <time>2016-06-22T09:17:16Z</time>
      </trkpt>
      <trkpt lat="45.67248" lon="6.39673">
        <ele>402.6</ele>
        <time>2016-06-22T09:17:21Z</time>
      </trkpt>
      <trkpt lat="45.67252" lon="6.39686">
        <ele>404.1</ele>
        <time>2016-06-22T09:17:27Z</time>
      </trkpt>
      <trkpt lat="45.67253" lon="6.397">
        <ele>405.5</ele>
        <time>2016-06-22T09:17:32Z</time>
      </trkpt>
      <trkpt lat="45.67256" lon="6.39714">
        <ele>407</ele>
        <time>2016-06-22T09:17:37Z</time>
      </trkpt>
      <trkpt lat="45.67258" lon="6.39728">
        <ele>408.6</ele>
        <time>2016-06-22T09:17:42Z</time>
      </trkpt>
      <trkpt lat="45.67262" lon="6.3974">
        <ele>409.8</ele>
        <time>2016-06-22T09:17:46Z</time>
      </trkpt>
      <trkpt lat="45.67269" lon="6.39752">
        <ele>410.7</ele>
        <time>2016-06-22T09:17:50Z</time>
      </trkpt>
      <trkpt lat="45.67275" lon="6.39763">
        <ele>411.4</ele>
        <time>2016-06-22T09:17:53Z</time>
      </trkpt>
      <trkpt lat="45.67278" lon="6.39775">
        <ele>411.9</ele>
        <time>2016-06-22T09:17:56Z</time>
      </trkpt>
      <trkpt lat="45.67276" lon="6.39788">
        <ele>412.4</ele>
        <time>2016-06-22T09:17:59Z</time>
      </trkpt>
      <trkpt lat="45.67272" lon="6.39802">
        <ele>413.1</ele>
        <time>2016-06-22T09:18:03Z</time>
      </trkpt>
      <trkpt lat="45.67266" lon="6.39813">
        <ele>413.9</ele>
        <time>2016-06-22T09:18:07Z</time>
      </trkpt>
      <trkpt lat="45.67262" lon="6.39825">
        <ele>414.7</ele>
        <time>2016-06-22T09:18:11Z</time>
      </trkpt>
      <trkpt lat="45.67258" lon="6.39838">
        <ele>415.5</ele>
        <time>2016-06-22T09:18:15Z</time>
      </trkpt>
      <trkpt lat="45.67258" lon="6.39852">
        <ele>416.2</ele>
        <time>2016-06-22T09:18:19Z</time>
      </trkpt>
      <trkpt lat="45.67263" lon="6.39864">
        <ele>416.9</ele>
        <time>2016-06-22T09:18:23Z</time>
      </trkpt>
      <trkpt lat="45.6727" lon="6.39872">
        <ele>417.7</ele>
        <time>2016-06-22T09:18:27Z</time>
      </trkpt>
      <trkpt lat="45.67281" lon="6.39875">
        <ele>418.8</ele>
        <time>2016-06-22T09:18:32Z</time>
      </trkpt>
      <trkpt lat="45.67292" lon="6.39874">
        <ele>419.6</ele>
        <time>2016-06-22T09:18:36Z</time>
      </trkpt>
      <trkpt lat="45.67301" lon="6.39867">
        <ele>420.5</ele>
        <time>2016-06-22T09:18:41Z</time>
      </trkpt>
      <trkpt lat="45.67308" lon="6.39857">
        <ele>421.6</ele>
        <time>2016-06-22T09:18:46Z</time>
      </trkpt>
      <trkpt lat="45.67319" lon="6.39852">
        <ele>422.7</ele>
        <time>2016-06-22T09:18:51Z</time>
      </trkpt>
      <trkpt lat="45.67328" lon="6.39854">
        <ele>423.7</ele>
        <time>2016-06-22T09:18:55Z</time>
      </trkpt>
      <trkpt lat="45.67338" lon="6.39858">
        <ele>424.7</ele>
        <time>2016-06-22T09:18:59Z</time>
      </trkpt>
      <trkpt lat="45.67348" lon="6.39859">
        <ele>425.7</ele>
        <time>2016-06-22T09:19:03Z</time>
      </trkpt>
      <trkpt lat="45.67357" lon="6.39856">
        <ele>426.8</ele>
        <time>2016-06-22T09:19:07Z</time>
      </trkpt>
      <trkpt lat="45.67367" lon="6.39854">
        <ele>427.9</ele>
        <time>2016-06-22T09:19:11Z</time>
      </trkpt>
      <trkpt lat="45.67377" lon="6.39854">
        <ele>429</ele>
        <time>2016-06-22T09:19:15Z</time>
      </trkpt>
      <trkpt lat="45.67387" lon="6.39855">
        <ele>430</ele>
        <time>2016-06-22T09:19:19Z</time>
      </trkpt>
      <trkpt lat="45.67396" lon="6.3986">
        <ele>431</ele>
        <time>2016-06-22T09:19:23Z</time>
      </trkpt>
      <trkpt lat="45.67406" lon="6.39866">
        <ele>431.9</ele>
        <time>2016-06-22T09:19:27Z</time>
      </trkpt>
      <trkpt lat="45.67414" lon="6.39878">
        <ele>432.6</ele>
        <time>2016-06-22T09:19:31Z</time>
      </trkpt>
      <trkpt lat="45.67412" lon="6.39891">
        <ele>433.3</ele>
        <time>2016-06-22T09:19:35Z</time>
      </trkpt>
      <trkpt lat="45.67403" lon="6.3989">
        <ele>434.2</ele>
        <time>2016-06-22T09:19:40Z</time>
      </trkpt>
      <trkpt lat="45.67397" lon="6.3988">
        <ele>435</ele>
        <time>2016-06-22T09:19:44Z</time>
      </trkpt>
      <trkpt lat="45.67389" lon="6.39873">
        <ele>436</ele>
        <time>2016-06-22T09:19:48Z</time>
      </trkpt>
      <trkpt lat="45.67378" lon="6.39869">
        <ele>437</ele>
        <time>2016-06-22T09:19:52Z</time>
      </trkpt>
      <trkpt lat="45.67368" lon="6.39871">
        <ele>438.3</ele>
        <time>2016-06-22T09:19:57Z</time>
      </trkpt>
      <trkpt lat="45.67359" lon="6.39878">
        <ele>439.6</ele>
        <time>2016-06-22T09:20:02Z</time>
      </trkpt>
      <trkpt lat="45.6735" lon="6.39887">
        <ele>440.9</ele>
        <time>2016-06-22T09:20:07Z</time>
      </trkpt>
      <trkpt lat="45.67342" lon="6.39895">
        <ele>442</ele>
        <time>2016-06-22T09:20:11Z</time>
      </trkpt>
      <trkpt lat="45.67336" lon="6.39906">
        <ele>443.3</ele>
        <time>2016-06-22T09:20:16Z</time>
      </trkpt>
      <trkpt lat="45.67329" lon="6.39918">
        <ele>444.6</ele>
        <time>2016-06-22T09:20:22Z</time>
      </trkpt>
      <trkpt lat="45.67321" lon="6.39929">
        <ele>445.6</ele>
        <time>2016-06-22T09:20:27Z</time>
      </trkpt>
      <trkpt lat="45.67314" lon="6.3994">
        <ele>446.6</ele>
        <time>2016-06-22T09:20:32Z</time>
      </trkpt>
      <trkpt lat="45.67309" lon="6.39955">
        <ele>447.6</ele>
        <time>2016-06-22T09:20:37Z</time>
      </trkpt>
      <trkpt lat="45.67309" lon="6.39969">
        <ele>448.8</ele>
        <time>2016-06-22T09:20:42Z</time>
      </trkpt>
      <trkpt lat="45.6731" lon="6.39984">
        <ele>449.9</ele>
        <time>2016-06-22T09:20:47Z</time>
      </trkpt>
      <trkpt lat="45.67312" lon="6.39998">
        <ele>451.1</ele>
        <time>2016-06-22T09:20:52Z</time>
      </trkpt>
      <trkpt lat="45.67316" lon="6.40009">
        <ele>452.5</ele>
        <time>2016-06-22T09:20:57Z</time>
      </trkpt>
      <trkpt lat="45.67323" lon="6.40019">
        <ele>453.8</ele>
        <time>2016-06-22T09:21:02Z</time>
      </trkpt>
      <trkpt lat="45.67331" lon="6.40029">
        <ele>455.2</ele>
        <time>2016-06-22T09:21:07Z</time>
      </trkpt>
      <trkpt lat="45.67336" lon="6.4004">
        <ele>456.6</ele>
        <time>2016-06-22T09:21:12Z</time>
      </trkpt>
      <trkpt lat="45.67337" lon="6.40055">
        <ele>458.2</ele>
        <time>2016-06-22T09:21:18Z</time>
      </trkpt>
      <trkpt lat="45.67335" lon="6.40069">
        <ele>459.6</ele>
        <time>2016-06-22T09:21:24Z</time>
      </trkpt>
      <trkpt lat="45.6733" lon="6.40081">
        <ele>461</ele>
        <time>2016-06-22T09:21:30Z</time>
      </trkpt>
      <trkpt lat="45.6732" lon="6.40083">
        <ele>462</ele>
        <time>2016-06-22T09:21:35Z</time>
      </trkpt>
      <trkpt lat="45.67309" lon="6.40087">
        <ele>463.1</ele>
        <time>2016-06-22T09:21:40Z</time>
      </trkpt>
      <trkpt lat="45.67299" lon="6.40091">
        <ele>464</ele>
        <time>2016-06-22T09:21:44Z</time>
      </trkpt>
      <trkpt lat="45.67289" lon="6.40095">
        <ele>465</ele>
        <time>2016-06-22T09:21:49Z</time>
      </trkpt>
      <trkpt lat="45.67282" lon="6.40105">
        <ele>465.7</ele>
        <time>2016-06-22T09:21:53Z</time>
      </trkpt>
      <trkpt lat="45.6728" lon="6.40117">
        <ele>466.5</ele>
        <time>2016-06-22T09:21:57Z</time>
      </trkpt>
      <trkpt lat="45.67286" lon="6.40129">
        <ele>467.3</ele>
        <time>2016-06-22T09:22:01Z</time>
      </trkpt>
      <trkpt lat="45.67296" lon="6.40132">
        <ele>468</ele>
        <time>2016-06-22T09:22:05Z</time>
      </trkpt>
      <trkpt lat="45.67306" lon="6.40131">
        <ele>468.7</ele>
        <time>2016-06-22T09:22:09Z</time>
      </trkpt>
      <trkpt lat="45.67317" lon="6.40128">
        <ele>469.3</ele>
        <time>2016-06-22T09:22:13Z</time>
      </trkpt>
      <trkpt lat="45.67326" lon="6.40124">
        <ele>469.8</ele>
        <time>2016-06-22T09:22:16Z</time>
      </trkpt>
      <trkpt lat="45.67337" lon="6.40119">
        <ele>470.5</ele>
        <time>2016-06-22T09:22:20Z</time>
      </trkpt>
      <trkpt lat="45.67347" lon="6.40111">
        <ele>471.3</ele>
        <time>2016-06-22T09:22:24Z</time>
      </trkpt>
      <trkpt lat="45.67355" lon="6.40101">
        <ele>472.2</ele>
        <time>2016-06-22T09:22:28Z</time>
      </trkpt>
      <trkpt lat="45.67363" lon="6.40089">
        <ele>473.3</ele>
        <time>2016-06-22T09:22:32Z</time>
      </trkpt>
      <trkpt lat="45.6737" lon="6.40075">
        <ele>474.3</ele>
        <time>2016-06-22T09:22:36Z</time>
      </trkpt>
      <trkpt lat="45.67377" lon="6.40063">
        <ele>475.2</ele>
        <time>2016-06-22T09:22:40Z</time>
      </trkpt>
      <trkpt lat="45.67385" lon="6.40054">
        <ele>476</ele>
        <time>2016-06-22T09:22:44Z</time>
      </trkpt>
      <trkpt lat="45.67397" lon="6.40049">
        <ele>476.7</ele>
        <time>2016-06-22T09:22:48Z</time>
      </trkpt>
      <trkpt lat="45.67406" lon="6.40045">
        <ele>477.2</ele>
        <time>2016-06-22T09:22:51Z</time>
      </trkpt>
      <trkpt lat="45.67417" lon="6.40041">
        <ele>477.9</ele>
        <time>2016-06-22T09:22:55Z</time>
      </trkpt>
      <trkpt lat="45.67428" lon="6.40037">
        <ele>478.7</ele>
        <time>2016-06-22T09:22:59Z</time>
      </trkpt>
      <trkpt lat="45.6744" lon="6.40034">
        <ele>479.5</ele>
        <time>2016-06-22T09:23:03Z</time>
      </trkpt>
      <trkpt lat="45.67451" lon="6.4003">
        <ele>480.2</ele>
        <time>2016-06-22T09:23:07Z</time>
      </trkpt>
      <trkpt lat="45.67462" lon="6.40032">
        <ele>481</ele>
        <time>2016-06-22T09:23:11Z</time>
      </trkpt>
      <trkpt lat="45.67473" lon="6.40037">
        <ele>481.8</ele>
        <time>2016-06-22T09:23:15Z</time>
      </trkpt>
      <trkpt lat="45.67483" lon="6.40041">
        <ele>482.5</ele>
        <time>2016-06-22T09:23:19Z</time>
      </trkpt>
      <trkpt lat="45.67492" lon="6.40046">
        <ele>483.1</ele>
        <time>2016-06-22T09:23:22Z</time>
      </trkpt>
      <trkpt lat="45.67501" lon="6.4005">
        <ele>483.6</ele>
        <time>2016-06-22T09:23:25Z</time>
      </trkpt>
      <trkpt lat="45.6751" lon="6.40055">
        <ele>484</ele>
        <time>2016-06-22T09:23:28Z</time>
      </trkpt>
      <trkpt lat="45.67522" lon="6.4006">
        <ele>484.6</ele>
        <time>2016-06-22T09:23:32Z</time>
      </trkpt>
      <trkpt lat="45.67532" lon="6.40065">
        <ele>485</ele>
        <time>2016-06-22T09:23:35Z</time>
      </trkpt>
      <trkpt lat="45.67541" lon="6.40069">
        <ele>485.4</ele>
        <time>2016-06-22T09:23:38Z</time>
      </trkpt>
      <trkpt lat="45.6755" lon="6.40074">
        <ele>485.7</ele>
        <time>2016-06-22T09:23:41Z</time>
      </trkpt>
      <trkpt lat="45.67557" lon="6.40084">
        <ele>486</ele>
        <time>2016-06-22T09:23:44Z</time>
      </trkpt>
      <trkpt lat="45.67562" lon="6.40099">
        <ele>486.5</ele>
        <time>2016-06-22T09:23:48Z</time>
      </trkpt>
      <trkpt lat="45.67568" lon="6.4011">
        <ele>486.8</ele>
        <time>2016-06-22T09:23:51Z</time>
      </trkpt>
      <trkpt lat="45.67578" lon="6.40117">
        <ele>487.2</ele>
        <time>2016-06-22T09:23:54Z</time>
      </trkpt>
      <trkpt lat="45.67587" lon="6.40121">
        <ele>487.7</ele>
        <time>2016-06-22T09:23:57Z</time>
      </trkpt>
      <trkpt lat="45.67597" lon="6.40126">
        <ele>488.5</ele>
        <time>2016-06-22T09:24:01Z</time>
      </trkpt>
      <trkpt lat="45.67606" lon="6.40132">
        <ele>489.5</ele>
        <time>2016-06-22T09:24:05Z</time>
      </trkpt>
      <trkpt lat="45.67615" lon="6.40137">
        <ele>490.4</ele>
        <time>2016-06-22T09:24:09Z</time>
      </trkpt>
      <trkpt lat="45.67623" lon="6.40145">
        <ele>491.2</ele>
        <time>2016-06-22T09:24:13Z</time>
      </trkpt>
      <trkpt lat="45.67629" lon="6.40156">
        <ele>491.8</ele>
        <time>2016-06-22T09:24:17Z</time>
      </trkpt>
      <trkpt lat="45.67633" lon="6.40169">
        <ele>492.4</ele>
        <time>2016-06-22T09:24:21Z</time>
      </trkpt>
      <trkpt lat="45.67637" lon="6.40182">
        <ele>493.1</ele>
        <time>2016-06-22T09:24:25Z</time>
      </trkpt>
      <trkpt lat="45.67643" lon="6.40195">
        <ele>494</ele>
        <time>2016-06-22T09:24:30Z</time>
      </trkpt>
      <trkpt lat="45.67652" lon="6.40207">
        <ele>494.9</ele>
        <time>2016-06-22T09:24:34Z</time>
      </trkpt>
      <trkpt lat="45.67659" lon="6.40214">
        <ele>495.6</ele>
        <time>2016-06-22T09:24:37Z</time>
      </trkpt>
      <trkpt lat="45.67667" lon="6.40221">
        <ele>496.3</ele>
        <time>2016-06-22T09:24:40Z</time>
      </trkpt>
      <trkpt lat="45.67675" lon="6.40229">
        <ele>497.2</ele>
        <time>2016-06-22T09:24:44Z</time>
      </trkpt>
      <trkpt lat="45.67684" lon="6.40236">
        <ele>498.2</ele>
        <time>2016-06-22T09:24:48Z</time>
      </trkpt>
      <trkpt lat="45.67692" lon="6.40245">
        <ele>499.2</ele>
        <time>2016-06-22T09:24:52Z</time>
      </trkpt>
      <trkpt lat="45.67698" lon="6.40255">
        <ele>500</ele>
        <time>2016-06-22T09:24:56Z</time>
      </trkpt>
      <trkpt lat="45.67703" lon="6.40266">
        <ele>501</ele>
        <time>2016-06-22T09:25:00Z</time>
      </trkpt>
      <trkpt lat="45.67708" lon="6.40278">
        <ele>502.2</ele>
        <time>2016-06-22T09:25:05Z</time>
      </trkpt>
      <trkpt lat="45.67717" lon="6.40289">
        <ele>503.1</ele>
        <time>2016-06-22T09:25:09Z</time>
      </trkpt>
      <trkpt lat="45.67727" lon="6.40297">
        <ele>504</ele>
        <time>2016-06-22T09:25:13Z</time>
      </trkpt>
      <trkpt lat="45.67736" lon="6.40304">
        <ele>504.8</ele>
        <time>2016-06-22T09:25:17Z</time>
      </trkpt>
      <trkpt lat="45.67745" lon="6.40312">
        <ele>506</ele>
        <time>2016-06-22T09:25:22Z</time>
      </trkpt>
      <trkpt lat="45.67752" lon="6.40324">
        <ele>507.2</ele>
        <time>2016-06-22T09:25:27Z</time>
      </trkpt>
      <trkpt lat="45.67758" lon="6.40336">
        <ele>508.2</ele>
        <time>2016-06-22T09:25:32Z</time>
      </trkpt>
      <trkpt lat="45.67763" lon="6.40349">
        <ele>509.2</ele>
        <time>2016-06-22T09:25:37Z</time>
      </trkpt>
      <trkpt lat="45.6777" lon="6.40359">
        <ele>510</ele>
        <time>2016-06-22T09:25:42Z</time>
      </trkpt>
      <trkpt lat="45.67777" lon="6.40369">
        <ele>510.8</ele>
        <time>2016-06-22T09:25:46Z</time>
      </trkpt>
      <trkpt lat="45.67784" lon="6.40381">
        <ele>511.7</ele>
        <time>2016-06-22T09:25:51Z</time>
      </trkpt>
      <trkpt lat="45.67791" lon="6.40391">
        <ele>512.5</ele>
        <time>2016-06-22T09:25:55Z</time>
      </trkpt>
      <trkpt lat="45.67797" lon="6.40403">
        <ele>513.5</ele>
        <time>2016-06-22T09:26:00Z</time>
      </trkpt>
      <trkpt lat="45.67803" lon="6.40414">
        <ele>514.5</ele>
        <time>2016-06-22T09:26:05Z</time>
      </trkpt>
      <trkpt lat="45.67813" lon="6.40421">
        <ele>515.3</ele>
        <time>2016-06-22T09:26:09Z</time>
      </trkpt>
      <trkpt lat="45.67824" lon="6.40417">
        <ele>516.2</ele>
        <time>2016-06-22T09:26:14Z</time>
      </trkpt>
      <trkpt lat="45.67833" lon="6.40411">
        <ele>517.1</ele>
        <time>2016-06-22T09:26:19Z</time>
      </trkpt>
      <trkpt lat="45.67844" lon="6.40407">
        <ele>517.9</ele>
        <time>2016-06-22T09:26:23Z</time>
      </trkpt>
      <trkpt lat="45.67854" lon="6.40407">
        <ele>518.6</ele>
        <time>2016-06-22T09:26:27Z</time>
      </trkpt>
      <trkpt lat="45.67863" lon="6.40415">
        <ele>519.6</ele>
        <time>2016-06-22T09:26:32Z</time>
      </trkpt>
      <trkpt lat="45.67869" lon="6.40425">
        <ele>520.5</ele>
        <time>2016-06-22T09:26:36Z</time>
      </trkpt>
      <trkpt lat="45.67874" lon="6.40438">
        <ele>521.1</ele>
        <time>2016-06-22T09:26:40Z</time>
      </trkpt>
      <trkpt lat="45.67878" lon="6.40452">
        <ele>521.8</ele>
        <time>2016-06-22T09:26:44Z</time>
      </trkpt>
      <trkpt lat="45.67881" lon="6.40466">
        <ele>522.5</ele>
        <time>2016-06-22T09:26:48Z</time>
      </trkpt>
      <trkpt lat="45.67884" lon="6.4048">
        <ele>523</ele>
        <time>2016-06-22T09:26:52Z</time>
      </trkpt>
      <trkpt lat="45.67886" lon="6.40495">
        <ele>523.6</ele>
        <time>2016-06-22T09:26:56Z</time>
      </trkpt>
      <trkpt lat="45.67884" lon="6.40509">
        <ele>524.1</ele>
        <time>2016-06-22T09:27:00Z</time>
      </trkpt>
      <trkpt lat="45.67874" lon="6.40517">
        <ele>524.8</ele>
        <time>2016-06-22T09:27:05Z</time>
      </trkpt>
      <trkpt lat="45.67865" lon="6.40513">
        <ele>525.2</ele>
        <time>2016-06-22T09:27:09Z</time>
      </trkpt>
      <trkpt lat="45.6786" lon="6.40502">
        <ele>525.6</ele>
        <time>2016-06-22T09:27:13Z</time>
      </trkpt>
      <trkpt lat="45.67852" lon="6.40493">
        <ele>526.1</ele>
        <time>2016-06-22T09:27:17Z</time>
      </trkpt>
      <trkpt lat="45.67842" lon="6.40488">
        <ele>526.4</ele>
        <time>2016-06-22T09:27:21Z</time>
      </trkpt>
      <trkpt lat="45.67832" lon="6.4049">
        <ele>526.7</ele>
        <time>2016-06-22T09:27:25Z</time>
      </trkpt>
      <trkpt lat="45.67823" lon="6.40492">
        <ele>527.2</ele>
        <time>2016-06-22T09:27:29Z</time>
      </trkpt>
      <trkpt lat="45.67814" lon="6.40487">
        <ele>527.7</ele>
        <time>2016-06-22T09:27:34Z</time>
      </trkpt>
      <trkpt lat="45.67808" lon="6.40475">
        <ele>528.3</ele>
        <time>2016-06-22T09:27:38Z</time>
      </trkpt>
      <trkpt lat="45.67801" lon="6.40462">
        <ele>528.8</ele>
        <time>2016-06-22T09:27:42Z</time>
      </trkpt>
      <trkpt lat="45.67796" lon="6.40449">
        <ele>529.4</ele>
        <time>2016-06-22T09:27:46Z</time>
      </trkpt>
      <trkpt lat="45.67792" lon="6.40435">
        <ele>530.2</ele>
        <time>2016-06-22T09:27:51Z</time>
      </trkpt>
      <trkpt lat="45.67782" lon="6.40424">
        <ele>530.8</ele>
        <time>2016-06-22T09:27:55Z</time>
      </trkpt>
      <trkpt lat="45.67775" lon="6.40417">
        <ele>531.5</ele>
        <time>2016-06-22T09:27:59Z</time>
      </trkpt>
      <trkpt lat="45.67767" lon="6.40405">
        <ele>532.2</ele>
        <time>2016-06-22T09:28:03Z</time>
      </trkpt>
      <trkpt lat="45.6776" lon="6.40394">
        <ele>532.9</ele>
        <time>2016-06-22T09:28:07Z</time>
      </trkpt>
      <trkpt lat="45.67752" lon="6.40385">
        <ele>533.6</ele>
        <time>2016-06-22T09:28:11Z</time>
      </trkpt>
      <trkpt lat="45.67744" lon="6.40376">
        <ele>534.4</ele>
        <time>2016-06-22T09:28:15Z</time>
      </trkpt>
      <trkpt lat="45.67735" lon="6.40366">
        <ele>535.3</ele>
        <time>2016-06-22T09:28:19Z</time>
      </trkpt>
      <trkpt lat="45.67727" lon="6.40361">
        <ele>536.1</ele>
        <time>2016-06-22T09:28:23Z</time>
      </trkpt>
      <trkpt lat="45.67717" lon="6.4036">
        <ele>536.8</ele>
        <time>2016-06-22T09:28:26Z</time>
      </trkpt>
      <trkpt lat="45.67707" lon="6.40361">
        <ele>537.7</ele>
        <time>2016-06-22T09:28:30Z</time>
      </trkpt>
      <trkpt lat="45.67697" lon="6.40359">
        <ele>538.6</ele>
        <time>2016-06-22T09:28:34Z</time>
      </trkpt>
      <trkpt lat="45.67688" lon="6.40353">
        <ele>539.4</ele>
        <time>2016-06-22T09:28:38Z</time>
      </trkpt>
      <trkpt lat="45.67679" lon="6.40343">
        <ele>540.4</ele>
        <time>2016-06-22T09:28:43Z</time>
      </trkpt>
      <trkpt lat="45.6767" lon="6.40339">
        <ele>541.1</ele>
        <time>2016-06-22T09:28:47Z</time>
      </trkpt>
      <trkpt lat="45.6766" lon="6.40335">
        <ele>541.9</ele>
        <time>2016-06-22T09:28:51Z</time>
      </trkpt>
      <trkpt lat="45.67652" lon="6.40329">
        <ele>542.6</ele>
        <time>2016-06-22T09:28:55Z</time>
      </trkpt>
      <trkpt lat="45.67643" lon="6.40324">
        <ele>543.2</ele>
        <time>2016-06-22T09:28:58Z</time>
      </trkpt>
      <trkpt lat="45.67633" lon="6.4032">
        <ele>544</ele>
        <time>2016-06-22T09:29:02Z</time>
      </trkpt>
      <trkpt lat="45.67623" lon="6.40322">
        <ele>544.7</ele>
        <time>2016-06-22T09:29:06Z</time>
      </trkpt>
      <trkpt lat="45.67614" lon="6.40326">
        <ele>545.4</ele>
        <time>2016-06-22T09:29:10Z</time>
      </trkpt>
      <trkpt lat="45.67604" lon="6.4033">
        <ele>546.3</ele>
        <time>2016-06-22T09:29:15Z</time>
      </trkpt>
      <trkpt lat="45.67595" lon="6.40334">
        <ele>547.1</ele>
        <time>2016-06-22T09:29:19Z</time>
      </trkpt>
      <trkpt lat="45.67585" lon="6.40337">
        <ele>547.7</ele>
        <time>2016-06-22T09:29:23Z</time>
      </trkpt>
      <trkpt lat="45.67575" lon="6.40333">
        <ele>548.5</ele>
        <time>2016-06-22T09:29:27Z</time>
      </trkpt>
      <trkpt lat="45.67563" lon="6.40329">
        <ele>548.9</ele>
        <time>2016-06-22T09:29:29Z</time>
      </trkpt>
      <trkpt lat="45.67553" lon="6.40322">
        <ele>549.5</ele>
        <time>2016-06-22T09:29:32Z</time>
      </trkpt>
      <trkpt lat="45.67546" lon="6.4031">
        <ele>550.3</ele>
        <time>2016-06-22T09:29:36Z</time>
      </trkpt>
      <trkpt lat="45.67538" lon="6.40303">
        <ele>551.2</ele>
        <time>2016-06-22T09:29:41Z</time>
      </trkpt>
      <trkpt lat="45.67528" lon="6.40298">
        <ele>552.2</ele>
        <time>2016-06-22T09:29:46Z</time>
      </trkpt>
      <trkpt lat="45.67519" lon="6.40292">
        <ele>553.1</ele>
        <time>2016-06-22T09:29:51Z</time>
      </trkpt>
      <trkpt lat="45.67511" lon="6.40284">
        <ele>553.9</ele>
        <time>2016-06-22T09:29:55Z</time>
      </trkpt>
      <trkpt lat="45.67502" lon="6.40278">
        <ele>554.7</ele>
        <time>2016-06-22T09:29:59Z</time>
      </trkpt>
      <trkpt lat="45.67489" lon="6.40277">
        <ele>555.3</ele>
        <time>2016-06-22T09:30:02Z</time>
      </trkpt>
      <trkpt lat="45.67479" lon="6.40283">
        <ele>556</ele>
        <time>2016-06-22T09:30:06Z</time>
      </trkpt>
      <trkpt lat="45.67473" lon="6.40294">
        <ele>556.5</ele>
        <time>2016-06-22T09:30:10Z</time>
      </trkpt>
      <trkpt lat="45.67469" lon="6.40308">
        <ele>557.1</ele>
        <time>2016-06-22T09:30:14Z</time>
      </trkpt>
      <trkpt lat="45.67465" lon="6.4032">
        <ele>557.7</ele>
        <time>2016-06-22T09:30:19Z</time>
      </trkpt>
      <trkpt lat="45.67456" lon="6.40325">
        <ele>558.3</ele>
        <time>2016-06-22T09:30:23Z</time>
      </trkpt>
      <trkpt lat="45.67446" lon="6.40327">
        <ele>558.9</ele>
        <time>2016-06-22T09:30:27Z</time>
      </trkpt>
      <trkpt lat="45.67435" lon="6.40325">
        <ele>559.7</ele>
        <time>2016-06-22T09:30:32Z</time>
      </trkpt>
      <trkpt lat="45.67426" lon="6.40329">
        <ele>560.4</ele>
        <time>2016-06-22T09:30:36Z</time>
      </trkpt>
      <trkpt lat="45.67423" lon="6.40344">
        <ele>560.9</ele>
        <time>2016-06-22T09:30:40Z</time>
      </trkpt>
      <trkpt lat="45.6743" lon="6.40355">
        <ele>561.4</ele>
        <time>2016-06-22T09:30:44Z</time>
      </trkpt>
      <trkpt lat="45.6744" lon="6.40355">
        <ele>561.8</ele>
        <time>2016-06-22T09:30:48Z</time>
      </trkpt>
      <trkpt lat="45.67449" lon="6.40347">
        <ele>562.2</ele>
        <time>2016-06-22T09:30:52Z</time>
      </trkpt>
      <trkpt lat="45.67459" lon="6.40343">
        <ele>562.6</ele>
        <time>2016-06-22T09:30:56Z</time>
      </trkpt>
      <trkpt lat="45.67469" lon="6.40345">
        <ele>563</ele>
        <time>2016-06-22T09:31:00Z</time>
      </trkpt>
      <trkpt lat="45.67477" lon="6.40352">
        <ele>563.5</ele>
        <time>2016-06-22T09:31:04Z</time>
      </trkpt>
      <trkpt lat="45.67486" lon="6.40361">
        <ele>564.1</ele>
        <time>2016-06-22T09:31:08Z</time>
      </trkpt>
      <trkpt lat="45.67492" lon="6.40373">
        <ele>564.9</ele>
        <time>2016-06-22T09:31:12Z</time>
      </trkpt>
      <trkpt lat="45.67497" lon="6.40386">
        <ele>565.6</ele>
        <time>2016-06-22T09:31:16Z</time>
      </trkpt>
      <trkpt lat="45.67501" lon="6.404">
        <ele>566.4</ele>
        <time>2016-06-22T09:31:20Z</time>
      </trkpt>
      <trkpt lat="45.67509" lon="6.40412">
        <ele>567.2</ele>
        <time>2016-06-22T09:31:24Z</time>
      </trkpt>
      <trkpt lat="45.67518" lon="6.40421">
        <ele>568.1</ele>
        <time>2016-06-22T09:31:28Z</time>
      </trkpt>
      <trkpt lat="45.67529" lon="6.40427">
        <ele>568.8</ele>
        <time>2016-06-22T09:31:32Z</time>
      </trkpt>
      <trkpt lat="45.6754" lon="6.40432">
        <ele>569.3</ele>
        <time>2016-06-22T09:31:36Z</time>
      </trkpt>
      <trkpt lat="45.67549" lon="6.40433">
        <ele>569.7</ele>
        <time>2016-06-22T09:31:39Z</time>
      </trkpt>
      <trkpt lat="45.67561" lon="6.40434">
        <ele>570.1</ele>
        <time>2016-06-22T09:31:43Z</time>
      </trkpt>
      <trkpt lat="45.6757" lon="6.40433">
        <ele>570.5</ele>
        <time>2016-06-22T09:31:47Z</time>
      </trkpt>
      <trkpt lat="45.67579" lon="6.40432">
        <ele>571.1</ele>
        <time>2016-06-22T09:31:51Z</time>
      </trkpt>
      <trkpt lat="45.6759" lon="6.40431">
        <ele>571.8</ele>
        <time>2016-06-22T09:31:55Z</time>
      </trkpt>
      <trkpt lat="45.67598" lon="6.40439">
        <ele>572.6</ele>
        <time>2016-06-22T09:31:59Z</time>
      </trkpt>
      <trkpt lat="45.67605" lon="6.40451">
        <ele>573.5</ele>
        <time>2016-06-22T09:32:03Z</time>
      </trkpt>
      <trkpt lat="45.67611" lon="6.40463">
        <ele>574.4</ele>
        <time>2016-06-22T09:32:07Z</time>
      </trkpt>
      <trkpt lat="45.67617" lon="6.40474">
        <ele>575.2</ele>
        <time>2016-06-22T09:32:11Z</time>
      </trkpt>
      <trkpt lat="45.67623" lon="6.40485">
        <ele>576.1</ele>
        <time>2016-06-22T09:32:15Z</time>
      </trkpt>
      <trkpt lat="45.6763" lon="6.40496">
        <ele>576.9</ele>
        <time>2016-06-22T09:32:19Z</time>
      </trkpt>
      <trkpt lat="45.67638" lon="6.40507">
        <ele>577.7</ele>
        <time>2016-06-22T09:32:23Z</time>
      </trkpt>
      <trkpt lat="45.67646" lon="6.40519">
        <ele>578.8</ele>
        <time>2016-06-22T09:32:27Z</time>
      </trkpt>
      <trkpt lat="45.67651" lon="6.40531">
        <ele>579.8</ele>
        <time>2016-06-22T09:32:31Z</time>
      </trkpt>
      <trkpt lat="45.67655" lon="6.40543">
        <ele>580.6</ele>
        <time>2016-06-22T09:32:35Z</time>
      </trkpt>
      <trkpt lat="45.67658" lon="6.40557">
        <ele>581.5</ele>
        <time>2016-06-22T09:32:39Z</time>
      </trkpt>
      <trkpt lat="45.67661" lon="6.40571">
        <ele>582.5</ele>
        <time>2016-06-22T09:32:43Z</time>
      </trkpt>
      <trkpt lat="45.6766" lon="6.40585">
        <ele>583.4</ele>
        <time>2016-06-22T09:32:47Z</time>
      </trkpt>
      <trkpt lat="45.67658" lon="6.40599">
        <ele>584.4</ele>
        <time>2016-06-22T09:32:51Z</time>
      </trkpt>
      <trkpt lat="45.67656" lon="6.40613">
        <ele>585.4</ele>
        <time>2016-06-22T09:32:55Z</time>
      </trkpt>
      <trkpt lat="45.67654" lon="6.40626">
        <ele>586.3</ele>
        <time>2016-06-22T09:32:59Z</time>
      </trkpt>
      <trkpt lat="45.6765" lon="6.40639">
        <ele>587.2</ele>
        <time>2016-06-22T09:33:03Z</time>
      </trkpt>
      <trkpt lat="45.67654" lon="6.40654">
        <ele>588.2</ele>
        <time>2016-06-22T09:33:07Z</time>
      </trkpt>
      <trkpt lat="45.67652" lon="6.40669">
        <ele>589</ele>
        <time>2016-06-22T09:33:11Z</time>
      </trkpt>
      <trkpt lat="45.67649" lon="6.40684">
        <ele>590</ele>
        <time>2016-06-22T09:33:15Z</time>
      </trkpt>
      <trkpt lat="45.67644" lon="6.40698">
        <ele>590.8</ele>
        <time>2016-06-22T09:33:19Z</time>
      </trkpt>
      <trkpt lat="45.67639" lon="6.40709">
        <ele>591.2</ele>
        <time>2016-06-22T09:33:22Z</time>
      </trkpt>
      <trkpt lat="45.67631" lon="6.40721">
        <ele>591.9</ele>
        <time>2016-06-22T09:33:26Z</time>
      </trkpt>
      <trkpt lat="45.67625" lon="6.40731">
        <ele>592.3</ele>
        <time>2016-06-22T09:33:29Z</time>
      </trkpt>
      <trkpt lat="45.67619" lon="6.40743">
        <ele>592.6</ele>
        <time>2016-06-22T09:33:32Z</time>
      </trkpt>
      <trkpt lat="45.67616" lon="6.40756">
        <ele>593</ele>
        <time>2016-06-22T09:33:35Z</time>
      </trkpt>
      <trkpt lat="45.67612" lon="6.4077">
        <ele>593.2</ele>
        <time>2016-06-22T09:33:38Z</time>
      </trkpt>
      <trkpt lat="45.67613" lon="6.40785">
        <ele>593.5</ele>
        <time>2016-06-22T09:33:41Z</time>
      </trkpt>
      <trkpt lat="45.67615" lon="6.40798">
        <ele>593.9</ele>
        <time>2016-06-22T09:33:44Z</time>
      </trkpt>
      <trkpt lat="45.67618" lon="6.40811">
        <ele>594.2</ele>
        <time>2016-06-22T09:33:47Z</time>
      </trkpt>
      <trkpt lat="45.67623" lon="6.40822">
        <ele>594.5</ele>
        <time>2016-06-22T09:33:50Z</time>
      </trkpt>
      <trkpt lat="45.67628" lon="6.40833">
        <ele>594.7</ele>
        <time>2016-06-22T09:33:53Z</time>
      </trkpt>
      <trkpt lat="45.67634" lon="6.40844">
        <ele>595.1</ele>
        <time>2016-06-22T09:33:56Z</time>
      </trkpt>
      <trkpt lat="45.67639" lon="6.40855">
        <ele>595.4</ele>
        <time>2016-06-22T09:33:59Z</time>
      </trkpt>
      <trkpt lat="45.67646" lon="6.40868">
        <ele>595.7</ele>
        <time>2016-06-22T09:34:03Z</time>
      </trkpt>
      <trkpt lat="45.67652" lon="6.40879">
        <ele>595.9</ele>
        <time>2016-06-22T09:34:06Z</time>
      </trkpt>
      <trkpt lat="45.67658" lon="6.40893">
        <ele>596.3</ele>
        <time>2016-06-22T09:34:10Z</time>
      </trkpt>
      <trkpt lat="45.67655" lon="6.40906">
        <ele>596.5</ele>
        <time>2016-06-22T09:34:13Z</time>
      </trkpt>
      <trkpt lat="45.67644" lon="6.40913">
        <ele>596.8</ele>
        <time>2016-06-22T09:34:17Z</time>
      </trkpt>
      <trkpt lat="45.67634" lon="6.40917">
        <ele>597.2</ele>
        <time>2016-06-22T09:34:21Z</time>
      </trkpt>
      <trkpt lat="45.67623" lon="6.40919">
        <ele>597.7</ele>
        <time>2016-06-22T09:34:25Z</time>
      </trkpt>
      <trkpt lat="45.67614" lon="6.40927">
        <ele>598.2</ele>
        <time>2016-06-22T09:34:29Z</time>
      </trkpt>
      <trkpt lat="45.67606" lon="6.40939">
        <ele>598.8</ele>
        <time>2016-06-22T09:34:33Z</time>
      </trkpt>
      <trkpt lat="45.67601" lon="6.4095">
        <ele>599.3</ele>
        <time>2016-06-22T09:34:36Z</time>
      </trkpt>
      <trkpt lat="45.67597" lon="6.40962">
        <ele>599.8</ele>
        <time>2016-06-22T09:34:39Z</time>
      </trkpt>
      <trkpt lat="45.67593" lon="6.40978">
        <ele>600.5</ele>
        <time>2016-06-22T09:34:43Z</time>
      </trkpt>
      <trkpt lat="45.6759" lon="6.40993">
        <ele>601.2</ele>
        <time>2016-06-22T09:34:47Z</time>
      </trkpt>
      <trkpt lat="45.67588" lon="6.4101">
        <ele>601.8</ele>
        <time>2016-06-22T09:34:51Z</time>
      </trkpt>
      <trkpt lat="45.67587" lon="6.41026">
        <ele>602.6</ele>
        <time>2016-06-22T09:34:55Z</time>
      </trkpt>
      <trkpt lat="45.67585" lon="6.41041">
        <ele>603.3</ele>
        <time>2016-06-22T09:34:59Z</time>
      </trkpt>
      <trkpt lat="45.67584" lon="6.41056">
        <ele>604</ele>
        <time>2016-06-22T09:35:03Z</time>
      </trkpt>
      <trkpt lat="45.67582" lon="6.4107">
        <ele>604.9</ele>
        <time>2016-06-22T09:35:07Z</time>
      </trkpt>
      <trkpt lat="45.67579" lon="6.41085">
        <ele>605.7</ele>
        <time>2016-06-22T09:35:11Z</time>
      </trkpt>
      <trkpt lat="45.6758" lon="6.41101">
        <ele>606.9</ele>
        <time>2016-06-22T09:35:16Z</time>
      </trkpt>
      <trkpt lat="45.67582" lon="6.41115">
        <ele>607.8</ele>
        <time>2016-06-22T09:35:20Z</time>
      </trkpt>
      <trkpt lat="45.67584" lon="6.4113">
        <ele>608.9</ele>
        <time>2016-06-22T09:35:25Z</time>
      </trkpt>
      <trkpt lat="45.67587" lon="6.41143">
        <ele>609.7</ele>
        <time>2016-06-22T09:35:29Z</time>
      </trkpt>
      <trkpt lat="45.67591" lon="6.41158">
        <ele>610.5</ele>
        <time>2016-06-22T09:35:33Z</time>
      </trkpt>
      <trkpt lat="45.67595" lon="6.41173">
        <ele>611.5</ele>
        <time>2016-06-22T09:35:37Z</time>
      </trkpt>
      <trkpt lat="45.67602" lon="6.41186">
        <ele>612.5</ele>
        <time>2016-06-22T09:35:41Z</time>
      </trkpt>
      <trkpt lat="45.67609" lon="6.41199">
        <ele>613.5</ele>
        <time>2016-06-22T09:35:45Z</time>
      </trkpt>
      <trkpt lat="45.67615" lon="6.4121">
        <ele>614.3</ele>
        <time>2016-06-22T09:35:49Z</time>
      </trkpt>
      <trkpt lat="45.67621" lon="6.41222">
        <ele>615.1</ele>
        <time>2016-06-22T09:35:53Z</time>
      </trkpt>
      <trkpt lat="45.67627" lon="6.41233">
        <ele>615.8</ele>
        <time>2016-06-22T09:35:57Z</time>
      </trkpt>
      <trkpt lat="45.67633" lon="6.41244">
        <ele>616.4</ele>
        <time>2016-06-22T09:36:01Z</time>
      </trkpt>
      <trkpt lat="45.6764" lon="6.41255">
        <ele>617.1</ele>
        <time>2016-06-22T09:36:05Z</time>
      </trkpt>
      <trkpt lat="45.67647" lon="6.41264">
        <ele>617.9</ele>
        <time>2016-06-22T09:36:09Z</time>
      </trkpt>
      <trkpt lat="45.67656" lon="6.41272">
        <ele>618.7</ele>
        <time>2016-06-22T09:36:13Z</time>
      </trkpt>
      <trkpt lat="45.67665" lon="6.4128">
        <ele>619.7</ele>
        <time>2016-06-22T09:36:17Z</time>
      </trkpt>
      <trkpt lat="45.67672" lon="6.4129">
        <ele>620.4</ele>
        <time>2016-06-22T09:36:21Z</time>
      </trkpt>
      <trkpt lat="45.67677" lon="6.41301">
        <ele>621.1</ele>
        <time>2016-06-22T09:36:25Z</time>
      </trkpt>
      <trkpt lat="45.67679" lon="6.41316">
        <ele>622.2</ele>
        <time>2016-06-22T09:36:30Z</time>
      </trkpt>
      <trkpt lat="45.67679" lon="6.4133">
        <ele>623</ele>
        <time>2016-06-22T09:36:35Z</time>
      </trkpt>
      <trkpt lat="45.67674" lon="6.41345">
        <ele>624</ele>
        <time>2016-06-22T09:36:40Z</time>
      </trkpt>
      <trkpt lat="45.67667" lon="6.41355">
        <ele>625.1</ele>
        <time>2016-06-22T09:36:45Z</time>
      </trkpt>
      <trkpt lat="45.67659" lon="6.41366">
        <ele>626.1</ele>
        <time>2016-06-22T09:36:50Z</time>
      </trkpt>
      <trkpt lat="45.67651" lon="6.41378">
        <ele>627.1</ele>
        <time>2016-06-22T09:36:55Z</time>
      </trkpt>
      <trkpt lat="45.67645" lon="6.41387">
        <ele>628</ele>
        <time>2016-06-22T09:36:59Z</time>
      </trkpt>
      <trkpt lat="45.67639" lon="6.41399">
        <ele>629.4</ele>
        <time>2016-06-22T09:37:04Z</time>
      </trkpt>
      <trkpt lat="45.67632" lon="6.41409">
        <ele>630.5</ele>
        <time>2016-06-22T09:37:08Z</time>
      </trkpt>
      <trkpt lat="45.67625" lon="6.41418">
        <ele>631.5</ele>
        <time>2016-06-22T09:37:12Z</time>
      </trkpt>
      <trkpt lat="45.6762" lon="6.4143">
        <ele>632.5</ele>
        <time>2016-06-22T09:37:17Z</time>
      </trkpt>
      <trkpt lat="45.67613" lon="6.41442">
        <ele>633.6</ele>
        <time>2016-06-22T09:37:22Z</time>
      </trkpt>
      <trkpt lat="45.67605" lon="6.41452">
        <ele>634.7</ele>
        <time>2016-06-22T09:37:27Z</time>
      </trkpt>
      <trkpt lat="45.67596" lon="6.4146">
        <ele>635.8</ele>
        <time>2016-06-22T09:37:31Z</time>
      </trkpt>
      <trkpt lat="45.67586" lon="6.41462">
        <ele>636.8</ele>
        <time>2016-06-22T09:37:35Z</time>
      </trkpt>
      <trkpt lat="45.67575" lon="6.41462">
        <ele>637.8</ele>
        <time>2016-06-22T09:37:39Z</time>
      </trkpt>
      <trkpt lat="45.67565" lon="6.4146">
        <ele>638.8</ele>
        <time>2016-06-22T09:37:43Z</time>
      </trkpt>
      <trkpt lat="45.67555" lon="6.41464">
        <ele>640</ele>
        <time>2016-06-22T09:37:48Z</time>
      </trkpt>
      <trkpt lat="45.67551" lon="6.41477">
        <ele>640.8</ele>
        <time>2016-06-22T09:37:52Z</time>
      </trkpt>
      <trkpt lat="45.67556" lon="6.41489">
        <ele>641.6</ele>
        <time>2016-06-22T09:37:56Z</time>
      </trkpt>
      <trkpt lat="45.67567" lon="6.4149">
        <ele>642.3</ele>
        <time>2016-06-22T09:38:00Z</time>
      </trkpt>
      <trkpt lat="45.67578" lon="6.41488">
        <ele>643.3</ele>
        <time>2016-06-22T09:38:05Z</time>
      </trkpt>
      <trkpt lat="45.67587" lon="6.41486">
        <ele>644.2</ele>
        <time>2016-06-22T09:38:09Z</time>
      </trkpt>
      <trkpt lat="45.67597" lon="6.41485">
        <ele>645.4</ele>
        <time>2016-06-22T09:38:14Z</time>
      </trkpt>
      <trkpt lat="45.67608" lon="6.41484">
        <ele>646.4</ele>
        <time>2016-06-22T09:38:18Z</time>
      </trkpt>
      <trkpt lat="45.67617" lon="6.41482">
        <ele>647.4</ele>
        <time>2016-06-22T09:38:22Z</time>
      </trkpt>
      <trkpt lat="45.67627" lon="6.41483">
        <ele>648.3</ele>
        <time>2016-06-22T09:38:26Z</time>
      </trkpt>
      <trkpt lat="45.67638" lon="6.4148">
        <ele>649.6</ele>
        <time>2016-06-22T09:38:31Z</time>
      </trkpt>
      <trkpt lat="45.67648" lon="6.41482">
        <ele>651</ele>
        <time>2016-06-22T09:38:36Z</time>
      </trkpt>
      <trkpt lat="45.67659" lon="6.41485">
        <ele>652.2</ele>
        <time>2016-06-22T09:38:41Z</time>
      </trkpt>
      <trkpt lat="45.67668" lon="6.41488">
        <ele>653.5</ele>
        <time>2016-06-22T09:38:46Z</time>
      </trkpt>
      <trkpt lat="45.67679" lon="6.41486">
        <ele>654.6</ele>
        <time>2016-06-22T09:38:51Z</time>
      </trkpt>
      <trkpt lat="45.67689" lon="6.41482">
        <ele>655.7</ele>
        <time>2016-06-22T09:38:55Z</time>
      </trkpt>
      <trkpt lat="45.67699" lon="6.41472">
        <ele>656.6</ele>
        <time>2016-06-22T09:38:59Z</time>
      </trkpt>
      <trkpt lat="45.67707" lon="6.41464">
        <ele>657.5</ele>
        <time>2016-06-22T09:39:03Z</time>
      </trkpt>
      <trkpt lat="45.67713" lon="6.41455">
        <ele>658.3</ele>
        <time>2016-06-22T09:39:07Z</time>
      </trkpt>
      <trkpt lat="45.6772" lon="6.41444">
        <ele>659.2</ele>
        <time>2016-06-22T09:39:11Z</time>
      </trkpt>
      <trkpt lat="45.67724" lon="6.41431">
        <ele>659.9</ele>
        <time>2016-06-22T09:39:15Z</time>
      </trkpt>
      <trkpt lat="45.67727" lon="6.41418">
        <ele>660.5</ele>
        <time>2016-06-22T09:39:19Z</time>
      </trkpt>
      <trkpt lat="45.67729" lon="6.41405">
        <ele>661.1</ele>
        <time>2016-06-22T09:39:23Z</time>
      </trkpt>
      <trkpt lat="45.67731" lon="6.41392">
        <ele>661.6</ele>
        <time>2016-06-22T09:39:27Z</time>
      </trkpt>
      <trkpt lat="45.67733" lon="6.41379">
        <ele>662.1</ele>
        <time>2016-06-22T09:39:31Z</time>
      </trkpt>
      <trkpt lat="45.67735" lon="6.41366">
        <ele>662.6</ele>
        <time>2016-06-22T09:39:35Z</time>
      </trkpt>
      <trkpt lat="45.6774" lon="6.41354">
        <ele>663.2</ele>
        <time>2016-06-22T09:39:39Z</time>
      </trkpt>
      <trkpt lat="45.67747" lon="6.41346">
        <ele>663.8</ele>
        <time>2016-06-22T09:39:43Z</time>
      </trkpt>
      <trkpt lat="45.67756" lon="6.41343">
        <ele>664.4</ele>
        <time>2016-06-22T09:39:47Z</time>
      </trkpt>
      <trkpt lat="45.67766" lon="6.41346">
        <ele>665.2</ele>
        <time>2016-06-22T09:39:52Z</time>
      </trkpt>
      <trkpt lat="45.67774" lon="6.41354">
        <ele>665.8</ele>
        <time>2016-06-22T09:39:57Z</time>
      </trkpt>
      <trkpt lat="45.67779" lon="6.41367">
        <ele>666.4</ele>
        <time>2016-06-22T09:40:02Z</time>
      </trkpt>
      <trkpt lat="45.67782" lon="6.41381">
        <ele>666.9</ele>
        <time>2016-06-22T09:40:07Z</time>
      </trkpt>
      <trkpt lat="45.67781" lon="6.41396">
        <ele>667.5</ele>
        <time>2016-06-22T09:40:12Z</time>
      </trkpt>
      <trkpt lat="45.67773" lon="6.41406">
        <ele>668.3</ele>
        <time>2016-06-22T09:40:17Z</time>
      </trkpt>
      <trkpt lat="45.67763" lon="6.41411">
        <ele>669.3</ele>
        <time>2016-06-22T09:40:22Z</time>
      </trkpt>
      <trkpt lat="45.67754" lon="6.41419">
        <ele>670.4</ele>
        <time>2016-06-22T09:40:27Z</time>
      </trkpt>
      <trkpt lat="45.67747" lon="6.41428">
        <ele>671.2</ele>
        <time>2016-06-22T09:40:31Z</time>
      </trkpt>
      <trkpt lat="45.67742" lon="6.41442">
        <ele>672.3</ele>
        <time>2016-06-22T09:40:36Z</time>
      </trkpt>
      <trkpt lat="45.6774" lon="6.41456">
        <ele>673.3</ele>
        <time>2016-06-22T09:40:40Z</time>
      </trkpt>
      <trkpt lat="45.67737" lon="6.41468">
        <ele>674.4</ele>
        <time>2016-06-22T09:40:44Z</time>
      </trkpt>
      <trkpt lat="45.67735" lon="6.41482">
        <ele>675.5</ele>
        <time>2016-06-22T09:40:48Z</time>
      </trkpt>
      <trkpt lat="45.67732" lon="6.41495">
        <ele>676.5</ele>
        <time>2016-06-22T09:40:52Z</time>
      </trkpt>
      <trkpt lat="45.67727" lon="6.41507">
        <ele>677.5</ele>
        <time>2016-06-22T09:40:56Z</time>
      </trkpt>
      <trkpt lat="45.67721" lon="6.41518">
        <ele>678.7</ele>
        <time>2016-06-22T09:41:01Z</time>
      </trkpt>
      <trkpt lat="45.67712" lon="6.41524">
        <ele>679.7</ele>
        <time>2016-06-22T09:41:06Z</time>
      </trkpt>
      <trkpt lat="45.67702" lon="6.41526">
        <ele>680.5</ele>
        <time>2016-06-22T09:41:10Z</time>
      </trkpt>
      <trkpt lat="45.67693" lon="6.41534">
        <ele>681.3</ele>
        <time>2016-06-22T09:41:15Z</time>
      </trkpt>
      <trkpt lat="45.6769" lon="6.41548">
        <ele>682</ele>
        <time>2016-06-22T09:41:19Z</time>
      </trkpt>
      <trkpt lat="45.67697" lon="6.41559">
        <ele>682.7</ele>
        <time>2016-06-22T09:41:24Z</time>
      </trkpt>
      <trkpt lat="45.67707" lon="6.41556">
        <ele>683.4</ele>
        <time>2016-06-22T09:41:28Z</time>
      </trkpt>
      <trkpt lat="45.67716" lon="6.4155">
        <ele>684.2</ele>
        <time>2016-06-22T09:41:32Z</time>
      </trkpt>
      <trkpt lat="45.67724" lon="6.41542">
        <ele>685.2</ele>
        <time>2016-06-22T09:41:36Z</time>
      </trkpt>
      <trkpt lat="45.67732" lon="6.41534">
        <ele>686.3</ele>
        <time>2016-06-22T09:41:40Z</time>
      </trkpt>
      <trkpt lat="45.6774" lon="6.41524">
        <ele>687.6</ele>
        <time>2016-06-22T09:41:45Z</time>
      </trkpt>
      <trkpt lat="45.67746" lon="6.41514">
        <ele>688.7</ele>
        <time>2016-06-22T09:41:49Z</time>
      </trkpt>
      <trkpt lat="45.67754" lon="6.41505">
        <ele>689.6</ele>
        <time>2016-06-22T09:41:53Z</time>
      </trkpt>
      <trkpt lat="45.67761" lon="6.41493">
        <ele>690.6</ele>
        <time>2016-06-22T09:41:57Z</time>
      </trkpt>
      <trkpt lat="45.67769" lon="6.41485">
        <ele>691.6</ele>
        <time>2016-06-22T09:42:01Z</time>
      </trkpt>
      <trkpt lat="45.67777" lon="6.41478">
        <ele>692.5</ele>
        <time>2016-06-22T09:42:05Z</time>
      </trkpt>
      <trkpt lat="45.67787" lon="6.41472">
        <ele>693.5</ele>
        <time>2016-06-22T09:42:10Z</time>
      </trkpt>
      <trkpt lat="45.67796" lon="6.41468">
        <ele>694.5</ele>
        <time>2016-06-22T09:42:15Z</time>
      </trkpt>
      <trkpt lat="45.67806" lon="6.4146">
        <ele>695.5</ele>
        <time>2016-06-22T09:42:20Z</time>
      </trkpt>
      <trkpt lat="45.67814" lon="6.41452">
        <ele>696.5</ele>
        <time>2016-06-22T09:42:24Z</time>
      </trkpt>
      <trkpt lat="45.67822" lon="6.41441">
        <ele>697.7</ele>
        <time>2016-06-22T09:42:29Z</time>
      </trkpt>
      <trkpt lat="45.67833" lon="6.41439">
        <ele>698.9</ele>
        <time>2016-06-22T09:42:34Z</time>
      </trkpt>
      <trkpt lat="45.67842" lon="6.41443">
        <ele>700.2</ele>
        <time>2016-06-22T09:42:39Z</time>
      </trkpt>
      <trkpt lat="45.67852" lon="6.41447">
        <ele>701.6</ele>
        <time>2016-06-22T09:42:45Z</time>
      </trkpt>
      <trkpt lat="45.67862" lon="6.41448">
        <ele>702.6</ele>
        <time>2016-06-22T09:42:49Z</time>
      </trkpt>
      <trkpt lat="45.67872" lon="6.41449">
        <ele>703.5</ele>
        <time>2016-06-22T09:42:53Z</time>
      </trkpt>
      <trkpt lat="45.67881" lon="6.41452">
        <ele>704.7</ele>
        <time>2016-06-22T09:42:58Z</time>
      </trkpt>
      <trkpt lat="45.67891" lon="6.41454">
        <ele>705.8</ele>
        <time>2016-06-22T09:43:03Z</time>
      </trkpt>
      <trkpt lat="45.679" lon="6.4146">
        <ele>706.9</ele>
        <time>2016-06-22T09:43:08Z</time>
      </trkpt>
      <trkpt lat="45.67909" lon="6.41465">
        <ele>707.7</ele>
        <time>2016-06-22T09:43:12Z</time>
      </trkpt>
      <trkpt lat="45.6792" lon="6.41469">
        <ele>708.9</ele>
        <time>2016-06-22T09:43:17Z</time>
      </trkpt>
      <trkpt lat="45.67931" lon="6.41472">
        <ele>709.8</ele>
        <time>2016-06-22T09:43:21Z</time>
      </trkpt>
      <trkpt lat="45.6794" lon="6.41472">
        <ele>711</ele>
        <time>2016-06-22T09:43:26Z</time>
      </trkpt>
      <trkpt lat="45.6795" lon="6.4148">
        <ele>712</ele>
        <time>2016-06-22T09:43:31Z</time>
      </trkpt>
      <trkpt lat="45.67957" lon="6.41488">
        <ele>713.2</ele>
        <time>2016-06-22T09:43:36Z</time>
      </trkpt>
      <trkpt lat="45.67965" lon="6.41495">
        <ele>714.4</ele>
        <time>2016-06-22T09:43:41Z</time>
      </trkpt>
      <trkpt lat="45.67971" lon="6.41507">
        <ele>715.5</ele>
        <time>2016-06-22T09:43:46Z</time>
      </trkpt>
      <trkpt lat="45.67977" lon="6.41521">
        <ele>716.6</ele>
        <time>2016-06-22T09:43:51Z</time>
      </trkpt>
      <trkpt lat="45.67982" lon="6.41534">
        <ele>717.4</ele>
        <time>2016-06-22T09:43:55Z</time>
      </trkpt>
      <trkpt lat="45.67986" lon="6.41547">
        <ele>718.3</ele>
        <time>2016-06-22T09:43:59Z</time>
      </trkpt>
      <trkpt lat="45.67991" lon="6.41561">
        <ele>719.3</ele>
        <time>2016-06-22T09:44:04Z</time>
      </trkpt>
      <trkpt lat="45.67998" lon="6.41571">
        <ele>720.4</ele>
        <time>2016-06-22T09:44:09Z</time>
      </trkpt>
      <trkpt lat="45.68006" lon="6.41578">
        <ele>721</ele>
        <time>2016-06-22T09:44:12Z</time>
      </trkpt>
      <trkpt lat="45.68015" lon="6.41588">
        <ele>721.8</ele>
        <time>2016-06-22T09:44:16Z</time>
      </trkpt>
      <trkpt lat="45.68023" lon="6.41596">
        <ele>722.5</ele>
        <time>2016-06-22T09:44:20Z</time>
      </trkpt>
      <trkpt lat="45.68032" lon="6.41604">
        <ele>723.1</ele>
        <time>2016-06-22T09:44:24Z</time>
      </trkpt>
      <trkpt lat="45.68041" lon="6.41611">
        <ele>723.8</ele>
        <time>2016-06-22T09:44:28Z</time>
      </trkpt>
      <trkpt lat="45.6805" lon="6.41619">
        <ele>724.4</ele>
        <time>2016-06-22T09:44:32Z</time>
      </trkpt>
      <trkpt lat="45.68059" lon="6.41624">
        <ele>725.1</ele>
        <time>2016-06-22T09:44:36Z</time>
      </trkpt>
      <trkpt lat="45.6807" lon="6.41629">
        <ele>725.8</ele>
        <time>2016-06-22T09:44:40Z</time>
      </trkpt>
      <trkpt lat="45.6808" lon="6.41637">
        <ele>726.6</ele>
        <time>2016-06-22T09:44:45Z</time>
      </trkpt>
      <trkpt lat="45.6809" lon="6.41643">
        <ele>727.2</ele>
        <time>2016-06-22T09:44:49Z</time>
      </trkpt>
      <trkpt lat="45.68098" lon="6.41649">
        <ele>727.7</ele>
        <time>2016-06-22T09:44:53Z</time>
      </trkpt>
      <trkpt lat="45.68107" lon="6.41657">
        <ele>728.3</ele>
        <time>2016-06-22T09:44:57Z</time>
      </trkpt>
      <trkpt lat="45.68116" lon="6.41665">
        <ele>728.9</ele>
        <time>2016-06-22T09:45:01Z</time>
      </trkpt>
      <trkpt lat="45.68125" lon="6.4167">
        <ele>729.5</ele>
        <time>2016-06-22T09:45:05Z</time>
      </trkpt>
      <trkpt lat="45.68134" lon="6.41676">
        <ele>730.2</ele>
        <time>2016-06-22T09:45:09Z</time>
      </trkpt>
      <trkpt lat="45.68144" lon="6.41681">
        <ele>731</ele>
        <time>2016-06-22T09:45:13Z</time>
      </trkpt>
      <trkpt lat="45.68154" lon="6.41685">
        <ele>731.8</ele>
        <time>2016-06-22T09:45:17Z</time>
      </trkpt>
      <trkpt lat="45.68164" lon="6.41691">
        <ele>732.7</ele>
        <time>2016-06-22T09:45:21Z</time>
      </trkpt>
      <trkpt lat="45.68174" lon="6.41697">
        <ele>733.7</ele>
        <time>2016-06-22T09:45:26Z</time>
      </trkpt>
      <trkpt lat="45.68183" lon="6.417">
        <ele>735.1</ele>
        <time>2016-06-22T09:45:32Z</time>
      </trkpt>
      <trkpt lat="45.68192" lon="6.41706">
        <ele>736.1</ele>
        <time>2016-06-22T09:45:37Z</time>
      </trkpt>
      <trkpt lat="45.682" lon="6.41715">
        <ele>736.9</ele>
        <time>2016-06-22T09:45:41Z</time>
      </trkpt>
      <trkpt lat="45.68208" lon="6.41723">
        <ele>737.8</ele>
        <time>2016-06-22T09:45:45Z</time>
      </trkpt>
      <trkpt lat="45.68215" lon="6.41733">
        <ele>738.6</ele>
        <time>2016-06-22T09:45:49Z</time>
      </trkpt>
      <trkpt lat="45.68222" lon="6.41743">
        <ele>739.4</ele>
        <time>2016-06-22T09:45:53Z</time>
      </trkpt>
      <trkpt lat="45.68229" lon="6.41752">
        <ele>740.1</ele>
        <time>2016-06-22T09:45:57Z</time>
      </trkpt>
      <trkpt lat="45.68236" lon="6.41763">
        <ele>740.8</ele>
        <time>2016-06-22T09:46:01Z</time>
      </trkpt>
      <trkpt lat="45.68243" lon="6.41773">
        <ele>741.6</ele>
        <time>2016-06-22T09:46:05Z</time>
      </trkpt>
      <trkpt lat="45.68247" lon="6.41787">
        <ele>742.5</ele>
        <time>2016-06-22T09:46:10Z</time>
      </trkpt>
      <trkpt lat="45.68253" lon="6.41799">
        <ele>743.2</ele>
        <time>2016-06-22T09:46:14Z</time>
      </trkpt>
      <trkpt lat="45.6826" lon="6.41811">
        <ele>743.9</ele>
        <time>2016-06-22T09:46:18Z</time>
      </trkpt>
      <trkpt lat="45.68264" lon="6.41824">
        <ele>744.6</ele>
        <time>2016-06-22T09:46:22Z</time>
      </trkpt>
      <trkpt lat="45.68269" lon="6.41838">
        <ele>745.3</ele>
        <time>2016-06-22T09:46:26Z</time>
      </trkpt>
      <trkpt lat="45.68274" lon="6.41851">
        <ele>746</ele>
        <time>2016-06-22T09:46:30Z</time>
      </trkpt>
      <trkpt lat="45.68279" lon="6.41863">
        <ele>746.8</ele>
        <time>2016-06-22T09:46:34Z</time>
      </trkpt>
      <trkpt lat="45.68285" lon="6.41875">
        <ele>747.6</ele>
        <time>2016-06-22T09:46:38Z</time>
      </trkpt>
      <trkpt lat="45.68292" lon="6.41886">
        <ele>748.3</ele>
        <time>2016-06-22T09:46:42Z</time>
      </trkpt>
      <trkpt lat="45.68298" lon="6.41896">
        <ele>749.1</ele>
        <time>2016-06-22T09:46:46Z</time>
      </trkpt>
      <trkpt lat="45.68305" lon="6.41907">
        <ele>749.8</ele>
        <time>2016-06-22T09:46:50Z</time>
      </trkpt>
      <trkpt lat="45.68311" lon="6.41918">
        <ele>750.5</ele>
        <time>2016-06-22T09:46:54Z</time>
      </trkpt>
      <trkpt lat="45.68316" lon="6.41931">
        <ele>751.2</ele>
        <time>2016-06-22T09:46:58Z</time>
      </trkpt>
      <trkpt lat="45.68318" lon="6.41948">
        <ele>752</ele>
        <time>2016-06-22T09:47:02Z</time>
      </trkpt>
      <trkpt lat="45.6832" lon="6.41963">
        <ele>752.5</ele>
        <time>2016-06-22T09:47:06Z</time>
      </trkpt>
      <trkpt lat="45.68324" lon="6.41979">
        <ele>753</ele>
        <time>2016-06-22T09:47:10Z</time>
      </trkpt>
      <trkpt lat="45.68327" lon="6.41993">
        <ele>753.3</ele>
        <time>2016-06-22T09:47:14Z</time>
      </trkpt>
      <trkpt lat="45.68331" lon="6.42007">
        <ele>753.6</ele>
        <time>2016-06-22T09:47:18Z</time>
      </trkpt>
      <trkpt lat="45.68336" lon="6.42021">
        <ele>753.8</ele>
        <time>2016-06-22T09:47:22Z</time>
      </trkpt>
      <trkpt lat="45.6834" lon="6.42036">
        <ele>754</ele>
        <time>2016-06-22T09:47:26Z</time>
      </trkpt>
      <trkpt lat="45.68345" lon="6.4205">
        <ele>754.2</ele>
        <time>2016-06-22T09:47:30Z</time>
      </trkpt>
      <trkpt lat="45.68352" lon="6.42063">
        <ele>754.4</ele>
        <time>2016-06-22T09:47:34Z</time>
      </trkpt>
      <trkpt lat="45.68361" lon="6.42074">
        <ele>754.6</ele>
        <time>2016-06-22T09:47:38Z</time>
      </trkpt>
      <trkpt lat="45.68371" lon="6.42083">
        <ele>754.9</ele>
        <time>2016-06-22T09:47:42Z</time>
      </trkpt>
      <trkpt lat="45.68378" lon="6.4209">
        <ele>755.3</ele>
        <time>2016-06-22T09:47:45Z</time>
      </trkpt>
      <trkpt lat="45.68385" lon="6.42104">
        <ele>755.8</ele>
        <time>2016-06-22T09:47:49Z</time>
      </trkpt>
      <trkpt lat="45.68381" lon="6.42116">
        <ele>756.2</ele>
        <time>2016-06-22T09:47:53Z</time>
      </trkpt>
      <trkpt lat="45.68372" lon="6.42111">
        <ele>756.7</ele>
        <time>2016-06-22T09:47:57Z</time>
      </trkpt>
      <trkpt lat="45.68364" lon="6.42101">
        <ele>757.5</ele>
        <time>2016-06-22T09:48:02Z</time>
      </trkpt>
      <trkpt lat="45.68355" lon="6.42093">
        <ele>758.4</ele>
        <time>2016-06-22T09:48:07Z</time>
      </trkpt>
      <trkpt lat="45.68344" lon="6.42091">
        <ele>759.5</ele>
        <time>2016-06-22T09:48:12Z</time>
      </trkpt>
      <trkpt lat="45.68334" lon="6.42087">
        <ele>760.8</ele>
        <time>2016-06-22T09:48:17Z</time>
      </trkpt>
      <trkpt lat="45.68325" lon="6.42081">
        <ele>761.8</ele>
        <time>2016-06-22T09:48:21Z</time>
      </trkpt>
      <trkpt lat="45.68318" lon="6.42071">
        <ele>762.8</ele>
        <time>2016-06-22T09:48:25Z</time>
      </trkpt>
      <trkpt lat="45.68312" lon="6.4206">
        <ele>763.9</ele>
        <time>2016-06-22T09:48:29Z</time>
      </trkpt>
      <trkpt lat="45.68306" lon="6.42048">
        <ele>765.1</ele>
        <time>2016-06-22T09:48:33Z</time>
      </trkpt>
      <trkpt lat="45.683" lon="6.42038">
        <ele>766.2</ele>
        <time>2016-06-22T09:48:37Z</time>
      </trkpt>
      <trkpt lat="45.68293" lon="6.42028">
        <ele>767.4</ele>
        <time>2016-06-22T09:48:41Z</time>
      </trkpt>
      <trkpt lat="45.68288" lon="6.42014">
        <ele>768.5</ele>
        <time>2016-06-22T09:48:46Z</time>
      </trkpt>
      <trkpt lat="45.68284" lon="6.42002">
        <ele>769.3</ele>
        <time>2016-06-22T09:48:50Z</time>
      </trkpt>
      <trkpt lat="45.6828" lon="6.41987">
        <ele>770</ele>
        <time>2016-06-22T09:48:55Z</time>
      </trkpt>
      <trkpt lat="45.68275" lon="6.41973">
        <ele>770.7</ele>
        <time>2016-06-22T09:49:00Z</time>
      </trkpt>
      <trkpt lat="45.6827" lon="6.4196">
        <ele>771.3</ele>
        <time>2016-06-22T09:49:04Z</time>
      </trkpt>
      <trkpt lat="45.68265" lon="6.4195">
        <ele>772</ele>
        <time>2016-06-22T09:49:08Z</time>
      </trkpt>
      <trkpt lat="45.68257" lon="6.41938">
        <ele>772.6</ele>
        <time>2016-06-22T09:49:12Z</time>
      </trkpt>
      <trkpt lat="45.6825" lon="6.41927">
        <ele>773.3</ele>
        <time>2016-06-22T09:49:16Z</time>
      </trkpt>
      <trkpt lat="45.68244" lon="6.41916">
        <ele>774.7</ele>
        <time>2016-06-22T09:49:22Z</time>
      </trkpt>
      <trkpt lat="45.68237" lon="6.41905">
        <ele>775.9</ele>
        <time>2016-06-22T09:49:27Z</time>
      </trkpt>
      <trkpt lat="45.68229" lon="6.41894">
        <ele>777.8</ele>
        <time>2016-06-22T09:49:34Z</time>
      </trkpt>
      <trkpt lat="45.68223" lon="6.41881">
        <ele>779.1</ele>
        <time>2016-06-22T09:49:39Z</time>
      </trkpt>
      <trkpt lat="45.68217" lon="6.4187">
        <ele>779.9</ele>
        <time>2016-06-22T09:49:42Z</time>
      </trkpt>
      <trkpt lat="45.68213" lon="6.41858">
        <ele>780.9</ele>
        <time>2016-06-22T09:49:46Z</time>
      </trkpt>
      <trkpt lat="45.68211" lon="6.41843">
        <ele>782.3</ele>
        <time>2016-06-22T09:49:51Z</time>
      </trkpt>
      <trkpt lat="45.68207" lon="6.41831">
        <ele>783.3</ele>
        <time>2016-06-22T09:49:55Z</time>
      </trkpt>
      <trkpt lat="45.68201" lon="6.4182">
        <ele>784.2</ele>
        <time>2016-06-22T09:49:59Z</time>
      </trkpt>
      <trkpt lat="45.68195" lon="6.41807">
        <ele>785.4</ele>
        <time>2016-06-22T09:50:04Z</time>
      </trkpt>
      <trkpt lat="45.68189" lon="6.41793">
        <ele>786.9</ele>
        <time>2016-06-22T09:50:10Z</time>
      </trkpt>
      <trkpt lat="45.68185" lon="6.41782">
        <ele>787.8</ele>
        <time>2016-06-22T09:50:14Z</time>
      </trkpt>
      <trkpt lat="45.68177" lon="6.41772">
        <ele>788.4</ele>
        <time>2016-06-22T09:50:17Z</time>
      </trkpt>
      <trkpt lat="45.68166" lon="6.41769">
        <ele>789.1</ele>
        <time>2016-06-22T09:50:21Z</time>
      </trkpt>
      <trkpt lat="45.68158" lon="6.41776">
        <ele>789.8</ele>
        <time>2016-06-22T09:50:25Z</time>
      </trkpt>
      <trkpt lat="45.68157" lon="6.4179">
        <ele>790.5</ele>
        <time>2016-06-22T09:50:29Z</time>
      </trkpt>
      <trkpt lat="45.68165" lon="6.41799">
        <ele>791.2</ele>
        <time>2016-06-22T09:50:33Z</time>
      </trkpt>
      <trkpt lat="45.68173" lon="6.41808">
        <ele>792</ele>
        <time>2016-06-22T09:50:37Z</time>
      </trkpt>
      <trkpt lat="45.68177" lon="6.41821">
        <ele>793</ele>
        <time>2016-06-22T09:50:42Z</time>
      </trkpt>
      <trkpt lat="45.68181" lon="6.41833">
        <ele>793.9</ele>
        <time>2016-06-22T09:50:46Z</time>
      </trkpt>
      <trkpt lat="45.68183" lon="6.41847">
        <ele>794.7</ele>
        <time>2016-06-22T09:50:50Z</time>
      </trkpt>
      <trkpt lat="45.68186" lon="6.41861">
        <ele>795.4</ele>
        <time>2016-06-22T09:50:54Z</time>
      </trkpt>
      <trkpt lat="45.6819" lon="6.41875">
        <ele>796.4</ele>
        <time>2016-06-22T09:50:59Z</time>
      </trkpt>
      <trkpt lat="45.68193" lon="6.41888">
        <ele>797.2</ele>
        <time>2016-06-22T09:51:03Z</time>
      </trkpt>
      <trkpt lat="45.68195" lon="6.41902">
        <ele>798</ele>
        <time>2016-06-22T09:51:07Z</time>
      </trkpt>
      <trkpt lat="45.68195" lon="6.41916">
        <ele>798.7</ele>
        <time>2016-06-22T09:51:11Z</time>
      </trkpt>
      <trkpt lat="45.68194" lon="6.4193">
        <ele>799.3</ele>
        <time>2016-06-22T09:51:14Z</time>
      </trkpt>
      <trkpt lat="45.68199" lon="6.41943">
        <ele>800.1</ele>
        <time>2016-06-22T09:51:18Z</time>
      </trkpt>
      <trkpt lat="45.68203" lon="6.41956">
        <ele>800.9</ele>
        <time>2016-06-22T09:51:22Z</time>
      </trkpt>
      <trkpt lat="45.68205" lon="6.41969">
        <ele>801.7</ele>
        <time>2016-06-22T09:51:26Z</time>
      </trkpt>
      <trkpt lat="45.68211" lon="6.41981">
        <ele>802.5</ele>
        <time>2016-06-22T09:51:30Z</time>
      </trkpt>
      <trkpt lat="45.68214" lon="6.41996">
        <ele>803.5</ele>
        <time>2016-06-22T09:51:35Z</time>
      </trkpt>
      <trkpt lat="45.68218" lon="6.42008">
        <ele>804.4</ele>
        <time>2016-06-22T09:51:39Z</time>
      </trkpt>
      <trkpt lat="45.68222" lon="6.42023">
        <ele>805.2</ele>
        <time>2016-06-22T09:51:43Z</time>
      </trkpt>
      <trkpt lat="45.68223" lon="6.42036">
        <ele>806</ele>
        <time>2016-06-22T09:51:46Z</time>
      </trkpt>
      <trkpt lat="45.68224" lon="6.42051">
        <ele>806.9</ele>
        <time>2016-06-22T09:51:50Z</time>
      </trkpt>
      <trkpt lat="45.68225" lon="6.42065">
        <ele>807.8</ele>
        <time>2016-06-22T09:51:54Z</time>
      </trkpt>
      <trkpt lat="45.68226" lon="6.42079">
        <ele>808.7</ele>
        <time>2016-06-22T09:51:58Z</time>
      </trkpt>
      <trkpt lat="45.68228" lon="6.42093">
        <ele>809.6</ele>
        <time>2016-06-22T09:52:02Z</time>
      </trkpt>
      <trkpt lat="45.68232" lon="6.42107">
        <ele>810.4</ele>
        <time>2016-06-22T09:52:06Z</time>
      </trkpt>
      <trkpt lat="45.68237" lon="6.42121">
        <ele>811.2</ele>
        <time>2016-06-22T09:52:10Z</time>
      </trkpt>
      <trkpt lat="45.68246" lon="6.42132">
        <ele>812</ele>
        <time>2016-06-22T09:52:14Z</time>
      </trkpt>
      <trkpt lat="45.68251" lon="6.42144">
        <ele>812.7</ele>
        <time>2016-06-22T09:52:18Z</time>
      </trkpt>
      <trkpt lat="45.68258" lon="6.42154">
        <ele>813.4</ele>
        <time>2016-06-22T09:52:22Z</time>
      </trkpt>
      <trkpt lat="45.68265" lon="6.42166">
        <ele>814.4</ele>
        <time>2016-06-22T09:52:27Z</time>
      </trkpt>
      <trkpt lat="45.6827" lon="6.42176">
        <ele>815.2</ele>
        <time>2016-06-22T09:52:31Z</time>
      </trkpt>
      <trkpt lat="45.68276" lon="6.4219">
        <ele>816.1</ele>
        <time>2016-06-22T09:52:36Z</time>
      </trkpt>
      <trkpt lat="45.68282" lon="6.42203">
        <ele>817</ele>
        <time>2016-06-22T09:52:41Z</time>
      </trkpt>
      <trkpt lat="45.68288" lon="6.42215">
        <ele>817.8</ele>
        <time>2016-06-22T09:52:46Z</time>
      </trkpt>
      <trkpt lat="45.68294" lon="6.42225">
        <ele>818.7</ele>
        <time>2016-06-22T09:52:50Z</time>
      </trkpt>
      <trkpt lat="45.68301" lon="6.42235">
        <ele>819.5</ele>
        <time>2016-06-22T09:52:54Z</time>
      </trkpt>
      <trkpt lat="45.68306" lon="6.42246">
        <ele>820.2</ele>
        <time>2016-06-22T09:52:58Z</time>
      </trkpt>
      <trkpt lat="45.68311" lon="6.42257">
        <ele>820.9</ele>
        <time>2016-06-22T09:53:02Z</time>
      </trkpt>
      <trkpt lat="45.68314" lon="6.4227">
        <ele>821.5</ele>
        <time>2016-06-22T09:53:06Z</time>
      </trkpt>
      <trkpt lat="45.68316" lon="6.42283">
        <ele>822.2</ele>
        <time>2016-06-22T09:53:10Z</time>
      </trkpt>
      <trkpt lat="45.68321" lon="6.42295">
        <ele>822.8</ele>
        <time>2016-06-22T09:53:14Z</time>
      </trkpt>
      <trkpt lat="45.68328" lon="6.42305">
        <ele>823.4</ele>
        <time>2016-06-22T09:53:18Z</time>
      </trkpt>
      <trkpt lat="45.68334" lon="6.42316">
        <ele>824.1</ele>
        <time>2016-06-22T09:53:22Z</time>
      </trkpt>
      <trkpt lat="45.6834" lon="6.42329">
        <ele>824.7</ele>
        <time>2016-06-22T09:53:26Z</time>
      </trkpt>
      <trkpt lat="45.6834" lon="6.42343">
        <ele>825.4</ele>
        <time>2016-06-22T09:53:30Z</time>
      </trkpt>
      <trkpt lat="45.68331" lon="6.42347">
        <ele>826.1</ele>
        <time>2016-06-22T09:53:34Z</time>
      </trkpt>
      <trkpt lat="45.68324" lon="6.42337">
        <ele>826.7</ele>
        <time>2016-06-22T09:53:38Z</time>
      </trkpt>
      <trkpt lat="45.6832" lon="6.42324">
        <ele>827.2</ele>
        <time>2016-06-22T09:53:42Z</time>
      </trkpt>
      <trkpt lat="45.68314" lon="6.42312">
        <ele>827.6</ele>
        <time>2016-06-22T09:53:47Z</time>
      </trkpt>
      <trkpt lat="45.68307" lon="6.42301">
        <ele>828</ele>
        <time>2016-06-22T09:53:52Z</time>
      </trkpt>
      <trkpt lat="45.683" lon="6.4229">
        <ele>828.4</ele>
        <time>2016-06-22T09:53:57Z</time>
      </trkpt>
      <trkpt lat="45.68291" lon="6.4228">
        <ele>829</ele>
        <time>2016-06-22T09:54:01Z</time>
      </trkpt>
      <trkpt lat="45.68284" lon="6.42271">
        <ele>829.7</ele>
        <time>2016-06-22T09:54:05Z</time>
      </trkpt>
      <trkpt lat="45.68277" lon="6.42261">
        <ele>830.5</ele>
        <time>2016-06-22T09:54:09Z</time>
      </trkpt>
      <trkpt lat="45.6827" lon="6.42249">
        <ele>831.8</ele>
        <time>2016-06-22T09:54:14Z</time>
      </trkpt>
      <trkpt lat="45.68262" lon="6.42239">
        <ele>832.8</ele>
        <time>2016-06-22T09:54:18Z</time>
      </trkpt>
      <trkpt lat="45.68256" lon="6.42228">
        <ele>833.6</ele>
        <time>2016-06-22T09:54:21Z</time>
      </trkpt>
      <trkpt lat="45.68247" lon="6.42219">
        <ele>835</ele>
        <time>2016-06-22T09:54:26Z</time>
      </trkpt>
      <trkpt lat="45.68239" lon="6.4221">
        <ele>836.6</ele>
        <time>2016-06-22T09:54:32Z</time>
      </trkpt>
      <trkpt lat="45.6823" lon="6.42202">
        <ele>838</ele>
        <time>2016-06-22T09:54:38Z</time>
      </trkpt>
      <trkpt lat="45.68222" lon="6.42194">
        <ele>839.1</ele>
        <time>2016-06-22T09:54:43Z</time>
      </trkpt>
      <trkpt lat="45.68214" lon="6.42185">
        <ele>840.1</ele>
        <time>2016-06-22T09:54:48Z</time>
      </trkpt>
      <trkpt lat="45.68206" lon="6.42177">
        <ele>841.1</ele>
        <time>2016-06-22T09:54:53Z</time>
      </trkpt>
      <trkpt lat="45.68198" lon="6.42168">
        <ele>842.1</ele>
        <time>2016-06-22T09:54:58Z</time>
      </trkpt>
      <trkpt lat="45.68192" lon="6.42155">
        <ele>843.1</ele>
        <time>2016-06-22T09:55:03Z</time>
      </trkpt>
      <trkpt lat="45.68187" lon="6.42141">
        <ele>844.2</ele>
        <time>2016-06-22T09:55:08Z</time>
      </trkpt>
      <trkpt lat="45.68185" lon="6.42127">
        <ele>845.3</ele>
        <time>2016-06-22T09:55:13Z</time>
      </trkpt>
      <trkpt lat="45.68181" lon="6.42114">
        <ele>846.4</ele>
        <time>2016-06-22T09:55:18Z</time>
      </trkpt>
      <trkpt lat="45.68182" lon="6.42101">
        <ele>847.2</ele>
        <time>2016-06-22T09:55:22Z</time>
      </trkpt>
      <trkpt lat="45.68182" lon="6.42085">
        <ele>848</ele>
        <time>2016-06-22T09:55:26Z</time>
      </trkpt>
      <trkpt lat="45.6818" lon="6.4207">
        <ele>849</ele>
        <time>2016-06-22T09:55:31Z</time>
      </trkpt>
      <trkpt lat="45.68177" lon="6.42055">
        <ele>849.7</ele>
        <time>2016-06-22T09:55:36Z</time>
      </trkpt>
      <trkpt lat="45.68171" lon="6.42044">
        <ele>850.1</ele>
        <time>2016-06-22T09:55:40Z</time>
      </trkpt>
      <trkpt lat="45.68162" lon="6.42034">
        <ele>850.5</ele>
        <time>2016-06-22T09:55:44Z</time>
      </trkpt>
      <trkpt lat="45.68155" lon="6.42024">
        <ele>850.9</ele>
        <time>2016-06-22T09:55:48Z</time>
      </trkpt>
      <trkpt lat="45.68147" lon="6.42013">
        <ele>851.6</ele>
        <time>2016-06-22T09:55:53Z</time>
      </trkpt>
      <trkpt lat="45.68139" lon="6.42003">
        <ele>852.1</ele>
        <time>2016-06-22T09:55:57Z</time>
      </trkpt>
      <trkpt lat="45.68132" lon="6.41994">
        <ele>852.6</ele>
        <time>2016-06-22T09:56:01Z</time>
      </trkpt>
      <trkpt lat="45.68124" lon="6.41985">
        <ele>853.1</ele>
        <time>2016-06-22T09:56:05Z</time>
      </trkpt>
      <trkpt lat="45.68117" lon="6.41978">
        <ele>853.6</ele>
        <time>2016-06-22T09:56:09Z</time>
      </trkpt>
      <trkpt lat="45.68109" lon="6.41969">
        <ele>854</ele>
        <time>2016-06-22T09:56:13Z</time>
      </trkpt>
      <trkpt lat="45.68102" lon="6.41961">
        <ele>854.4</ele>
        <time>2016-06-22T09:56:17Z</time>
      </trkpt>
      <trkpt lat="45.68093" lon="6.41952">
        <ele>854.8</ele>
        <time>2016-06-22T09:56:21Z</time>
      </trkpt>
      <trkpt lat="45.68084" lon="6.41944">
        <ele>855.1</ele>
        <time>2016-06-22T09:56:25Z</time>
      </trkpt>
      <trkpt lat="45.68075" lon="6.41937">
        <ele>855.5</ele>
        <time>2016-06-22T09:56:29Z</time>
      </trkpt>
      <trkpt lat="45.68065" lon="6.41929">
        <ele>855.9</ele>
        <time>2016-06-22T09:56:33Z</time>
      </trkpt>
      <trkpt lat="45.68055" lon="6.41923">
        <ele>856.4</ele>
        <time>2016-06-22T09:56:37Z</time>
      </trkpt>
      <trkpt lat="45.68045" lon="6.41917">
        <ele>857</ele>
        <time>2016-06-22T09:56:41Z</time>
      </trkpt>
      <trkpt lat="45.68036" lon="6.4191">
        <ele>857.4</ele>
        <time>2016-06-22T09:56:45Z</time>
      </trkpt>
      <trkpt lat="45.68026" lon="6.41905">
        <ele>857.8</ele>
        <time>2016-06-22T09:56:49Z</time>
      </trkpt>
      <trkpt lat="45.68015" lon="6.41909">
        <ele>858.3</ele>
        <time>2016-06-22T09:56:53Z</time>
      </trkpt>
      <trkpt lat="45.68011" lon="6.41922">
        <ele>858.7</ele>
        <time>2016-06-22T09:56:57Z</time>
      </trkpt>
      <trkpt lat="45.68016" lon="6.41937">
        <ele>859.2</ele>
        <time>2016-06-22T09:57:01Z</time>
      </trkpt>
      <trkpt lat="45.68024" lon="6.41947">
        <ele>859.6</ele>
        <time>2016-06-22T09:57:05Z</time>
      </trkpt>
      <trkpt lat="45.68034" lon="6.41953">
        <ele>860.2</ele>
        <time>2016-06-22T09:57:09Z</time>
      </trkpt>
      <trkpt lat="45.68043" lon="6.41957">
        <ele>860.9</ele>
        <time>2016-06-22T09:57:13Z</time>
      </trkpt>
      <trkpt lat="45.68053" lon="6.41961">
        <ele>861.7</ele>
        <time>2016-06-22T09:57:17Z</time>
      </trkpt>
      <trkpt lat="45.68063" lon="6.41966">
        <ele>862.5</ele>
        <time>2016-06-22T09:57:21Z</time>
      </trkpt>
      <trkpt lat="45.68072" lon="6.41972">
        <ele>863.5</ele>
        <time>2016-06-22T09:57:25Z</time>
      </trkpt>
      <trkpt lat="45.6808" lon="6.41981">
        <ele>864.5</ele>
        <time>2016-06-22T09:57:29Z</time>
      </trkpt>
      <trkpt lat="45.68086" lon="6.41992">
        <ele>865.5</ele>
        <time>2016-06-22T09:57:33Z</time>
      </trkpt>
      <trkpt lat="45.68092" lon="6.42005">
        <ele>866.3</ele>
        <time>2016-06-22T09:57:37Z</time>
      </trkpt>
      <trkpt lat="45.68098" lon="6.42019">
        <ele>867.1</ele>
        <time>2016-06-22T09:57:41Z</time>
      </trkpt>
      <trkpt lat="45.68105" lon="6.42031">
        <ele>867.7</ele>
        <time>2016-06-22T09:57:45Z</time>
      </trkpt>
      <trkpt lat="45.68112" lon="6.42045">
        <ele>868.3</ele>
        <time>2016-06-22T09:57:49Z</time>
      </trkpt>
      <trkpt lat="45.6812" lon="6.42057">
        <ele>868.7</ele>
        <time>2016-06-22T09:57:53Z</time>
      </trkpt>
      <trkpt lat="45.68125" lon="6.4207">
        <ele>869.1</ele>
        <time>2016-06-22T09:57:57Z</time>
      </trkpt>
      <trkpt lat="45.68121" lon="6.42083">
        <ele>869.4</ele>
        <time>2016-06-22T09:58:01Z</time>
      </trkpt>
      <trkpt lat="45.6811" lon="6.42081">
        <ele>869.7</ele>
        <time>2016-06-22T09:58:05Z</time>
      </trkpt>
      <trkpt lat="45.68102" lon="6.4207">
        <ele>870.1</ele>
        <time>2016-06-22T09:58:09Z</time>
      </trkpt>
      <trkpt lat="45.68097" lon="6.42057">
        <ele>870.7</ele>
        <time>2016-06-22T09:58:13Z</time>
      </trkpt>
      <trkpt lat="45.68092" lon="6.42044">
        <ele>871.4</ele>
        <time>2016-06-22T09:58:17Z</time>
      </trkpt>
      <trkpt lat="45.68087" lon="6.42032">
        <ele>872.1</ele>
        <time>2016-06-22T09:58:21Z</time>
      </trkpt>
      <trkpt lat="45.6808" lon="6.4202">
        <ele>872.9</ele>
        <time>2016-06-22T09:58:25Z</time>
      </trkpt>
      <trkpt lat="45.68072" lon="6.4201">
        <ele>873.7</ele>
        <time>2016-06-22T09:58:29Z</time>
      </trkpt>
      <trkpt lat="45.68062" lon="6.42004">
        <ele>874.5</ele>
        <time>2016-06-22T09:58:33Z</time>
      </trkpt>
      <trkpt lat="45.68052" lon="6.42">
        <ele>875.2</ele>
        <time>2016-06-22T09:58:37Z</time>
      </trkpt>
      <trkpt lat="45.68041" lon="6.41998">
        <ele>876.1</ele>
        <time>2016-06-22T09:58:41Z</time>
      </trkpt>
      <trkpt lat="45.68032" lon="6.41996">
        <ele>877</ele>
        <time>2016-06-22T09:58:45Z</time>
      </trkpt>
      <trkpt lat="45.68022" lon="6.41995">
        <ele>877.9</ele>
        <time>2016-06-22T09:58:49Z</time>
      </trkpt>
      <trkpt lat="45.68013" lon="6.41993">
        <ele>879</ele>
        <time>2016-06-22T09:58:53Z</time>
      </trkpt>
      <trkpt lat="45.68003" lon="6.41993">
        <ele>880</ele>
        <time>2016-06-22T09:58:57Z</time>
      </trkpt>
      <trkpt lat="45.67994" lon="6.41989">
        <ele>881.1</ele>
        <time>2016-06-22T09:59:01Z</time>
      </trkpt>
      <trkpt lat="45.67986" lon="6.4198">
        <ele>882.2</ele>
        <time>2016-06-22T09:59:05Z</time>
      </trkpt>
      <trkpt lat="45.6798" lon="6.4197">
        <ele>883.1</ele>
        <time>2016-06-22T09:59:09Z</time>
      </trkpt>
      <trkpt lat="45.67972" lon="6.4196">
        <ele>884.1</ele>
        <time>2016-06-22T09:59:13Z</time>
      </trkpt>
      <trkpt lat="45.67964" lon="6.41952">
        <ele>884.8</ele>
        <time>2016-06-22T09:59:16Z</time>
      </trkpt>
      <trkpt lat="45.67955" lon="6.41944">
        <ele>885.5</ele>
        <time>2016-06-22T09:59:20Z</time>
      </trkpt>
      <trkpt lat="45.67945" lon="6.41937">
        <ele>886.4</ele>
        <time>2016-06-22T09:59:25Z</time>
      </trkpt>
      <trkpt lat="45.67936" lon="6.4193">
        <ele>887.3</ele>
        <time>2016-06-22T09:59:29Z</time>
      </trkpt>
      <trkpt lat="45.67926" lon="6.41921">
        <ele>888.3</ele>
        <time>2016-06-22T09:59:33Z</time>
      </trkpt>
      <trkpt lat="45.67919" lon="6.41913">
        <ele>889.2</ele>
        <time>2016-06-22T09:59:37Z</time>
      </trkpt>
      <trkpt lat="45.67912" lon="6.41902">
        <ele>889.9</ele>
        <time>2016-06-22T09:59:41Z</time>
      </trkpt>
      <trkpt lat="45.67901" lon="6.41898">
        <ele>890.6</ele>
        <time>2016-06-22T09:59:45Z</time>
      </trkpt>
      <trkpt lat="45.67895" lon="6.41908">
        <ele>891.2</ele>
        <time>2016-06-22T09:59:49Z</time>
      </trkpt>
      <trkpt lat="45.679" lon="6.41922">
        <ele>891.7</ele>
        <time>2016-06-22T09:59:54Z</time>
      </trkpt>
      <trkpt lat="45.67909" lon="6.41928">
        <ele>892.2</ele>
        <time>2016-06-22T09:59:58Z</time>
      </trkpt>
      <trkpt lat="45.67919" lon="6.41936">
        <ele>893.1</ele>
        <time>2016-06-22T10:00:03Z</time>
      </trkpt>
      <trkpt lat="45.67926" lon="6.41948">
        <ele>894.1</ele>
        <time>2016-06-22T10:00:08Z</time>
      </trkpt>
      <trkpt lat="45.67931" lon="6.41959">
        <ele>895</ele>
        <time>2016-06-22T10:00:12Z</time>
      </trkpt>
      <trkpt lat="45.67935" lon="6.41971">
        <ele>895.8</ele>
        <time>2016-06-22T10:00:16Z</time>
      </trkpt>
      <trkpt lat="45.67939" lon="6.41983">
        <ele>896.8</ele>
        <time>2016-06-22T10:00:20Z</time>
      </trkpt>
      <trkpt lat="45.67946" lon="6.41996">
        <ele>897.9</ele>
        <time>2016-06-22T10:00:25Z</time>
      </trkpt>
      <trkpt lat="45.67952" lon="6.4201">
        <ele>899.1</ele>
        <time>2016-06-22T10:00:30Z</time>
      </trkpt>
      <trkpt lat="45.67959" lon="6.42021">
        <ele>900.1</ele>
        <time>2016-06-22T10:00:34Z</time>
      </trkpt>
      <trkpt lat="45.67966" lon="6.42029">
        <ele>900.9</ele>
        <time>2016-06-22T10:00:38Z</time>
      </trkpt>
      <trkpt lat="45.67975" lon="6.42038">
        <ele>902.2</ele>
        <time>2016-06-22T10:00:43Z</time>
      </trkpt>
      <trkpt lat="45.67983" lon="6.42045">
        <ele>903.4</ele>
        <time>2016-06-22T10:00:48Z</time>
      </trkpt>
      <trkpt lat="45.6799" lon="6.42053">
        <ele>904.3</ele>
        <time>2016-06-22T10:00:52Z</time>
      </trkpt>
      <trkpt lat="45.67997" lon="6.42064">
        <ele>905.2</ele>
        <time>2016-06-22T10:00:57Z</time>
      </trkpt>
      <trkpt lat="45.68004" lon="6.42077">
        <ele>906.2</ele>
        <time>2016-06-22T10:01:02Z</time>
      </trkpt>
      <trkpt lat="45.68011" lon="6.42087">
        <ele>907</ele>
        <time>2016-06-22T10:01:06Z</time>
      </trkpt>
      <trkpt lat="45.68017" lon="6.42097">
        <ele>907.8</ele>
        <time>2016-06-22T10:01:10Z</time>
      </trkpt>
      <trkpt lat="45.68025" lon="6.42107">
        <ele>908.5</ele>
        <time>2016-06-22T10:01:14Z</time>
      </trkpt>
      <trkpt lat="45.68034" lon="6.42118">
        <ele>909.5</ele>
        <time>2016-06-22T10:01:19Z</time>
      </trkpt>
      <trkpt lat="45.68041" lon="6.42127">
        <ele>910.2</ele>
        <time>2016-06-22T10:01:23Z</time>
      </trkpt>
      <trkpt lat="45.68048" lon="6.42137">
        <ele>910.7</ele>
        <time>2016-06-22T10:01:27Z</time>
      </trkpt>
      <trkpt lat="45.68055" lon="6.42145">
        <ele>911.2</ele>
        <time>2016-06-22T10:01:31Z</time>
      </trkpt>
      <trkpt lat="45.68062" lon="6.42158">
        <ele>911.8</ele>
        <time>2016-06-22T10:01:36Z</time>
      </trkpt>
      <trkpt lat="45.68065" lon="6.42171">
        <ele>912.4</ele>
        <time>2016-06-22T10:01:41Z</time>
      </trkpt>
      <trkpt lat="45.68066" lon="6.42187">
        <ele>913.3</ele>
        <time>2016-06-22T10:01:46Z</time>
      </trkpt>
      <trkpt lat="45.68065" lon="6.42201">
        <ele>914.1</ele>
        <time>2016-06-22T10:01:50Z</time>
      </trkpt>
      <trkpt lat="45.6807" lon="6.42215">
        <ele>914.8</ele>
        <time>2016-06-22T10:01:54Z</time>
      </trkpt>
      <trkpt lat="45.68077" lon="6.42228">
        <ele>915.6</ele>
        <time>2016-06-22T10:01:58Z</time>
      </trkpt>
      <trkpt lat="45.68083" lon="6.42241">
        <ele>916.5</ele>
        <time>2016-06-22T10:02:02Z</time>
      </trkpt>
      <trkpt lat="45.6809" lon="6.42254">
        <ele>917.3</ele>
        <time>2016-06-22T10:02:06Z</time>
      </trkpt>
      <trkpt lat="45.68094" lon="6.42268">
        <ele>918</ele>
        <time>2016-06-22T10:02:10Z</time>
      </trkpt>
      <trkpt lat="45.68097" lon="6.42284">
        <ele>918.7</ele>
        <time>2016-06-22T10:02:14Z</time>
      </trkpt>
      <trkpt lat="45.68099" lon="6.42299">
        <ele>919.3</ele>
        <time>2016-06-22T10:02:18Z</time>
      </trkpt>
      <trkpt lat="45.68101" lon="6.42313">
        <ele>920</ele>
        <time>2016-06-22T10:02:22Z</time>
      </trkpt>
      <trkpt lat="45.68102" lon="6.4233">
        <ele>920.7</ele>
        <time>2016-06-22T10:02:26Z</time>
      </trkpt>
      <trkpt lat="45.68103" lon="6.42346">
        <ele>921.4</ele>
        <time>2016-06-22T10:02:30Z</time>
      </trkpt>
      <trkpt lat="45.68105" lon="6.42362">
        <ele>922.1</ele>
        <time>2016-06-22T10:02:34Z</time>
      </trkpt>
      <trkpt lat="45.68108" lon="6.42378">
        <ele>922.9</ele>
        <time>2016-06-22T10:02:38Z</time>
      </trkpt>
      <trkpt lat="45.6811" lon="6.42394">
        <ele>923.7</ele>
        <time>2016-06-22T10:02:42Z</time>
      </trkpt>
      <trkpt lat="45.68114" lon="6.42409">
        <ele>924.3</ele>
        <time>2016-06-22T10:02:46Z</time>
      </trkpt>
      <trkpt lat="45.68118" lon="6.42425">
        <ele>925</ele>
        <time>2016-06-22T10:02:50Z</time>
      </trkpt>
      <trkpt lat="45.68123" lon="6.42439">
        <ele>925.8</ele>
        <time>2016-06-22T10:02:54Z</time>
      </trkpt>
      <trkpt lat="45.68131" lon="6.4245">
        <ele>926.5</ele>
        <time>2016-06-22T10:02:58Z</time>
      </trkpt>
      <trkpt lat="45.68139" lon="6.42457">
        <ele>927</ele>
        <time>2016-06-22T10:03:01Z</time>
      </trkpt>
      <trkpt lat="45.68148" lon="6.42467">
        <ele>927.6</ele>
        <time>2016-06-22T10:03:05Z</time>
      </trkpt>
      <trkpt lat="45.68151" lon="6.4248">
        <ele>928.3</ele>
        <time>2016-06-22T10:03:09Z</time>
      </trkpt>
      <trkpt lat="45.68142" lon="6.42483">
        <ele>929</ele>
        <time>2016-06-22T10:03:15Z</time>
      </trkpt>
      <trkpt lat="45.68135" lon="6.42475">
        <ele>929.6</ele>
        <time>2016-06-22T10:03:20Z</time>
      </trkpt>
      <trkpt lat="45.68128" lon="6.42464">
        <ele>930.3</ele>
        <time>2016-06-22T10:03:25Z</time>
      </trkpt>
      <trkpt lat="45.68121" lon="6.42452">
        <ele>931.1</ele>
        <time>2016-06-22T10:03:30Z</time>
      </trkpt>
      <trkpt lat="45.68116" lon="6.42441">
        <ele>932</ele>
        <time>2016-06-22T10:03:35Z</time>
      </trkpt>
      <trkpt lat="45.68111" lon="6.42428">
        <ele>933</ele>
        <time>2016-06-22T10:03:41Z</time>
      </trkpt>
      <trkpt lat="45.68107" lon="6.42415">
        <ele>934.1</ele>
        <time>2016-06-22T10:03:47Z</time>
      </trkpt>
      <trkpt lat="45.68101" lon="6.42403">
        <ele>935.3</ele>
        <time>2016-06-22T10:03:53Z</time>
      </trkpt>
      <trkpt lat="45.68093" lon="6.4239">
        <ele>936.2</ele>
        <time>2016-06-22T10:03:58Z</time>
      </trkpt>
      <trkpt lat="45.68086" lon="6.42378">
        <ele>937.2</ele>
        <time>2016-06-22T10:04:03Z</time>
      </trkpt>
      <trkpt lat="45.68078" lon="6.42368">
        <ele>938.1</ele>
        <time>2016-06-22T10:04:07Z</time>
      </trkpt>
      <trkpt lat="45.6807" lon="6.42358">
        <ele>938.6</ele>
        <time>2016-06-22T10:04:10Z</time>
      </trkpt>
      <trkpt lat="45.68067" lon="6.42345">
        <ele>939.6</ele>
        <time>2016-06-22T10:04:15Z</time>
      </trkpt>
      <trkpt lat="45.68065" lon="6.42331">
        <ele>940.8</ele>
        <time>2016-06-22T10:04:21Z</time>
      </trkpt>
      <trkpt lat="45.68057" lon="6.4232">
        <ele>941.9</ele>
        <time>2016-06-22T10:04:26Z</time>
      </trkpt>
      <trkpt lat="45.68051" lon="6.42311">
        <ele>942.4</ele>
        <time>2016-06-22T10:04:29Z</time>
      </trkpt>
      <trkpt lat="45.68041" lon="6.42301">
        <ele>943.3</ele>
        <time>2016-06-22T10:04:33Z</time>
      </trkpt>
      <trkpt lat="45.68033" lon="6.42294">
        <ele>944.1</ele>
        <time>2016-06-22T10:04:37Z</time>
      </trkpt>
      <trkpt lat="45.68024" lon="6.42287">
        <ele>945</ele>
        <time>2016-06-22T10:04:42Z</time>
      </trkpt>
      <trkpt lat="45.68016" lon="6.42276">
        <ele>946.4</ele>
        <time>2016-06-22T10:04:48Z</time>
      </trkpt>
      <trkpt lat="45.6801" lon="6.42265">
        <ele>947.4</ele>
        <time>2016-06-22T10:04:52Z</time>
      </trkpt>
      <trkpt lat="45.68006" lon="6.42254">
        <ele>948.5</ele>
        <time>2016-06-22T10:04:57Z</time>
      </trkpt>
      <trkpt lat="45.68001" lon="6.42241">
        <ele>949.7</ele>
        <time>2016-06-22T10:05:02Z</time>
      </trkpt>
      <trkpt lat="45.67993" lon="6.4223">
        <ele>950.8</ele>
        <time>2016-06-22T10:05:07Z</time>
      </trkpt>
      <trkpt lat="45.67985" lon="6.42224">
        <ele>951.8</ele>
        <time>2016-06-22T10:05:12Z</time>
      </trkpt>
      <trkpt lat="45.67975" lon="6.42221">
        <ele>952.7</ele>
        <time>2016-06-22T10:05:17Z</time>
      </trkpt>
      <trkpt lat="45.67966" lon="6.42223">
        <ele>953.9</ele>
        <time>2016-06-22T10:05:23Z</time>
      </trkpt>
      <trkpt lat="45.67955" lon="6.42219">
        <ele>955.2</ele>
        <time>2016-06-22T10:05:29Z</time>
      </trkpt>
      <trkpt lat="45.67946" lon="6.42212">
        <ele>956.6</ele>
        <time>2016-06-22T10:05:35Z</time>
      </trkpt>
      <trkpt lat="45.67939" lon="6.42203">
        <ele>957.2</ele>
        <time>2016-06-22T10:05:38Z</time>
      </trkpt>
      <trkpt lat="45.67936" lon="6.4219">
        <ele>958</ele>
        <time>2016-06-22T10:05:42Z</time>
      </trkpt>
      <trkpt lat="45.67935" lon="6.42175">
        <ele>958.8</ele>
        <time>2016-06-22T10:05:46Z</time>
      </trkpt>
      <trkpt lat="45.6793" lon="6.42162">
        <ele>959.3</ele>
        <time>2016-06-22T10:05:49Z</time>
      </trkpt>
      <trkpt lat="45.67927" lon="6.42148">
        <ele>960</ele>
        <time>2016-06-22T10:05:53Z</time>
      </trkpt>
      <trkpt lat="45.67918" lon="6.42137">
        <ele>960.6</ele>
        <time>2016-06-22T10:05:57Z</time>
      </trkpt>
      <trkpt lat="45.6791" lon="6.42132">
        <ele>961.1</ele>
        <time>2016-06-22T10:06:01Z</time>
      </trkpt>
      <trkpt lat="45.67899" lon="6.42128">
        <ele>961.8</ele>
        <time>2016-06-22T10:06:06Z</time>
      </trkpt>
      <trkpt lat="45.67889" lon="6.42123">
        <ele>962.5</ele>
        <time>2016-06-22T10:06:10Z</time>
      </trkpt>
      <trkpt lat="45.6788" lon="6.42122">
        <ele>963.2</ele>
        <time>2016-06-22T10:06:14Z</time>
      </trkpt>
      <trkpt lat="45.67872" lon="6.42119">
        <ele>964</ele>
        <time>2016-06-22T10:06:18Z</time>
      </trkpt>
      <trkpt lat="45.67863" lon="6.42116">
        <ele>964.8</ele>
        <time>2016-06-22T10:06:22Z</time>
      </trkpt>
      <trkpt lat="45.67852" lon="6.42115">
        <ele>965.6</ele>
        <time>2016-06-22T10:06:26Z</time>
      </trkpt>
      <trkpt lat="45.67841" lon="6.42114">
        <ele>966.6</ele>
        <time>2016-06-22T10:06:31Z</time>
      </trkpt>
      <trkpt lat="45.67829" lon="6.4211">
        <ele>967.3</ele>
        <time>2016-06-22T10:06:35Z</time>
      </trkpt>
      <trkpt lat="45.67821" lon="6.42105">
        <ele>968</ele>
        <time>2016-06-22T10:06:39Z</time>
      </trkpt>
      <trkpt lat="45.67817" lon="6.42092">
        <ele>969</ele>
        <time>2016-06-22T10:06:44Z</time>
      </trkpt>
      <trkpt lat="45.67815" lon="6.42076">
        <ele>970</ele>
        <time>2016-06-22T10:06:49Z</time>
      </trkpt>
      <trkpt lat="45.67811" lon="6.42063">
        <ele>970.8</ele>
        <time>2016-06-22T10:06:53Z</time>
      </trkpt>
      <trkpt lat="45.67806" lon="6.42052">
        <ele>971.3</ele>
        <time>2016-06-22T10:06:56Z</time>
      </trkpt>
      <trkpt lat="45.67798" lon="6.42041">
        <ele>972.1</ele>
        <time>2016-06-22T10:07:01Z</time>
      </trkpt>
      <trkpt lat="45.67788" lon="6.42035">
        <ele>972.7</ele>
        <time>2016-06-22T10:07:05Z</time>
      </trkpt>
      <trkpt lat="45.67777" lon="6.42039">
        <ele>973.3</ele>
        <time>2016-06-22T10:07:09Z</time>
      </trkpt>
      <trkpt lat="45.67772" lon="6.42051">
        <ele>973.8</ele>
        <time>2016-06-22T10:07:13Z</time>
      </trkpt>
      <trkpt lat="45.67776" lon="6.42063">
        <ele>974.3</ele>
        <time>2016-06-22T10:07:17Z</time>
      </trkpt>
      <trkpt lat="45.67786" lon="6.42069">
        <ele>974.7</ele>
        <time>2016-06-22T10:07:21Z</time>
      </trkpt>
      <trkpt lat="45.67795" lon="6.42078">
        <ele>975.4</ele>
        <time>2016-06-22T10:07:26Z</time>
      </trkpt>
      <trkpt lat="45.67798" lon="6.42091">
        <ele>976</ele>
        <time>2016-06-22T10:07:30Z</time>
      </trkpt>
      <trkpt lat="45.67795" lon="6.42103">
        <ele>976.7</ele>
        <time>2016-06-22T10:07:34Z</time>
      </trkpt>
      <trkpt lat="45.67796" lon="6.42118">
        <ele>978</ele>
        <time>2016-06-22T10:07:39Z</time>
      </trkpt>
      <trkpt lat="45.67802" lon="6.42131">
        <ele>979.2</ele>
        <time>2016-06-22T10:07:44Z</time>
      </trkpt>
      <trkpt lat="45.67811" lon="6.42138">
        <ele>980.6</ele>
        <time>2016-06-22T10:07:49Z</time>
      </trkpt>
      <trkpt lat="45.67819" lon="6.42142">
        <ele>981.7</ele>
        <time>2016-06-22T10:07:53Z</time>
      </trkpt>
      <trkpt lat="45.67828" lon="6.42147">
        <ele>983.1</ele>
        <time>2016-06-22T10:07:58Z</time>
      </trkpt>
      <trkpt lat="45.67838" lon="6.42151">
        <ele>984.4</ele>
        <time>2016-06-22T10:08:03Z</time>
      </trkpt>
      <trkpt lat="45.67849" lon="6.42152">
        <ele>985.8</ele>
        <time>2016-06-22T10:08:08Z</time>
      </trkpt>
      <trkpt lat="45.67859" lon="6.42157">
        <ele>987.9</ele>
        <time>2016-06-22T10:08:16Z</time>
      </trkpt>
      <trkpt lat="45.67868" lon="6.42165">
        <ele>988.9</ele>
        <time>2016-06-22T10:08:20Z</time>
      </trkpt>
      <trkpt lat="45.67872" lon="6.42177">
        <ele>990</ele>
        <time>2016-06-22T10:08:24Z</time>
      </trkpt>
      <trkpt lat="45.67871" lon="6.42191">
        <ele>991.2</ele>
        <time>2016-06-22T10:08:29Z</time>
      </trkpt>
      <trkpt lat="45.67868" lon="6.42204">
        <ele>992.3</ele>
        <time>2016-06-22T10:08:34Z</time>
      </trkpt>
      <trkpt lat="45.67867" lon="6.42219">
        <ele>993.3</ele>
        <time>2016-06-22T10:08:40Z</time>
      </trkpt>
      <trkpt lat="45.67865" lon="6.42234">
        <ele>994.6</ele>
        <time>2016-06-22T10:08:46Z</time>
      </trkpt>
      <trkpt lat="45.67862" lon="6.42247">
        <ele>995.8</ele>
        <time>2016-06-22T10:08:51Z</time>
      </trkpt>
      <trkpt lat="45.67858" lon="6.42258">
        <ele>996.9</ele>
        <time>2016-06-22T10:08:56Z</time>
      </trkpt>
      <trkpt lat="45.67852" lon="6.42272">
        <ele>998.1</ele>
        <time>2016-06-22T10:09:01Z</time>
      </trkpt>
      <trkpt lat="45.67846" lon="6.42284">
        <ele>999.2</ele>
        <time>2016-06-22T10:09:06Z</time>
      </trkpt>
      <trkpt lat="45.67841" lon="6.42295">
        <ele>1000.1</ele>
        <time>2016-06-22T10:09:10Z</time>
      </trkpt>
      <trkpt lat="45.67833" lon="6.42305">
        <ele>1001.3</ele>
        <time>2016-06-22T10:09:15Z</time>
      </trkpt>
      <trkpt lat="45.67831" lon="6.42319">
        <ele>1002.2</ele>
        <time>2016-06-22T10:09:19Z</time>
      </trkpt>
      <trkpt lat="45.67834" lon="6.42334">
        <ele>1002.9</ele>
        <time>2016-06-22T10:09:23Z</time>
      </trkpt>
      <trkpt lat="45.67836" lon="6.42349">
        <ele>1003.8</ele>
        <time>2016-06-22T10:09:28Z</time>
      </trkpt>
      <trkpt lat="45.6783" lon="6.42358">
        <ele>1004.8</ele>
        <time>2016-06-22T10:09:34Z</time>
      </trkpt>
      <trkpt lat="45.67821" lon="6.42354">
        <ele>1005.8</ele>
        <time>2016-06-22T10:09:39Z</time>
      </trkpt>
      <trkpt lat="45.67817" lon="6.4234">
        <ele>1007.1</ele>
        <time>2016-06-22T10:09:45Z</time>
      </trkpt>
      <trkpt lat="45.67818" lon="6.42325">
        <ele>1008.4</ele>
        <time>2016-06-22T10:09:52Z</time>
      </trkpt>
      <trkpt lat="45.67822" lon="6.42313">
        <ele>1009.3</ele>
        <time>2016-06-22T10:09:57Z</time>
      </trkpt>
      <trkpt lat="45.67827" lon="6.423">
        <ele>1010</ele>
        <time>2016-06-22T10:10:02Z</time>
      </trkpt>
      <trkpt lat="45.6783" lon="6.42286">
        <ele>1010.8</ele>
        <time>2016-06-22T10:10:07Z</time>
      </trkpt>
      <trkpt lat="45.67832" lon="6.42272">
        <ele>1011.8</ele>
        <time>2016-06-22T10:10:12Z</time>
      </trkpt>
      <trkpt lat="45.67829" lon="6.42259">
        <ele>1012.8</ele>
        <time>2016-06-22T10:10:18Z</time>
      </trkpt>
      <trkpt lat="45.67823" lon="6.4225">
        <ele>1013.5</ele>
        <time>2016-06-22T10:10:22Z</time>
      </trkpt>
      <trkpt lat="45.67814" lon="6.42244">
        <ele>1014.5</ele>
        <time>2016-06-22T10:10:27Z</time>
      </trkpt>
      <trkpt lat="45.67803" lon="6.42244">
        <ele>1015.5</ele>
        <time>2016-06-22T10:10:33Z</time>
      </trkpt>
      <trkpt lat="45.67796" lon="6.42252">
        <ele>1016.1</ele>
        <time>2016-06-22T10:10:37Z</time>
      </trkpt>
      <trkpt lat="45.67788" lon="6.42261">
        <ele>1016.8</ele>
        <time>2016-06-22T10:10:42Z</time>
      </trkpt>
      <trkpt lat="45.67779" lon="6.4227">
        <ele>1017.5</ele>
        <time>2016-06-22T10:10:47Z</time>
      </trkpt>
      <trkpt lat="45.6777" lon="6.42279">
        <ele>1018.1</ele>
        <time>2016-06-22T10:10:52Z</time>
      </trkpt>
      <trkpt lat="45.67765" lon="6.42292">
        <ele>1018.7</ele>
        <time>2016-06-22T10:10:57Z</time>
      </trkpt>
      <trkpt lat="45.67766" lon="6.42307">
        <ele>1019.5</ele>
        <time>2016-06-22T10:11:02Z</time>
      </trkpt>
      <trkpt lat="45.67768" lon="6.42321">
        <ele>1020.4</ele>
        <time>2016-06-22T10:11:07Z</time>
      </trkpt>
      <trkpt lat="45.67774" lon="6.42334">
        <ele>1021.3</ele>
        <time>2016-06-22T10:11:12Z</time>
      </trkpt>
      <trkpt lat="45.67778" lon="6.42347">
        <ele>1022.6</ele>
        <time>2016-06-22T10:11:18Z</time>
      </trkpt>
      <trkpt lat="45.67781" lon="6.4236">
        <ele>1023.4</ele>
        <time>2016-06-22T10:11:22Z</time>
      </trkpt>
      <trkpt lat="45.67782" lon="6.42372">
        <ele>1024.1</ele>
        <time>2016-06-22T10:11:25Z</time>
      </trkpt>
      <trkpt lat="45.67788" lon="6.42383">
        <ele>1025</ele>
        <time>2016-06-22T10:11:29Z</time>
      </trkpt>
      <trkpt lat="45.67792" lon="6.42396">
        <ele>1026.1</ele>
        <time>2016-06-22T10:11:34Z</time>
      </trkpt>
      <trkpt lat="45.678" lon="6.42407">
        <ele>1027.3</ele>
        <time>2016-06-22T10:11:39Z</time>
      </trkpt>
      <trkpt lat="45.67808" lon="6.42413">
        <ele>1028.4</ele>
        <time>2016-06-22T10:11:44Z</time>
      </trkpt>
      <trkpt lat="45.67818" lon="6.4242">
        <ele>1029.8</ele>
        <time>2016-06-22T10:11:51Z</time>
      </trkpt>
      <trkpt lat="45.67826" lon="6.42424">
        <ele>1030.4</ele>
        <time>2016-06-22T10:11:54Z</time>
      </trkpt>
      <trkpt lat="45.67836" lon="6.4243">
        <ele>1031.4</ele>
        <time>2016-06-22T10:12:00Z</time>
      </trkpt>
      <trkpt lat="45.67843" lon="6.42439">
        <ele>1032.1</ele>
        <time>2016-06-22T10:12:04Z</time>
      </trkpt>
      <trkpt lat="45.67851" lon="6.42447">
        <ele>1032.8</ele>
        <time>2016-06-22T10:12:08Z</time>
      </trkpt>
      <trkpt lat="45.67857" lon="6.42457">
        <ele>1033.5</ele>
        <time>2016-06-22T10:12:12Z</time>
      </trkpt>
      <trkpt lat="45.67863" lon="6.42469">
        <ele>1034.3</ele>
        <time>2016-06-22T10:12:17Z</time>
      </trkpt>
      <trkpt lat="45.67858" lon="6.42481">
        <ele>1035.2</ele>
        <time>2016-06-22T10:12:22Z</time>
      </trkpt>
      <trkpt lat="45.67849" lon="6.42476">
        <ele>1036.3</ele>
        <time>2016-06-22T10:12:29Z</time>
      </trkpt>
      <trkpt lat="45.67842" lon="6.42468">
        <ele>1037.2</ele>
        <time>2016-06-22T10:12:34Z</time>
      </trkpt>
      <trkpt lat="45.67834" lon="6.4246">
        <ele>1038.6</ele>
        <time>2016-06-22T10:12:41Z</time>
      </trkpt>
      <trkpt lat="45.67824" lon="6.42457">
        <ele>1039.8</ele>
        <time>2016-06-22T10:12:47Z</time>
      </trkpt>
      <trkpt lat="45.67815" lon="6.42457">
        <ele>1040.8</ele>
        <time>2016-06-22T10:12:51Z</time>
      </trkpt>
      <trkpt lat="45.67806" lon="6.42456">
        <ele>1041.7</ele>
        <time>2016-06-22T10:12:55Z</time>
      </trkpt>
      <trkpt lat="45.67796" lon="6.42455">
        <ele>1042.3</ele>
        <time>2016-06-22T10:12:58Z</time>
      </trkpt>
      <trkpt lat="45.67786" lon="6.42452">
        <ele>1043.4</ele>
        <time>2016-06-22T10:13:03Z</time>
      </trkpt>
      <trkpt lat="45.67778" lon="6.42445">
        <ele>1044.3</ele>
        <time>2016-06-22T10:13:07Z</time>
      </trkpt>
      <trkpt lat="45.67769" lon="6.42439">
        <ele>1045.1</ele>
        <time>2016-06-22T10:13:11Z</time>
      </trkpt>
      <trkpt lat="45.67761" lon="6.42432">
        <ele>1046.3</ele>
        <time>2016-06-22T10:13:16Z</time>
      </trkpt>
      <trkpt lat="45.67751" lon="6.42433">
        <ele>1047.4</ele>
        <time>2016-06-22T10:13:21Z</time>
      </trkpt>
      <trkpt lat="45.67741" lon="6.42435">
        <ele>1048.4</ele>
        <time>2016-06-22T10:13:26Z</time>
      </trkpt>
      <trkpt lat="45.67733" lon="6.42441">
        <ele>1049.4</ele>
        <time>2016-06-22T10:13:31Z</time>
      </trkpt>
      <trkpt lat="45.67727" lon="6.42454">
        <ele>1050.2</ele>
        <time>2016-06-22T10:13:36Z</time>
      </trkpt>
      <trkpt lat="45.67726" lon="6.42469">
        <ele>1050.8</ele>
        <time>2016-06-22T10:13:41Z</time>
      </trkpt>
      <trkpt lat="45.67727" lon="6.42483">
        <ele>1051.4</ele>
        <time>2016-06-22T10:13:46Z</time>
      </trkpt>
      <trkpt lat="45.67731" lon="6.42497">
        <ele>1051.9</ele>
        <time>2016-06-22T10:13:51Z</time>
      </trkpt>
      <trkpt lat="45.67739" lon="6.42509">
        <ele>1052.5</ele>
        <time>2016-06-22T10:13:56Z</time>
      </trkpt>
      <trkpt lat="45.67748" lon="6.42513">
        <ele>1053</ele>
        <time>2016-06-22T10:14:00Z</time>
      </trkpt>
      <trkpt lat="45.67757" lon="6.4251">
        <ele>1053.7</ele>
        <time>2016-06-22T10:14:05Z</time>
      </trkpt>
      <trkpt lat="45.67767" lon="6.42504">
        <ele>1054.3</ele>
        <time>2016-06-22T10:14:10Z</time>
      </trkpt>
      <trkpt lat="45.67777" lon="6.42501">
        <ele>1055.2</ele>
        <time>2016-06-22T10:14:15Z</time>
      </trkpt>
      <trkpt lat="45.67787" lon="6.42503">
        <ele>1056.1</ele>
        <time>2016-06-22T10:14:20Z</time>
      </trkpt>
      <trkpt lat="45.67796" lon="6.42508">
        <ele>1057</ele>
        <time>2016-06-22T10:14:25Z</time>
      </trkpt>
      <trkpt lat="45.67804" lon="6.42517">
        <ele>1057.8</ele>
        <time>2016-06-22T10:14:30Z</time>
      </trkpt>
      <trkpt lat="45.67812" lon="6.42526">
        <ele>1058.5</ele>
        <time>2016-06-22T10:14:35Z</time>
      </trkpt>
      <trkpt lat="45.6782" lon="6.42533">
        <ele>1059.2</ele>
        <time>2016-06-22T10:14:40Z</time>
      </trkpt>
      <trkpt lat="45.6783" lon="6.4254">
        <ele>1060.1</ele>
        <time>2016-06-22T10:14:45Z</time>
      </trkpt>
      <trkpt lat="45.67839" lon="6.42546">
        <ele>1061.2</ele>
        <time>2016-06-22T10:14:50Z</time>
      </trkpt>
      <trkpt lat="45.67847" lon="6.42554">
        <ele>1062.3</ele>
        <time>2016-06-22T10:14:55Z</time>
      </trkpt>
      <trkpt lat="45.67842" lon="6.42567">
        <ele>1063.4</ele>
        <time>2016-06-22T10:15:00Z</time>
      </trkpt>
      <trkpt lat="45.67833" lon="6.42569">
        <ele>1064.1</ele>
        <time>2016-06-22T10:15:04Z</time>
      </trkpt>
      <trkpt lat="45.67825" lon="6.42561">
        <ele>1065</ele>
        <time>2016-06-22T10:15:09Z</time>
      </trkpt>
      <trkpt lat="45.67817" lon="6.42551">
        <ele>1066.2</ele>
        <time>2016-06-22T10:15:14Z</time>
      </trkpt>
      <trkpt lat="45.67807" lon="6.42548">
        <ele>1067.6</ele>
        <time>2016-06-22T10:15:19Z</time>
      </trkpt>
      <trkpt lat="45.67797" lon="6.42554">
        <ele>1069</ele>
        <time>2016-06-22T10:15:24Z</time>
      </trkpt>
      <trkpt lat="45.6779" lon="6.42563">
        <ele>1069.8</ele>
        <time>2016-06-22T10:15:28Z</time>
      </trkpt>
      <trkpt lat="45.67783" lon="6.42573">
        <ele>1070.6</ele>
        <time>2016-06-22T10:15:32Z</time>
      </trkpt>
      <trkpt lat="45.67775" lon="6.42584">
        <ele>1071.3</ele>
        <time>2016-06-22T10:15:37Z</time>
      </trkpt>
      <trkpt lat="45.67768" lon="6.42595">
        <ele>1071.5</ele>
        <time>2016-06-22T10:15:41Z</time>
      </trkpt>
      <trkpt lat="45.67762" lon="6.42605">
        <ele>1072.7</ele>
        <time>2016-06-22T10:15:45Z</time>
      </trkpt>
      <trkpt lat="45.67756" lon="6.42615">
        <ele>1073.9</ele>
        <time>2016-06-22T10:15:49Z</time>
      </trkpt>
      <trkpt lat="45.67753" lon="6.42627">
        <ele>1074.7</ele>
        <time>2016-06-22T10:15:53Z</time>
      </trkpt>
      <trkpt lat="45.67756" lon="6.42641">
        <ele>1075.4</ele>
        <time>2016-06-22T10:15:57Z</time>
      </trkpt>
      <trkpt lat="45.67764" lon="6.42648">
        <ele>1075</ele>
        <time>2016-06-22T10:16:00Z</time>
      </trkpt>
      <trkpt lat="45.67776" lon="6.42644">
        <ele>1076.4</ele>
        <time>2016-06-22T10:16:05Z</time>
      </trkpt>
      <trkpt lat="45.67785" lon="6.42634">
        <ele>1076.9</ele>
        <time>2016-06-22T10:16:09Z</time>
      </trkpt>
      <trkpt lat="45.67793" lon="6.42625">
        <ele>1077.6</ele>
        <time>2016-06-22T10:16:13Z</time>
      </trkpt>
      <trkpt lat="45.67803" lon="6.4262">
        <ele>1078.7</ele>
        <time>2016-06-22T10:16:18Z</time>
      </trkpt>
      <trkpt lat="45.67814" lon="6.4262">
        <ele>1079.7</ele>
        <time>2016-06-22T10:16:23Z</time>
      </trkpt>
      <trkpt lat="45.67823" lon="6.4262">
        <ele>1080.6</ele>
        <time>2016-06-22T10:16:27Z</time>
      </trkpt>
      <trkpt lat="45.67834" lon="6.4262">
        <ele>1081.5</ele>
        <time>2016-06-22T10:16:31Z</time>
      </trkpt>
      <trkpt lat="45.67848" lon="6.4262">
        <ele>1082.1</ele>
        <time>2016-06-22T10:16:34Z</time>
      </trkpt>
      <trkpt lat="45.67859" lon="6.42618">
        <ele>1082.8</ele>
        <time>2016-06-22T10:16:37Z</time>
      </trkpt>
      <trkpt lat="45.6787" lon="6.42617">
        <ele>1083.7</ele>
        <time>2016-06-22T10:16:41Z</time>
      </trkpt>
      <trkpt lat="45.67882" lon="6.4262">
        <ele>1084.7</ele>
        <time>2016-06-22T10:16:46Z</time>
      </trkpt>
      <trkpt lat="45.67893" lon="6.42622">
        <ele>1085.5</ele>
        <time>2016-06-22T10:16:50Z</time>
      </trkpt>
      <trkpt lat="45.67902" lon="6.42625">
        <ele>1086.1</ele>
        <time>2016-06-22T10:16:53Z</time>
      </trkpt>
      <trkpt lat="45.67909" lon="6.42636">
        <ele>1087.4</ele>
        <time>2016-06-22T10:17:00Z</time>
      </trkpt>
      <trkpt lat="45.67915" lon="6.42651">
        <ele>1088</ele>
        <time>2016-06-22T10:17:04Z</time>
      </trkpt>
      <trkpt lat="45.67922" lon="6.42661">
        <ele>1088.5</ele>
        <time>2016-06-22T10:17:07Z</time>
      </trkpt>
      <trkpt lat="45.6793" lon="6.4267">
        <ele>1089.4</ele>
        <time>2016-06-22T10:17:11Z</time>
      </trkpt>
      <trkpt lat="45.67937" lon="6.4268">
        <ele>1090.3</ele>
        <time>2016-06-22T10:17:16Z</time>
      </trkpt>
      <trkpt lat="45.67943" lon="6.42691">
        <ele>1091</ele>
        <time>2016-06-22T10:17:21Z</time>
      </trkpt>
      <trkpt lat="45.6795" lon="6.42702">
        <ele>1091.7</ele>
        <time>2016-06-22T10:17:25Z</time>
      </trkpt>
      <trkpt lat="45.67956" lon="6.42713">
        <ele>1092.2</ele>
        <time>2016-06-22T10:17:29Z</time>
      </trkpt>
      <trkpt lat="45.67962" lon="6.42724">
        <ele>1092.8</ele>
        <time>2016-06-22T10:17:33Z</time>
      </trkpt>
      <trkpt lat="45.67967" lon="6.42737">
        <ele>1093.3</ele>
        <time>2016-06-22T10:17:37Z</time>
      </trkpt>
      <trkpt lat="45.67971" lon="6.42751">
        <ele>1094</ele>
        <time>2016-06-22T10:17:41Z</time>
      </trkpt>
      <trkpt lat="45.67971" lon="6.42767">
        <ele>1095.1</ele>
        <time>2016-06-22T10:17:46Z</time>
      </trkpt>
      <trkpt lat="45.67972" lon="6.42781">
        <ele>1095.8</ele>
        <time>2016-06-22T10:17:50Z</time>
      </trkpt>
      <trkpt lat="45.67971" lon="6.42795">
        <ele>1096.6</ele>
        <time>2016-06-22T10:17:54Z</time>
      </trkpt>
      <trkpt lat="45.67971" lon="6.42809">
        <ele>1097.3</ele>
        <time>2016-06-22T10:17:58Z</time>
      </trkpt>
      <trkpt lat="45.67969" lon="6.42824">
        <ele>1098.2</ele>
        <time>2016-06-22T10:18:02Z</time>
      </trkpt>
      <trkpt lat="45.67967" lon="6.42837">
        <ele>1099</ele>
        <time>2016-06-22T10:18:06Z</time>
      </trkpt>
      <trkpt lat="45.67961" lon="6.42848">
        <ele>1099.9</ele>
        <time>2016-06-22T10:18:10Z</time>
      </trkpt>
      <trkpt lat="45.67953" lon="6.42855">
        <ele>1101.1</ele>
        <time>2016-06-22T10:18:14Z</time>
      </trkpt>
      <trkpt lat="45.67943" lon="6.4286">
        <ele>1102.2</ele>
        <time>2016-06-22T10:18:19Z</time>
      </trkpt>
      <trkpt lat="45.67932" lon="6.42863">
        <ele>1103.1</ele>
        <time>2016-06-22T10:18:23Z</time>
      </trkpt>
      <trkpt lat="45.67922" lon="6.42869">
        <ele>1103.9</ele>
        <time>2016-06-22T10:18:27Z</time>
      </trkpt>
      <trkpt lat="45.67914" lon="6.42877">
        <ele>1104.7</ele>
        <time>2016-06-22T10:18:31Z</time>
      </trkpt>
      <trkpt lat="45.67908" lon="6.4289">
        <ele>1105.5</ele>
        <time>2016-06-22T10:18:35Z</time>
      </trkpt>
      <trkpt lat="45.67905" lon="6.42902">
        <ele>1106.1</ele>
        <time>2016-06-22T10:18:38Z</time>
      </trkpt>
      <trkpt lat="45.67903" lon="6.42917">
        <ele>1106.7</ele>
        <time>2016-06-22T10:18:42Z</time>
      </trkpt>
      <trkpt lat="45.67901" lon="6.42933">
        <ele>1107.2</ele>
        <time>2016-06-22T10:18:46Z</time>
      </trkpt>
      <trkpt lat="45.679" lon="6.42947">
        <ele>1107.6</ele>
        <time>2016-06-22T10:18:50Z</time>
      </trkpt>
      <trkpt lat="45.67899" lon="6.42961">
        <ele>1108</ele>
        <time>2016-06-22T10:18:54Z</time>
      </trkpt>
      <trkpt lat="45.67898" lon="6.42977">
        <ele>1108.7</ele>
        <time>2016-06-22T10:18:59Z</time>
      </trkpt>
      <trkpt lat="45.67897" lon="6.42992">
        <ele>1109.5</ele>
        <time>2016-06-22T10:19:04Z</time>
      </trkpt>
      <trkpt lat="45.67897" lon="6.43005">
        <ele>1110.1</ele>
        <time>2016-06-22T10:19:08Z</time>
      </trkpt>
      <trkpt lat="45.67897" lon="6.43021">
        <ele>1111.2</ele>
        <time>2016-06-22T10:19:13Z</time>
      </trkpt>
      <trkpt lat="45.67897" lon="6.43036">
        <ele>1112.2</ele>
        <time>2016-06-22T10:19:18Z</time>
      </trkpt>
      <trkpt lat="45.67899" lon="6.4305">
        <ele>1112.8</ele>
        <time>2016-06-22T10:19:22Z</time>
      </trkpt>
      <trkpt lat="45.67904" lon="6.43062">
        <ele>1113.5</ele>
        <time>2016-06-22T10:19:26Z</time>
      </trkpt>
      <trkpt lat="45.6791" lon="6.43072">
        <ele>1114.2</ele>
        <time>2016-06-22T10:19:30Z</time>
      </trkpt>
      <trkpt lat="45.6792" lon="6.43077">
        <ele>1115.2</ele>
        <time>2016-06-22T10:19:35Z</time>
      </trkpt>
      <trkpt lat="45.67929" lon="6.43085">
        <ele>1116.3</ele>
        <time>2016-06-22T10:19:41Z</time>
      </trkpt>
      <trkpt lat="45.67939" lon="6.43089">
        <ele>1117.1</ele>
        <time>2016-06-22T10:19:45Z</time>
      </trkpt>
      <trkpt lat="45.67948" lon="6.43092">
        <ele>1118</ele>
        <time>2016-06-22T10:19:49Z</time>
      </trkpt>
      <trkpt lat="45.67958" lon="6.43094">
        <ele>1119</ele>
        <time>2016-06-22T10:19:53Z</time>
      </trkpt>
      <trkpt lat="45.67967" lon="6.43092">
        <ele>1120</ele>
        <time>2016-06-22T10:19:57Z</time>
      </trkpt>
      <trkpt lat="45.67976" lon="6.43088">
        <ele>1121.1</ele>
        <time>2016-06-22T10:20:01Z</time>
      </trkpt>
      <trkpt lat="45.67985" lon="6.43084">
        <ele>1122.4</ele>
        <time>2016-06-22T10:20:05Z</time>
      </trkpt>
      <trkpt lat="45.67995" lon="6.43083">
        <ele>1123.6</ele>
        <time>2016-06-22T10:20:09Z</time>
      </trkpt>
      <trkpt lat="45.68005" lon="6.43081">
        <ele>1124.8</ele>
        <time>2016-06-22T10:20:13Z</time>
      </trkpt>
      <trkpt lat="45.68015" lon="6.43077">
        <ele>1126.3</ele>
        <time>2016-06-22T10:20:18Z</time>
      </trkpt>
      <trkpt lat="45.68024" lon="6.43073">
        <ele>1127.6</ele>
        <time>2016-06-22T10:20:23Z</time>
      </trkpt>
      <trkpt lat="45.68033" lon="6.4307">
        <ele>1128.9</ele>
        <time>2016-06-22T10:20:28Z</time>
      </trkpt>
      <trkpt lat="45.68044" lon="6.43068">
        <ele>1130.2</ele>
        <time>2016-06-22T10:20:33Z</time>
      </trkpt>
      <trkpt lat="45.68053" lon="6.43069">
        <ele>1131.2</ele>
        <time>2016-06-22T10:20:37Z</time>
      </trkpt>
      <trkpt lat="45.68063" lon="6.4307">
        <ele>1132.4</ele>
        <time>2016-06-22T10:20:42Z</time>
      </trkpt>
      <trkpt lat="45.68072" lon="6.43074">
        <ele>1133.4</ele>
        <time>2016-06-22T10:20:46Z</time>
      </trkpt>
      <trkpt lat="45.68083" lon="6.43079">
        <ele>1134.9</ele>
        <time>2016-06-22T10:20:52Z</time>
      </trkpt>
      <trkpt lat="45.68091" lon="6.43088">
        <ele>1136.3</ele>
        <time>2016-06-22T10:20:57Z</time>
      </trkpt>
      <trkpt lat="45.68087" lon="6.431">
        <ele>1138.3</ele>
        <time>2016-06-22T10:21:06Z</time>
      </trkpt>
      <trkpt lat="45.68076" lon="6.43099">
        <ele>1139.2</ele>
        <time>2016-06-22T10:21:11Z</time>
      </trkpt>
      <trkpt lat="45.68066" lon="6.43103">
        <ele>1139.8</ele>
        <time>2016-06-22T10:21:14Z</time>
      </trkpt>
      <trkpt lat="45.68057" lon="6.43108">
        <ele>1140.8</ele>
        <time>2016-06-22T10:21:19Z</time>
      </trkpt>
      <trkpt lat="45.68048" lon="6.43111">
        <ele>1142</ele>
        <time>2016-06-22T10:21:24Z</time>
      </trkpt>
      <trkpt lat="45.6804" lon="6.43119">
        <ele>1142.8</ele>
        <time>2016-06-22T10:21:28Z</time>
      </trkpt>
      <trkpt lat="45.68033" lon="6.43128">
        <ele>1143.7</ele>
        <time>2016-06-22T10:21:32Z</time>
      </trkpt>
      <trkpt lat="45.68024" lon="6.43137">
        <ele>1144.9</ele>
        <time>2016-06-22T10:21:38Z</time>
      </trkpt>
      <trkpt lat="45.68017" lon="6.43146">
        <ele>1145.6</ele>
        <time>2016-06-22T10:21:42Z</time>
      </trkpt>
      <trkpt lat="45.6801" lon="6.43155">
        <ele>1146.1</ele>
        <time>2016-06-22T10:21:45Z</time>
      </trkpt>
      <trkpt lat="45.68002" lon="6.43162">
        <ele>1146.8</ele>
        <time>2016-06-22T10:21:49Z</time>
      </trkpt>
      <trkpt lat="45.67993" lon="6.43172">
        <ele>1147.9</ele>
        <time>2016-06-22T10:21:54Z</time>
      </trkpt>
      <trkpt lat="45.67986" lon="6.4318">
        <ele>1148.6</ele>
        <time>2016-06-22T10:21:58Z</time>
      </trkpt>
      <trkpt lat="45.67978" lon="6.43192">
        <ele>1149.4</ele>
        <time>2016-06-22T10:22:03Z</time>
      </trkpt>
      <trkpt lat="45.67969" lon="6.43201">
        <ele>1150.3</ele>
        <time>2016-06-22T10:22:08Z</time>
      </trkpt>
      <trkpt lat="45.67965" lon="6.43213">
        <ele>1151.1</ele>
        <time>2016-06-22T10:22:12Z</time>
      </trkpt>
      <trkpt lat="45.67964" lon="6.43227">
        <ele>1151.7</ele>
        <time>2016-06-22T10:22:15Z</time>
      </trkpt>
      <trkpt lat="45.67972" lon="6.43236">
        <ele>1152.6</ele>
        <time>2016-06-22T10:22:20Z</time>
      </trkpt>
      <trkpt lat="45.67981" lon="6.43231">
        <ele>1153.7</ele>
        <time>2016-06-22T10:22:25Z</time>
      </trkpt>
      <trkpt lat="45.67988" lon="6.43222">
        <ele>1154.5</ele>
        <time>2016-06-22T10:22:29Z</time>
      </trkpt>
      <trkpt lat="45.67997" lon="6.43214">
        <ele>1155.8</ele>
        <time>2016-06-22T10:22:35Z</time>
      </trkpt>
      <trkpt lat="45.68006" lon="6.4321">
        <ele>1157.2</ele>
        <time>2016-06-22T10:22:41Z</time>
      </trkpt>
      <trkpt lat="45.68017" lon="6.43207">
        <ele>1158.4</ele>
        <time>2016-06-22T10:22:45Z</time>
      </trkpt>
      <trkpt lat="45.68025" lon="6.43201">
        <ele>1159.2</ele>
        <time>2016-06-22T10:22:48Z</time>
      </trkpt>
      <trkpt lat="45.68034" lon="6.43198">
        <ele>1160.2</ele>
        <time>2016-06-22T10:22:52Z</time>
      </trkpt>
      <trkpt lat="45.68043" lon="6.43195">
        <ele>1161.3</ele>
        <time>2016-06-22T10:22:56Z</time>
      </trkpt>
      <trkpt lat="45.68053" lon="6.43199">
        <ele>1162.3</ele>
        <time>2016-06-22T10:23:00Z</time>
      </trkpt>
      <trkpt lat="45.6805" lon="6.43212">
        <ele>1163.6</ele>
        <time>2016-06-22T10:23:05Z</time>
      </trkpt>
      <trkpt lat="45.68041" lon="6.43216">
        <ele>1164.6</ele>
        <time>2016-06-22T10:23:10Z</time>
      </trkpt>
      <trkpt lat="45.68032" lon="6.43218">
        <ele>1165.4</ele>
        <time>2016-06-22T10:23:14Z</time>
      </trkpt>
      <trkpt lat="45.68025" lon="6.43226">
        <ele>1166.3</ele>
        <time>2016-06-22T10:23:19Z</time>
      </trkpt>
      <trkpt lat="45.68017" lon="6.43237">
        <ele>1167.2</ele>
        <time>2016-06-22T10:23:24Z</time>
      </trkpt>
      <trkpt lat="45.68009" lon="6.43244">
        <ele>1168.1</ele>
        <time>2016-06-22T10:23:28Z</time>
      </trkpt>
      <trkpt lat="45.68" lon="6.43254">
        <ele>1169.1</ele>
        <time>2016-06-22T10:23:33Z</time>
      </trkpt>
      <trkpt lat="45.67993" lon="6.43265">
        <ele>1170.1</ele>
        <time>2016-06-22T10:23:38Z</time>
      </trkpt>
      <trkpt lat="45.67991" lon="6.43279">
        <ele>1171</ele>
        <time>2016-06-22T10:23:43Z</time>
      </trkpt>
      <trkpt lat="45.67995" lon="6.43294">
        <ele>1171.8</ele>
        <time>2016-06-22T10:23:47Z</time>
      </trkpt>
      <trkpt lat="45.68004" lon="6.43284">
        <ele>1173.1</ele>
        <time>2016-06-22T10:23:53Z</time>
      </trkpt>
      <trkpt lat="45.68011" lon="6.43273">
        <ele>1174.2</ele>
        <time>2016-06-22T10:23:58Z</time>
      </trkpt>
      <trkpt lat="45.6802" lon="6.43263">
        <ele>1175.3</ele>
        <time>2016-06-22T10:24:04Z</time>
      </trkpt>
      <trkpt lat="45.68029" lon="6.43258">
        <ele>1176</ele>
        <time>2016-06-22T10:24:08Z</time>
      </trkpt>
      <trkpt lat="45.68038" lon="6.43253">
        <ele>1177.1</ele>
        <time>2016-06-22T10:24:13Z</time>
      </trkpt>
      <trkpt lat="45.68049" lon="6.43247">
        <ele>1178.3</ele>
        <time>2016-06-22T10:24:18Z</time>
      </trkpt>
      <trkpt lat="45.6806" lon="6.43243">
        <ele>1179.5</ele>
        <time>2016-06-22T10:24:23Z</time>
      </trkpt>
      <trkpt lat="45.68069" lon="6.43242">
        <ele>1180.4</ele>
        <time>2016-06-22T10:24:27Z</time>
      </trkpt>
      <trkpt lat="45.68078" lon="6.43244">
        <ele>1181.3</ele>
        <time>2016-06-22T10:24:31Z</time>
      </trkpt>
      <trkpt lat="45.68087" lon="6.43244">
        <ele>1182</ele>
        <time>2016-06-22T10:24:35Z</time>
      </trkpt>
      <trkpt lat="45.68097" lon="6.43245">
        <ele>1182.9</ele>
        <time>2016-06-22T10:24:39Z</time>
      </trkpt>
      <trkpt lat="45.68106" lon="6.43247">
        <ele>1183.7</ele>
        <time>2016-06-22T10:24:43Z</time>
      </trkpt>
      <trkpt lat="45.68116" lon="6.4325">
        <ele>1184.5</ele>
        <time>2016-06-22T10:24:48Z</time>
      </trkpt>
      <trkpt lat="45.68124" lon="6.43256">
        <ele>1185</ele>
        <time>2016-06-22T10:24:52Z</time>
      </trkpt>
      <trkpt lat="45.68133" lon="6.43264">
        <ele>1185.9</ele>
        <time>2016-06-22T10:24:57Z</time>
      </trkpt>
      <trkpt lat="45.68142" lon="6.4327">
        <ele>1186.7</ele>
        <time>2016-06-22T10:25:02Z</time>
      </trkpt>
      <trkpt lat="45.68152" lon="6.43275">
        <ele>1187.5</ele>
        <time>2016-06-22T10:25:07Z</time>
      </trkpt>
      <trkpt lat="45.68162" lon="6.43279">
        <ele>1188.4</ele>
        <time>2016-06-22T10:25:12Z</time>
      </trkpt>
      <trkpt lat="45.68171" lon="6.43284">
        <ele>1189.2</ele>
        <time>2016-06-22T10:25:17Z</time>
      </trkpt>
      <trkpt lat="45.68179" lon="6.4329">
        <ele>1189.9</ele>
        <time>2016-06-22T10:25:21Z</time>
      </trkpt>
      <trkpt lat="45.68187" lon="6.43299">
        <ele>1191.4</ele>
        <time>2016-06-22T10:25:27Z</time>
      </trkpt>
      <trkpt lat="45.68199" lon="6.43311">
        <ele>1193.2</ele>
        <time>2016-06-22T10:25:33Z</time>
      </trkpt>
      <trkpt lat="45.68206" lon="6.4332">
        <ele>1194.3</ele>
        <time>2016-06-22T10:25:37Z</time>
      </trkpt>
      <trkpt lat="45.68214" lon="6.43327">
        <ele>1195.4</ele>
        <time>2016-06-22T10:25:41Z</time>
      </trkpt>
      <trkpt lat="45.68222" lon="6.43333">
        <ele>1196.7</ele>
        <time>2016-06-22T10:25:45Z</time>
      </trkpt>
      <trkpt lat="45.68231" lon="6.43339">
        <ele>1197.7</ele>
        <time>2016-06-22T10:25:49Z</time>
      </trkpt>
      <trkpt lat="45.68239" lon="6.43346">
        <ele>1198.9</ele>
        <time>2016-06-22T10:25:54Z</time>
      </trkpt>
      <trkpt lat="45.68248" lon="6.4335">
        <ele>1199.8</ele>
        <time>2016-06-22T10:25:58Z</time>
      </trkpt>
      <trkpt lat="45.68258" lon="6.43354">
        <ele>1201</ele>
        <time>2016-06-22T10:26:03Z</time>
      </trkpt>
      <trkpt lat="45.68267" lon="6.43358">
        <ele>1202</ele>
        <time>2016-06-22T10:26:07Z</time>
      </trkpt>
      <trkpt lat="45.68278" lon="6.4336">
        <ele>1203.3</ele>
        <time>2016-06-22T10:26:12Z</time>
      </trkpt>
      <trkpt lat="45.68288" lon="6.43361">
        <ele>1204.6</ele>
        <time>2016-06-22T10:26:17Z</time>
      </trkpt>
      <trkpt lat="45.68297" lon="6.43364">
        <ele>1205.7</ele>
        <time>2016-06-22T10:26:22Z</time>
      </trkpt>
      <trkpt lat="45.683" lon="6.43378">
        <ele>1206.8</ele>
        <time>2016-06-22T10:26:27Z</time>
      </trkpt>
      <trkpt lat="45.68291" lon="6.43379">
        <ele>1208.2</ele>
        <time>2016-06-22T10:26:34Z</time>
      </trkpt>
      <trkpt lat="45.68282" lon="6.43378">
        <ele>1209</ele>
        <time>2016-06-22T10:26:38Z</time>
      </trkpt>
      <trkpt lat="45.68271" lon="6.43379">
        <ele>1210</ele>
        <time>2016-06-22T10:26:43Z</time>
      </trkpt>
      <trkpt lat="45.68261" lon="6.43378">
        <ele>1211</ele>
        <time>2016-06-22T10:26:48Z</time>
      </trkpt>
      <trkpt lat="45.68251" lon="6.43378">
        <ele>1211.7</ele>
        <time>2016-06-22T10:26:52Z</time>
      </trkpt>
      <trkpt lat="45.68241" lon="6.43377">
        <ele>1212.8</ele>
        <time>2016-06-22T10:26:58Z</time>
      </trkpt>
      <trkpt lat="45.6823" lon="6.43377">
        <ele>1213.6</ele>
        <time>2016-06-22T10:27:03Z</time>
      </trkpt>
      <trkpt lat="45.6822" lon="6.4338">
        <ele>1214.8</ele>
        <time>2016-06-22T10:27:08Z</time>
      </trkpt>
      <trkpt lat="45.68211" lon="6.43383">
        <ele>1215.9</ele>
        <time>2016-06-22T10:27:13Z</time>
      </trkpt>
      <trkpt lat="45.68201" lon="6.43386">
        <ele>1217</ele>
        <time>2016-06-22T10:27:18Z</time>
      </trkpt>
      <trkpt lat="45.68192" lon="6.43388">
        <ele>1217.9</ele>
        <time>2016-06-22T10:27:22Z</time>
      </trkpt>
      <trkpt lat="45.68181" lon="6.43389">
        <ele>1219.1</ele>
        <time>2016-06-22T10:27:27Z</time>
      </trkpt>
      <trkpt lat="45.68171" lon="6.43391">
        <ele>1220</ele>
        <time>2016-06-22T10:27:31Z</time>
      </trkpt>
      <trkpt lat="45.68161" lon="6.43392">
        <ele>1221</ele>
        <time>2016-06-22T10:27:35Z</time>
      </trkpt>
      <trkpt lat="45.68152" lon="6.43396">
        <ele>1222.1</ele>
        <time>2016-06-22T10:27:40Z</time>
      </trkpt>
      <trkpt lat="45.68143" lon="6.434">
        <ele>1222.9</ele>
        <time>2016-06-22T10:27:44Z</time>
      </trkpt>
      <trkpt lat="45.68133" lon="6.43401">
        <ele>1223.7</ele>
        <time>2016-06-22T10:27:48Z</time>
      </trkpt>
      <trkpt lat="45.68124" lon="6.43402">
        <ele>1224.5</ele>
        <time>2016-06-22T10:27:52Z</time>
      </trkpt>
      <trkpt lat="45.68113" lon="6.43403">
        <ele>1225.3</ele>
        <time>2016-06-22T10:27:56Z</time>
      </trkpt>
      <trkpt lat="45.68103" lon="6.43404">
        <ele>1226</ele>
        <time>2016-06-22T10:28:00Z</time>
      </trkpt>
      <trkpt lat="45.68093" lon="6.43402">
        <ele>1226.9</ele>
        <time>2016-06-22T10:28:05Z</time>
      </trkpt>
      <trkpt lat="45.68083" lon="6.43403">
        <ele>1228</ele>
        <time>2016-06-22T10:28:11Z</time>
      </trkpt>
      <trkpt lat="45.68073" lon="6.43403">
        <ele>1229.3</ele>
        <time>2016-06-22T10:28:17Z</time>
      </trkpt>
      <trkpt lat="45.68065" lon="6.4341">
        <ele>1230.6</ele>
        <time>2016-06-22T10:28:23Z</time>
      </trkpt>
      <trkpt lat="45.68064" lon="6.43425">
        <ele>1231.3</ele>
        <time>2016-06-22T10:28:27Z</time>
      </trkpt>
      <trkpt lat="45.68074" lon="6.43432">
        <ele>1232.5</ele>
        <time>2016-06-22T10:28:35Z</time>
      </trkpt>
      <trkpt lat="45.68084" lon="6.43433">
        <ele>1233</ele>
        <time>2016-06-22T10:28:40Z</time>
      </trkpt>
      <trkpt lat="45.68095" lon="6.43433">
        <ele>1234.5</ele>
        <time>2016-06-22T10:28:46Z</time>
      </trkpt>
      <trkpt lat="45.68104" lon="6.43432">
        <ele>1235.4</ele>
        <time>2016-06-22T10:28:50Z</time>
      </trkpt>
      <trkpt lat="45.68114" lon="6.43432">
        <ele>1236.2</ele>
        <time>2016-06-22T10:28:54Z</time>
      </trkpt>
      <trkpt lat="45.68123" lon="6.43435">
        <ele>1236.9</ele>
        <time>2016-06-22T10:28:57Z</time>
      </trkpt>
      <trkpt lat="45.68131" lon="6.43443">
        <ele>1237.8</ele>
        <time>2016-06-22T10:29:01Z</time>
      </trkpt>
      <trkpt lat="45.68123" lon="6.4345">
        <ele>1238.8</ele>
        <time>2016-06-22T10:29:06Z</time>
      </trkpt>
      <trkpt lat="45.68114" lon="6.43452">
        <ele>1239.5</ele>
        <time>2016-06-22T10:29:10Z</time>
      </trkpt>
      <trkpt lat="45.68104" lon="6.43457">
        <ele>1240.5</ele>
        <time>2016-06-22T10:29:16Z</time>
      </trkpt>
      <trkpt lat="45.68096" lon="6.43464">
        <ele>1241.3</ele>
        <time>2016-06-22T10:29:21Z</time>
      </trkpt>
      <trkpt lat="45.68086" lon="6.43472">
        <ele>1242.1</ele>
        <time>2016-06-22T10:29:26Z</time>
      </trkpt>
      <trkpt lat="45.68079" lon="6.43481">
        <ele>1242.8</ele>
        <time>2016-06-22T10:29:30Z</time>
      </trkpt>
      <trkpt lat="45.68071" lon="6.43491">
        <ele>1243.9</ele>
        <time>2016-06-22T10:29:35Z</time>
      </trkpt>
      <trkpt lat="45.68063" lon="6.435">
        <ele>1245.1</ele>
        <time>2016-06-22T10:29:40Z</time>
      </trkpt>
      <trkpt lat="45.68055" lon="6.43509">
        <ele>1246</ele>
        <time>2016-06-22T10:29:45Z</time>
      </trkpt>
      <trkpt lat="45.68047" lon="6.43517">
        <ele>1247</ele>
        <time>2016-06-22T10:29:50Z</time>
      </trkpt>
      <trkpt lat="45.68039" lon="6.43523">
        <ele>1247.9</ele>
        <time>2016-06-22T10:29:54Z</time>
      </trkpt>
      <trkpt lat="45.6803" lon="6.43532">
        <ele>1248.7</ele>
        <time>2016-06-22T10:29:58Z</time>
      </trkpt>
      <trkpt lat="45.68021" lon="6.43539">
        <ele>1249.3</ele>
        <time>2016-06-22T10:30:01Z</time>
      </trkpt>
      <trkpt lat="45.68013" lon="6.43547">
        <ele>1250.1</ele>
        <time>2016-06-22T10:30:06Z</time>
      </trkpt>
      <trkpt lat="45.68005" lon="6.43555">
        <ele>1251</ele>
        <time>2016-06-22T10:30:11Z</time>
      </trkpt>
      <trkpt lat="45.67997" lon="6.43563">
        <ele>1252.1</ele>
        <time>2016-06-22T10:30:16Z</time>
      </trkpt>
      <trkpt lat="45.6799" lon="6.43572">
        <ele>1253.5</ele>
        <time>2016-06-22T10:30:22Z</time>
      </trkpt>
      <trkpt lat="45.67981" lon="6.4358">
        <ele>1254.8</ele>
        <time>2016-06-22T10:30:27Z</time>
      </trkpt>
      <trkpt lat="45.67975" lon="6.43591">
        <ele>1255.8</ele>
        <time>2016-06-22T10:30:31Z</time>
      </trkpt>
      <trkpt lat="45.67977" lon="6.43604">
        <ele>1256.6</ele>
        <time>2016-06-22T10:30:35Z</time>
      </trkpt>
      <trkpt lat="45.67986" lon="6.4361">
        <ele>1257.7</ele>
        <time>2016-06-22T10:30:40Z</time>
      </trkpt>
      <trkpt lat="45.67995" lon="6.43608">
        <ele>1259.1</ele>
        <time>2016-06-22T10:30:46Z</time>
      </trkpt>
      <trkpt lat="45.68005" lon="6.43607">
        <ele>1260.2</ele>
        <time>2016-06-22T10:30:52Z</time>
      </trkpt>
      <trkpt lat="45.68015" lon="6.43605">
        <ele>1261.1</ele>
        <time>2016-06-22T10:30:58Z</time>
      </trkpt>
      <trkpt lat="45.68025" lon="6.43603">
        <ele>1261.7</ele>
        <time>2016-06-22T10:31:02Z</time>
      </trkpt>
      <trkpt lat="45.68035" lon="6.43602">
        <ele>1262.6</ele>
        <time>2016-06-22T10:31:07Z</time>
      </trkpt>
      <trkpt lat="45.68044" lon="6.43599">
        <ele>1263.4</ele>
        <time>2016-06-22T10:31:11Z</time>
      </trkpt>
      <trkpt lat="45.68055" lon="6.43594">
        <ele>1264.6</ele>
        <time>2016-06-22T10:31:16Z</time>
      </trkpt>
      <trkpt lat="45.68064" lon="6.43591">
        <ele>1265.5</ele>
        <time>2016-06-22T10:31:20Z</time>
      </trkpt>
      <trkpt lat="45.68073" lon="6.43584">
        <ele>1266.5</ele>
        <time>2016-06-22T10:31:25Z</time>
      </trkpt>
      <trkpt lat="45.68082" lon="6.43578">
        <ele>1267.6</ele>
        <time>2016-06-22T10:31:30Z</time>
      </trkpt>
      <trkpt lat="45.6809" lon="6.43572">
        <ele>1268.4</ele>
        <time>2016-06-22T10:31:34Z</time>
      </trkpt>
      <trkpt lat="45.68098" lon="6.43565">
        <ele>1269.3</ele>
        <time>2016-06-22T10:31:38Z</time>
      </trkpt>
      <trkpt lat="45.68108" lon="6.4356">
        <ele>1270.3</ele>
        <time>2016-06-22T10:31:43Z</time>
      </trkpt>
      <trkpt lat="45.68119" lon="6.43555">
        <ele>1271.3</ele>
        <time>2016-06-22T10:31:48Z</time>
      </trkpt>
      <trkpt lat="45.68128" lon="6.43553">
        <ele>1272.1</ele>
        <time>2016-06-22T10:31:52Z</time>
      </trkpt>
      <trkpt lat="45.68139" lon="6.43551">
        <ele>1273</ele>
        <time>2016-06-22T10:31:57Z</time>
      </trkpt>
      <trkpt lat="45.68148" lon="6.43552">
        <ele>1274</ele>
        <time>2016-06-22T10:32:02Z</time>
      </trkpt>
      <trkpt lat="45.68159" lon="6.43553">
        <ele>1275</ele>
        <time>2016-06-22T10:32:07Z</time>
      </trkpt>
      <trkpt lat="45.6817" lon="6.43554">
        <ele>1276</ele>
        <time>2016-06-22T10:32:12Z</time>
      </trkpt>
      <trkpt lat="45.68179" lon="6.43558">
        <ele>1276.8</ele>
        <time>2016-06-22T10:32:16Z</time>
      </trkpt>
      <trkpt lat="45.68188" lon="6.43562">
        <ele>1277.6</ele>
        <time>2016-06-22T10:32:21Z</time>
      </trkpt>
      <trkpt lat="45.68198" lon="6.43566">
        <ele>1278.5</ele>
        <time>2016-06-22T10:32:27Z</time>
      </trkpt>
      <trkpt lat="45.68208" lon="6.43566">
        <ele>1279.2</ele>
        <time>2016-06-22T10:32:33Z</time>
      </trkpt>
      <trkpt lat="45.68219" lon="6.43567">
        <ele>1279.8</ele>
        <time>2016-06-22T10:32:39Z</time>
      </trkpt>
      <trkpt lat="45.68228" lon="6.43564">
        <ele>1280.2</ele>
        <time>2016-06-22T10:32:45Z</time>
      </trkpt>
      <trkpt lat="45.68237" lon="6.43559">
        <ele>1280.6</ele>
        <time>2016-06-22T10:32:51Z</time>
      </trkpt>
      <trkpt lat="45.68246" lon="6.43555">
        <ele>1281</ele>
        <time>2016-06-22T10:32:57Z</time>
      </trkpt>
      <trkpt lat="45.68256" lon="6.43556">
        <ele>1281.2</ele>
        <time>2016-06-22T10:33:03Z</time>
      </trkpt>
      <trkpt lat="45.68266" lon="6.43555">
        <ele>1281.4</ele>
        <time>2016-06-22T10:33:08Z</time>
      </trkpt>
      <trkpt lat="45.68275" lon="6.43557">
        <ele>1281.5</ele>
        <time>2016-06-22T10:33:13Z</time>
      </trkpt>
      <trkpt lat="45.68266" lon="6.4356">
        <ele>1281.6</ele>
        <time>2016-06-22T10:33:20Z</time>
      </trkpt>
      <trkpt lat="45.68258" lon="6.43567">
        <ele>1280.9</ele>
        <time>2016-06-22T10:41:56Z</time>
      </trkpt>
      <trkpt lat="45.68249" lon="6.43567">
        <ele>1279.1</ele>
        <time>2016-06-22T10:42:05Z</time>
      </trkpt>
      <trkpt lat="45.68243" lon="6.43578">
        <ele>1280.7</ele>
        <time>2016-06-22T10:42:11Z</time>
      </trkpt>
      <trkpt lat="45.68249" lon="6.43588">
        <ele>1282.3</ele>
        <time>2016-06-22T10:42:19Z</time>
      </trkpt>
      <trkpt lat="45.68259" lon="6.43589">
        <ele>1283.2</ele>
        <time>2016-06-22T10:42:27Z</time>
      </trkpt>
      <trkpt lat="45.68267" lon="6.43596">
        <ele>1283.8</ele>
        <time>2016-06-22T10:42:35Z</time>
      </trkpt>
      <trkpt lat="45.68275" lon="6.43604">
        <ele>1284.9</ele>
        <time>2016-06-22T10:42:42Z</time>
      </trkpt>
      <trkpt lat="45.68284" lon="6.4361">
        <ele>1286.4</ele>
        <time>2016-06-22T10:42:50Z</time>
      </trkpt>
      <trkpt lat="45.68292" lon="6.43617">
        <ele>1288</ele>
        <time>2016-06-22T10:42:58Z</time>
      </trkpt>
      <trkpt lat="45.68303" lon="6.43622">
        <ele>1289.4</ele>
        <time>2016-06-22T10:43:05Z</time>
      </trkpt>
      <trkpt lat="45.68312" lon="6.43628">
        <ele>1291.1</ele>
        <time>2016-06-22T10:43:13Z</time>
      </trkpt>
      <trkpt lat="45.68316" lon="6.4364">
        <ele>1292.5</ele>
        <time>2016-06-22T10:43:21Z</time>
      </trkpt>
      <trkpt lat="45.68309" lon="6.43649">
        <ele>1293.7</ele>
        <time>2016-06-22T10:43:28Z</time>
      </trkpt>
      <trkpt lat="45.68299" lon="6.43646">
        <ele>1294.7</ele>
        <time>2016-06-22T10:43:36Z</time>
      </trkpt>
      <trkpt lat="45.68289" lon="6.43644">
        <ele>1295.7</ele>
        <time>2016-06-22T10:43:44Z</time>
      </trkpt>
      <trkpt lat="45.6828" lon="6.4364">
        <ele>1296.8</ele>
        <time>2016-06-22T10:43:52Z</time>
      </trkpt>
      <trkpt lat="45.6827" lon="6.43639">
        <ele>1298</ele>
        <time>2016-06-22T10:44:00Z</time>
      </trkpt>
      <trkpt lat="45.68259" lon="6.4364">
        <ele>1299.1</ele>
        <time>2016-06-22T10:44:07Z</time>
      </trkpt>
      <trkpt lat="45.68249" lon="6.43642">
        <ele>1300.7</ele>
        <time>2016-06-22T10:44:16Z</time>
      </trkpt>
      <trkpt lat="45.68241" lon="6.43647">
        <ele>1302.2</ele>
        <time>2016-06-22T10:44:24Z</time>
      </trkpt>
      <trkpt lat="45.68232" lon="6.4365">
        <ele>1303.6</ele>
        <time>2016-06-22T10:44:32Z</time>
      </trkpt>
      <trkpt lat="45.68229" lon="6.43664">
        <ele>1305</ele>
        <time>2016-06-22T10:44:42Z</time>
      </trkpt>
      <trkpt lat="45.68238" lon="6.43665">
        <ele>1306.4</ele>
        <time>2016-06-22T10:44:55Z</time>
      </trkpt>
      <trkpt lat="45.68247" lon="6.43662">
        <ele>1308</ele>
        <time>2016-06-22T10:45:04Z</time>
      </trkpt>
      <trkpt lat="45.68257" lon="6.43666">
        <ele>1309.9</ele>
        <time>2016-06-22T10:45:14Z</time>
      </trkpt>
      <trkpt lat="45.68266" lon="6.4367">
        <ele>1311.2</ele>
        <time>2016-06-22T10:45:21Z</time>
      </trkpt>
      <trkpt lat="45.68275" lon="6.43675">
        <ele>1312.7</ele>
        <time>2016-06-22T10:45:28Z</time>
      </trkpt>
      <trkpt lat="45.6828" lon="6.43687">
        <ele>1314.6</ele>
        <time>2016-06-22T10:45:36Z</time>
      </trkpt>
      <trkpt lat="45.68272" lon="6.43695">
        <ele>1316.1</ele>
        <time>2016-06-22T10:45:44Z</time>
      </trkpt>
      <trkpt lat="45.68262" lon="6.43693">
        <ele>1317.1</ele>
        <time>2016-06-22T10:45:52Z</time>
      </trkpt>
      <trkpt lat="45.68252" lon="6.43695">
        <ele>1317.7</ele>
        <time>2016-06-22T10:45:59Z</time>
      </trkpt>
      <trkpt lat="45.68243" lon="6.43696">
        <ele>1318.7</ele>
        <time>2016-06-22T10:46:07Z</time>
      </trkpt>
      <trkpt lat="45.68233" lon="6.43699">
        <ele>1320.4</ele>
        <time>2016-06-22T10:46:17Z</time>
      </trkpt>
      <trkpt lat="45.68224" lon="6.43704">
        <ele>1321.9</ele>
        <time>2016-06-22T10:46:24Z</time>
      </trkpt>
      <trkpt lat="45.68216" lon="6.43713">
        <ele>1323.4</ele>
        <time>2016-06-22T10:46:31Z</time>
      </trkpt>
      <trkpt lat="45.68211" lon="6.43727">
        <ele>1325</ele>
        <time>2016-06-22T10:46:38Z</time>
      </trkpt>
      <trkpt lat="45.68205" lon="6.43737">
        <ele>1326.2</ele>
        <time>2016-06-22T10:46:44Z</time>
      </trkpt>
      <trkpt lat="45.68198" lon="6.43745">
        <ele>1327</ele>
        <time>2016-06-22T10:46:50Z</time>
      </trkpt>
      <trkpt lat="45.68191" lon="6.43754">
        <ele>1327.9</ele>
        <time>2016-06-22T10:46:58Z</time>
      </trkpt>
      <trkpt lat="45.68185" lon="6.43764">
        <ele>1328.8</ele>
        <time>2016-06-22T10:47:06Z</time>
      </trkpt>
      <trkpt lat="45.68178" lon="6.43774">
        <ele>1330</ele>
        <time>2016-06-22T10:47:15Z</time>
      </trkpt>
      <trkpt lat="45.68172" lon="6.43784">
        <ele>1331.4</ele>
        <time>2016-06-22T10:47:24Z</time>
      </trkpt>
      <trkpt lat="45.68169" lon="6.43798">
        <ele>1332.7</ele>
        <time>2016-06-22T10:47:32Z</time>
      </trkpt>
      <trkpt lat="45.68166" lon="6.43811">
        <ele>1333.7</ele>
        <time>2016-06-22T10:47:40Z</time>
      </trkpt>
      <trkpt lat="45.68159" lon="6.4382">
        <ele>1335</ele>
        <time>2016-06-22T10:47:51Z</time>
      </trkpt>
      <trkpt lat="45.68149" lon="6.43818">
        <ele>1336.4</ele>
        <time>2016-06-22T10:47:59Z</time>
      </trkpt>
      <trkpt lat="45.68139" lon="6.43818">
        <ele>1338.2</ele>
        <time>2016-06-22T10:48:08Z</time>
      </trkpt>
      <trkpt lat="45.6813" lon="6.43821">
        <ele>1340.4</ele>
        <time>2016-06-22T10:48:19Z</time>
      </trkpt>
      <trkpt lat="45.68122" lon="6.43827">
        <ele>1341.6</ele>
        <time>2016-06-22T10:48:25Z</time>
      </trkpt>
      <trkpt lat="45.68114" lon="6.43834">
        <ele>1343.5</ele>
        <time>2016-06-22T10:48:34Z</time>
      </trkpt>
      <trkpt lat="45.68106" lon="6.43841">
        <ele>1345.1</ele>
        <time>2016-06-22T10:48:43Z</time>
      </trkpt>
      <trkpt lat="45.68096" lon="6.43846">
        <ele>1346.6</ele>
        <time>2016-06-22T10:48:52Z</time>
      </trkpt>
      <trkpt lat="45.68088" lon="6.43853">
        <ele>1347.7</ele>
        <time>2016-06-22T10:49:00Z</time>
      </trkpt>
      <trkpt lat="45.68079" lon="6.43858">
        <ele>1349</ele>
        <time>2016-06-22T10:49:08Z</time>
      </trkpt>
      <trkpt lat="45.6807" lon="6.43865">
        <ele>1351.1</ele>
        <time>2016-06-22T10:49:17Z</time>
      </trkpt>
      <trkpt lat="45.68063" lon="6.43876">
        <ele>1352.9</ele>
        <time>2016-06-22T10:49:26Z</time>
      </trkpt>
      <trkpt lat="45.68057" lon="6.43888">
        <ele>1354.2</ele>
        <time>2016-06-22T10:49:33Z</time>
      </trkpt>
      <trkpt lat="45.68053" lon="6.43899">
        <ele>1356.2</ele>
        <time>2016-06-22T10:49:42Z</time>
      </trkpt>
      <trkpt lat="45.6805" lon="6.43912">
        <ele>1358.6</ele>
        <time>2016-06-22T10:49:51Z</time>
      </trkpt>
      <trkpt lat="45.68046" lon="6.43925">
        <ele>1360</ele>
        <time>2016-06-22T10:49:57Z</time>
      </trkpt>
      <trkpt lat="45.68043" lon="6.43938">
        <ele>1361.3</ele>
        <time>2016-06-22T10:50:04Z</time>
      </trkpt>
      <trkpt lat="45.68041" lon="6.43951">
        <ele>1362.6</ele>
        <time>2016-06-22T10:50:12Z</time>
      </trkpt>
      <trkpt lat="45.68037" lon="6.43963">
        <ele>1363.8</ele>
        <time>2016-06-22T10:50:19Z</time>
      </trkpt>
      <trkpt lat="45.68039" lon="6.43976">
        <ele>1365</ele>
        <time>2016-06-22T10:50:27Z</time>
      </trkpt>
      <trkpt lat="45.68047" lon="6.43982">
        <ele>1366.5</ele>
        <time>2016-06-22T10:50:36Z</time>
      </trkpt>
      <trkpt lat="45.68052" lon="6.43972">
        <ele>1368.6</ele>
        <time>2016-06-22T10:50:48Z</time>
      </trkpt>
      <trkpt lat="45.68058" lon="6.43962">
        <ele>1369.7</ele>
        <time>2016-06-22T10:50:54Z</time>
      </trkpt>
      <trkpt lat="45.68063" lon="6.4395">
        <ele>1370.8</ele>
        <time>2016-06-22T10:51:00Z</time>
      </trkpt>
      <trkpt lat="45.68069" lon="6.43939">
        <ele>1372.3</ele>
        <time>2016-06-22T10:51:07Z</time>
      </trkpt>
      <trkpt lat="45.68076" lon="6.4393">
        <ele>1374.1</ele>
        <time>2016-06-22T10:51:15Z</time>
      </trkpt>
      <trkpt lat="45.68084" lon="6.43924">
        <ele>1375.8</ele>
        <time>2016-06-22T10:51:22Z</time>
      </trkpt>
      <trkpt lat="45.68093" lon="6.43927">
        <ele>1377.7</ele>
        <time>2016-06-22T10:51:30Z</time>
      </trkpt>
      <trkpt lat="45.68102" lon="6.43933">
        <ele>1379</ele>
        <time>2016-06-22T10:51:38Z</time>
      </trkpt>
      <trkpt lat="45.68112" lon="6.43929">
        <ele>1380.6</ele>
        <time>2016-06-22T10:51:47Z</time>
      </trkpt>
      <trkpt lat="45.68119" lon="6.43938">
        <ele>1382.7</ele>
        <time>2016-06-22T10:51:59Z</time>
      </trkpt>
      <trkpt lat="45.68112" lon="6.43946">
        <ele>1383.7</ele>
        <time>2016-06-22T10:52:07Z</time>
      </trkpt>
      <trkpt lat="45.68104" lon="6.43955">
        <ele>1384.8</ele>
        <time>2016-06-22T10:52:15Z</time>
      </trkpt>
      <trkpt lat="45.68097" lon="6.43963">
        <ele>1385.8</ele>
        <time>2016-06-22T10:52:23Z</time>
      </trkpt>
      <trkpt lat="45.6809" lon="6.43974">
        <ele>1386.7</ele>
        <time>2016-06-22T10:52:31Z</time>
      </trkpt>
      <trkpt lat="45.68086" lon="6.43986">
        <ele>1388</ele>
        <time>2016-06-22T10:52:39Z</time>
      </trkpt>
      <trkpt lat="45.68086" lon="6.44">
        <ele>1389.5</ele>
        <time>2016-06-22T10:52:47Z</time>
      </trkpt>
      <trkpt lat="45.68096" lon="6.43997">
        <ele>1391.3</ele>
        <time>2016-06-22T10:52:58Z</time>
      </trkpt>
      <trkpt lat="45.68104" lon="6.43989">
        <ele>1393</ele>
        <time>2016-06-22T10:53:08Z</time>
      </trkpt>
      <trkpt lat="45.68113" lon="6.43987">
        <ele>1394.6</ele>
        <time>2016-06-22T10:53:15Z</time>
      </trkpt>
      <trkpt lat="45.68122" lon="6.43988">
        <ele>1396.4</ele>
        <time>2016-06-22T10:53:24Z</time>
      </trkpt>
      <trkpt lat="45.68133" lon="6.43991">
        <ele>1397.4</ele>
        <time>2016-06-22T10:53:30Z</time>
      </trkpt>
      <trkpt lat="45.68141" lon="6.43997">
        <ele>1398.7</ele>
        <time>2016-06-22T10:53:38Z</time>
      </trkpt>
      <trkpt lat="45.68147" lon="6.44007">
        <ele>1400.5</ele>
        <time>2016-06-22T10:53:47Z</time>
      </trkpt>
      <trkpt lat="45.68155" lon="6.44016">
        <ele>1402.5</ele>
        <time>2016-06-22T10:53:55Z</time>
      </trkpt>
      <trkpt lat="45.68163" lon="6.4402">
        <ele>1404</ele>
        <time>2016-06-22T10:54:02Z</time>
      </trkpt>
      <trkpt lat="45.68172" lon="6.44025">
        <ele>1405.4</ele>
        <time>2016-06-22T10:54:08Z</time>
      </trkpt>
      <trkpt lat="45.68181" lon="6.44031">
        <ele>1407.3</ele>
        <time>2016-06-22T10:54:17Z</time>
      </trkpt>
      <trkpt lat="45.68188" lon="6.4404">
        <ele>1409</ele>
        <time>2016-06-22T10:54:25Z</time>
      </trkpt>
      <trkpt lat="45.68195" lon="6.44051">
        <ele>1411</ele>
        <time>2016-06-22T10:54:34Z</time>
      </trkpt>
      <trkpt lat="45.68198" lon="6.44063">
        <ele>1412.4</ele>
        <time>2016-06-22T10:54:42Z</time>
      </trkpt>
      <trkpt lat="45.68205" lon="6.44073">
        <ele>1413.5</ele>
        <time>2016-06-22T10:54:49Z</time>
      </trkpt>
      <trkpt lat="45.6821" lon="6.44084">
        <ele>1414.7</ele>
        <time>2016-06-22T10:54:57Z</time>
      </trkpt>
      <trkpt lat="45.68216" lon="6.44093">
        <ele>1415.8</ele>
        <time>2016-06-22T10:55:04Z</time>
      </trkpt>
      <trkpt lat="45.68224" lon="6.44102">
        <ele>1417.2</ele>
        <time>2016-06-22T10:55:11Z</time>
      </trkpt>
      <trkpt lat="45.68232" lon="6.44109">
        <ele>1418.4</ele>
        <time>2016-06-22T10:55:18Z</time>
      </trkpt>
      <trkpt lat="45.68241" lon="6.44114">
        <ele>1419.3</ele>
        <time>2016-06-22T10:55:24Z</time>
      </trkpt>
      <trkpt lat="45.6825" lon="6.4412">
        <ele>1420.6</ele>
        <time>2016-06-22T10:55:33Z</time>
      </trkpt>
      <trkpt lat="45.6826" lon="6.44124">
        <ele>1421.8</ele>
        <time>2016-06-22T10:55:42Z</time>
      </trkpt>
      <trkpt lat="45.68269" lon="6.44127">
        <ele>1422.8</ele>
        <time>2016-06-22T10:55:50Z</time>
      </trkpt>
      <trkpt lat="45.68277" lon="6.44135">
        <ele>1424.2</ele>
        <time>2016-06-22T10:55:59Z</time>
      </trkpt>
      <trkpt lat="45.6827" lon="6.44144">
        <ele>1425.3</ele>
        <time>2016-06-22T10:56:06Z</time>
      </trkpt>
      <trkpt lat="45.6826" lon="6.44146">
        <ele>1426.6</ele>
        <time>2016-06-22T10:56:14Z</time>
      </trkpt>
      <trkpt lat="45.6825" lon="6.44145">
        <ele>1427.6</ele>
        <time>2016-06-22T10:56:22Z</time>
      </trkpt>
      <trkpt lat="45.68241" lon="6.44144">
        <ele>1428.7</ele>
        <time>2016-06-22T10:56:29Z</time>
      </trkpt>
      <trkpt lat="45.68231" lon="6.44144">
        <ele>1430.2</ele>
        <time>2016-06-22T10:56:37Z</time>
      </trkpt>
      <trkpt lat="45.68222" lon="6.44146">
        <ele>1431.7</ele>
        <time>2016-06-22T10:56:44Z</time>
      </trkpt>
      <trkpt lat="45.68212" lon="6.44146">
        <ele>1433.5</ele>
        <time>2016-06-22T10:56:52Z</time>
      </trkpt>
      <trkpt lat="45.68203" lon="6.44145">
        <ele>1435.1</ele>
        <time>2016-06-22T10:56:59Z</time>
      </trkpt>
      <trkpt lat="45.68193" lon="6.44146">
        <ele>1436.4</ele>
        <time>2016-06-22T10:57:06Z</time>
      </trkpt>
      <trkpt lat="45.68184" lon="6.44146">
        <ele>1437.7</ele>
        <time>2016-06-22T10:57:13Z</time>
      </trkpt>
      <trkpt lat="45.68175" lon="6.44147">
        <ele>1439</ele>
        <time>2016-06-22T10:57:20Z</time>
      </trkpt>
      <trkpt lat="45.68165" lon="6.44148">
        <ele>1440.1</ele>
        <time>2016-06-22T10:57:26Z</time>
      </trkpt>
      <trkpt lat="45.68155" lon="6.44145">
        <ele>1441.2</ele>
        <time>2016-06-22T10:57:32Z</time>
      </trkpt>
      <trkpt lat="45.68146" lon="6.44142">
        <ele>1442.5</ele>
        <time>2016-06-22T10:57:38Z</time>
      </trkpt>
      <trkpt lat="45.68136" lon="6.44141">
        <ele>1443.9</ele>
        <time>2016-06-22T10:57:44Z</time>
      </trkpt>
      <trkpt lat="45.68126" lon="6.44139">
        <ele>1445.5</ele>
        <time>2016-06-22T10:57:51Z</time>
      </trkpt>
      <trkpt lat="45.68116" lon="6.44138">
        <ele>1446.6</ele>
        <time>2016-06-22T10:57:57Z</time>
      </trkpt>
      <trkpt lat="45.68107" lon="6.44135">
        <ele>1448.1</ele>
        <time>2016-06-22T10:58:04Z</time>
      </trkpt>
      <trkpt lat="45.68098" lon="6.44133">
        <ele>1449.5</ele>
        <time>2016-06-22T10:58:10Z</time>
      </trkpt>
      <trkpt lat="45.68087" lon="6.44131">
        <ele>1450.9</ele>
        <time>2016-06-22T10:58:16Z</time>
      </trkpt>
      <trkpt lat="45.68078" lon="6.44128">
        <ele>1452.5</ele>
        <time>2016-06-22T10:58:22Z</time>
      </trkpt>
      <trkpt lat="45.68069" lon="6.44126">
        <ele>1453.7</ele>
        <time>2016-06-22T10:58:27Z</time>
      </trkpt>
      <trkpt lat="45.68059" lon="6.44127">
        <ele>1455.4</ele>
        <time>2016-06-22T10:58:34Z</time>
      </trkpt>
      <trkpt lat="45.6805" lon="6.44124">
        <ele>1456.6</ele>
        <time>2016-06-22T10:58:39Z</time>
      </trkpt>
      <trkpt lat="45.6804" lon="6.44125">
        <ele>1457.9</ele>
        <time>2016-06-22T10:58:45Z</time>
      </trkpt>
      <trkpt lat="45.68028" lon="6.44127">
        <ele>1459.1</ele>
        <time>2016-06-22T10:58:51Z</time>
      </trkpt>
      <trkpt lat="45.68019" lon="6.44129">
        <ele>1460.1</ele>
        <time>2016-06-22T10:58:56Z</time>
      </trkpt>
      <trkpt lat="45.6801" lon="6.44129">
        <ele>1461.8</ele>
        <time>2016-06-22T10:59:05Z</time>
      </trkpt>
      <trkpt lat="45.68002" lon="6.44138">
        <ele>1463.7</ele>
        <time>2016-06-22T10:59:16Z</time>
      </trkpt>
      <trkpt lat="45.67995" lon="6.44149">
        <ele>1465.1</ele>
        <time>2016-06-22T10:59:24Z</time>
      </trkpt>
      <trkpt lat="45.67987" lon="6.44157">
        <ele>1466.6</ele>
        <time>2016-06-22T10:59:33Z</time>
      </trkpt>
      <trkpt lat="45.67978" lon="6.44165">
        <ele>1468.2</ele>
        <time>2016-06-22T10:59:42Z</time>
      </trkpt>
      <trkpt lat="45.6797" lon="6.44169">
        <ele>1469</ele>
        <time>2016-06-22T10:59:47Z</time>
      </trkpt>
      <trkpt lat="45.67962" lon="6.44177">
        <ele>1470.1</ele>
        <time>2016-06-22T10:59:53Z</time>
      </trkpt>
      <trkpt lat="45.67954" lon="6.44185">
        <ele>1466.2</ele>
        <time>2016-06-22T11:00:01Z</time>
      </trkpt>
      <trkpt lat="45.67947" lon="6.44193">
        <ele>1469.5</ele>
        <time>2016-06-22T11:00:10Z</time>
      </trkpt>
      <trkpt lat="45.67941" lon="6.44203">
        <ele>1471.6</ele>
        <time>2016-06-22T11:00:17Z</time>
      </trkpt>
      <trkpt lat="45.67944" lon="6.44216">
        <ele>1473.4</ele>
        <time>2016-06-22T11:00:26Z</time>
      </trkpt>
      <trkpt lat="45.67952" lon="6.44208">
        <ele>1475</ele>
        <time>2016-06-22T11:00:36Z</time>
      </trkpt>
      <trkpt lat="45.67961" lon="6.44204">
        <ele>1476.9</ele>
        <time>2016-06-22T11:00:45Z</time>
      </trkpt>
      <trkpt lat="45.6797" lon="6.44198">
        <ele>1479.2</ele>
        <time>2016-06-22T11:00:55Z</time>
      </trkpt>
      <trkpt lat="45.67981" lon="6.44196">
        <ele>1481.1</ele>
        <time>2016-06-22T11:01:03Z</time>
      </trkpt>
      <trkpt lat="45.6799" lon="6.44192">
        <ele>1482.7</ele>
        <time>2016-06-22T11:01:10Z</time>
      </trkpt>
      <trkpt lat="45.67999" lon="6.44188">
        <ele>1484.5</ele>
        <time>2016-06-22T11:01:18Z</time>
      </trkpt>
      <trkpt lat="45.68009" lon="6.44188">
        <ele>1486.5</ele>
        <time>2016-06-22T11:01:28Z</time>
      </trkpt>
      <trkpt lat="45.6802" lon="6.44185">
        <ele>1487.5</ele>
        <time>2016-06-22T11:01:34Z</time>
      </trkpt>
      <trkpt lat="45.6803" lon="6.44184">
        <ele>1488.6</ele>
        <time>2016-06-22T11:01:42Z</time>
      </trkpt>
      <trkpt lat="45.68038" lon="6.44189">
        <ele>1489.7</ele>
        <time>2016-06-22T11:01:50Z</time>
      </trkpt>
      <trkpt lat="45.6803" lon="6.44195">
        <ele>1491.1</ele>
        <time>2016-06-22T11:02:01Z</time>
      </trkpt>
      <trkpt lat="45.68021" lon="6.44196">
        <ele>1492.2</ele>
        <time>2016-06-22T11:02:11Z</time>
      </trkpt>
      <trkpt lat="45.68012" lon="6.44203">
        <ele>1493</ele>
        <time>2016-06-22T11:02:19Z</time>
      </trkpt>
      <trkpt lat="45.68004" lon="6.44211">
        <ele>1494.1</ele>
        <time>2016-06-22T11:02:27Z</time>
      </trkpt>
      <trkpt lat="45.67995" lon="6.44218">
        <ele>1495.5</ele>
        <time>2016-06-22T11:02:36Z</time>
      </trkpt>
      <trkpt lat="45.67987" lon="6.44225">
        <ele>1496.7</ele>
        <time>2016-06-22T11:02:43Z</time>
      </trkpt>
      <trkpt lat="45.67982" lon="6.44237">
        <ele>1498.3</ele>
        <time>2016-06-22T11:02:53Z</time>
      </trkpt>
      <trkpt lat="45.67973" lon="6.44245">
        <ele>1500.6</ele>
        <time>2016-06-22T11:03:03Z</time>
      </trkpt>
      <trkpt lat="45.67968" lon="6.44257">
        <ele>1502.2</ele>
        <time>2016-06-22T11:03:11Z</time>
      </trkpt>
      <trkpt lat="45.67975" lon="6.44266">
        <ele>1503.8</ele>
        <time>2016-06-22T11:03:22Z</time>
      </trkpt>
      <trkpt lat="45.67984" lon="6.4426">
        <ele>1505.5</ele>
        <time>2016-06-22T11:03:34Z</time>
      </trkpt>
      <trkpt lat="45.67993" lon="6.44255">
        <ele>1507.2</ele>
        <time>2016-06-22T11:03:43Z</time>
      </trkpt>
      <trkpt lat="45.68003" lon="6.44255">
        <ele>1509.1</ele>
        <time>2016-06-22T11:03:51Z</time>
      </trkpt>
      <trkpt lat="45.68012" lon="6.44253">
        <ele>1510.8</ele>
        <time>2016-06-22T11:03:58Z</time>
      </trkpt>
      <trkpt lat="45.68021" lon="6.44251">
        <ele>1512.6</ele>
        <time>2016-06-22T11:04:06Z</time>
      </trkpt>
      <trkpt lat="45.68031" lon="6.4425">
        <ele>1514.4</ele>
        <time>2016-06-22T11:04:15Z</time>
      </trkpt>
      <trkpt lat="45.68041" lon="6.44247">
        <ele>1515.9</ele>
        <time>2016-06-22T11:04:23Z</time>
      </trkpt>
      <trkpt lat="45.6805" lon="6.44247">
        <ele>1517</ele>
        <time>2016-06-22T11:04:31Z</time>
      </trkpt>
      <trkpt lat="45.68059" lon="6.44243">
        <ele>1518.4</ele>
        <time>2016-06-22T11:04:40Z</time>
      </trkpt>
      <trkpt lat="45.68067" lon="6.44252">
        <ele>1519.8</ele>
        <time>2016-06-22T11:04:48Z</time>
      </trkpt>
      <trkpt lat="45.68061" lon="6.44264">
        <ele>1520.9</ele>
        <time>2016-06-22T11:04:56Z</time>
      </trkpt>
      <trkpt lat="45.68052" lon="6.44265">
        <ele>1521.7</ele>
        <time>2016-06-22T11:05:05Z</time>
      </trkpt>
      <trkpt lat="45.68043" lon="6.44268">
        <ele>1522.5</ele>
        <time>2016-06-22T11:05:12Z</time>
      </trkpt>
      <trkpt lat="45.68034" lon="6.44274">
        <ele>1523.6</ele>
        <time>2016-06-22T11:05:20Z</time>
      </trkpt>
      <trkpt lat="45.68025" lon="6.44281">
        <ele>1524.8</ele>
        <time>2016-06-22T11:05:28Z</time>
      </trkpt>
      <trkpt lat="45.68017" lon="6.44288">
        <ele>1526.7</ele>
        <time>2016-06-22T11:05:37Z</time>
      </trkpt>
      <trkpt lat="45.68009" lon="6.44297">
        <ele>1528.7</ele>
        <time>2016-06-22T11:05:46Z</time>
      </trkpt>
      <trkpt lat="45.68002" lon="6.44305">
        <ele>1530.6</ele>
        <time>2016-06-22T11:05:54Z</time>
      </trkpt>
      <trkpt lat="45.67995" lon="6.44314">
        <ele>1531.9</ele>
        <time>2016-06-22T11:06:00Z</time>
      </trkpt>
      <trkpt lat="45.67987" lon="6.4432">
        <ele>1533.9</ele>
        <time>2016-06-22T11:06:08Z</time>
      </trkpt>
      <trkpt lat="45.67979" lon="6.44329">
        <ele>1535.7</ele>
        <time>2016-06-22T11:06:16Z</time>
      </trkpt>
      <trkpt lat="45.6798" lon="6.44343">
        <ele>1536.8</ele>
        <time>2016-06-22T11:06:23Z</time>
      </trkpt>
      <trkpt lat="45.67988" lon="6.44348">
        <ele>1538</ele>
        <time>2016-06-22T11:06:32Z</time>
      </trkpt>
      <trkpt lat="45.67997" lon="6.44347">
        <ele>1538.5</ele>
        <time>2016-06-22T11:06:38Z</time>
      </trkpt>
      <trkpt lat="45.68007" lon="6.44346">
        <ele>1539.2</ele>
        <time>2016-06-22T11:06:46Z</time>
      </trkpt>
      <trkpt lat="45.68015" lon="6.44344">
        <ele>1540.1</ele>
        <time>2016-06-22T11:06:53Z</time>
      </trkpt>
      <trkpt lat="45.68025" lon="6.44342">
        <ele>1541.5</ele>
        <time>2016-06-22T11:07:02Z</time>
      </trkpt>
      <trkpt lat="45.68034" lon="6.44341">
        <ele>1542.4</ele>
        <time>2016-06-22T11:07:09Z</time>
      </trkpt>
      <trkpt lat="45.68044" lon="6.4434">
        <ele>1543.6</ele>
        <time>2016-06-22T11:07:18Z</time>
      </trkpt>
      <trkpt lat="45.68053" lon="6.44343">
        <ele>1545</ele>
        <time>2016-06-22T11:07:27Z</time>
      </trkpt>
      <trkpt lat="45.68062" lon="6.44346">
        <ele>1546.3</ele>
        <time>2016-06-22T11:07:35Z</time>
      </trkpt>
      <trkpt lat="45.68072" lon="6.44348">
        <ele>1547.4</ele>
        <time>2016-06-22T11:07:42Z</time>
      </trkpt>
      <trkpt lat="45.68081" lon="6.44352">
        <ele>1548.6</ele>
        <time>2016-06-22T11:07:48Z</time>
      </trkpt>
      <trkpt lat="45.68087" lon="6.44362">
        <ele>1550</ele>
        <time>2016-06-22T11:07:56Z</time>
      </trkpt>
      <trkpt lat="45.68079" lon="6.44371">
        <ele>1551.7</ele>
        <time>2016-06-22T11:08:06Z</time>
      </trkpt>
      <trkpt lat="45.68069" lon="6.44367">
        <ele>1553.2</ele>
        <time>2016-06-22T11:08:15Z</time>
      </trkpt>
      <trkpt lat="45.68059" lon="6.44367">
        <ele>1554.6</ele>
        <time>2016-06-22T11:08:24Z</time>
      </trkpt>
      <trkpt lat="45.6805" lon="6.44369">
        <ele>1555.8</ele>
        <time>2016-06-22T11:08:33Z</time>
      </trkpt>
      <trkpt lat="45.68041" lon="6.44372">
        <ele>1556.8</ele>
        <time>2016-06-22T11:08:40Z</time>
      </trkpt>
      <trkpt lat="45.68032" lon="6.44376">
        <ele>1558</ele>
        <time>2016-06-22T11:08:47Z</time>
      </trkpt>
      <trkpt lat="45.68022" lon="6.4438">
        <ele>1559.7</ele>
        <time>2016-06-22T11:08:56Z</time>
      </trkpt>
      <trkpt lat="45.68013" lon="6.44384">
        <ele>1561.5</ele>
        <time>2016-06-22T11:09:06Z</time>
      </trkpt>
      <trkpt lat="45.68003" lon="6.44389">
        <ele>1562.8</ele>
        <time>2016-06-22T11:09:13Z</time>
      </trkpt>
      <trkpt lat="45.67994" lon="6.44395">
        <ele>1564.4</ele>
        <time>2016-06-22T11:09:21Z</time>
      </trkpt>
      <trkpt lat="45.67986" lon="6.44401">
        <ele>1565.7</ele>
        <time>2016-06-22T11:09:29Z</time>
      </trkpt>
      <trkpt lat="45.67978" lon="6.44407">
        <ele>1567</ele>
        <time>2016-06-22T11:09:37Z</time>
      </trkpt>
      <trkpt lat="45.67969" lon="6.44415">
        <ele>1568.2</ele>
        <time>2016-06-22T11:09:44Z</time>
      </trkpt>
      <trkpt lat="45.67961" lon="6.44422">
        <ele>1569.6</ele>
        <time>2016-06-22T11:09:53Z</time>
      </trkpt>
      <trkpt lat="45.67953" lon="6.4443">
        <ele>1570.6</ele>
        <time>2016-06-22T11:09:59Z</time>
      </trkpt>
      <trkpt lat="45.67945" lon="6.44435">
        <ele>1572.1</ele>
        <time>2016-06-22T11:10:07Z</time>
      </trkpt>
      <trkpt lat="45.67936" lon="6.44437">
        <ele>1573.1</ele>
        <time>2016-06-22T11:10:13Z</time>
      </trkpt>
      <trkpt lat="45.67927" lon="6.44438">
        <ele>1574.3</ele>
        <time>2016-06-22T11:10:22Z</time>
      </trkpt>
      <trkpt lat="45.67918" lon="6.44436">
        <ele>1575.3</ele>
        <time>2016-06-22T11:10:30Z</time>
      </trkpt>
      <trkpt lat="45.67909" lon="6.44444">
        <ele>1576.5</ele>
        <time>2016-06-22T11:10:39Z</time>
      </trkpt>
      <trkpt lat="45.67901" lon="6.4445">
        <ele>1577.1</ele>
        <time>2016-06-22T11:10:46Z</time>
      </trkpt>
      <trkpt lat="45.67893" lon="6.44458">
        <ele>1577.7</ele>
        <time>2016-06-22T11:10:53Z</time>
      </trkpt>
      <trkpt lat="45.67884" lon="6.44463">
        <ele>1578.2</ele>
        <time>2016-06-22T11:11:01Z</time>
      </trkpt>
      <trkpt lat="45.67874" lon="6.44465">
        <ele>1578.6</ele>
        <time>2016-06-22T11:11:08Z</time>
      </trkpt>
      <trkpt lat="45.67866" lon="6.44471">
        <ele>1578.8</ele>
        <time>2016-06-22T11:11:14Z</time>
      </trkpt>
      <trkpt lat="45.67856" lon="6.44475">
        <ele>1579.2</ele>
        <time>2016-06-22T11:11:20Z</time>
      </trkpt>
      <trkpt lat="45.67846" lon="6.44475">
        <ele>1579.8</ele>
        <time>2016-06-22T11:11:29Z</time>
      </trkpt>
      <trkpt lat="45.67838" lon="6.44482">
        <ele>1580.4</ele>
        <time>2016-06-22T11:11:36Z</time>
      </trkpt>
      <trkpt lat="45.67832" lon="6.44493">
        <ele>1581.6</ele>
        <time>2016-06-22T11:11:43Z</time>
      </trkpt>
      <trkpt lat="45.67823" lon="6.44499">
        <ele>1583.2</ele>
        <time>2016-06-22T11:11:52Z</time>
      </trkpt>
      <trkpt lat="45.67815" lon="6.44507">
        <ele>1584.7</ele>
        <time>2016-06-22T11:12:00Z</time>
      </trkpt>
      <trkpt lat="45.67805" lon="6.44513">
        <ele>1586</ele>
        <time>2016-06-22T11:12:07Z</time>
      </trkpt>
      <trkpt lat="45.67796" lon="6.44518">
        <ele>1587.1</ele>
        <time>2016-06-22T11:12:13Z</time>
      </trkpt>
      <trkpt lat="45.6779" lon="6.44529">
        <ele>1588.1</ele>
        <time>2016-06-22T11:12:19Z</time>
      </trkpt>
      <trkpt lat="45.67799" lon="6.44534">
        <ele>1589.2</ele>
        <time>2016-06-22T11:12:27Z</time>
      </trkpt>
      <trkpt lat="45.67807" lon="6.44528">
        <ele>1589.9</ele>
        <time>2016-06-22T11:12:34Z</time>
      </trkpt>
      <trkpt lat="45.67817" lon="6.44524">
        <ele>1590.8</ele>
        <time>2016-06-22T11:12:41Z</time>
      </trkpt>
      <trkpt lat="45.67827" lon="6.44526">
        <ele>1592.3</ele>
        <time>2016-06-22T11:12:49Z</time>
      </trkpt>
      <trkpt lat="45.67837" lon="6.44526">
        <ele>1593.5</ele>
        <time>2016-06-22T11:12:55Z</time>
      </trkpt>
      <trkpt lat="45.67846" lon="6.44525">
        <ele>1595.2</ele>
        <time>2016-06-22T11:13:03Z</time>
      </trkpt>
      <trkpt lat="45.67856" lon="6.44521">
        <ele>1597.2</ele>
        <time>2016-06-22T11:13:13Z</time>
      </trkpt>
      <trkpt lat="45.67866" lon="6.44518">
        <ele>1598.3</ele>
        <time>2016-06-22T11:13:19Z</time>
      </trkpt>
      <trkpt lat="45.67875" lon="6.44521">
        <ele>1599.8</ele>
        <time>2016-06-22T11:13:26Z</time>
      </trkpt>
      <trkpt lat="45.6788" lon="6.44533">
        <ele>1601.6</ele>
        <time>2016-06-22T11:13:35Z</time>
      </trkpt>
      <trkpt lat="45.67886" lon="6.44544">
        <ele>1602.9</ele>
        <time>2016-06-22T11:13:45Z</time>
      </trkpt>
      <trkpt lat="45.6788" lon="6.44553">
        <ele>1605.7</ele>
        <time>2016-06-22T11:14:07Z</time>
      </trkpt>
      <trkpt lat="45.67871" lon="6.44557">
        <ele>1606.9</ele>
        <time>2016-06-22T11:14:15Z</time>
      </trkpt>
      <trkpt lat="45.67863" lon="6.44562">
        <ele>1608.4</ele>
        <time>2016-06-22T11:14:25Z</time>
      </trkpt>
      <trkpt lat="45.67853" lon="6.44565">
        <ele>1610</ele>
        <time>2016-06-22T11:14:35Z</time>
      </trkpt>
      <trkpt lat="45.67843" lon="6.44568">
        <ele>1611.4</ele>
        <time>2016-06-22T11:14:43Z</time>
      </trkpt>
      <trkpt lat="45.67835" lon="6.44572">
        <ele>1613.1</ele>
        <time>2016-06-22T11:14:52Z</time>
      </trkpt>
      <trkpt lat="45.67828" lon="6.4458">
        <ele>1614.8</ele>
        <time>2016-06-22T11:15:00Z</time>
      </trkpt>
      <trkpt lat="45.67819" lon="6.44586">
        <ele>1616.1</ele>
        <time>2016-06-22T11:15:06Z</time>
      </trkpt>
      <trkpt lat="45.6781" lon="6.44591">
        <ele>1618.1</ele>
        <time>2016-06-22T11:15:15Z</time>
      </trkpt>
      <trkpt lat="45.67802" lon="6.44597">
        <ele>1619.3</ele>
        <time>2016-06-22T11:15:22Z</time>
      </trkpt>
      <trkpt lat="45.67794" lon="6.44604">
        <ele>1620.8</ele>
        <time>2016-06-22T11:15:30Z</time>
      </trkpt>
      <trkpt lat="45.67784" lon="6.44609">
        <ele>1622.1</ele>
        <time>2016-06-22T11:15:37Z</time>
      </trkpt>
      <trkpt lat="45.67776" lon="6.44617">
        <ele>1623.2</ele>
        <time>2016-06-22T11:15:44Z</time>
      </trkpt>
      <trkpt lat="45.67768" lon="6.44624">
        <ele>1624.6</ele>
        <time>2016-06-22T11:15:51Z</time>
      </trkpt>
      <trkpt lat="45.67759" lon="6.44632">
        <ele>1626</ele>
        <time>2016-06-22T11:16:00Z</time>
      </trkpt>
      <trkpt lat="45.67766" lon="6.44642">
        <ele>1628.8</ele>
        <time>2016-06-22T11:16:09Z</time>
      </trkpt>
      <trkpt lat="45.67776" lon="6.4464">
        <ele>1630.4</ele>
        <time>2016-06-22T11:16:18Z</time>
      </trkpt>
      <trkpt lat="45.67785" lon="6.44636">
        <ele>1631.2</ele>
        <time>2016-06-22T11:16:25Z</time>
      </trkpt>
      <trkpt lat="45.67792" lon="6.44646">
        <ele>1632</ele>
        <time>2016-06-22T11:16:32Z</time>
      </trkpt>
      <trkpt lat="45.67786" lon="6.44656">
        <ele>1633</ele>
        <time>2016-06-22T11:16:40Z</time>
      </trkpt>
      <trkpt lat="45.67777" lon="6.44663">
        <ele>1633.7</ele>
        <time>2016-06-22T11:16:47Z</time>
      </trkpt>
      <trkpt lat="45.67771" lon="6.44675">
        <ele>1634.8</ele>
        <time>2016-06-22T11:16:55Z</time>
      </trkpt>
      <trkpt lat="45.67768" lon="6.44688">
        <ele>1635.6</ele>
        <time>2016-06-22T11:17:02Z</time>
      </trkpt>
      <trkpt lat="45.6776" lon="6.44681">
        <ele>1637.8</ele>
        <time>2016-06-22T11:17:12Z</time>
      </trkpt>
      <trkpt lat="45.67751" lon="6.44673">
        <ele>1639.3</ele>
        <time>2016-06-22T11:17:20Z</time>
      </trkpt>
      <trkpt lat="45.67742" lon="6.44677">
        <ele>1640.5</ele>
        <time>2016-06-22T11:17:27Z</time>
      </trkpt>
      <trkpt lat="45.67735" lon="6.44687">
        <ele>1641.4</ele>
        <time>2016-06-22T11:17:34Z</time>
      </trkpt>
      <trkpt lat="45.67729" lon="6.447">
        <ele>1642.3</ele>
        <time>2016-06-22T11:17:40Z</time>
      </trkpt>
      <trkpt lat="45.67724" lon="6.44711">
        <ele>1643.2</ele>
        <time>2016-06-22T11:17:46Z</time>
      </trkpt>
      <trkpt lat="45.67718" lon="6.44724">
        <ele>1644</ele>
        <time>2016-06-22T11:17:53Z</time>
      </trkpt>
      <trkpt lat="45.67715" lon="6.44738">
        <ele>1644.6</ele>
        <time>2016-06-22T11:17:59Z</time>
      </trkpt>
      <trkpt lat="45.67713" lon="6.44752">
        <ele>1653.8</ele>
        <time>2016-06-22T11:25:14Z</time>
      </trkpt>
      <trkpt lat="45.67718" lon="6.44765">
        <ele>1653.8</ele>
        <time>2016-06-22T11:25:21Z</time>
      </trkpt>
      <trkpt lat="45.67724" lon="6.44774">
        <ele>1653.6</ele>
        <time>2016-06-22T11:25:26Z</time>
      </trkpt>
      <trkpt lat="45.67726" lon="6.44788">
        <ele>1653.2</ele>
        <time>2016-06-22T11:25:31Z</time>
      </trkpt>
      <trkpt lat="45.67725" lon="6.44802">
        <ele>1652.6</ele>
        <time>2016-06-22T11:25:37Z</time>
      </trkpt>
      <trkpt lat="45.67728" lon="6.44817">
        <ele>1652</ele>
        <time>2016-06-22T11:25:43Z</time>
      </trkpt>
      <trkpt lat="45.67731" lon="6.44832">
        <ele>1651.7</ele>
        <time>2016-06-22T11:25:48Z</time>
      </trkpt>
      <trkpt lat="45.67733" lon="6.44846">
        <ele>1651.4</ele>
        <time>2016-06-22T11:25:53Z</time>
      </trkpt>
      <trkpt lat="45.67734" lon="6.44861">
        <ele>1651.3</ele>
        <time>2016-06-22T11:25:58Z</time>
      </trkpt>
      <trkpt lat="45.67738" lon="6.44873">
        <ele>1651.1</ele>
        <time>2016-06-22T11:26:03Z</time>
      </trkpt>
      <trkpt lat="45.67741" lon="6.44887">
        <ele>1651</ele>
        <time>2016-06-22T11:26:08Z</time>
      </trkpt>
      <trkpt lat="45.67745" lon="6.44901">
        <ele>1650.9</ele>
        <time>2016-06-22T11:26:13Z</time>
      </trkpt>
      <trkpt lat="45.67749" lon="6.44916">
        <ele>1650.7</ele>
        <time>2016-06-22T11:26:18Z</time>
      </trkpt>
      <trkpt lat="45.67751" lon="6.44931">
        <ele>1650.8</ele>
        <time>2016-06-22T11:26:23Z</time>
      </trkpt>
      <trkpt lat="45.67755" lon="6.44946">
        <ele>1650.8</ele>
        <time>2016-06-22T11:26:28Z</time>
      </trkpt>
      <trkpt lat="45.67758" lon="6.44959">
        <ele>1650.9</ele>
        <time>2016-06-22T11:26:32Z</time>
      </trkpt>
      <trkpt lat="45.67761" lon="6.44972">
        <ele>1651</ele>
        <time>2016-06-22T11:26:36Z</time>
      </trkpt>
      <trkpt lat="45.67766" lon="6.44986">
        <ele>1651.3</ele>
        <time>2016-06-22T11:26:41Z</time>
      </trkpt>
      <trkpt lat="45.67767" lon="6.45001">
        <ele>1651.6</ele>
        <time>2016-06-22T11:26:46Z</time>
      </trkpt>
      <trkpt lat="45.67769" lon="6.45015">
        <ele>1651.8</ele>
        <time>2016-06-22T11:26:51Z</time>
      </trkpt>
      <trkpt lat="45.6777" lon="6.45029">
        <ele>1652.1</ele>
        <time>2016-06-22T11:26:56Z</time>
      </trkpt>
      <trkpt lat="45.67772" lon="6.45044">
        <ele>1652.4</ele>
        <time>2016-06-22T11:27:01Z</time>
      </trkpt>
      <trkpt lat="45.67774" lon="6.45057">
        <ele>1652.9</ele>
        <time>2016-06-22T11:27:06Z</time>
      </trkpt>
      <trkpt lat="45.67774" lon="6.45072">
        <ele>1653.5</ele>
        <time>2016-06-22T11:27:11Z</time>
      </trkpt>
      <trkpt lat="45.67774" lon="6.45088">
        <ele>1654.1</ele>
        <time>2016-06-22T11:27:16Z</time>
      </trkpt>
      <trkpt lat="45.67774" lon="6.45102">
        <ele>1654.5</ele>
        <time>2016-06-22T11:27:20Z</time>
      </trkpt>
      <trkpt lat="45.67776" lon="6.45117">
        <ele>1654.9</ele>
        <time>2016-06-22T11:27:24Z</time>
      </trkpt>
      <trkpt lat="45.6778" lon="6.45133">
        <ele>1655.2</ele>
        <time>2016-06-22T11:27:28Z</time>
      </trkpt>
      <trkpt lat="45.67785" lon="6.45144">
        <ele>1655.4</ele>
        <time>2016-06-22T11:27:31Z</time>
      </trkpt>
      <trkpt lat="45.67787" lon="6.45157">
        <ele>1655.5</ele>
        <time>2016-06-22T11:27:34Z</time>
      </trkpt>
      <trkpt lat="45.67791" lon="6.4517">
        <ele>1655.7</ele>
        <time>2016-06-22T11:27:37Z</time>
      </trkpt>
      <trkpt lat="45.67797" lon="6.45181">
        <ele>1655.8</ele>
        <time>2016-06-22T11:27:40Z</time>
      </trkpt>
      <trkpt lat="45.678" lon="6.45196">
        <ele>1655.9</ele>
        <time>2016-06-22T11:27:44Z</time>
      </trkpt>
      <trkpt lat="45.67802" lon="6.45208">
        <ele>1656</ele>
        <time>2016-06-22T11:27:48Z</time>
      </trkpt>
      <trkpt lat="45.67801" lon="6.45222">
        <ele>1656.3</ele>
        <time>2016-06-22T11:27:53Z</time>
      </trkpt>
      <trkpt lat="45.67797" lon="6.45236">
        <ele>1656.8</ele>
        <time>2016-06-22T11:27:58Z</time>
      </trkpt>
      <trkpt lat="45.67793" lon="6.45249">
        <ele>1657.7</ele>
        <time>2016-06-22T11:28:04Z</time>
      </trkpt>
      <trkpt lat="45.67789" lon="6.45263">
        <ele>1658.5</ele>
        <time>2016-06-22T11:28:11Z</time>
      </trkpt>
      <trkpt lat="45.67784" lon="6.45274">
        <ele>1659.2</ele>
        <time>2016-06-22T11:28:16Z</time>
      </trkpt>
      <trkpt lat="45.67778" lon="6.45286">
        <ele>1660</ele>
        <time>2016-06-22T11:28:22Z</time>
      </trkpt>
      <trkpt lat="45.67772" lon="6.45298">
        <ele>1660.9</ele>
        <time>2016-06-22T11:28:28Z</time>
      </trkpt>
      <trkpt lat="45.67767" lon="6.45309">
        <ele>1661.7</ele>
        <time>2016-06-22T11:28:32Z</time>
      </trkpt>
      <trkpt lat="45.6776" lon="6.4532">
        <ele>1662.7</ele>
        <time>2016-06-22T11:28:38Z</time>
      </trkpt>
      <trkpt lat="45.67756" lon="6.45332">
        <ele>1663.7</ele>
        <time>2016-06-22T11:28:43Z</time>
      </trkpt>
      <trkpt lat="45.67755" lon="6.45346">
        <ele>1664.7</ele>
        <time>2016-06-22T11:28:48Z</time>
      </trkpt>
      <trkpt lat="45.67753" lon="6.45359">
        <ele>1665.8</ele>
        <time>2016-06-22T11:28:54Z</time>
      </trkpt>
      <trkpt lat="45.67751" lon="6.45374">
        <ele>1666.4</ele>
        <time>2016-06-22T11:28:58Z</time>
      </trkpt>
      <trkpt lat="45.67749" lon="6.45389">
        <ele>1666.9</ele>
        <time>2016-06-22T11:29:01Z</time>
      </trkpt>
      <trkpt lat="45.67747" lon="6.45402">
        <ele>1667.2</ele>
        <time>2016-06-22T11:29:04Z</time>
      </trkpt>
      <trkpt lat="45.67744" lon="6.45417">
        <ele>1667.6</ele>
        <time>2016-06-22T11:29:08Z</time>
      </trkpt>
      <trkpt lat="45.67743" lon="6.45432">
        <ele>1668</ele>
        <time>2016-06-22T11:29:12Z</time>
      </trkpt>
      <trkpt lat="45.67745" lon="6.45446">
        <ele>1668.4</ele>
        <time>2016-06-22T11:29:17Z</time>
      </trkpt>
      <trkpt lat="45.67749" lon="6.4546">
        <ele>1668.8</ele>
        <time>2016-06-22T11:29:23Z</time>
      </trkpt>
      <trkpt lat="45.67755" lon="6.45475">
        <ele>1669</ele>
        <time>2016-06-22T11:29:27Z</time>
      </trkpt>
      <trkpt lat="45.67758" lon="6.45488">
        <ele>1668.8</ele>
        <time>2016-06-22T11:29:30Z</time>
      </trkpt>
      <trkpt lat="45.67761" lon="6.45504">
        <ele>1668.7</ele>
        <time>2016-06-22T11:29:33Z</time>
      </trkpt>
      <trkpt lat="45.67766" lon="6.45516">
        <ele>1668.6</ele>
        <time>2016-06-22T11:29:36Z</time>
      </trkpt>
      <trkpt lat="45.67769" lon="6.45532">
        <ele>1668.5</ele>
        <time>2016-06-22T11:29:40Z</time>
      </trkpt>
      <trkpt lat="45.67773" lon="6.45546">
        <ele>1668.5</ele>
        <time>2016-06-22T11:29:44Z</time>
      </trkpt>
      <trkpt lat="45.6778" lon="6.45558">
        <ele>1668.5</ele>
        <time>2016-06-22T11:29:48Z</time>
      </trkpt>
      <trkpt lat="45.67788" lon="6.45568">
        <ele>1668.5</ele>
        <time>2016-06-22T11:29:51Z</time>
      </trkpt>
      <trkpt lat="45.67794" lon="6.45581">
        <ele>1668.7</ele>
        <time>2016-06-22T11:29:54Z</time>
      </trkpt>
      <trkpt lat="45.67799" lon="6.45594">
        <ele>1668.9</ele>
        <time>2016-06-22T11:29:57Z</time>
      </trkpt>
      <trkpt lat="45.67806" lon="6.45603">
        <ele>1669.1</ele>
        <time>2016-06-22T11:30:00Z</time>
      </trkpt>
      <trkpt lat="45.67813" lon="6.45613">
        <ele>1669.3</ele>
        <time>2016-06-22T11:30:03Z</time>
      </trkpt>
      <trkpt lat="45.6782" lon="6.45624">
        <ele>1669.6</ele>
        <time>2016-06-22T11:30:06Z</time>
      </trkpt>
      <trkpt lat="45.67826" lon="6.45635">
        <ele>1669.9</ele>
        <time>2016-06-22T11:30:09Z</time>
      </trkpt>
      <trkpt lat="45.67833" lon="6.45646">
        <ele>1670.1</ele>
        <time>2016-06-22T11:30:12Z</time>
      </trkpt>
      <trkpt lat="45.6784" lon="6.45656">
        <ele>1670.2</ele>
        <time>2016-06-22T11:30:15Z</time>
      </trkpt>
      <trkpt lat="45.6785" lon="6.45664">
        <ele>1670.4</ele>
        <time>2016-06-22T11:30:19Z</time>
      </trkpt>
      <trkpt lat="45.67859" lon="6.45668">
        <ele>1670.6</ele>
        <time>2016-06-22T11:30:22Z</time>
      </trkpt>
      <trkpt lat="45.6787" lon="6.4567">
        <ele>1670.7</ele>
        <time>2016-06-22T11:30:26Z</time>
      </trkpt>
      <trkpt lat="45.67881" lon="6.45674">
        <ele>1671</ele>
        <time>2016-06-22T11:30:30Z</time>
      </trkpt>
      <trkpt lat="45.67891" lon="6.4568">
        <ele>1671.4</ele>
        <time>2016-06-22T11:30:35Z</time>
      </trkpt>
      <trkpt lat="45.679" lon="6.4569">
        <ele>1671.9</ele>
        <time>2016-06-22T11:30:39Z</time>
      </trkpt>
      <trkpt lat="45.67904" lon="6.45704">
        <ele>1672.2</ele>
        <time>2016-06-22T11:30:42Z</time>
      </trkpt>
      <trkpt lat="45.67908" lon="6.45716">
        <ele>1672.4</ele>
        <time>2016-06-22T11:30:45Z</time>
      </trkpt>
      <trkpt lat="45.67915" lon="6.4573">
        <ele>1672.6</ele>
        <time>2016-06-22T11:30:49Z</time>
      </trkpt>
      <trkpt lat="45.67919" lon="6.45743">
        <ele>1672.8</ele>
        <time>2016-06-22T11:30:52Z</time>
      </trkpt>
      <trkpt lat="45.67923" lon="6.45755">
        <ele>1672.8</ele>
        <time>2016-06-22T11:30:55Z</time>
      </trkpt>
      <trkpt lat="45.67926" lon="6.45768">
        <ele>1672.9</ele>
        <time>2016-06-22T11:30:58Z</time>
      </trkpt>
      <trkpt lat="45.6793" lon="6.45782">
        <ele>1672.9</ele>
        <time>2016-06-22T11:31:02Z</time>
      </trkpt>
      <trkpt lat="45.67932" lon="6.45796">
        <ele>1673</ele>
        <time>2016-06-22T11:31:07Z</time>
      </trkpt>
      <trkpt lat="45.67936" lon="6.4581">
        <ele>1673.1</ele>
        <time>2016-06-22T11:31:12Z</time>
      </trkpt>
      <trkpt lat="45.6794" lon="6.45823">
        <ele>1673.7</ele>
        <time>2016-06-22T11:31:18Z</time>
      </trkpt>
      <trkpt lat="45.67944" lon="6.45835">
        <ele>1674</ele>
        <time>2016-06-22T11:31:25Z</time>
      </trkpt>
      <trkpt lat="45.67948" lon="6.45848">
        <ele>1675.1</ele>
        <time>2016-06-22T11:31:34Z</time>
      </trkpt>
      <trkpt lat="45.67954" lon="6.45857">
        <ele>1675.7</ele>
        <time>2016-06-22T11:31:42Z</time>
      </trkpt>
      <trkpt lat="45.67961" lon="6.45867">
        <ele>1676.5</ele>
        <time>2016-06-22T11:31:49Z</time>
      </trkpt>
      <trkpt lat="45.67965" lon="6.45879">
        <ele>1677.5</ele>
        <time>2016-06-22T11:31:57Z</time>
      </trkpt>
      <trkpt lat="45.67967" lon="6.45892">
        <ele>1679.1</ele>
        <time>2016-06-22T11:32:07Z</time>
      </trkpt>
      <trkpt lat="45.67963" lon="6.45905">
        <ele>1680.3</ele>
        <time>2016-06-22T11:32:15Z</time>
      </trkpt>
      <trkpt lat="45.67972" lon="6.45911">
        <ele>1683</ele>
        <time>2016-06-22T11:32:29Z</time>
      </trkpt>
      <trkpt lat="45.67977" lon="6.459">
        <ele>1684</ele>
        <time>2016-06-22T11:32:36Z</time>
      </trkpt>
      <trkpt lat="45.6798" lon="6.45885">
        <ele>1684.8</ele>
        <time>2016-06-22T11:32:42Z</time>
      </trkpt>
      <trkpt lat="45.67983" lon="6.45871">
        <ele>1685.6</ele>
        <time>2016-06-22T11:32:48Z</time>
      </trkpt>
      <trkpt lat="45.67985" lon="6.45858">
        <ele>1686.3</ele>
        <time>2016-06-22T11:32:55Z</time>
      </trkpt>
      <trkpt lat="45.67982" lon="6.45846">
        <ele>1687.2</ele>
        <time>2016-06-22T11:33:03Z</time>
      </trkpt>
      <trkpt lat="45.67991" lon="6.45844">
        <ele>1689</ele>
        <time>2016-06-22T11:33:17Z</time>
      </trkpt>
      <trkpt lat="45.67992" lon="6.45858">
        <ele>1689.9</ele>
        <time>2016-06-22T11:33:24Z</time>
      </trkpt>
      <trkpt lat="45.67993" lon="6.45871">
        <ele>1691</ele>
        <time>2016-06-22T11:33:31Z</time>
      </trkpt>
      <trkpt lat="45.67995" lon="6.45886">
        <ele>1691.8</ele>
        <time>2016-06-22T11:33:38Z</time>
      </trkpt>
      <trkpt lat="45.67998" lon="6.45899">
        <ele>1692.9</ele>
        <time>2016-06-22T11:33:47Z</time>
      </trkpt>
      <trkpt lat="45.68" lon="6.45912">
        <ele>1694.2</ele>
        <time>2016-06-22T11:33:55Z</time>
      </trkpt>
      <trkpt lat="45.67999" lon="6.45926">
        <ele>1695.5</ele>
        <time>2016-06-22T11:34:02Z</time>
      </trkpt>
      <trkpt lat="45.68" lon="6.4594">
        <ele>1697</ele>
        <time>2016-06-22T11:34:09Z</time>
      </trkpt>
      <trkpt lat="45.67999" lon="6.45953">
        <ele>1698.1</ele>
        <time>2016-06-22T11:34:15Z</time>
      </trkpt>
      <trkpt lat="45.67998" lon="6.45966">
        <ele>1699.9</ele>
        <time>2016-06-22T11:34:23Z</time>
      </trkpt>
      <trkpt lat="45.67997" lon="6.4598">
        <ele>1701.1</ele>
        <time>2016-06-22T11:34:29Z</time>
      </trkpt>
      <trkpt lat="45.67996" lon="6.45993">
        <ele>1702.2</ele>
        <time>2016-06-22T11:34:36Z</time>
      </trkpt>
      <trkpt lat="45.67997" lon="6.46007">
        <ele>1703.7</ele>
        <time>2016-06-22T11:34:44Z</time>
      </trkpt>
      <trkpt lat="45.68006" lon="6.46004">
        <ele>1706.6</ele>
        <time>2016-06-22T11:34:59Z</time>
      </trkpt>
      <trkpt lat="45.68008" lon="6.4599">
        <ele>1707.5</ele>
        <time>2016-06-22T11:35:06Z</time>
      </trkpt>
      <trkpt lat="45.68012" lon="6.45979">
        <ele>1708.2</ele>
        <time>2016-06-22T11:35:13Z</time>
      </trkpt>
      <trkpt lat="45.68016" lon="6.45967">
        <ele>1708.9</ele>
        <time>2016-06-22T11:35:21Z</time>
      </trkpt>
      <trkpt lat="45.68018" lon="6.45952">
        <ele>1709.8</ele>
        <time>2016-06-22T11:35:28Z</time>
      </trkpt>
      <trkpt lat="45.68027" lon="6.45948">
        <ele>1710.8</ele>
        <time>2016-06-22T11:35:37Z</time>
      </trkpt>
      <trkpt lat="45.68026" lon="6.45962">
        <ele>1711.8</ele>
        <time>2016-06-22T11:35:44Z</time>
      </trkpt>
      <trkpt lat="45.68021" lon="6.45974">
        <ele>1712.5</ele>
        <time>2016-06-22T11:35:51Z</time>
      </trkpt>
      <trkpt lat="45.6802" lon="6.45987">
        <ele>1713.1</ele>
        <time>2016-06-22T11:35:58Z</time>
      </trkpt>
      <trkpt lat="45.68023" lon="6.46">
        <ele>1714.1</ele>
        <time>2016-06-22T11:36:08Z</time>
      </trkpt>
      <trkpt lat="45.6803" lon="6.4599">
        <ele>1715.3</ele>
        <time>2016-06-22T11:36:16Z</time>
      </trkpt>
      <trkpt lat="45.68035" lon="6.45978">
        <ele>1716.4</ele>
        <time>2016-06-22T11:36:24Z</time>
      </trkpt>
      <trkpt lat="45.68043" lon="6.45971">
        <ele>1717.2</ele>
        <time>2016-06-22T11:36:32Z</time>
      </trkpt>
      <trkpt lat="45.68049" lon="6.45962">
        <ele>1718.1</ele>
        <time>2016-06-22T11:36:41Z</time>
      </trkpt>
      <trkpt lat="45.68057" lon="6.45968">
        <ele>1719.3</ele>
        <time>2016-06-22T11:36:50Z</time>
      </trkpt>
      <trkpt lat="45.68053" lon="6.45981">
        <ele>1720.3</ele>
        <time>2016-06-22T11:36:58Z</time>
      </trkpt>
      <trkpt lat="45.68047" lon="6.45992">
        <ele>1721.1</ele>
        <time>2016-06-22T11:37:05Z</time>
      </trkpt>
      <trkpt lat="45.68043" lon="6.46004">
        <ele>1722</ele>
        <time>2016-06-22T11:37:13Z</time>
      </trkpt>
      <trkpt lat="45.68047" lon="6.46016">
        <ele>1723</ele>
        <time>2016-06-22T11:37:22Z</time>
      </trkpt>
      <trkpt lat="45.68049" lon="6.46029">
        <ele>1723.9</ele>
        <time>2016-06-22T11:37:30Z</time>
      </trkpt>
      <trkpt lat="45.68051" lon="6.46042">
        <ele>1724.8</ele>
        <time>2016-06-22T11:37:37Z</time>
      </trkpt>
      <trkpt lat="45.6805" lon="6.46057">
        <ele>1725.8</ele>
        <time>2016-06-22T11:37:45Z</time>
      </trkpt>
      <trkpt lat="45.68047" lon="6.46071">
        <ele>1726.6</ele>
        <time>2016-06-22T11:37:51Z</time>
      </trkpt>
      <trkpt lat="45.68045" lon="6.46084">
        <ele>1727.5</ele>
        <time>2016-06-22T11:37:58Z</time>
      </trkpt>
      <trkpt lat="45.68044" lon="6.46098">
        <ele>1729.1</ele>
        <time>2016-06-22T11:38:07Z</time>
      </trkpt>
      <trkpt lat="45.68041" lon="6.46111">
        <ele>1730.5</ele>
        <time>2016-06-22T11:38:14Z</time>
      </trkpt>
      <trkpt lat="45.68038" lon="6.46126">
        <ele>1731.4</ele>
        <time>2016-06-22T11:38:19Z</time>
      </trkpt>
      <trkpt lat="45.68034" lon="6.46139">
        <ele>1732.6</ele>
        <time>2016-06-22T11:38:25Z</time>
      </trkpt>
      <trkpt lat="45.68029" lon="6.4615">
        <ele>1734.4</ele>
        <time>2016-06-22T11:38:32Z</time>
      </trkpt>
      <trkpt lat="45.68028" lon="6.46164">
        <ele>1735.9</ele>
        <time>2016-06-22T11:38:40Z</time>
      </trkpt>
      <trkpt lat="45.6803" lon="6.46178">
        <ele>1737.4</ele>
        <time>2016-06-22T11:38:47Z</time>
      </trkpt>
      <trkpt lat="45.68035" lon="6.4619">
        <ele>1738.8</ele>
        <time>2016-06-22T11:38:54Z</time>
      </trkpt>
      <trkpt lat="45.68038" lon="6.46204">
        <ele>1739.8</ele>
        <time>2016-06-22T11:39:01Z</time>
      </trkpt>
      <trkpt lat="45.68036" lon="6.46218">
        <ele>1740.5</ele>
        <time>2016-06-22T11:39:07Z</time>
      </trkpt>
      <trkpt lat="45.68035" lon="6.46231">
        <ele>1741.4</ele>
        <time>2016-06-22T11:39:14Z</time>
      </trkpt>
      <trkpt lat="45.68033" lon="6.46245">
        <ele>1742.3</ele>
        <time>2016-06-22T11:39:21Z</time>
      </trkpt>
      <trkpt lat="45.68033" lon="6.46259">
        <ele>1743.1</ele>
        <time>2016-06-22T11:39:27Z</time>
      </trkpt>
      <trkpt lat="45.68034" lon="6.46272">
        <ele>1744.1</ele>
        <time>2016-06-22T11:39:33Z</time>
      </trkpt>
      <trkpt lat="45.68037" lon="6.46285">
        <ele>1745.1</ele>
        <time>2016-06-22T11:39:39Z</time>
      </trkpt>
      <trkpt lat="45.68041" lon="6.46298">
        <ele>1746.2</ele>
        <time>2016-06-22T11:39:46Z</time>
      </trkpt>
      <trkpt lat="45.68043" lon="6.46313">
        <ele>1747.1</ele>
        <time>2016-06-22T11:39:52Z</time>
      </trkpt>
      <trkpt lat="45.68044" lon="6.46327">
        <ele>1747.6</ele>
        <time>2016-06-22T11:39:57Z</time>
      </trkpt>
      <trkpt lat="45.68043" lon="6.46341">
        <ele>1748.1</ele>
        <time>2016-06-22T11:40:02Z</time>
      </trkpt>
      <trkpt lat="45.6804" lon="6.46353">
        <ele>1748.3</ele>
        <time>2016-06-22T11:40:06Z</time>
      </trkpt>
      <trkpt lat="45.68036" lon="6.4637">
        <ele>1748.8</ele>
        <time>2016-06-22T11:40:10Z</time>
      </trkpt>
      <trkpt lat="45.68036" lon="6.46385">
        <ele>1749</ele>
        <time>2016-06-22T11:40:13Z</time>
      </trkpt>
      <trkpt lat="45.68039" lon="6.464">
        <ele>1749.4</ele>
        <time>2016-06-22T11:40:18Z</time>
      </trkpt>
      <trkpt lat="45.68042" lon="6.46412">
        <ele>1749.9</ele>
        <time>2016-06-22T11:40:23Z</time>
      </trkpt>
      <trkpt lat="45.68047" lon="6.46424">
        <ele>1750.3</ele>
        <time>2016-06-22T11:40:28Z</time>
      </trkpt>
      <trkpt lat="45.68053" lon="6.46436">
        <ele>1751</ele>
        <time>2016-06-22T11:40:34Z</time>
      </trkpt>
      <trkpt lat="45.68056" lon="6.46449">
        <ele>1751.5</ele>
        <time>2016-06-22T11:40:40Z</time>
      </trkpt>
      <trkpt lat="45.68057" lon="6.46463">
        <ele>1752.4</ele>
        <time>2016-06-22T11:40:48Z</time>
      </trkpt>
      <trkpt lat="45.68059" lon="6.46475">
        <ele>1753.4</ele>
        <time>2016-06-22T11:40:54Z</time>
      </trkpt>
      <trkpt lat="45.68062" lon="6.46489">
        <ele>1754.8</ele>
        <time>2016-06-22T11:41:01Z</time>
      </trkpt>
      <trkpt lat="45.68063" lon="6.46502">
        <ele>1756</ele>
        <time>2016-06-22T11:41:08Z</time>
      </trkpt>
      <trkpt lat="45.68065" lon="6.46515">
        <ele>1757.4</ele>
        <time>2016-06-22T11:41:16Z</time>
      </trkpt>
      <trkpt lat="45.68068" lon="6.46527">
        <ele>1759</ele>
        <time>2016-06-22T11:41:24Z</time>
      </trkpt>
      <trkpt lat="45.68076" lon="6.46536">
        <ele>1761.3</ele>
        <time>2016-06-22T11:41:33Z</time>
      </trkpt>
      <trkpt lat="45.68083" lon="6.46525">
        <ele>1762.7</ele>
        <time>2016-06-22T11:41:41Z</time>
      </trkpt>
      <trkpt lat="45.68081" lon="6.46512">
        <ele>1764</ele>
        <time>2016-06-22T11:41:49Z</time>
      </trkpt>
      <trkpt lat="45.68084" lon="6.46499">
        <ele>1765.2</ele>
        <time>2016-06-22T11:41:57Z</time>
      </trkpt>
      <trkpt lat="45.68086" lon="6.46485">
        <ele>1766.2</ele>
        <time>2016-06-22T11:42:04Z</time>
      </trkpt>
      <trkpt lat="45.68089" lon="6.46471">
        <ele>1767.2</ele>
        <time>2016-06-22T11:42:12Z</time>
      </trkpt>
      <trkpt lat="45.68093" lon="6.46459">
        <ele>1768.3</ele>
        <time>2016-06-22T11:42:20Z</time>
      </trkpt>
      <trkpt lat="45.68102" lon="6.46464">
        <ele>1769.4</ele>
        <time>2016-06-22T11:42:27Z</time>
      </trkpt>
      <trkpt lat="45.68105" lon="6.46477">
        <ele>1771</ele>
        <time>2016-06-22T11:42:35Z</time>
      </trkpt>
      <trkpt lat="45.68106" lon="6.46492">
        <ele>1772.5</ele>
        <time>2016-06-22T11:42:43Z</time>
      </trkpt>
      <trkpt lat="45.68104" lon="6.46505">
        <ele>1773.8</ele>
        <time>2016-06-22T11:42:51Z</time>
      </trkpt>
      <trkpt lat="45.68113" lon="6.46501">
        <ele>1775.7</ele>
        <time>2016-06-22T11:43:04Z</time>
      </trkpt>
      <trkpt lat="45.68118" lon="6.46489">
        <ele>1776.9</ele>
        <time>2016-06-22T11:43:12Z</time>
      </trkpt>
      <trkpt lat="45.68123" lon="6.46478">
        <ele>1778.2</ele>
        <time>2016-06-22T11:43:19Z</time>
      </trkpt>
      <trkpt lat="45.68128" lon="6.46466">
        <ele>1779.2</ele>
        <time>2016-06-22T11:43:27Z</time>
      </trkpt>
      <trkpt lat="45.68135" lon="6.46475">
        <ele>1780.2</ele>
        <time>2016-06-22T11:43:36Z</time>
      </trkpt>
      <trkpt lat="45.68131" lon="6.46488">
        <ele>1781.3</ele>
        <time>2016-06-22T11:43:43Z</time>
      </trkpt>
      <trkpt lat="45.68127" lon="6.465">
        <ele>1782.6</ele>
        <time>2016-06-22T11:43:50Z</time>
      </trkpt>
      <trkpt lat="45.68123" lon="6.46513">
        <ele>1784</ele>
        <time>2016-06-22T11:43:57Z</time>
      </trkpt>
      <trkpt lat="45.68118" lon="6.46526">
        <ele>1785</ele>
        <time>2016-06-22T11:44:04Z</time>
      </trkpt>
      <trkpt lat="45.68114" lon="6.46539">
        <ele>1786.1</ele>
        <time>2016-06-22T11:44:11Z</time>
      </trkpt>
      <trkpt lat="45.6811" lon="6.46552">
        <ele>1787.5</ele>
        <time>2016-06-22T11:44:19Z</time>
      </trkpt>
      <trkpt lat="45.68107" lon="6.46565">
        <ele>1789</ele>
        <time>2016-06-22T11:44:28Z</time>
      </trkpt>
      <trkpt lat="45.68103" lon="6.46577">
        <ele>1790.1</ele>
        <time>2016-06-22T11:44:35Z</time>
      </trkpt>
      <trkpt lat="45.68101" lon="6.46591">
        <ele>1791.4</ele>
        <time>2016-06-22T11:44:43Z</time>
      </trkpt>
      <trkpt lat="45.68099" lon="6.46604">
        <ele>1792.6</ele>
        <time>2016-06-22T11:44:50Z</time>
      </trkpt>
      <trkpt lat="45.68098" lon="6.46617">
        <ele>1793.9</ele>
        <time>2016-06-22T11:44:57Z</time>
      </trkpt>
      <trkpt lat="45.68097" lon="6.46631">
        <ele>1795.2</ele>
        <time>2016-06-22T11:45:05Z</time>
      </trkpt>
      <trkpt lat="45.68095" lon="6.46645">
        <ele>1796.2</ele>
        <time>2016-06-22T11:45:12Z</time>
      </trkpt>
      <trkpt lat="45.68092" lon="6.46658">
        <ele>1797.2</ele>
        <time>2016-06-22T11:45:19Z</time>
      </trkpt>
      <trkpt lat="45.68087" lon="6.46671">
        <ele>1798.1</ele>
        <time>2016-06-22T11:45:25Z</time>
      </trkpt>
      <trkpt lat="45.68083" lon="6.46682">
        <ele>1799.2</ele>
        <time>2016-06-22T11:45:31Z</time>
      </trkpt>
      <trkpt lat="45.68077" lon="6.46692">
        <ele>1800.2</ele>
        <time>2016-06-22T11:45:37Z</time>
      </trkpt>
      <trkpt lat="45.68069" lon="6.46701">
        <ele>1801.4</ele>
        <time>2016-06-22T11:45:44Z</time>
      </trkpt>
      <trkpt lat="45.68063" lon="6.46712">
        <ele>1802.6</ele>
        <time>2016-06-22T11:45:50Z</time>
      </trkpt>
      <trkpt lat="45.68059" lon="6.46723">
        <ele>1803.8</ele>
        <time>2016-06-22T11:45:56Z</time>
      </trkpt>
      <trkpt lat="45.68055" lon="6.46735">
        <ele>1804.9</ele>
        <time>2016-06-22T11:46:02Z</time>
      </trkpt>
      <trkpt lat="45.68051" lon="6.46747">
        <ele>1805.7</ele>
        <time>2016-06-22T11:46:07Z</time>
      </trkpt>
      <trkpt lat="45.68046" lon="6.46759">
        <ele>1806.7</ele>
        <time>2016-06-22T11:46:13Z</time>
      </trkpt>
      <trkpt lat="45.68041" lon="6.4677">
        <ele>1807.4</ele>
        <time>2016-06-22T11:46:19Z</time>
      </trkpt>
      <trkpt lat="45.68035" lon="6.46783">
        <ele>1808.3</ele>
        <time>2016-06-22T11:46:26Z</time>
      </trkpt>
      <trkpt lat="45.68032" lon="6.46795">
        <ele>1809</ele>
        <time>2016-06-22T11:46:32Z</time>
      </trkpt>
      <trkpt lat="45.68027" lon="6.46808">
        <ele>1810</ele>
        <time>2016-06-22T11:46:39Z</time>
      </trkpt>
      <trkpt lat="45.68022" lon="6.46819">
        <ele>1810.8</ele>
        <time>2016-06-22T11:46:46Z</time>
      </trkpt>
      <trkpt lat="45.68018" lon="6.46832">
        <ele>1811.6</ele>
        <time>2016-06-22T11:46:54Z</time>
      </trkpt>
      <trkpt lat="45.68013" lon="6.46843">
        <ele>1812.5</ele>
        <time>2016-06-22T11:47:01Z</time>
      </trkpt>
      <trkpt lat="45.68007" lon="6.46853">
        <ele>1813.3</ele>
        <time>2016-06-22T11:47:08Z</time>
      </trkpt>
      <trkpt lat="45.68003" lon="6.46866">
        <ele>1814.3</ele>
        <time>2016-06-22T11:47:16Z</time>
      </trkpt>
      <trkpt lat="45.67999" lon="6.46879">
        <ele>1815.3</ele>
        <time>2016-06-22T11:47:24Z</time>
      </trkpt>
      <trkpt lat="45.67997" lon="6.46892">
        <ele>1816.6</ele>
        <time>2016-06-22T11:47:32Z</time>
      </trkpt>
      <trkpt lat="45.67994" lon="6.46905">
        <ele>1818</ele>
        <time>2016-06-22T11:47:40Z</time>
      </trkpt>
      <trkpt lat="45.67993" lon="6.4692">
        <ele>1819.3</ele>
        <time>2016-06-22T11:47:48Z</time>
      </trkpt>
      <trkpt lat="45.67994" lon="6.46932">
        <ele>1820.4</ele>
        <time>2016-06-22T11:47:55Z</time>
      </trkpt>
      <trkpt lat="45.67991" lon="6.46946">
        <ele>1821.9</ele>
        <time>2016-06-22T11:48:03Z</time>
      </trkpt>
      <trkpt lat="45.67984" lon="6.46956">
        <ele>1823.6</ele>
        <time>2016-06-22T11:48:13Z</time>
      </trkpt>
      <trkpt lat="45.67978" lon="6.46966">
        <ele>1824.9</ele>
        <time>2016-06-22T11:48:20Z</time>
      </trkpt>
      <trkpt lat="45.67971" lon="6.46977">
        <ele>1826.6</ele>
        <time>2016-06-22T11:48:28Z</time>
      </trkpt>
      <trkpt lat="45.67963" lon="6.46984">
        <ele>1828.4</ele>
        <time>2016-06-22T11:48:36Z</time>
      </trkpt>
      <trkpt lat="45.67956" lon="6.46991">
        <ele>1829.8</ele>
        <time>2016-06-22T11:48:43Z</time>
      </trkpt>
      <trkpt lat="45.67949" lon="6.47002">
        <ele>1831.3</ele>
        <time>2016-06-22T11:48:50Z</time>
      </trkpt>
      <trkpt lat="45.67947" lon="6.47016">
        <ele>1833.2</ele>
        <time>2016-06-22T11:48:59Z</time>
      </trkpt>
      <trkpt lat="45.67948" lon="6.4703">
        <ele>1834.8</ele>
        <time>2016-06-22T11:49:07Z</time>
      </trkpt>
      <trkpt lat="45.67946" lon="6.47044">
        <ele>1836.1</ele>
        <time>2016-06-22T11:49:15Z</time>
      </trkpt>
      <trkpt lat="45.67941" lon="6.47055">
        <ele>1837.2</ele>
        <time>2016-06-22T11:49:22Z</time>
      </trkpt>
      <trkpt lat="45.67936" lon="6.47066">
        <ele>1838.3</ele>
        <time>2016-06-22T11:49:30Z</time>
      </trkpt>
      <trkpt lat="45.67927" lon="6.47073">
        <ele>1843.1</ele>
        <time>2016-06-22T11:50:44Z</time>
      </trkpt>
      <trkpt lat="45.67919" lon="6.47079">
        <ele>1843.4</ele>
        <time>2016-06-22T11:50:51Z</time>
      </trkpt>
      <trkpt lat="45.6791" lon="6.47083">
        <ele>1843.9</ele>
        <time>2016-06-22T11:50:57Z</time>
      </trkpt>
      <trkpt lat="45.679" lon="6.47088">
        <ele>1844.1</ele>
        <time>2016-06-22T11:51:02Z</time>
      </trkpt>
      <trkpt lat="45.67888" lon="6.47095">
        <ele>1844.3</ele>
        <time>2016-06-22T11:51:06Z</time>
      </trkpt>
      <trkpt lat="45.67877" lon="6.47105">
        <ele>1844</ele>
        <time>2016-06-22T11:51:09Z</time>
      </trkpt>
      <trkpt lat="45.6787" lon="6.47113">
        <ele>1843.9</ele>
        <time>2016-06-22T11:51:11Z</time>
      </trkpt>
      <trkpt lat="45.6786" lon="6.47125">
        <ele>1843.8</ele>
        <time>2016-06-22T11:51:14Z</time>
      </trkpt>
      <trkpt lat="45.67853" lon="6.47134">
        <ele>1843.7</ele>
        <time>2016-06-22T11:51:16Z</time>
      </trkpt>
      <trkpt lat="45.67846" lon="6.47146">
        <ele>1843.5</ele>
        <time>2016-06-22T11:51:18Z</time>
      </trkpt>
      <trkpt lat="45.67839" lon="6.4716">
        <ele>1843.2</ele>
        <time>2016-06-22T11:51:20Z</time>
      </trkpt>
      <trkpt lat="45.67831" lon="6.47175">
        <ele>1842.9</ele>
        <time>2016-06-22T11:51:22Z</time>
      </trkpt>
      <trkpt lat="45.67822" lon="6.47189">
        <ele>1842.5</ele>
        <time>2016-06-22T11:51:24Z</time>
      </trkpt>
      <trkpt lat="45.67817" lon="6.47203">
        <ele>1842.2</ele>
        <time>2016-06-22T11:51:26Z</time>
      </trkpt>
      <trkpt lat="45.67816" lon="6.47218">
        <ele>1841.8</ele>
        <time>2016-06-22T11:51:28Z</time>
      </trkpt>
      <trkpt lat="45.67815" lon="6.47232">
        <ele>1841.4</ele>
        <time>2016-06-22T11:51:30Z</time>
      </trkpt>
      <trkpt lat="45.67815" lon="6.47247">
        <ele>1841</ele>
        <time>2016-06-22T11:51:32Z</time>
      </trkpt>
      <trkpt lat="45.67816" lon="6.4726">
        <ele>1840.5</ele>
        <time>2016-06-22T11:51:34Z</time>
      </trkpt>
      <trkpt lat="45.67818" lon="6.47274">
        <ele>1840</ele>
        <time>2016-06-22T11:51:37Z</time>
      </trkpt>
      <trkpt lat="45.67824" lon="6.47286">
        <ele>1839.3</ele>
        <time>2016-06-22T11:51:42Z</time>
      </trkpt>
      <trkpt lat="45.67826" lon="6.473">
        <ele>1838.7</ele>
        <time>2016-06-22T11:51:48Z</time>
      </trkpt>
      <trkpt lat="45.67829" lon="6.47313">
        <ele>1838.4</ele>
        <time>2016-06-22T11:51:54Z</time>
      </trkpt>
      <trkpt lat="45.67832" lon="6.47327">
        <ele>1838.2</ele>
        <time>2016-06-22T11:52:01Z</time>
      </trkpt>
      <trkpt lat="45.67831" lon="6.4734">
        <ele>1838.3</ele>
        <time>2016-06-22T11:52:08Z</time>
      </trkpt>
      <trkpt lat="45.67825" lon="6.4735">
        <ele>1838.8</ele>
        <time>2016-06-22T11:52:15Z</time>
      </trkpt>
      <trkpt lat="45.67815" lon="6.47351">
        <ele>1839.5</ele>
        <time>2016-06-22T11:52:22Z</time>
      </trkpt>
      <trkpt lat="45.67805" lon="6.47355">
        <ele>1840.6</ele>
        <time>2016-06-22T11:52:30Z</time>
      </trkpt>
      <trkpt lat="45.67797" lon="6.47359">
        <ele>1841.5</ele>
        <time>2016-06-22T11:52:36Z</time>
      </trkpt>
      <trkpt lat="45.67794" lon="6.47372">
        <ele>1842.3</ele>
        <time>2016-06-22T11:52:41Z</time>
      </trkpt>
      <trkpt lat="45.67791" lon="6.47384">
        <ele>1843.5</ele>
        <time>2016-06-22T11:52:48Z</time>
      </trkpt>
      <trkpt lat="45.67782" lon="6.47385">
        <ele>1844.6</ele>
        <time>2016-06-22T11:52:56Z</time>
      </trkpt>
      <trkpt lat="45.67772" lon="6.47386">
        <ele>1845.7</ele>
        <time>2016-06-22T11:53:03Z</time>
      </trkpt>
      <trkpt lat="45.67767" lon="6.47399">
        <ele>1846.5</ele>
        <time>2016-06-22T11:53:08Z</time>
      </trkpt>
      <trkpt lat="45.67768" lon="6.47413">
        <ele>1847.6</ele>
        <time>2016-06-22T11:53:15Z</time>
      </trkpt>
      <trkpt lat="45.67767" lon="6.47427">
        <ele>1848.8</ele>
        <time>2016-06-22T11:53:22Z</time>
      </trkpt>
      <trkpt lat="45.67764" lon="6.47441">
        <ele>1850.2</ele>
        <time>2016-06-22T11:53:29Z</time>
      </trkpt>
      <trkpt lat="45.67764" lon="6.47454">
        <ele>1851.2</ele>
        <time>2016-06-22T11:53:35Z</time>
      </trkpt>
      <trkpt lat="45.67757" lon="6.47464">
        <ele>1852.1</ele>
        <time>2016-06-22T11:53:41Z</time>
      </trkpt>
      <trkpt lat="45.67747" lon="6.47469">
        <ele>1852.9</ele>
        <time>2016-06-22T11:53:47Z</time>
      </trkpt>
      <trkpt lat="45.67737" lon="6.47473">
        <ele>1853.6</ele>
        <time>2016-06-22T11:53:52Z</time>
      </trkpt>
      <trkpt lat="45.67728" lon="6.47473">
        <ele>1854.7</ele>
        <time>2016-06-22T11:53:58Z</time>
      </trkpt>
      <trkpt lat="45.67719" lon="6.47469">
        <ele>1855.8</ele>
        <time>2016-06-22T11:54:04Z</time>
      </trkpt>
      <trkpt lat="45.67709" lon="6.47469">
        <ele>1856.9</ele>
        <time>2016-06-22T11:54:10Z</time>
      </trkpt>
      <trkpt lat="45.677" lon="6.47472">
        <ele>1857.9</ele>
        <time>2016-06-22T11:54:15Z</time>
      </trkpt>
      <trkpt lat="45.6769" lon="6.47474">
        <ele>1859.1</ele>
        <time>2016-06-22T11:54:21Z</time>
      </trkpt>
      <trkpt lat="45.6768" lon="6.47472">
        <ele>1860.5</ele>
        <time>2016-06-22T11:54:27Z</time>
      </trkpt>
      <trkpt lat="45.67671" lon="6.47469">
        <ele>1861.9</ele>
        <time>2016-06-22T11:54:33Z</time>
      </trkpt>
      <trkpt lat="45.67661" lon="6.47467">
        <ele>1863.2</ele>
        <time>2016-06-22T11:54:39Z</time>
      </trkpt>
      <trkpt lat="45.67654" lon="6.47476">
        <ele>1864.5</ele>
        <time>2016-06-22T11:54:46Z</time>
      </trkpt>
      <trkpt lat="45.67654" lon="6.4749">
        <ele>1865.6</ele>
        <time>2016-06-22T11:54:52Z</time>
      </trkpt>
      <trkpt lat="45.67653" lon="6.47503">
        <ele>1866.5</ele>
        <time>2016-06-22T11:54:58Z</time>
      </trkpt>
      <trkpt lat="45.67651" lon="6.47517">
        <ele>1867.7</ele>
        <time>2016-06-22T11:55:05Z</time>
      </trkpt>
      <trkpt lat="45.67651" lon="6.47531">
        <ele>1869.3</ele>
        <time>2016-06-22T11:55:13Z</time>
      </trkpt>
      <trkpt lat="45.6765" lon="6.47544">
        <ele>1870.8</ele>
        <time>2016-06-22T11:55:21Z</time>
      </trkpt>
      <trkpt lat="45.6765" lon="6.47559">
        <ele>1872.3</ele>
        <time>2016-06-22T11:55:29Z</time>
      </trkpt>
      <trkpt lat="45.67649" lon="6.47572">
        <ele>1873.7</ele>
        <time>2016-06-22T11:55:36Z</time>
      </trkpt>
      <trkpt lat="45.67649" lon="6.47586">
        <ele>1875</ele>
        <time>2016-06-22T11:55:43Z</time>
      </trkpt>
      <trkpt lat="45.67655" lon="6.47597">
        <ele>1876.3</ele>
        <time>2016-06-22T11:55:51Z</time>
      </trkpt>
      <trkpt lat="45.67663" lon="6.47603">
        <ele>1877.4</ele>
        <time>2016-06-22T11:55:58Z</time>
      </trkpt>
      <trkpt lat="45.67672" lon="6.4761">
        <ele>1878.9</ele>
        <time>2016-06-22T11:56:06Z</time>
      </trkpt>
      <trkpt lat="45.6768" lon="6.47616">
        <ele>1880.3</ele>
        <time>2016-06-22T11:56:13Z</time>
      </trkpt>
      <trkpt lat="45.67686" lon="6.47627">
        <ele>1881.9</ele>
        <time>2016-06-22T11:56:22Z</time>
      </trkpt>
      <trkpt lat="45.67695" lon="6.4763">
        <ele>1884.7</ele>
        <time>2016-06-22T11:56:34Z</time>
      </trkpt>
      <trkpt lat="45.67691" lon="6.47642">
        <ele>1886.5</ele>
        <time>2016-06-22T11:56:43Z</time>
      </trkpt>
      <trkpt lat="45.67695" lon="6.47654">
        <ele>1887.3</ele>
        <time>2016-06-22T11:56:52Z</time>
      </trkpt>
      <trkpt lat="45.67696" lon="6.47667">
        <ele>1888</ele>
        <time>2016-06-22T11:57:01Z</time>
      </trkpt>
      <trkpt lat="45.67696" lon="6.4768">
        <ele>1888.9</ele>
        <time>2016-06-22T11:57:09Z</time>
      </trkpt>
      <trkpt lat="45.67694" lon="6.47694">
        <ele>1890.1</ele>
        <time>2016-06-22T11:57:17Z</time>
      </trkpt>
      <trkpt lat="45.67693" lon="6.47707">
        <ele>1891.5</ele>
        <time>2016-06-22T11:57:25Z</time>
      </trkpt>
      <trkpt lat="45.67702" lon="6.47711">
        <ele>1893.3</ele>
        <time>2016-06-22T11:57:36Z</time>
      </trkpt>
      <trkpt lat="45.67704" lon="6.47698">
        <ele>1894.6</ele>
        <time>2016-06-22T11:57:44Z</time>
      </trkpt>
      <trkpt lat="45.67708" lon="6.47686">
        <ele>1895.6</ele>
        <time>2016-06-22T11:57:52Z</time>
      </trkpt>
      <trkpt lat="45.67714" lon="6.47675">
        <ele>1896.5</ele>
        <time>2016-06-22T11:58:00Z</time>
      </trkpt>
      <trkpt lat="45.67721" lon="6.47666">
        <ele>1897.3</ele>
        <time>2016-06-22T11:58:07Z</time>
      </trkpt>
      <trkpt lat="45.67728" lon="6.47658">
        <ele>1898.2</ele>
        <time>2016-06-22T11:58:14Z</time>
      </trkpt>
      <trkpt lat="45.67736" lon="6.47648">
        <ele>1899.3</ele>
        <time>2016-06-22T11:58:22Z</time>
      </trkpt>
      <trkpt lat="45.67738" lon="6.47635">
        <ele>1900.1</ele>
        <time>2016-06-22T11:58:29Z</time>
      </trkpt>
      <trkpt lat="45.67735" lon="6.47621">
        <ele>1900.8</ele>
        <time>2016-06-22T11:58:36Z</time>
      </trkpt>
      <trkpt lat="45.67739" lon="6.47609">
        <ele>1901.7</ele>
        <time>2016-06-22T11:58:43Z</time>
      </trkpt>
      <trkpt lat="45.67747" lon="6.47616">
        <ele>1902.9</ele>
        <time>2016-06-22T11:58:51Z</time>
      </trkpt>
      <trkpt lat="45.67748" lon="6.47631">
        <ele>1904.3</ele>
        <time>2016-06-22T11:58:59Z</time>
      </trkpt>
      <trkpt lat="45.6775" lon="6.47644">
        <ele>1905.4</ele>
        <time>2016-06-22T11:59:06Z</time>
      </trkpt>
      <trkpt lat="45.67749" lon="6.47658">
        <ele>1906.2</ele>
        <time>2016-06-22T11:59:14Z</time>
      </trkpt>
      <trkpt lat="45.67749" lon="6.47673">
        <ele>1907</ele>
        <time>2016-06-22T11:59:22Z</time>
      </trkpt>
      <trkpt lat="45.6775" lon="6.47686">
        <ele>1907.9</ele>
        <time>2016-06-22T11:59:29Z</time>
      </trkpt>
      <trkpt lat="45.67753" lon="6.477">
        <ele>1909.3</ele>
        <time>2016-06-22T11:59:37Z</time>
      </trkpt>
      <trkpt lat="45.67756" lon="6.47712">
        <ele>1910.5</ele>
        <time>2016-06-22T11:59:44Z</time>
      </trkpt>
      <trkpt lat="45.67758" lon="6.47725">
        <ele>1911.5</ele>
        <time>2016-06-22T11:59:51Z</time>
      </trkpt>
      <trkpt lat="45.67757" lon="6.4774">
        <ele>1912.4</ele>
        <time>2016-06-22T11:59:58Z</time>
      </trkpt>
      <trkpt lat="45.67755" lon="6.47754">
        <ele>1913.3</ele>
        <time>2016-06-22T12:00:05Z</time>
      </trkpt>
      <trkpt lat="45.67758" lon="6.47767">
        <ele>1914.5</ele>
        <time>2016-06-22T12:00:13Z</time>
      </trkpt>
      <trkpt lat="45.67764" lon="6.47777">
        <ele>1915.2</ele>
        <time>2016-06-22T12:00:18Z</time>
      </trkpt>
      <trkpt lat="45.67764" lon="6.47793">
        <ele>1916</ele>
        <time>2016-06-22T12:00:24Z</time>
      </trkpt>
      <trkpt lat="45.67761" lon="6.47807">
        <ele>1916.8</ele>
        <time>2016-06-22T12:00:30Z</time>
      </trkpt>
      <trkpt lat="45.67759" lon="6.47822">
        <ele>1917.6</ele>
        <time>2016-06-22T12:00:36Z</time>
      </trkpt>
      <trkpt lat="45.67759" lon="6.47835">
        <ele>1918.5</ele>
        <time>2016-06-22T12:00:42Z</time>
      </trkpt>
      <trkpt lat="45.67759" lon="6.4785">
        <ele>1919.8</ele>
        <time>2016-06-22T12:00:48Z</time>
      </trkpt>
      <trkpt lat="45.67756" lon="6.47864">
        <ele>1920.8</ele>
        <time>2016-06-22T12:00:54Z</time>
      </trkpt>
      <trkpt lat="45.67752" lon="6.47877">
        <ele>1921.7</ele>
        <time>2016-06-22T12:01:00Z</time>
      </trkpt>
      <trkpt lat="45.6775" lon="6.47891">
        <ele>1922.8</ele>
        <time>2016-06-22T12:01:06Z</time>
      </trkpt>
      <trkpt lat="45.67748" lon="6.47903">
        <ele>1923.9</ele>
        <time>2016-06-22T12:01:12Z</time>
      </trkpt>
      <trkpt lat="45.67744" lon="6.47917">
        <ele>1925.5</ele>
        <time>2016-06-22T12:01:19Z</time>
      </trkpt>
      <trkpt lat="45.67739" lon="6.47929">
        <ele>1927</ele>
        <time>2016-06-22T12:01:26Z</time>
      </trkpt>
      <trkpt lat="45.67734" lon="6.47942">
        <ele>1928.4</ele>
        <time>2016-06-22T12:01:33Z</time>
      </trkpt>
      <trkpt lat="45.6773" lon="6.47955">
        <ele>1929.6</ele>
        <time>2016-06-22T12:01:39Z</time>
      </trkpt>
      <trkpt lat="45.67728" lon="6.47968">
        <ele>1930.7</ele>
        <time>2016-06-22T12:01:45Z</time>
      </trkpt>
      <trkpt lat="45.67723" lon="6.4798">
        <ele>1931.5</ele>
        <time>2016-06-22T12:01:51Z</time>
      </trkpt>
      <trkpt lat="45.6772" lon="6.47994">
        <ele>1932.3</ele>
        <time>2016-06-22T12:01:58Z</time>
      </trkpt>
      <trkpt lat="45.67715" lon="6.48007">
        <ele>1933.2</ele>
        <time>2016-06-22T12:02:05Z</time>
      </trkpt>
      <trkpt lat="45.67718" lon="6.4802">
        <ele>1934.5</ele>
        <time>2016-06-22T12:02:13Z</time>
      </trkpt>
      <trkpt lat="45.67726" lon="6.48013">
        <ele>1935.5</ele>
        <time>2016-06-22T12:02:20Z</time>
      </trkpt>
      <trkpt lat="45.67733" lon="6.48003">
        <ele>1936.8</ele>
        <time>2016-06-22T12:02:28Z</time>
      </trkpt>
      <trkpt lat="45.67739" lon="6.47992">
        <ele>1937.9</ele>
        <time>2016-06-22T12:02:36Z</time>
      </trkpt>
      <trkpt lat="45.67746" lon="6.47983">
        <ele>1939</ele>
        <time>2016-06-22T12:02:43Z</time>
      </trkpt>
      <trkpt lat="45.67753" lon="6.47974">
        <ele>1939.9</ele>
        <time>2016-06-22T12:02:50Z</time>
      </trkpt>
      <trkpt lat="45.6776" lon="6.47965">
        <ele>1940.8</ele>
        <time>2016-06-22T12:02:57Z</time>
      </trkpt>
      <trkpt lat="45.67766" lon="6.47954">
        <ele>1942</ele>
        <time>2016-06-22T12:03:04Z</time>
      </trkpt>
      <trkpt lat="45.67771" lon="6.47942">
        <ele>1943.4</ele>
        <time>2016-06-22T12:03:11Z</time>
      </trkpt>
      <trkpt lat="45.67777" lon="6.4793">
        <ele>1944.8</ele>
        <time>2016-06-22T12:03:18Z</time>
      </trkpt>
      <trkpt lat="45.6778" lon="6.47917">
        <ele>1946</ele>
        <time>2016-06-22T12:03:25Z</time>
      </trkpt>
      <trkpt lat="45.67785" lon="6.47906">
        <ele>1947.1</ele>
        <time>2016-06-22T12:03:32Z</time>
      </trkpt>
      <trkpt lat="45.67789" lon="6.47917">
        <ele>1948.9</ele>
        <time>2016-06-22T12:03:42Z</time>
      </trkpt>
      <trkpt lat="45.67786" lon="6.47929">
        <ele>1949.8</ele>
        <time>2016-06-22T12:03:49Z</time>
      </trkpt>
      <trkpt lat="45.67785" lon="6.47943">
        <ele>1950.9</ele>
        <time>2016-06-22T12:03:57Z</time>
      </trkpt>
      <trkpt lat="45.67784" lon="6.47956">
        <ele>1952.1</ele>
        <time>2016-06-22T12:04:04Z</time>
      </trkpt>
      <trkpt lat="45.67786" lon="6.47969">
        <ele>1953.7</ele>
        <time>2016-06-22T12:04:13Z</time>
      </trkpt>
      <trkpt lat="45.67791" lon="6.47957">
        <ele>1955</ele>
        <time>2016-06-22T12:04:21Z</time>
      </trkpt>
      <trkpt lat="45.67796" lon="6.47944">
        <ele>1956.1</ele>
        <time>2016-06-22T12:04:29Z</time>
      </trkpt>
      <trkpt lat="45.67801" lon="6.47933">
        <ele>1957.3</ele>
        <time>2016-06-22T12:04:37Z</time>
      </trkpt>
      <trkpt lat="45.67809" lon="6.47925">
        <ele>1958.3</ele>
        <time>2016-06-22T12:04:44Z</time>
      </trkpt>
      <trkpt lat="45.67817" lon="6.47917">
        <ele>1959.3</ele>
        <time>2016-06-22T12:04:51Z</time>
      </trkpt>
      <trkpt lat="45.67823" lon="6.47907">
        <ele>1960.6</ele>
        <time>2016-06-22T12:04:59Z</time>
      </trkpt>
      <trkpt lat="45.67829" lon="6.47895">
        <ele>1962</ele>
        <time>2016-06-22T12:05:07Z</time>
      </trkpt>
      <trkpt lat="45.67838" lon="6.47896">
        <ele>1963.3</ele>
        <time>2016-06-22T12:05:14Z</time>
      </trkpt>
      <trkpt lat="45.67839" lon="6.4791">
        <ele>1964.7</ele>
        <time>2016-06-22T12:05:22Z</time>
      </trkpt>
      <trkpt lat="45.67844" lon="6.47923">
        <ele>1966.4</ele>
        <time>2016-06-22T12:05:31Z</time>
      </trkpt>
      <trkpt lat="45.67852" lon="6.47915">
        <ele>1967.9</ele>
        <time>2016-06-22T12:05:39Z</time>
      </trkpt>
      <trkpt lat="45.67859" lon="6.47906">
        <ele>1969.2</ele>
        <time>2016-06-22T12:05:46Z</time>
      </trkpt>
      <trkpt lat="45.67866" lon="6.47899">
        <ele>1969.2</ele>
        <time>2016-06-22T12:05:54Z</time>
      </trkpt>
      <trkpt lat="45.67873" lon="6.4789">
        <ele>1973</ele>
        <time>2016-06-22T12:06:02Z</time>
      </trkpt>
      <trkpt lat="45.67882" lon="6.47885">
        <ele>1975</ele>
        <time>2016-06-22T12:06:09Z</time>
      </trkpt>
      <trkpt lat="45.67889" lon="6.47874">
        <ele>1976</ele>
        <time>2016-06-22T12:06:16Z</time>
      </trkpt>
      <trkpt lat="45.67895" lon="6.47864">
        <ele>1976.7</ele>
        <time>2016-06-22T12:06:23Z</time>
      </trkpt>
      <trkpt lat="45.679" lon="6.47853">
        <ele>1977.1</ele>
        <time>2016-06-22T12:06:30Z</time>
      </trkpt>
      <trkpt lat="45.67903" lon="6.47841">
        <ele>1977.9</ele>
        <time>2016-06-22T12:06:37Z</time>
      </trkpt>
      <trkpt lat="45.67902" lon="6.47827">
        <ele>1978.8</ele>
        <time>2016-06-22T12:06:44Z</time>
      </trkpt>
      <trkpt lat="45.67903" lon="6.47814">
        <ele>1979.9</ele>
        <time>2016-06-22T12:06:51Z</time>
      </trkpt>
      <trkpt lat="45.67908" lon="6.47802">
        <ele>1981.2</ele>
        <time>2016-06-22T12:06:58Z</time>
      </trkpt>
      <trkpt lat="45.67915" lon="6.47795">
        <ele>1987.2</ele>
        <time>2016-06-22T12:08:20Z</time>
      </trkpt>
      <trkpt lat="45.67914" lon="6.47781">
        <ele>1988.7</ele>
        <time>2016-06-22T12:12:41Z</time>
      </trkpt>
      <trkpt lat="45.67907" lon="6.47772">
        <ele>1988.9</ele>
        <time>2016-06-22T12:12:51Z</time>
      </trkpt>
      <trkpt lat="45.67902" lon="6.4776">
        <ele>1988.6</ele>
        <time>2016-06-22T12:13:07Z</time>
      </trkpt>
      <trkpt lat="45.67906" lon="6.47748">
        <ele>1988.4</ele>
        <time>2016-06-22T12:13:16Z</time>
      </trkpt>
      <trkpt lat="45.67911" lon="6.47736">
        <ele>1988.8</ele>
        <time>2016-06-22T12:13:28Z</time>
      </trkpt>
      <trkpt lat="45.67918" lon="6.47727">
        <ele>1989</ele>
        <time>2016-06-22T12:13:46Z</time>
      </trkpt>
      <trkpt lat="45.67926" lon="6.47719">
        <ele>1989.1</ele>
        <time>2016-06-22T12:13:57Z</time>
      </trkpt>
      <trkpt lat="45.67933" lon="6.47711">
        <ele>1989.3</ele>
        <time>2016-06-22T12:14:10Z</time>
      </trkpt>
      <trkpt lat="45.67939" lon="6.47701">
        <ele>1991</ele>
        <time>2016-06-22T12:14:41Z</time>
      </trkpt>
      <trkpt lat="45.67946" lon="6.47691">
        <ele>1993.1</ele>
        <time>2016-06-22T12:14:59Z</time>
      </trkpt>
      <trkpt lat="45.67949" lon="6.47679">
        <ele>1995</ele>
        <time>2016-06-22T12:15:13Z</time>
      </trkpt>
      <trkpt lat="45.67953" lon="6.47668">
        <ele>1996.7</ele>
        <time>2016-06-22T12:15:25Z</time>
      </trkpt>
      <trkpt lat="45.6796" lon="6.47659">
        <ele>1999.5</ele>
        <time>2016-06-22T12:15:45Z</time>
      </trkpt>
      <trkpt lat="45.67967" lon="6.4765">
        <ele>2002.7</ele>
        <time>2016-06-22T12:16:06Z</time>
      </trkpt>
      <trkpt lat="45.67972" lon="6.47638">
        <ele>2005.7</ele>
        <time>2016-06-22T12:16:25Z</time>
      </trkpt>
      <trkpt lat="45.67976" lon="6.47626">
        <ele>2008.4</ele>
        <time>2016-06-22T12:16:39Z</time>
      </trkpt>
      <trkpt lat="45.67981" lon="6.47614">
        <ele>2011.6</ele>
        <time>2016-06-22T12:16:56Z</time>
      </trkpt>
      <trkpt lat="45.67988" lon="6.47605">
        <ele>2014</ele>
        <time>2016-06-22T12:17:09Z</time>
      </trkpt>
      <trkpt lat="45.67993" lon="6.47594">
        <ele>2016</ele>
        <time>2016-06-22T12:17:21Z</time>
      </trkpt>
      <trkpt lat="45.68" lon="6.47585">
        <ele>2017.8</ele>
        <time>2016-06-22T12:17:32Z</time>
      </trkpt>
      <trkpt lat="45.68006" lon="6.47575">
        <ele>2019.3</ele>
        <time>2016-06-22T12:17:43Z</time>
      </trkpt>
      <trkpt lat="45.68014" lon="6.47569">
        <ele>2020.4</ele>
        <time>2016-06-22T12:17:53Z</time>
      </trkpt>
      <trkpt lat="45.68023" lon="6.47566">
        <ele>2021.6</ele>
        <time>2016-06-22T12:18:03Z</time>
      </trkpt>
      <trkpt lat="45.6803" lon="6.47558">
        <ele>2022.5</ele>
        <time>2016-06-22T12:18:13Z</time>
      </trkpt>
      <trkpt lat="45.68036" lon="6.47547">
        <ele>2023.4</ele>
        <time>2016-06-22T12:18:22Z</time>
      </trkpt>
      <trkpt lat="45.68041" lon="6.47536">
        <ele>2024.4</ele>
        <time>2016-06-22T12:18:33Z</time>
      </trkpt>
      <trkpt lat="45.68045" lon="6.47523">
        <ele>2025</ele>
        <time>2016-06-22T12:18:44Z</time>
      </trkpt>
      <trkpt lat="45.68053" lon="6.47519">
        <ele>2025.9</ele>
        <time>2016-06-22T12:18:57Z</time>
      </trkpt>
      <trkpt lat="45.68062" lon="6.47514">
        <ele>2026.8</ele>
        <time>2016-06-22T12:19:09Z</time>
      </trkpt>
      <trkpt lat="45.68067" lon="6.47502">
        <ele>2027.4</ele>
        <time>2016-06-22T12:19:19Z</time>
      </trkpt>
      <trkpt lat="45.6807" lon="6.4749">
        <ele>2028.4</ele>
        <time>2016-06-22T12:19:29Z</time>
      </trkpt>
      <trkpt lat="45.68076" lon="6.4748">
        <ele>2029.8</ele>
        <time>2016-06-22T12:19:41Z</time>
      </trkpt>
      <trkpt lat="45.68079" lon="6.47467">
        <ele>2032</ele>
        <time>2016-06-22T12:19:57Z</time>
      </trkpt>
      <trkpt lat="45.68081" lon="6.47454">
        <ele>2033</ele>
        <time>2016-06-22T12:20:07Z</time>
      </trkpt>
      <trkpt lat="45.68086" lon="6.47443">
        <ele>2033.9</ele>
        <time>2016-06-22T12:20:17Z</time>
      </trkpt>
      <trkpt lat="45.68091" lon="6.47431">
        <ele>2034.9</ele>
        <time>2016-06-22T12:20:28Z</time>
      </trkpt>
      <trkpt lat="45.68097" lon="6.47421">
        <ele>2036.1</ele>
        <time>2016-06-22T12:20:38Z</time>
      </trkpt>
      <trkpt lat="45.68101" lon="6.4741">
        <ele>2038.7</ele>
        <time>2016-06-22T12:20:56Z</time>
      </trkpt>
      <trkpt lat="45.68105" lon="6.47397">
        <ele>2039.8</ele>
        <time>2016-06-22T12:21:06Z</time>
      </trkpt>
      <trkpt lat="45.68111" lon="6.47385">
        <ele>2040.5</ele>
        <time>2016-06-22T12:21:15Z</time>
      </trkpt>
      <trkpt lat="45.68119" lon="6.47378">
        <ele>2041.3</ele>
        <time>2016-06-22T12:21:23Z</time>
      </trkpt>
      <trkpt lat="45.68124" lon="6.47367">
        <ele>2042.4</ele>
        <time>2016-06-22T12:21:33Z</time>
      </trkpt>
      <trkpt lat="45.68128" lon="6.47355">
        <ele>2043.9</ele>
        <time>2016-06-22T12:21:42Z</time>
      </trkpt>
      <trkpt lat="45.68135" lon="6.47347">
        <ele>2044.7</ele>
        <time>2016-06-22T12:21:50Z</time>
      </trkpt>
      <trkpt lat="45.68141" lon="6.47335">
        <ele>2045.6</ele>
        <time>2016-06-22T12:21:59Z</time>
      </trkpt>
      <trkpt lat="45.68147" lon="6.47324">
        <ele>2046</ele>
        <time>2016-06-22T12:22:07Z</time>
      </trkpt>
      <trkpt lat="45.68144" lon="6.47312">
        <ele>2047.1</ele>
        <time>2016-06-22T12:22:23Z</time>
      </trkpt>
      <trkpt lat="45.6814" lon="6.47299">
        <ele>2047.8</ele>
        <time>2016-06-22T12:22:33Z</time>
      </trkpt>
      <trkpt lat="45.68145" lon="6.47288">
        <ele>2048.5</ele>
        <time>2016-06-22T12:22:44Z</time>
      </trkpt>
      <trkpt lat="45.68153" lon="6.47281">
        <ele>2049.2</ele>
        <time>2016-06-22T12:22:53Z</time>
      </trkpt>
      <trkpt lat="45.68159" lon="6.4727">
        <ele>2050.9</ele>
        <time>2016-06-22T12:23:08Z</time>
      </trkpt>
      <trkpt lat="45.68165" lon="6.47259">
        <ele>2051.8</ele>
        <time>2016-06-22T12:23:19Z</time>
      </trkpt>
      <trkpt lat="45.6817" lon="6.47247">
        <ele>2052.5</ele>
        <time>2016-06-22T12:23:28Z</time>
      </trkpt>
      <trkpt lat="45.68178" lon="6.47238">
        <ele>2053.2</ele>
        <time>2016-06-22T12:23:38Z</time>
      </trkpt>
      <trkpt lat="45.68183" lon="6.47227">
        <ele>2054.3</ele>
        <time>2016-06-22T12:23:47Z</time>
      </trkpt>
      <trkpt lat="45.6819" lon="6.47217">
        <ele>2055.5</ele>
        <time>2016-06-22T12:23:56Z</time>
      </trkpt>
      <trkpt lat="45.68198" lon="6.47208">
        <ele>2056.3</ele>
        <time>2016-06-22T12:24:04Z</time>
      </trkpt>
      <trkpt lat="45.68202" lon="6.47195">
        <ele>2057</ele>
        <time>2016-06-22T12:24:15Z</time>
      </trkpt>
      <trkpt lat="45.68205" lon="6.47183">
        <ele>2057.5</ele>
        <time>2016-06-22T12:24:20Z</time>
      </trkpt>
      <trkpt lat="45.68209" lon="6.47171">
        <ele>2057.8</ele>
        <time>2016-06-22T12:24:24Z</time>
      </trkpt>
      <trkpt lat="45.68214" lon="6.4716">
        <ele>2058</ele>
        <time>2016-06-22T12:24:29Z</time>
      </trkpt>
      <trkpt lat="45.68221" lon="6.47148">
        <ele>2058.3</ele>
        <time>2016-06-22T12:24:36Z</time>
      </trkpt>
      <trkpt lat="45.68223" lon="6.47134">
        <ele>2058.3</ele>
        <time>2016-06-22T12:24:40Z</time>
      </trkpt>
      <trkpt lat="45.68227" lon="6.47122">
        <ele>2054.8</ele>
        <time>2016-06-22T12:26:40Z</time>
      </trkpt>
      <trkpt lat="45.68232" lon="6.47111">
        <ele>2054.4</ele>
        <time>2016-06-22T12:26:43Z</time>
      </trkpt>
      <trkpt lat="45.68237" lon="6.471">
        <ele>2053</ele>
        <time>2016-06-22T12:26:51Z</time>
      </trkpt>
      <trkpt lat="45.68246" lon="6.47093">
        <ele>2051.4</ele>
        <time>2016-06-22T12:27:01Z</time>
      </trkpt>
      <trkpt lat="45.68253" lon="6.47083">
        <ele>2050.7</ele>
        <time>2016-06-22T12:27:07Z</time>
      </trkpt>
      <trkpt lat="45.6826" lon="6.47073">
        <ele>2050.1</ele>
        <time>2016-06-22T12:27:13Z</time>
      </trkpt>
      <trkpt lat="45.68263" lon="6.47058">
        <ele>2048.4</ele>
        <time>2016-06-22T12:27:20Z</time>
      </trkpt>
      <trkpt lat="45.68265" lon="6.47044">
        <ele>2047.5</ele>
        <time>2016-06-22T12:27:24Z</time>
      </trkpt>
      <trkpt lat="45.68268" lon="6.47031">
        <ele>2045.5</ele>
        <time>2016-06-22T12:27:30Z</time>
      </trkpt>
      <trkpt lat="45.68277" lon="6.47028">
        <ele>2044.4</ele>
        <time>2016-06-22T12:27:34Z</time>
      </trkpt>
      <trkpt lat="45.68283" lon="6.47015">
        <ele>2041.1</ele>
        <time>2016-06-22T12:27:45Z</time>
      </trkpt>
      <trkpt lat="45.68286" lon="6.47001">
        <ele>2039.6</ele>
        <time>2016-06-22T12:27:49Z</time>
      </trkpt>
      <trkpt lat="45.68288" lon="6.46986">
        <ele>2036.6</ele>
        <time>2016-06-22T12:27:56Z</time>
      </trkpt>
      <trkpt lat="45.68298" lon="6.46985">
        <ele>2035.2</ele>
        <time>2016-06-22T12:47:31Z</time>
      </trkpt>
      <trkpt lat="45.68307" lon="6.46989">
        <ele>2034.5</ele>
        <time>2016-06-22T12:47:46Z</time>
      </trkpt>
      <trkpt lat="45.68315" lon="6.46994">
        <ele>2032.7</ele>
        <time>2016-06-22T12:48:02Z</time>
      </trkpt>
      <trkpt lat="45.68323" lon="6.47001">
        <ele>2031.1</ele>
        <time>2016-06-22T12:48:18Z</time>
      </trkpt>
      <trkpt lat="45.68333" lon="6.47003">
        <ele>2029.8</ele>
        <time>2016-06-22T12:48:29Z</time>
      </trkpt>
      <trkpt lat="45.68341" lon="6.47008">
        <ele>2026.6</ele>
        <time>2016-06-22T12:48:51Z</time>
      </trkpt>
      <trkpt lat="45.6835" lon="6.47011">
        <ele>2024.5</ele>
        <time>2016-06-22T12:49:02Z</time>
      </trkpt>
      <trkpt lat="45.68355" lon="6.47">
        <ele>2016.2</ele>
        <time>2016-06-22T12:49:41Z</time>
      </trkpt>
      <trkpt lat="45.68364" lon="6.46995">
        <ele>2012.9</ele>
        <time>2016-06-22T12:49:58Z</time>
      </trkpt>
      <trkpt lat="45.68372" lon="6.46987">
        <ele>2010.8</ele>
        <time>2016-06-22T12:50:06Z</time>
      </trkpt>
      <trkpt lat="45.68381" lon="6.46989">
        <ele>2007</ele>
        <time>2016-06-22T12:50:20Z</time>
      </trkpt>
      <trkpt lat="45.68391" lon="6.46993">
        <ele>2004</ele>
        <time>2016-06-22T12:50:34Z</time>
      </trkpt>
      <trkpt lat="45.684" lon="6.46998">
        <ele>2001.1</ele>
        <time>2016-06-22T12:50:49Z</time>
      </trkpt>
      <trkpt lat="45.68408" lon="6.47004">
        <ele>1996.4</ele>
        <time>2016-06-22T12:51:09Z</time>
      </trkpt>
      <trkpt lat="45.68417" lon="6.47006">
        <ele>1992.6</ele>
        <time>2016-06-22T12:51:28Z</time>
      </trkpt>
      <trkpt lat="45.68427" lon="6.47008">
        <ele>1990.5</ele>
        <time>2016-06-22T12:51:37Z</time>
      </trkpt>
      <trkpt lat="45.68436" lon="6.47014">
        <ele>1988.4</ele>
        <time>2016-06-22T12:51:50Z</time>
      </trkpt>
      <trkpt lat="45.68445" lon="6.47019">
        <ele>1987.2</ele>
        <time>2016-06-22T12:51:55Z</time>
      </trkpt>
      <trkpt lat="45.68454" lon="6.47027">
        <ele>1985.9</ele>
        <time>2016-06-22T12:52:01Z</time>
      </trkpt>
      <trkpt lat="45.68462" lon="6.47033">
        <ele>1985</ele>
        <time>2016-06-22T12:52:05Z</time>
      </trkpt>
      <trkpt lat="45.68472" lon="6.47036">
        <ele>1983.7</ele>
        <time>2016-06-22T12:52:09Z</time>
      </trkpt>
      <trkpt lat="45.6848" lon="6.47044">
        <ele>1982.6</ele>
        <time>2016-06-22T12:52:12Z</time>
      </trkpt>
      <trkpt lat="45.6849" lon="6.4705">
        <ele>1980.9</ele>
        <time>2016-06-22T12:52:18Z</time>
      </trkpt>
      <trkpt lat="45.68498" lon="6.47056">
        <ele>1979.7</ele>
        <time>2016-06-22T12:52:22Z</time>
      </trkpt>
      <trkpt lat="45.68501" lon="6.47043">
        <ele>1969.5</ele>
        <time>2016-06-22T12:52:50Z</time>
      </trkpt>
      <trkpt lat="45.68499" lon="6.4703">
        <ele>1962</ele>
        <time>2016-06-22T12:53:21Z</time>
      </trkpt>
      <trkpt lat="45.68493" lon="6.47014">
        <ele>1961.4</ele>
        <time>2016-06-22T12:53:25Z</time>
      </trkpt>
      <trkpt lat="45.68488" lon="6.47003">
        <ele>1960.2</ele>
        <time>2016-06-22T12:53:28Z</time>
      </trkpt>
      <trkpt lat="45.68482" lon="6.46991">
        <ele>1958.8</ele>
        <time>2016-06-22T12:53:33Z</time>
      </trkpt>
      <trkpt lat="45.68477" lon="6.4698">
        <ele>1957.9</ele>
        <time>2016-06-22T12:53:37Z</time>
      </trkpt>
      <trkpt lat="45.68472" lon="6.46968">
        <ele>1957</ele>
        <time>2016-06-22T12:53:41Z</time>
      </trkpt>
      <trkpt lat="45.68467" lon="6.46957">
        <ele>1955.8</ele>
        <time>2016-06-22T12:53:45Z</time>
      </trkpt>
      <trkpt lat="45.68469" lon="6.46944">
        <ele>1950.9</ele>
        <time>2016-06-22T12:54:01Z</time>
      </trkpt>
      <trkpt lat="45.68478" lon="6.46944">
        <ele>1946.6</ele>
        <time>2016-06-22T12:54:15Z</time>
      </trkpt>
      <trkpt lat="45.68481" lon="6.46932">
        <ele>1945.1</ele>
        <time>2016-06-22T12:54:22Z</time>
      </trkpt>
      <trkpt lat="45.68491" lon="6.46932">
        <ele>1942.7</ele>
        <time>2016-06-22T12:54:32Z</time>
      </trkpt>
      <trkpt lat="45.685" lon="6.46933">
        <ele>1938.8</ele>
        <time>2016-06-22T12:54:50Z</time>
      </trkpt>
      <trkpt lat="45.68509" lon="6.46936">
        <ele>1934.9</ele>
        <time>2016-06-22T12:55:08Z</time>
      </trkpt>
      <trkpt lat="45.68518" lon="6.46933">
        <ele>1933.8</ele>
        <time>2016-06-22T12:55:13Z</time>
      </trkpt>
      <trkpt lat="45.68527" lon="6.46933">
        <ele>1932.8</ele>
        <time>2016-06-22T12:55:17Z</time>
      </trkpt>
      <trkpt lat="45.68537" lon="6.46932">
        <ele>1928.1</ele>
        <time>2016-06-22T12:55:33Z</time>
      </trkpt>
      <trkpt lat="45.68547" lon="6.46934">
        <ele>1926.3</ele>
        <time>2016-06-22T12:55:39Z</time>
      </trkpt>
      <trkpt lat="45.68553" lon="6.46925">
        <ele>1923.9</ele>
        <time>2016-06-22T12:55:48Z</time>
      </trkpt>
      <trkpt lat="45.68557" lon="6.46912">
        <ele>1922.2</ele>
        <time>2016-06-22T12:55:53Z</time>
      </trkpt>
      <trkpt lat="45.68565" lon="6.46906">
        <ele>1915.2</ele>
        <time>2016-06-22T12:56:18Z</time>
      </trkpt>
      <trkpt lat="45.68565" lon="6.46893">
        <ele>1912.2</ele>
        <time>2016-06-22T12:56:31Z</time>
      </trkpt>
      <trkpt lat="45.68559" lon="6.46882">
        <ele>1910.6</ele>
        <time>2016-06-22T12:56:37Z</time>
      </trkpt>
      <trkpt lat="45.68554" lon="6.4687">
        <ele>1905.8</ele>
        <time>2016-06-22T12:56:57Z</time>
      </trkpt>
      <trkpt lat="45.68552" lon="6.46856">
        <ele>1903.2</ele>
        <time>2016-06-22T12:57:08Z</time>
      </trkpt>
      <trkpt lat="45.68553" lon="6.46843">
        <ele>1898</ele>
        <time>2016-06-22T12:57:29Z</time>
      </trkpt>
      <trkpt lat="45.68557" lon="6.46831">
        <ele>1896.8</ele>
        <time>2016-06-22T12:57:34Z</time>
      </trkpt>
      <trkpt lat="45.68552" lon="6.46817">
        <ele>1894.9</ele>
        <time>2016-06-22T12:57:40Z</time>
      </trkpt>
      <trkpt lat="45.68553" lon="6.46804">
        <ele>1886.8</ele>
        <time>2016-06-22T12:58:07Z</time>
      </trkpt>
      <trkpt lat="45.68563" lon="6.468">
        <ele>1882.6</ele>
        <time>2016-06-22T12:58:22Z</time>
      </trkpt>
      <trkpt lat="45.68572" lon="6.46797">
        <ele>1879.8</ele>
        <time>2016-06-22T12:58:36Z</time>
      </trkpt>
      <trkpt lat="45.68582" lon="6.46795">
        <ele>1875.7</ele>
        <time>2016-06-22T12:58:53Z</time>
      </trkpt>
      <trkpt lat="45.68593" lon="6.46793">
        <ele>1874.9</ele>
        <time>2016-06-22T12:58:56Z</time>
      </trkpt>
      <trkpt lat="45.686" lon="6.46785">
        <ele>1873.6</ele>
        <time>2016-06-22T12:59:01Z</time>
      </trkpt>
      <trkpt lat="45.68591" lon="6.46775">
        <ele>1872.2</ele>
        <time>2016-06-22T12:59:06Z</time>
      </trkpt>
      <trkpt lat="45.68582" lon="6.46769">
        <ele>1868.2</ele>
        <time>2016-06-22T12:59:22Z</time>
      </trkpt>
      <trkpt lat="45.68575" lon="6.46759">
        <ele>1866</ele>
        <time>2016-06-22T12:59:33Z</time>
      </trkpt>
      <trkpt lat="45.68571" lon="6.46747">
        <ele>1864.3</ele>
        <time>2016-06-22T12:59:40Z</time>
      </trkpt>
      <trkpt lat="45.68566" lon="6.46736">
        <ele>1859.9</ele>
        <time>2016-06-22T13:00:04Z</time>
      </trkpt>
      <trkpt lat="45.68563" lon="6.46723">
        <ele>1857.3</ele>
        <time>2016-06-22T13:00:18Z</time>
      </trkpt>
      <trkpt lat="45.68566" lon="6.46709">
        <ele>1855.3</ele>
        <time>2016-06-22T13:00:26Z</time>
      </trkpt>
      <trkpt lat="45.68567" lon="6.46695">
        <ele>1852</ele>
        <time>2016-06-22T13:00:37Z</time>
      </trkpt>
      <trkpt lat="45.68574" lon="6.46687">
        <ele>1847.3</ele>
        <time>2016-06-22T13:00:54Z</time>
      </trkpt>
      <trkpt lat="45.68572" lon="6.46673">
        <ele>1843.9</ele>
        <time>2016-06-22T13:01:09Z</time>
      </trkpt>
      <trkpt lat="45.68569" lon="6.4666">
        <ele>1842.2</ele>
        <time>2016-06-22T13:01:18Z</time>
      </trkpt>
      <trkpt lat="45.68573" lon="6.46647">
        <ele>1840.5</ele>
        <time>2016-06-22T13:01:32Z</time>
      </trkpt>
      <trkpt lat="45.68582" lon="6.46642">
        <ele>1840</ele>
        <time>2016-06-22T13:01:39Z</time>
      </trkpt>
      <trkpt lat="45.68594" lon="6.4664">
        <ele>1839.8</ele>
        <time>2016-06-22T13:01:45Z</time>
      </trkpt>
      <trkpt lat="45.68604" lon="6.46635">
        <ele>1839.7</ele>
        <time>2016-06-22T13:01:49Z</time>
      </trkpt>
      <trkpt lat="45.68609" lon="6.46624">
        <ele>1839.5</ele>
        <time>2016-06-22T13:02:00Z</time>
      </trkpt>
      <trkpt lat="45.68602" lon="6.46614">
        <ele>1839</ele>
        <time>2016-06-22T13:02:11Z</time>
      </trkpt>
      <trkpt lat="45.68594" lon="6.46607">
        <ele>1837.9</ele>
        <time>2016-06-22T13:02:16Z</time>
      </trkpt>
      <trkpt lat="45.68592" lon="6.46593">
        <ele>1833.5</ele>
        <time>2016-06-22T13:02:39Z</time>
      </trkpt>
      <trkpt lat="45.68587" lon="6.46581">
        <ele>1832.1</ele>
        <time>2016-06-22T13:02:44Z</time>
      </trkpt>
      <trkpt lat="45.68595" lon="6.46576">
        <ele>1828.8</ele>
        <time>2016-06-22T13:03:00Z</time>
      </trkpt>
      <trkpt lat="45.68604" lon="6.46573">
        <ele>1823.4</ele>
        <time>2016-06-22T13:03:39Z</time>
      </trkpt>
      <trkpt lat="45.68613" lon="6.46567">
        <ele>1821.8</ele>
        <time>2016-06-22T13:03:47Z</time>
      </trkpt>
      <trkpt lat="45.6862" lon="6.46558">
        <ele>1819.8</ele>
        <time>2016-06-22T13:03:54Z</time>
      </trkpt>
      <trkpt lat="45.6862" lon="6.46544">
        <ele>1817.3</ele>
        <time>2016-06-22T13:04:01Z</time>
      </trkpt>
      <trkpt lat="45.68625" lon="6.46531">
        <ele>1814.3</ele>
        <time>2016-06-22T13:04:11Z</time>
      </trkpt>
      <trkpt lat="45.68631" lon="6.46522">
        <ele>1810.6</ele>
        <time>2016-06-22T13:04:23Z</time>
      </trkpt>
      <trkpt lat="45.68639" lon="6.46514">
        <ele>1804.7</ele>
        <time>2016-06-22T13:04:47Z</time>
      </trkpt>
      <trkpt lat="45.68647" lon="6.46506">
        <ele>1801.6</ele>
        <time>2016-06-22T13:05:04Z</time>
      </trkpt>
      <trkpt lat="45.68653" lon="6.46494">
        <ele>1799.3</ele>
        <time>2016-06-22T13:05:14Z</time>
      </trkpt>
      <trkpt lat="45.68649" lon="6.46482">
        <ele>1797.1</ele>
        <time>2016-06-22T13:05:23Z</time>
      </trkpt>
      <trkpt lat="45.68657" lon="6.46488">
        <ele>1794.8</ele>
        <time>2016-06-22T13:05:32Z</time>
      </trkpt>
      <trkpt lat="45.6866" lon="6.46475">
        <ele>1792.7</ele>
        <time>2016-06-22T13:05:41Z</time>
      </trkpt>
      <trkpt lat="45.68656" lon="6.46462">
        <ele>1790.3</ele>
        <time>2016-06-22T13:05:52Z</time>
      </trkpt>
      <trkpt lat="45.68663" lon="6.46454">
        <ele>1786.1</ele>
        <time>2016-06-22T13:06:11Z</time>
      </trkpt>
      <trkpt lat="45.68669" lon="6.46444">
        <ele>1783.2</ele>
        <time>2016-06-22T13:06:31Z</time>
      </trkpt>
      <trkpt lat="45.68673" lon="6.46432">
        <ele>1780.6</ele>
        <time>2016-06-22T13:06:46Z</time>
      </trkpt>
      <trkpt lat="45.68678" lon="6.46419">
        <ele>1773.7</ele>
        <time>2016-06-22T13:08:31Z</time>
      </trkpt>
      <trkpt lat="45.68685" lon="6.46408">
        <ele>1773.1</ele>
        <time>2016-06-22T13:08:39Z</time>
      </trkpt>
      <trkpt lat="45.6869" lon="6.46396">
        <ele>1771.9</ele>
        <time>2016-06-22T13:08:44Z</time>
      </trkpt>
      <trkpt lat="45.68695" lon="6.46384">
        <ele>1770.7</ele>
        <time>2016-06-22T13:08:47Z</time>
      </trkpt>
      <trkpt lat="45.68698" lon="6.46371">
        <ele>1769.6</ele>
        <time>2016-06-22T13:08:50Z</time>
      </trkpt>
      <trkpt lat="45.68707" lon="6.46355">
        <ele>1767</ele>
        <time>2016-06-22T13:08:56Z</time>
      </trkpt>
      <trkpt lat="45.68711" lon="6.4634">
        <ele>1764.8</ele>
        <time>2016-06-22T13:09:01Z</time>
      </trkpt>
      <trkpt lat="45.68714" lon="6.46327">
        <ele>1761.2</ele>
        <time>2016-06-22T13:09:10Z</time>
      </trkpt>
      <trkpt lat="45.68717" lon="6.46313">
        <ele>1758.6</ele>
        <time>2016-06-22T13:09:20Z</time>
      </trkpt>
      <trkpt lat="45.68718" lon="6.46299">
        <ele>1756.7</ele>
        <time>2016-06-22T13:09:34Z</time>
      </trkpt>
      <trkpt lat="45.6872" lon="6.46286">
        <ele>1756</ele>
        <time>2016-06-22T13:09:44Z</time>
      </trkpt>
      <trkpt lat="45.68723" lon="6.46273">
        <ele>1755.7</ele>
        <time>2016-06-22T13:09:52Z</time>
      </trkpt>
      <trkpt lat="45.68728" lon="6.46261">
        <ele>1755.3</ele>
        <time>2016-06-22T13:10:00Z</time>
      </trkpt>
      <trkpt lat="45.68738" lon="6.46256">
        <ele>1754.2</ele>
        <time>2016-06-22T13:10:16Z</time>
      </trkpt>
      <trkpt lat="45.68746" lon="6.46248">
        <ele>1753.7</ele>
        <time>2016-06-22T13:10:19Z</time>
      </trkpt>
      <trkpt lat="45.68751" lon="6.46235">
        <ele>1753</ele>
        <time>2016-06-22T13:10:23Z</time>
      </trkpt>
      <trkpt lat="45.68755" lon="6.46222">
        <ele>1752.5</ele>
        <time>2016-06-22T13:10:26Z</time>
      </trkpt>
      <trkpt lat="45.6876" lon="6.46209">
        <ele>1751.9</ele>
        <time>2016-06-22T13:10:29Z</time>
      </trkpt>
      <trkpt lat="45.68765" lon="6.46198">
        <ele>1750.7</ele>
        <time>2016-06-22T13:10:35Z</time>
      </trkpt>
      <trkpt lat="45.6877" lon="6.46188">
        <ele>1749.4</ele>
        <time>2016-06-22T13:10:45Z</time>
      </trkpt>
      <trkpt lat="45.68776" lon="6.46177">
        <ele>1748.8</ele>
        <time>2016-06-22T13:11:00Z</time>
      </trkpt>
      <trkpt lat="45.6878" lon="6.46165">
        <ele>1748.5</ele>
        <time>2016-06-22T13:11:25Z</time>
      </trkpt>
      <trkpt lat="45.68786" lon="6.46154">
        <ele>1749.1</ele>
        <time>2016-06-22T13:11:35Z</time>
      </trkpt>
      <trkpt lat="45.68794" lon="6.46147">
        <ele>1747.1</ele>
        <time>2016-06-22T13:11:55Z</time>
      </trkpt>
      <trkpt lat="45.68801" lon="6.46133">
        <ele>1746.5</ele>
        <time>2016-06-22T13:12:00Z</time>
      </trkpt>
      <trkpt lat="45.68808" lon="6.46124">
        <ele>1746</ele>
        <time>2016-06-22T13:12:03Z</time>
      </trkpt>
      <trkpt lat="45.68817" lon="6.46117">
        <ele>1744.8</ele>
        <time>2016-06-22T13:12:08Z</time>
      </trkpt>
      <trkpt lat="45.68829" lon="6.46113">
        <ele>1743.9</ele>
        <time>2016-06-22T13:12:13Z</time>
      </trkpt>
      <trkpt lat="45.68838" lon="6.46112">
        <ele>1743.3</ele>
        <time>2016-06-22T13:12:17Z</time>
      </trkpt>
      <trkpt lat="45.68846" lon="6.46117">
        <ele>1742.5</ele>
        <time>2016-06-22T13:12:25Z</time>
      </trkpt>
      <trkpt lat="45.68856" lon="6.46121">
        <ele>1742.6</ele>
        <time>2016-06-22T13:12:31Z</time>
      </trkpt>
      <trkpt lat="45.68865" lon="6.46125">
        <ele>1743</ele>
        <time>2016-06-22T13:12:37Z</time>
      </trkpt>
      <trkpt lat="45.68875" lon="6.46128">
        <ele>1743.9</ele>
        <time>2016-06-22T13:12:43Z</time>
      </trkpt>
      <trkpt lat="45.68884" lon="6.46124">
        <ele>1744.5</ele>
        <time>2016-06-22T13:12:48Z</time>
      </trkpt>
      <trkpt lat="45.68893" lon="6.46119">
        <ele>1745.2</ele>
        <time>2016-06-22T13:12:53Z</time>
      </trkpt>
      <trkpt lat="45.68902" lon="6.46114">
        <ele>1745.8</ele>
        <time>2016-06-22T13:12:58Z</time>
      </trkpt>
      <trkpt lat="45.68911" lon="6.46109">
        <ele>1746.4</ele>
        <time>2016-06-22T13:13:03Z</time>
      </trkpt>
      <trkpt lat="45.6892" lon="6.46102">
        <ele>1747.2</ele>
        <time>2016-06-22T13:13:09Z</time>
      </trkpt>
      <trkpt lat="45.68928" lon="6.46091">
        <ele>1747.8</ele>
        <time>2016-06-22T13:13:15Z</time>
      </trkpt>
      <trkpt lat="45.68934" lon="6.46081">
        <ele>1748</ele>
        <time>2016-06-22T13:13:18Z</time>
      </trkpt>
      <trkpt lat="45.68943" lon="6.46069">
        <ele>1748.1</ele>
        <time>2016-06-22T13:13:21Z</time>
      </trkpt>
      <trkpt lat="45.68952" lon="6.4606">
        <ele>1748.1</ele>
        <time>2016-06-22T13:13:23Z</time>
      </trkpt>
      <trkpt lat="45.68961" lon="6.46051">
        <ele>1747.8</ele>
        <time>2016-06-22T13:13:25Z</time>
      </trkpt>
      <trkpt lat="45.68967" lon="6.46038">
        <ele>1747.3</ele>
        <time>2016-06-22T13:13:28Z</time>
      </trkpt>
      <trkpt lat="45.68972" lon="6.46022">
        <ele>1746.5</ele>
        <time>2016-06-22T13:13:31Z</time>
      </trkpt>
      <trkpt lat="45.68978" lon="6.4601">
        <ele>1745.6</ele>
        <time>2016-06-22T13:13:34Z</time>
      </trkpt>
      <trkpt lat="45.68982" lon="6.45996">
        <ele>1744</ele>
        <time>2016-06-22T13:13:38Z</time>
      </trkpt>
      <trkpt lat="45.6898" lon="6.45981">
        <ele>1742.2</ele>
        <time>2016-06-22T13:13:42Z</time>
      </trkpt>
      <trkpt lat="45.68986" lon="6.45967">
        <ele>1739.1</ele>
        <time>2016-06-22T13:13:47Z</time>
      </trkpt>
      <trkpt lat="45.68988" lon="6.45953">
        <ele>1736.3</ele>
        <time>2016-06-22T13:13:52Z</time>
      </trkpt>
      <trkpt lat="45.68994" lon="6.45943">
        <ele>1732.6</ele>
        <time>2016-06-22T13:13:58Z</time>
      </trkpt>
      <trkpt lat="45.68995" lon="6.45929">
        <ele>1727.8</ele>
        <time>2016-06-22T13:14:05Z</time>
      </trkpt>
      <trkpt lat="45.69001" lon="6.45917">
        <ele>1721.9</ele>
        <time>2016-06-22T13:14:14Z</time>
      </trkpt>
      <trkpt lat="45.69003" lon="6.45903">
        <ele>1717.1</ele>
        <time>2016-06-22T13:14:22Z</time>
      </trkpt>
      <trkpt lat="45.69003" lon="6.45888">
        <ele>1712.2</ele>
        <time>2016-06-22T13:14:31Z</time>
      </trkpt>
      <trkpt lat="45.68999" lon="6.45874">
        <ele>1707.3</ele>
        <time>2016-06-22T13:14:39Z</time>
      </trkpt>
      <trkpt lat="45.68997" lon="6.4586">
        <ele>1704.8</ele>
        <time>2016-06-22T13:14:43Z</time>
      </trkpt>
      <trkpt lat="45.68994" lon="6.45847">
        <ele>1702.2</ele>
        <time>2016-06-22T13:14:47Z</time>
      </trkpt>
      <trkpt lat="45.68992" lon="6.45834">
        <ele>1698.8</ele>
        <time>2016-06-22T13:14:52Z</time>
      </trkpt>
      <trkpt lat="45.68989" lon="6.45822">
        <ele>1696.2</ele>
        <time>2016-06-22T13:14:56Z</time>
      </trkpt>
      <trkpt lat="45.68985" lon="6.4581">
        <ele>1688.7</ele>
        <time>2016-06-22T13:15:10Z</time>
      </trkpt>
      <trkpt lat="45.68983" lon="6.45797">
        <ele>1681.6</ele>
        <time>2016-06-22T13:15:30Z</time>
      </trkpt>
      <trkpt lat="45.6898" lon="6.45782">
        <ele>1676.4</ele>
        <time>2016-06-22T13:15:47Z</time>
      </trkpt>
      <trkpt lat="45.68975" lon="6.45771">
        <ele>1675.8</ele>
        <time>2016-06-22T13:15:50Z</time>
      </trkpt>
      <trkpt lat="45.68976" lon="6.45757">
        <ele>1673.5</ele>
        <time>2016-06-22T13:16:00Z</time>
      </trkpt>
      <trkpt lat="45.68978" lon="6.45744">
        <ele>1670.3</ele>
        <time>2016-06-22T13:16:40Z</time>
      </trkpt>
      <trkpt lat="45.68973" lon="6.45734">
        <ele>1668.9</ele>
        <time>2016-06-22T13:16:56Z</time>
      </trkpt>
      <trkpt lat="45.68964" lon="6.45723">
        <ele>1668.3</ele>
        <time>2016-06-22T13:17:03Z</time>
      </trkpt>
      <trkpt lat="45.68953" lon="6.45713">
        <ele>1667.9</ele>
        <time>2016-06-22T13:17:05Z</time>
      </trkpt>
      <trkpt lat="45.68945" lon="6.45704">
        <ele>1667.1</ele>
        <time>2016-06-22T13:17:08Z</time>
      </trkpt>
      <trkpt lat="45.68941" lon="6.45692">
        <ele>1665.4</ele>
        <time>2016-06-22T13:17:13Z</time>
      </trkpt>
      <trkpt lat="45.68936" lon="6.4568">
        <ele>1663</ele>
        <time>2016-06-22T13:17:19Z</time>
      </trkpt>
      <trkpt lat="45.68934" lon="6.45665">
        <ele>1660</ele>
        <time>2016-06-22T13:17:26Z</time>
      </trkpt>
      <trkpt lat="45.68932" lon="6.4565">
        <ele>1658.7</ele>
        <time>2016-06-22T13:17:29Z</time>
      </trkpt>
      <trkpt lat="45.68928" lon="6.45636">
        <ele>1657.7</ele>
        <time>2016-06-22T13:17:31Z</time>
      </trkpt>
      <trkpt lat="45.68924" lon="6.45622">
        <ele>1656.3</ele>
        <time>2016-06-22T13:17:33Z</time>
      </trkpt>
      <trkpt lat="45.68919" lon="6.45611">
        <ele>1644.1</ele>
        <time>2016-06-22T13:17:58Z</time>
      </trkpt>
      <trkpt lat="45.68909" lon="6.45606">
        <ele>1640</ele>
        <time>2016-06-22T13:18:28Z</time>
      </trkpt>
      <trkpt lat="45.689" lon="6.45604">
        <ele>1639.8</ele>
        <time>2016-06-22T13:18:35Z</time>
      </trkpt>
      <trkpt lat="45.68891" lon="6.45604">
        <ele>1640.2</ele>
        <time>2016-06-22T13:18:43Z</time>
      </trkpt>
      <trkpt lat="45.6888" lon="6.45603">
        <ele>1640.6</ele>
        <time>2016-06-22T13:18:51Z</time>
      </trkpt>
      <trkpt lat="45.68871" lon="6.456">
        <ele>1641.4</ele>
        <time>2016-06-22T13:18:58Z</time>
      </trkpt>
      <trkpt lat="45.68862" lon="6.45595">
        <ele>1643.9</ele>
        <time>2016-06-22T13:19:13Z</time>
      </trkpt>
      <trkpt lat="45.68853" lon="6.45595">
        <ele>1646.3</ele>
        <time>2016-06-22T13:19:29Z</time>
      </trkpt>
      <trkpt lat="45.68843" lon="6.45596">
        <ele>1648.1</ele>
        <time>2016-06-22T13:19:44Z</time>
      </trkpt>
      <trkpt lat="45.68834" lon="6.45598">
        <ele>1649</ele>
        <time>2016-06-22T13:19:55Z</time>
      </trkpt>
      <trkpt lat="45.68824" lon="6.45601">
        <ele>1650.1</ele>
        <time>2016-06-22T13:20:06Z</time>
      </trkpt>
      <trkpt lat="45.68815" lon="6.45603">
        <ele>1651.1</ele>
        <time>2016-06-22T13:20:19Z</time>
      </trkpt>
      <trkpt lat="45.68804" lon="6.45601">
        <ele>1655.1</ele>
        <time>2016-06-22T13:20:41Z</time>
      </trkpt>
      <trkpt lat="45.68798" lon="6.45591">
        <ele>1657.1</ele>
        <time>2016-06-22T13:20:55Z</time>
      </trkpt>
      <trkpt lat="45.6879" lon="6.45584">
        <ele>1659</ele>
        <time>2016-06-22T13:21:09Z</time>
      </trkpt>
      <trkpt lat="45.68781" lon="6.45589">
        <ele>1661.4</ele>
        <time>2016-06-22T13:21:24Z</time>
      </trkpt>
      <trkpt lat="45.68772" lon="6.45593">
        <ele>1663.5</ele>
        <time>2016-06-22T13:21:40Z</time>
      </trkpt>
      <trkpt lat="45.68763" lon="6.45597">
        <ele>1664.3</ele>
        <time>2016-06-22T13:21:49Z</time>
      </trkpt>
      <trkpt lat="45.68754" lon="6.45599">
        <ele>1665.8</ele>
        <time>2016-06-22T13:22:04Z</time>
      </trkpt>
      <trkpt lat="45.68745" lon="6.45601">
        <ele>1666.8</ele>
        <time>2016-06-22T13:22:16Z</time>
      </trkpt>
      <trkpt lat="45.68735" lon="6.45599">
        <ele>1668.7</ele>
        <time>2016-06-22T13:22:30Z</time>
      </trkpt>
      <trkpt lat="45.68725" lon="6.45598">
        <ele>1671</ele>
        <time>2016-06-22T13:22:44Z</time>
      </trkpt>
      <trkpt lat="45.68716" lon="6.45597">
        <ele>1673.1</ele>
        <time>2016-06-22T13:22:57Z</time>
      </trkpt>
      <trkpt lat="45.68707" lon="6.45596">
        <ele>1674.4</ele>
        <time>2016-06-22T13:23:07Z</time>
      </trkpt>
      <trkpt lat="45.68697" lon="6.45595">
        <ele>1675.8</ele>
        <time>2016-06-22T13:23:18Z</time>
      </trkpt>
      <trkpt lat="45.68688" lon="6.45592">
        <ele>1677.9</ele>
        <time>2016-06-22T13:23:31Z</time>
      </trkpt>
      <trkpt lat="45.68679" lon="6.4559">
        <ele>1679.9</ele>
        <time>2016-06-22T13:23:43Z</time>
      </trkpt>
      <trkpt lat="45.6867" lon="6.45589">
        <ele>1682.4</ele>
        <time>2016-06-22T13:24:03Z</time>
      </trkpt>
      <trkpt lat="45.68661" lon="6.45589">
        <ele>1683.4</ele>
        <time>2016-06-22T13:24:17Z</time>
      </trkpt>
      <trkpt lat="45.68651" lon="6.45587">
        <ele>1684.7</ele>
        <time>2016-06-22T13:24:30Z</time>
      </trkpt>
      <trkpt lat="45.68642" lon="6.45586">
        <ele>1686</ele>
        <time>2016-06-22T13:24:43Z</time>
      </trkpt>
      <trkpt lat="45.68633" lon="6.45583">
        <ele>1687.7</ele>
        <time>2016-06-22T13:24:56Z</time>
      </trkpt>
      <trkpt lat="45.68624" lon="6.45579">
        <ele>1689.6</ele>
        <time>2016-06-22T13:25:08Z</time>
      </trkpt>
      <trkpt lat="45.68615" lon="6.45578">
        <ele>1691.5</ele>
        <time>2016-06-22T13:25:19Z</time>
      </trkpt>
      <trkpt lat="45.68605" lon="6.45575">
        <ele>1693.8</ele>
        <time>2016-06-22T13:25:33Z</time>
      </trkpt>
      <trkpt lat="45.68595" lon="6.45573">
        <ele>1694.7</ele>
        <time>2016-06-22T13:25:40Z</time>
      </trkpt>
      <trkpt lat="45.68587" lon="6.45569">
        <ele>1695.6</ele>
        <time>2016-06-22T13:25:48Z</time>
      </trkpt>
      <trkpt lat="45.68578" lon="6.45564">
        <ele>1696.6</ele>
        <time>2016-06-22T13:25:57Z</time>
      </trkpt>
      <trkpt lat="45.68569" lon="6.4556">
        <ele>1697.5</ele>
        <time>2016-06-22T13:26:05Z</time>
      </trkpt>
      <trkpt lat="45.68559" lon="6.45559">
        <ele>1698.7</ele>
        <time>2016-06-22T13:26:13Z</time>
      </trkpt>
      <trkpt lat="45.68549" lon="6.45555">
        <ele>1699.9</ele>
        <time>2016-06-22T13:26:21Z</time>
      </trkpt>
      <trkpt lat="45.68539" lon="6.45553">
        <ele>1700.9</ele>
        <time>2016-06-22T13:26:29Z</time>
      </trkpt>
      <trkpt lat="45.68531" lon="6.45547">
        <ele>1702.2</ele>
        <time>2016-06-22T13:26:38Z</time>
      </trkpt>
      <trkpt lat="45.68524" lon="6.45537">
        <ele>1703.4</ele>
        <time>2016-06-22T13:26:47Z</time>
      </trkpt>
      <trkpt lat="45.68519" lon="6.45526">
        <ele>1704.4</ele>
        <time>2016-06-22T13:26:55Z</time>
      </trkpt>
      <trkpt lat="45.68515" lon="6.45514">
        <ele>1705.9</ele>
        <time>2016-06-22T13:27:03Z</time>
      </trkpt>
      <trkpt lat="45.68509" lon="6.45503">
        <ele>1707.8</ele>
        <time>2016-06-22T13:27:12Z</time>
      </trkpt>
      <trkpt lat="45.68503" lon="6.45492">
        <ele>1709.5</ele>
        <time>2016-06-22T13:27:20Z</time>
      </trkpt>
      <trkpt lat="45.68502" lon="6.45478">
        <ele>1711.1</ele>
        <time>2016-06-22T13:27:29Z</time>
      </trkpt>
      <trkpt lat="45.68504" lon="6.45465">
        <ele>1712.1</ele>
        <time>2016-06-22T13:27:37Z</time>
      </trkpt>
      <trkpt lat="45.68504" lon="6.45451">
        <ele>1713.7</ele>
        <time>2016-06-22T13:27:46Z</time>
      </trkpt>
      <trkpt lat="45.685" lon="6.45438">
        <ele>1715.2</ele>
        <time>2016-06-22T13:27:54Z</time>
      </trkpt>
      <trkpt lat="45.68492" lon="6.45432">
        <ele>1716.5</ele>
        <time>2016-06-22T13:28:01Z</time>
      </trkpt>
      <trkpt lat="45.68484" lon="6.45427">
        <ele>1717.5</ele>
        <time>2016-06-22T13:28:08Z</time>
      </trkpt>
      <trkpt lat="45.68475" lon="6.45424">
        <ele>1718.4</ele>
        <time>2016-06-22T13:28:15Z</time>
      </trkpt>
      <trkpt lat="45.68466" lon="6.45428">
        <ele>1719.2</ele>
        <time>2016-06-22T13:28:22Z</time>
      </trkpt>
      <trkpt lat="45.68457" lon="6.45434">
        <ele>1719.9</ele>
        <time>2016-06-22T13:28:29Z</time>
      </trkpt>
      <trkpt lat="45.68449" lon="6.45441">
        <ele>1720.3</ele>
        <time>2016-06-22T13:28:36Z</time>
      </trkpt>
      <trkpt lat="45.68442" lon="6.4545">
        <ele>1720.8</ele>
        <time>2016-06-22T13:28:43Z</time>
      </trkpt>
      <trkpt lat="45.68434" lon="6.45458">
        <ele>1721.3</ele>
        <time>2016-06-22T13:28:51Z</time>
      </trkpt>
      <trkpt lat="45.68425" lon="6.45464">
        <ele>1721.5</ele>
        <time>2016-06-22T13:28:59Z</time>
      </trkpt>
      <trkpt lat="45.68418" lon="6.45472">
        <ele>1722.4</ele>
        <time>2016-06-22T13:29:29Z</time>
      </trkpt>
      <trkpt lat="45.68409" lon="6.45477">
        <ele>1722.9</ele>
        <time>2016-06-22T13:29:44Z</time>
      </trkpt>
      <trkpt lat="45.684" lon="6.4548">
        <ele>1724.1</ele>
        <time>2016-06-22T13:29:57Z</time>
      </trkpt>
      <trkpt lat="45.6839" lon="6.4548">
        <ele>1726</ele>
        <time>2016-06-22T13:30:10Z</time>
      </trkpt>
      <trkpt lat="45.68381" lon="6.45481">
        <ele>1728.6</ele>
        <time>2016-06-22T13:30:24Z</time>
      </trkpt>
      <trkpt lat="45.68372" lon="6.45483">
        <ele>1730.5</ele>
        <time>2016-06-22T13:30:36Z</time>
      </trkpt>
      <trkpt lat="45.68363" lon="6.45482">
        <ele>1734.1</ele>
        <time>2016-06-22T13:31:17Z</time>
      </trkpt>
      <trkpt lat="45.68353" lon="6.4548">
        <ele>1735</ele>
        <time>2016-06-22T13:31:29Z</time>
      </trkpt>
      <trkpt lat="45.68344" lon="6.45478">
        <ele>1736.3</ele>
        <time>2016-06-22T13:31:41Z</time>
      </trkpt>
      <trkpt lat="45.68334" lon="6.45478">
        <ele>1737.7</ele>
        <time>2016-06-22T13:31:51Z</time>
      </trkpt>
      <trkpt lat="45.68325" lon="6.45477">
        <ele>1739</ele>
        <time>2016-06-22T13:32:01Z</time>
      </trkpt>
      <trkpt lat="45.68315" lon="6.45474">
        <ele>1740.3</ele>
        <time>2016-06-22T13:32:13Z</time>
      </trkpt>
      <trkpt lat="45.68306" lon="6.45469">
        <ele>1742.2</ele>
        <time>2016-06-22T13:32:26Z</time>
      </trkpt>
      <trkpt lat="45.68297" lon="6.45466">
        <ele>1744.4</ele>
        <time>2016-06-22T13:32:39Z</time>
      </trkpt>
      <trkpt lat="45.68287" lon="6.45462">
        <ele>1746</ele>
        <time>2016-06-22T13:32:48Z</time>
      </trkpt>
      <trkpt lat="45.6828" lon="6.45455">
        <ele>1747.2</ele>
        <time>2016-06-22T13:32:57Z</time>
      </trkpt>
      <trkpt lat="45.68271" lon="6.45449">
        <ele>1748.2</ele>
        <time>2016-06-22T13:33:07Z</time>
      </trkpt>
      <trkpt lat="45.68262" lon="6.45445">
        <ele>1748.8</ele>
        <time>2016-06-22T13:33:16Z</time>
      </trkpt>
      <trkpt lat="45.68252" lon="6.4544">
        <ele>1749.4</ele>
        <time>2016-06-22T13:33:27Z</time>
      </trkpt>
      <trkpt lat="45.68243" lon="6.45438">
        <ele>1750.4</ele>
        <time>2016-06-22T13:33:39Z</time>
      </trkpt>
      <trkpt lat="45.68236" lon="6.45431">
        <ele>1752</ele>
        <time>2016-06-22T13:33:52Z</time>
      </trkpt>
      <trkpt lat="45.68227" lon="6.45426">
        <ele>1753.2</ele>
        <time>2016-06-22T13:34:03Z</time>
      </trkpt>
      <trkpt lat="45.68218" lon="6.45422">
        <ele>1754.4</ele>
        <time>2016-06-22T13:34:18Z</time>
      </trkpt>
      <trkpt lat="45.68209" lon="6.45419">
        <ele>1755.7</ele>
        <time>2016-06-22T13:34:35Z</time>
      </trkpt>
      <trkpt lat="45.68201" lon="6.45414">
        <ele>1759.3</ele>
        <time>2016-06-22T13:35:13Z</time>
      </trkpt>
      <trkpt lat="45.68192" lon="6.45408">
        <ele>1761.5</ele>
        <time>2016-06-22T13:35:32Z</time>
      </trkpt>
      <trkpt lat="45.68183" lon="6.45404">
        <ele>1764.9</ele>
        <time>2016-06-22T13:35:58Z</time>
      </trkpt>
      <trkpt lat="45.68174" lon="6.45399">
        <ele>1766.7</ele>
        <time>2016-06-22T13:36:12Z</time>
      </trkpt>
      <trkpt lat="45.68165" lon="6.45394">
        <ele>1771</ele>
        <time>2016-06-22T13:36:36Z</time>
      </trkpt>
      <trkpt lat="45.68156" lon="6.45387">
        <ele>1776.6</ele>
        <time>2016-06-22T13:37:19Z</time>
      </trkpt>
      <trkpt lat="45.6815" lon="6.45397">
        <ele>1781.2</ele>
        <time>2016-06-22T13:38:01Z</time>
      </trkpt>
      <trkpt lat="45.6815" lon="6.45413">
        <ele>1787.9</ele>
        <time>2016-06-22T13:39:03Z</time>
      </trkpt>
      <trkpt lat="45.68142" lon="6.45407">
        <ele>1788.8</ele>
        <time>2016-06-22T13:39:19Z</time>
      </trkpt>
      <trkpt lat="45.68135" lon="6.454">
        <ele>1790.2</ele>
        <time>2016-06-22T13:39:38Z</time>
      </trkpt>
      <trkpt lat="45.68126" lon="6.45398">
        <ele>1792.2</ele>
        <time>2016-06-22T13:39:53Z</time>
      </trkpt>
      <trkpt lat="45.68117" lon="6.45393">
        <ele>1794.6</ele>
        <time>2016-06-22T13:40:06Z</time>
      </trkpt>
      <trkpt lat="45.68109" lon="6.45388">
        <ele>1797.5</ele>
        <time>2016-06-22T13:40:20Z</time>
      </trkpt>
      <trkpt lat="45.68101" lon="6.4538">
        <ele>1805.4</ele>
        <time>2016-06-22T13:41:20Z</time>
      </trkpt>
      <trkpt lat="45.68091" lon="6.45374">
        <ele>1807.6</ele>
        <time>2016-06-22T13:51:00Z</time>
      </trkpt>
      <trkpt lat="45.68082" lon="6.45369">
        <ele>1807.6</ele>
        <time>2016-06-22T13:51:06Z</time>
      </trkpt>
      <trkpt lat="45.68073" lon="6.45368">
        <ele>1807.7</ele>
        <time>2016-06-22T13:51:12Z</time>
      </trkpt>
      <trkpt lat="45.68064" lon="6.4537">
        <ele>1808.1</ele>
        <time>2016-06-22T13:51:19Z</time>
      </trkpt>
      <trkpt lat="45.68054" lon="6.45372">
        <ele>1808.7</ele>
        <time>2016-06-22T13:51:26Z</time>
      </trkpt>
      <trkpt lat="45.68045" lon="6.45373">
        <ele>1809.5</ele>
        <time>2016-06-22T13:51:32Z</time>
      </trkpt>
      <trkpt lat="45.68036" lon="6.45372">
        <ele>1810.3</ele>
        <time>2016-06-22T13:51:38Z</time>
      </trkpt>
      <trkpt lat="45.68027" lon="6.45371">
        <ele>1811.4</ele>
        <time>2016-06-22T13:51:45Z</time>
      </trkpt>
      <trkpt lat="45.68017" lon="6.45374">
        <ele>1812.8</ele>
        <time>2016-06-22T13:51:52Z</time>
      </trkpt>
      <trkpt lat="45.68008" lon="6.45375">
        <ele>1814.7</ele>
        <time>2016-06-22T13:52:02Z</time>
      </trkpt>
      <trkpt lat="45.68" lon="6.45366">
        <ele>1817</ele>
        <time>2016-06-22T13:52:26Z</time>
      </trkpt>
      <trkpt lat="45.68" lon="6.45381">
        <ele>1805.4</ele>
        <time>2016-06-22T14:13:11Z</time>
      </trkpt>
      <trkpt lat="45.68001" lon="6.45395">
        <ele>1805.3</ele>
        <time>2016-06-22T14:13:14Z</time>
      </trkpt>
      <trkpt lat="45.68003" lon="6.45414">
        <ele>1805.2</ele>
        <time>2016-06-22T14:13:17Z</time>
      </trkpt>
      <trkpt lat="45.68004" lon="6.45428">
        <ele>1804.9</ele>
        <time>2016-06-22T14:13:19Z</time>
      </trkpt>
      <trkpt lat="45.68005" lon="6.45442">
        <ele>1804.6</ele>
        <time>2016-06-22T14:13:21Z</time>
      </trkpt>
      <trkpt lat="45.68004" lon="6.45461">
        <ele>1803.9</ele>
        <time>2016-06-22T14:13:24Z</time>
      </trkpt>
      <trkpt lat="45.68005" lon="6.45475">
        <ele>1803.4</ele>
        <time>2016-06-22T14:13:26Z</time>
      </trkpt>
      <trkpt lat="45.68005" lon="6.45492">
        <ele>1802.8</ele>
        <time>2016-06-22T14:13:29Z</time>
      </trkpt>
      <trkpt lat="45.68006" lon="6.45505">
        <ele>1801.9</ele>
        <time>2016-06-22T14:13:34Z</time>
      </trkpt>
      <trkpt lat="45.68008" lon="6.4552">
        <ele>1801.3</ele>
        <time>2016-06-22T14:13:38Z</time>
      </trkpt>
      <trkpt lat="45.68012" lon="6.45535">
        <ele>1800.5</ele>
        <time>2016-06-22T14:13:42Z</time>
      </trkpt>
      <trkpt lat="45.68013" lon="6.45553">
        <ele>1799.8</ele>
        <time>2016-06-22T14:13:45Z</time>
      </trkpt>
      <trkpt lat="45.68015" lon="6.45566">
        <ele>1799.4</ele>
        <time>2016-06-22T14:13:47Z</time>
      </trkpt>
      <trkpt lat="45.68016" lon="6.45582">
        <ele>1799.1</ele>
        <time>2016-06-22T14:13:49Z</time>
      </trkpt>
      <trkpt lat="45.68018" lon="6.45597">
        <ele>1798.4</ele>
        <time>2016-06-22T14:13:52Z</time>
      </trkpt>
      <trkpt lat="45.68021" lon="6.45614">
        <ele>1797.5</ele>
        <time>2016-06-22T14:13:56Z</time>
      </trkpt>
      <trkpt lat="45.68021" lon="6.45627">
        <ele>1796.6</ele>
        <time>2016-06-22T14:13:59Z</time>
      </trkpt>
      <trkpt lat="45.68022" lon="6.45643">
        <ele>1795.7</ele>
        <time>2016-06-22T14:14:03Z</time>
      </trkpt>
      <trkpt lat="45.68022" lon="6.45658">
        <ele>1795.3</ele>
        <time>2016-06-22T14:14:06Z</time>
      </trkpt>
      <trkpt lat="45.68023" lon="6.45673">
        <ele>1794.9</ele>
        <time>2016-06-22T14:14:09Z</time>
      </trkpt>
      <trkpt lat="45.68025" lon="6.45688">
        <ele>1794.6</ele>
        <time>2016-06-22T14:14:12Z</time>
      </trkpt>
      <trkpt lat="45.68027" lon="6.45702">
        <ele>1794.2</ele>
        <time>2016-06-22T14:14:16Z</time>
      </trkpt>
      <trkpt lat="45.68028" lon="6.45715">
        <ele>1793.9</ele>
        <time>2016-06-22T14:14:20Z</time>
      </trkpt>
      <trkpt lat="45.6803" lon="6.45728">
        <ele>1793.2</ele>
        <time>2016-06-22T14:14:32Z</time>
      </trkpt>
      <trkpt lat="45.68036" lon="6.45739">
        <ele>1793.5</ele>
        <time>2016-06-22T14:14:44Z</time>
      </trkpt>
      <trkpt lat="45.68043" lon="6.45751">
        <ele>1794.9</ele>
        <time>2016-06-22T14:15:10Z</time>
      </trkpt>
      <trkpt lat="45.68051" lon="6.45758">
        <ele>1796.4</ele>
        <time>2016-06-22T14:15:22Z</time>
      </trkpt>
      <trkpt lat="45.68057" lon="6.45768">
        <ele>1798.5</ele>
        <time>2016-06-22T14:15:33Z</time>
      </trkpt>
      <trkpt lat="45.68065" lon="6.45775">
        <ele>1800.3</ele>
        <time>2016-06-22T14:15:42Z</time>
      </trkpt>
      <trkpt lat="45.68073" lon="6.45784">
        <ele>1801.6</ele>
        <time>2016-06-22T14:15:51Z</time>
      </trkpt>
      <trkpt lat="45.68081" lon="6.45791">
        <ele>1802.7</ele>
        <time>2016-06-22T14:15:58Z</time>
      </trkpt>
      <trkpt lat="45.68087" lon="6.45802">
        <ele>1803.7</ele>
        <time>2016-06-22T14:16:07Z</time>
      </trkpt>
      <trkpt lat="45.68092" lon="6.45814">
        <ele>1804.8</ele>
        <time>2016-06-22T14:16:17Z</time>
      </trkpt>
      <trkpt lat="45.68098" lon="6.45826">
        <ele>1805.5</ele>
        <time>2016-06-22T14:16:23Z</time>
      </trkpt>
      <trkpt lat="45.68102" lon="6.45838">
        <ele>1806.6</ele>
        <time>2016-06-22T14:16:33Z</time>
      </trkpt>
      <trkpt lat="45.68104" lon="6.45852">
        <ele>1807.4</ele>
        <time>2016-06-22T14:16:42Z</time>
      </trkpt>
      <trkpt lat="45.68105" lon="6.45865">
        <ele>1808</ele>
        <time>2016-06-22T14:16:50Z</time>
      </trkpt>
      <trkpt lat="45.68113" lon="6.45875">
        <ele>1808.3</ele>
        <time>2016-06-22T14:16:58Z</time>
      </trkpt>
      <trkpt lat="45.68116" lon="6.45888">
        <ele>1808.4</ele>
        <time>2016-06-22T14:17:02Z</time>
      </trkpt>
      <trkpt lat="45.68119" lon="6.459">
        <ele>1808.4</ele>
        <time>2016-06-22T14:17:07Z</time>
      </trkpt>
      <trkpt lat="45.68122" lon="6.45913">
        <ele>1808.4</ele>
        <time>2016-06-22T14:17:12Z</time>
      </trkpt>
      <trkpt lat="45.68126" lon="6.45927">
        <ele>1808.3</ele>
        <time>2016-06-22T14:17:18Z</time>
      </trkpt>
      <trkpt lat="45.68129" lon="6.4594">
        <ele>1808.8</ele>
        <time>2016-06-22T14:17:25Z</time>
      </trkpt>
      <trkpt lat="45.68132" lon="6.45953">
        <ele>1809.5</ele>
        <time>2016-06-22T14:17:38Z</time>
      </trkpt>
      <trkpt lat="45.68135" lon="6.45966">
        <ele>1809.6</ele>
        <time>2016-06-22T14:17:48Z</time>
      </trkpt>
      <trkpt lat="45.68135" lon="6.45979">
        <ele>1808.9</ele>
        <time>2016-06-22T14:17:59Z</time>
      </trkpt>
      <trkpt lat="45.68137" lon="6.45992">
        <ele>1808.1</ele>
        <time>2016-06-22T14:18:07Z</time>
      </trkpt>
      <trkpt lat="45.68135" lon="6.46005">
        <ele>1806.5</ele>
        <time>2016-06-22T14:18:22Z</time>
      </trkpt>
      <trkpt lat="45.68132" lon="6.46017">
        <ele>1805</ele>
        <time>2016-06-22T14:18:33Z</time>
      </trkpt>
      <trkpt lat="45.68134" lon="6.46031">
        <ele>1804</ele>
        <time>2016-06-22T14:19:16Z</time>
      </trkpt>
      <trkpt lat="45.68133" lon="6.46044">
        <ele>1805.5</ele>
        <time>2016-06-22T14:19:35Z</time>
      </trkpt>
      <trkpt lat="45.68131" lon="6.46058">
        <ele>1806.8</ele>
        <time>2016-06-22T14:19:49Z</time>
      </trkpt>
      <trkpt lat="45.68129" lon="6.46071">
        <ele>1808</ele>
        <time>2016-06-22T14:20:12Z</time>
      </trkpt>
      <trkpt lat="45.68129" lon="6.46084">
        <ele>1808.4</ele>
        <time>2016-06-22T14:20:24Z</time>
      </trkpt>
      <trkpt lat="45.6813" lon="6.46098">
        <ele>1808.9</ele>
        <time>2016-06-22T14:20:33Z</time>
      </trkpt>
      <trkpt lat="45.68132" lon="6.46111">
        <ele>1809.9</ele>
        <time>2016-06-22T14:20:44Z</time>
      </trkpt>
      <trkpt lat="45.68136" lon="6.46123">
        <ele>1811.5</ele>
        <time>2016-06-22T14:20:56Z</time>
      </trkpt>
      <trkpt lat="45.6814" lon="6.46136">
        <ele>1813.5</ele>
        <time>2016-06-22T14:21:09Z</time>
      </trkpt>
      <trkpt lat="45.68141" lon="6.4615">
        <ele>1815.6</ele>
        <time>2016-06-22T14:21:20Z</time>
      </trkpt>
      <trkpt lat="45.68144" lon="6.46163">
        <ele>1817.1</ele>
        <time>2016-06-22T14:21:33Z</time>
      </trkpt>
      <trkpt lat="45.68147" lon="6.46176">
        <ele>1818.2</ele>
        <time>2016-06-22T14:21:43Z</time>
      </trkpt>
      <trkpt lat="45.68148" lon="6.46189">
        <ele>1819.2</ele>
        <time>2016-06-22T14:21:52Z</time>
      </trkpt>
      <trkpt lat="45.68152" lon="6.462">
        <ele>1819.8</ele>
        <time>2016-06-22T14:22:00Z</time>
      </trkpt>
      <trkpt lat="45.68158" lon="6.46211">
        <ele>1820.8</ele>
        <time>2016-06-22T14:22:12Z</time>
      </trkpt>
      <trkpt lat="45.6816" lon="6.46225">
        <ele>1821.6</ele>
        <time>2016-06-22T14:22:21Z</time>
      </trkpt>
      <trkpt lat="45.6816" lon="6.46239">
        <ele>1823</ele>
        <time>2016-06-22T14:22:38Z</time>
      </trkpt>
      <trkpt lat="45.6816" lon="6.46252">
        <ele>1823.7</ele>
        <time>2016-06-22T14:22:47Z</time>
      </trkpt>
      <trkpt lat="45.68163" lon="6.46264">
        <ele>1830.6</ele>
        <time>2016-06-22T14:25:21Z</time>
      </trkpt>
      <trkpt lat="45.68166" lon="6.46279">
        <ele>1830.6</ele>
        <time>2016-06-22T14:25:26Z</time>
      </trkpt>
      <trkpt lat="45.68167" lon="6.46294">
        <ele>1830.7</ele>
        <time>2016-06-22T14:25:32Z</time>
      </trkpt>
      <trkpt lat="45.68164" lon="6.46307">
        <ele>1830.4</ele>
        <time>2016-06-22T14:25:37Z</time>
      </trkpt>
      <trkpt lat="45.68166" lon="6.46323">
        <ele>1830.1</ele>
        <time>2016-06-22T14:25:42Z</time>
      </trkpt>
      <trkpt lat="45.68164" lon="6.46335">
        <ele>1830</ele>
        <time>2016-06-22T14:25:45Z</time>
      </trkpt>
      <trkpt lat="45.68162" lon="6.46348">
        <ele>1829.9</ele>
        <time>2016-06-22T14:25:49Z</time>
      </trkpt>
      <trkpt lat="45.68167" lon="6.46363">
        <ele>1829.5</ele>
        <time>2016-06-22T14:25:55Z</time>
      </trkpt>
      <trkpt lat="45.68166" lon="6.46376">
        <ele>1829.3</ele>
        <time>2016-06-22T14:25:59Z</time>
      </trkpt>
      <trkpt lat="45.6817" lon="6.4639">
        <ele>1829</ele>
        <time>2016-06-22T14:26:06Z</time>
      </trkpt>
      <trkpt lat="45.68176" lon="6.464">
        <ele>1828.9</ele>
        <time>2016-06-22T14:26:12Z</time>
      </trkpt>
      <trkpt lat="45.68176" lon="6.46415">
        <ele>1828.7</ele>
        <time>2016-06-22T14:26:18Z</time>
      </trkpt>
      <trkpt lat="45.68176" lon="6.4643">
        <ele>1828.5</ele>
        <time>2016-06-22T14:26:23Z</time>
      </trkpt>
      <trkpt lat="45.68171" lon="6.46444">
        <ele>1827.8</ele>
        <time>2016-06-22T14:26:28Z</time>
      </trkpt>
      <trkpt lat="45.68166" lon="6.46456">
        <ele>1827.1</ele>
        <time>2016-06-22T14:26:32Z</time>
      </trkpt>
      <trkpt lat="45.68164" lon="6.46471">
        <ele>1826.3</ele>
        <time>2016-06-22T14:26:37Z</time>
      </trkpt>
      <trkpt lat="45.68161" lon="6.46485">
        <ele>1824.9</ele>
        <time>2016-06-22T14:26:43Z</time>
      </trkpt>
      <trkpt lat="45.68154" lon="6.46497">
        <ele>1824</ele>
        <time>2016-06-22T14:26:48Z</time>
      </trkpt>
      <trkpt lat="45.68146" lon="6.46506">
        <ele>1823.2</ele>
        <time>2016-06-22T14:26:52Z</time>
      </trkpt>
      <trkpt lat="45.68138" lon="6.46515">
        <ele>1822.6</ele>
        <time>2016-06-22T14:26:57Z</time>
      </trkpt>
      <trkpt lat="45.68129" lon="6.46526">
        <ele>1822.1</ele>
        <time>2016-06-22T14:27:01Z</time>
      </trkpt>
      <trkpt lat="45.68122" lon="6.46535">
        <ele>1821.6</ele>
        <time>2016-06-22T14:27:04Z</time>
      </trkpt>
      <trkpt lat="45.68116" lon="6.46546">
        <ele>1820.7</ele>
        <time>2016-06-22T14:27:07Z</time>
      </trkpt>
      <trkpt lat="45.6811" lon="6.46556">
        <ele>1820</ele>
        <time>2016-06-22T14:27:10Z</time>
      </trkpt>
      <trkpt lat="45.68101" lon="6.46568">
        <ele>1819</ele>
        <time>2016-06-22T14:27:14Z</time>
      </trkpt>
      <trkpt lat="45.68103" lon="6.46553">
        <ele>1816.3</ele>
        <time>2016-06-22T14:27:26Z</time>
      </trkpt>
      <trkpt lat="45.68108" lon="6.46537">
        <ele>1815.3</ele>
        <time>2016-06-22T14:27:30Z</time>
      </trkpt>
      <trkpt lat="45.68113" lon="6.46521">
        <ele>1814.4</ele>
        <time>2016-06-22T14:27:33Z</time>
      </trkpt>
      <trkpt lat="45.68117" lon="6.46508">
        <ele>1813.8</ele>
        <time>2016-06-22T14:27:35Z</time>
      </trkpt>
      <trkpt lat="45.68121" lon="6.46493">
        <ele>1813.2</ele>
        <time>2016-06-22T14:27:37Z</time>
      </trkpt>
      <trkpt lat="45.68127" lon="6.46478">
        <ele>1812.6</ele>
        <time>2016-06-22T14:27:39Z</time>
      </trkpt>
      <trkpt lat="45.68131" lon="6.46465">
        <ele>1811.7</ele>
        <time>2016-06-22T14:27:42Z</time>
      </trkpt>
      <trkpt lat="45.68122" lon="6.46471">
        <ele>1810.6</ele>
        <time>2016-06-22T14:27:46Z</time>
      </trkpt>
      <trkpt lat="45.68116" lon="6.46487">
        <ele>1809.8</ele>
        <time>2016-06-22T14:27:49Z</time>
      </trkpt>
      <trkpt lat="45.68111" lon="6.46498">
        <ele>1809</ele>
        <time>2016-06-22T14:27:51Z</time>
      </trkpt>
      <trkpt lat="45.68102" lon="6.46508">
        <ele>1807.9</ele>
        <time>2016-06-22T14:27:54Z</time>
      </trkpt>
      <trkpt lat="45.68099" lon="6.46495">
        <ele>1806.8</ele>
        <time>2016-06-22T14:27:57Z</time>
      </trkpt>
      <trkpt lat="45.681" lon="6.46482">
        <ele>1806.1</ele>
        <time>2016-06-22T14:27:59Z</time>
      </trkpt>
      <trkpt lat="45.68097" lon="6.46467">
        <ele>1805.1</ele>
        <time>2016-06-22T14:28:01Z</time>
      </trkpt>
      <trkpt lat="45.68088" lon="6.46467">
        <ele>1803.4</ele>
        <time>2016-06-22T14:28:05Z</time>
      </trkpt>
      <trkpt lat="45.68086" lon="6.46482">
        <ele>1802.2</ele>
        <time>2016-06-22T14:28:08Z</time>
      </trkpt>
      <trkpt lat="45.68082" lon="6.46499">
        <ele>1801</ele>
        <time>2016-06-22T14:28:11Z</time>
      </trkpt>
      <trkpt lat="45.6808" lon="6.46515">
        <ele>1800.3</ele>
        <time>2016-06-22T14:28:13Z</time>
      </trkpt>
      <trkpt lat="45.68079" lon="6.46532">
        <ele>1799.4</ele>
        <time>2016-06-22T14:28:15Z</time>
      </trkpt>
      <trkpt lat="45.68067" lon="6.46534">
        <ele>1798</ele>
        <time>2016-06-22T14:28:18Z</time>
      </trkpt>
      <trkpt lat="45.68062" lon="6.4652">
        <ele>1796.6</ele>
        <time>2016-06-22T14:28:21Z</time>
      </trkpt>
      <trkpt lat="45.68057" lon="6.46502">
        <ele>1795.1</ele>
        <time>2016-06-22T14:28:24Z</time>
      </trkpt>
      <trkpt lat="45.68054" lon="6.46484">
        <ele>1793.5</ele>
        <time>2016-06-22T14:28:27Z</time>
      </trkpt>
      <trkpt lat="45.68054" lon="6.4647">
        <ele>1792.1</ele>
        <time>2016-06-22T14:28:30Z</time>
      </trkpt>
      <trkpt lat="45.68055" lon="6.46456">
        <ele>1790.6</ele>
        <time>2016-06-22T14:28:33Z</time>
      </trkpt>
      <trkpt lat="45.6805" lon="6.46443">
        <ele>1781</ele>
        <time>2016-06-22T14:29:14Z</time>
      </trkpt>
      <trkpt lat="45.68043" lon="6.4643">
        <ele>1780.8</ele>
        <time>2016-06-22T14:29:17Z</time>
      </trkpt>
      <trkpt lat="45.68038" lon="6.46415">
        <ele>1780.5</ele>
        <time>2016-06-22T14:29:20Z</time>
      </trkpt>
      <trkpt lat="45.68036" lon="6.46397">
        <ele>1780.1</ele>
        <time>2016-06-22T14:29:23Z</time>
      </trkpt>
      <trkpt lat="45.68035" lon="6.46379">
        <ele>1779.8</ele>
        <time>2016-06-22T14:29:26Z</time>
      </trkpt>
      <trkpt lat="45.68036" lon="6.46365">
        <ele>1779.4</ele>
        <time>2016-06-22T14:29:29Z</time>
      </trkpt>
      <trkpt lat="45.68039" lon="6.4635">
        <ele>1779.1</ele>
        <time>2016-06-22T14:29:33Z</time>
      </trkpt>
      <trkpt lat="45.68042" lon="6.46334">
        <ele>1778.8</ele>
        <time>2016-06-22T14:29:37Z</time>
      </trkpt>
      <trkpt lat="45.68042" lon="6.46321">
        <ele>1778.6</ele>
        <time>2016-06-22T14:29:40Z</time>
      </trkpt>
      <trkpt lat="45.68039" lon="6.46305">
        <ele>1778.5</ele>
        <time>2016-06-22T14:29:43Z</time>
      </trkpt>
      <trkpt lat="45.68035" lon="6.46293">
        <ele>1778.1</ele>
        <time>2016-06-22T14:29:45Z</time>
      </trkpt>
      <trkpt lat="45.68032" lon="6.46278">
        <ele>1778</ele>
        <time>2016-06-22T14:29:47Z</time>
      </trkpt>
      <trkpt lat="45.6803" lon="6.46262">
        <ele>1777.8</ele>
        <time>2016-06-22T14:29:49Z</time>
      </trkpt>
      <trkpt lat="45.6803" lon="6.46244">
        <ele>1777.5</ele>
        <time>2016-06-22T14:29:51Z</time>
      </trkpt>
      <trkpt lat="45.68032" lon="6.46227">
        <ele>1777.2</ele>
        <time>2016-06-22T14:29:53Z</time>
      </trkpt>
      <trkpt lat="45.68036" lon="6.46208">
        <ele>1776.9</ele>
        <time>2016-06-22T14:29:55Z</time>
      </trkpt>
      <trkpt lat="45.68033" lon="6.46188">
        <ele>1776.2</ele>
        <time>2016-06-22T14:29:57Z</time>
      </trkpt>
      <trkpt lat="45.68026" lon="6.46171">
        <ele>1775.5</ele>
        <time>2016-06-22T14:29:59Z</time>
      </trkpt>
      <trkpt lat="45.68027" lon="6.46154">
        <ele>1774.9</ele>
        <time>2016-06-22T14:30:01Z</time>
      </trkpt>
      <trkpt lat="45.68034" lon="6.46135">
        <ele>1774.1</ele>
        <time>2016-06-22T14:30:03Z</time>
      </trkpt>
      <trkpt lat="45.6804" lon="6.46111">
        <ele>1773.5</ele>
        <time>2016-06-22T14:30:05Z</time>
      </trkpt>
      <trkpt lat="45.68043" lon="6.46097">
        <ele>1772.9</ele>
        <time>2016-06-22T14:30:06Z</time>
      </trkpt>
      <trkpt lat="45.68045" lon="6.46083">
        <ele>1772.4</ele>
        <time>2016-06-22T14:30:07Z</time>
      </trkpt>
      <trkpt lat="45.68046" lon="6.46068">
        <ele>1771.8</ele>
        <time>2016-06-22T14:30:08Z</time>
      </trkpt>
      <trkpt lat="45.68047" lon="6.46055">
        <ele>1771.4</ele>
        <time>2016-06-22T14:30:09Z</time>
      </trkpt>
      <trkpt lat="45.68047" lon="6.46031">
        <ele>1770.3</ele>
        <time>2016-06-22T14:30:11Z</time>
      </trkpt>
      <trkpt lat="45.68044" lon="6.46007">
        <ele>1769.3</ele>
        <time>2016-06-22T14:30:13Z</time>
      </trkpt>
      <trkpt lat="45.68047" lon="6.45986">
        <ele>1768</ele>
        <time>2016-06-22T14:30:15Z</time>
      </trkpt>
      <trkpt lat="45.68055" lon="6.45972">
        <ele>1766.8</ele>
        <time>2016-06-22T14:30:17Z</time>
      </trkpt>
      <trkpt lat="45.68055" lon="6.45958">
        <ele>1764.8</ele>
        <time>2016-06-22T14:30:20Z</time>
      </trkpt>
      <trkpt lat="45.68046" lon="6.45964">
        <ele>1762.9</ele>
        <time>2016-06-22T14:30:23Z</time>
      </trkpt>
      <trkpt lat="45.68038" lon="6.45977">
        <ele>1761</ele>
        <time>2016-06-22T14:30:26Z</time>
      </trkpt>
      <trkpt lat="45.68032" lon="6.45988">
        <ele>1759.7</ele>
        <time>2016-06-22T14:30:28Z</time>
      </trkpt>
      <trkpt lat="45.68027" lon="6.45999">
        <ele>1758.5</ele>
        <time>2016-06-22T14:30:30Z</time>
      </trkpt>
      <trkpt lat="45.68023" lon="6.45984">
        <ele>1755.6</ele>
        <time>2016-06-22T14:30:35Z</time>
      </trkpt>
      <trkpt lat="45.68026" lon="6.45969">
        <ele>1754.4</ele>
        <time>2016-06-22T14:30:37Z</time>
      </trkpt>
      <trkpt lat="45.68029" lon="6.45953">
        <ele>1753.2</ele>
        <time>2016-06-22T14:30:39Z</time>
      </trkpt>
      <trkpt lat="45.68019" lon="6.45958">
        <ele>1749.8</ele>
        <time>2016-06-22T14:30:45Z</time>
      </trkpt>
      <trkpt lat="45.68015" lon="6.45972">
        <ele>1747.7</ele>
        <time>2016-06-22T14:30:49Z</time>
      </trkpt>
      <trkpt lat="45.68009" lon="6.45984">
        <ele>1745.8</ele>
        <time>2016-06-22T14:30:53Z</time>
      </trkpt>
      <trkpt lat="45.68004" lon="6.45998">
        <ele>1744.3</ele>
        <time>2016-06-22T14:30:57Z</time>
      </trkpt>
      <trkpt lat="45.68001" lon="6.46013">
        <ele>1742.4</ele>
        <time>2016-06-22T14:31:02Z</time>
      </trkpt>
      <trkpt lat="45.67996" lon="6.45998">
        <ele>1738.1</ele>
        <time>2016-06-22T14:31:17Z</time>
      </trkpt>
      <trkpt lat="45.67998" lon="6.45981">
        <ele>1737.2</ele>
        <time>2016-06-22T14:31:20Z</time>
      </trkpt>
      <trkpt lat="45.67999" lon="6.45965">
        <ele>1736.5</ele>
        <time>2016-06-22T14:31:22Z</time>
      </trkpt>
      <trkpt lat="45.68" lon="6.45947">
        <ele>1735.9</ele>
        <time>2016-06-22T14:31:24Z</time>
      </trkpt>
      <trkpt lat="45.68" lon="6.45928">
        <ele>1735.3</ele>
        <time>2016-06-22T14:31:26Z</time>
      </trkpt>
      <trkpt lat="45.67999" lon="6.45906">
        <ele>1734.1</ele>
        <time>2016-06-22T14:31:28Z</time>
      </trkpt>
      <trkpt lat="45.67998" lon="6.45894">
        <ele>1733.7</ele>
        <time>2016-06-22T14:31:29Z</time>
      </trkpt>
      <trkpt lat="45.67996" lon="6.45881">
        <ele>1733.3</ele>
        <time>2016-06-22T14:31:30Z</time>
      </trkpt>
      <trkpt lat="45.67994" lon="6.45858">
        <ele>1732.5</ele>
        <time>2016-06-22T14:31:32Z</time>
      </trkpt>
      <trkpt lat="45.67987" lon="6.45868">
        <ele>1729.9</ele>
        <time>2016-06-22T14:31:38Z</time>
      </trkpt>
      <trkpt lat="45.67987" lon="6.45883">
        <ele>1728.9</ele>
        <time>2016-06-22T14:31:40Z</time>
      </trkpt>
      <trkpt lat="45.67983" lon="6.45898">
        <ele>1727.7</ele>
        <time>2016-06-22T14:31:42Z</time>
      </trkpt>
      <trkpt lat="45.67976" lon="6.45911">
        <ele>1726.6</ele>
        <time>2016-06-22T14:31:44Z</time>
      </trkpt>
      <trkpt lat="45.67965" lon="6.4592">
        <ele>1725.6</ele>
        <time>2016-06-22T14:31:46Z</time>
      </trkpt>
      <trkpt lat="45.67957" lon="6.45928">
        <ele>1723.8</ele>
        <time>2016-06-22T14:31:50Z</time>
      </trkpt>
      <trkpt lat="45.67953" lon="6.45943">
        <ele>1722</ele>
        <time>2016-06-22T14:31:54Z</time>
      </trkpt>
      <trkpt lat="45.67949" lon="6.45958">
        <ele>1720.6</ele>
        <time>2016-06-22T14:31:57Z</time>
      </trkpt>
      <trkpt lat="45.6794" lon="6.45971">
        <ele>1719.2</ele>
        <time>2016-06-22T14:32:00Z</time>
      </trkpt>
      <trkpt lat="45.67933" lon="6.45982">
        <ele>1718.2</ele>
        <time>2016-06-22T14:32:02Z</time>
      </trkpt>
      <trkpt lat="45.67926" lon="6.45995">
        <ele>1716.7</ele>
        <time>2016-06-22T14:32:05Z</time>
      </trkpt>
      <trkpt lat="45.67917" lon="6.45999">
        <ele>1714.6</ele>
        <time>2016-06-22T14:32:09Z</time>
      </trkpt>
      <trkpt lat="45.67911" lon="6.45988">
        <ele>1710.6</ele>
        <time>2016-06-22T14:32:17Z</time>
      </trkpt>
      <trkpt lat="45.67904" lon="6.45975">
        <ele>1708.4</ele>
        <time>2016-06-22T14:32:22Z</time>
      </trkpt>
      <trkpt lat="45.67897" lon="6.45958">
        <ele>1706.8</ele>
        <time>2016-06-22T14:32:25Z</time>
      </trkpt>
      <trkpt lat="45.6789" lon="6.45949">
        <ele>1704.9</ele>
        <time>2016-06-22T14:32:28Z</time>
      </trkpt>
      <trkpt lat="45.67889" lon="6.45934">
        <ele>1702.7</ele>
        <time>2016-06-22T14:32:32Z</time>
      </trkpt>
      <trkpt lat="45.67886" lon="6.45921">
        <ele>1700.9</ele>
        <time>2016-06-22T14:32:35Z</time>
      </trkpt>
      <trkpt lat="45.67879" lon="6.45906">
        <ele>1699.2</ele>
        <time>2016-06-22T14:32:38Z</time>
      </trkpt>
      <trkpt lat="45.67875" lon="6.45894">
        <ele>1697.8</ele>
        <time>2016-06-22T14:32:40Z</time>
      </trkpt>
      <trkpt lat="45.6787" lon="6.45883">
        <ele>1696.4</ele>
        <time>2016-06-22T14:32:42Z</time>
      </trkpt>
      <trkpt lat="45.67866" lon="6.45865">
        <ele>1694.1</ele>
        <time>2016-06-22T14:32:45Z</time>
      </trkpt>
      <trkpt lat="45.67862" lon="6.45845">
        <ele>1691.9</ele>
        <time>2016-06-22T14:32:48Z</time>
      </trkpt>
      <trkpt lat="45.67862" lon="6.45829">
        <ele>1689.7</ele>
        <time>2016-06-22T14:32:50Z</time>
      </trkpt>
      <trkpt lat="45.67854" lon="6.45809">
        <ele>1687.9</ele>
        <time>2016-06-22T14:32:52Z</time>
      </trkpt>
      <trkpt lat="45.67841" lon="6.45793">
        <ele>1685.9</ele>
        <time>2016-06-22T14:32:54Z</time>
      </trkpt>
      <trkpt lat="45.67827" lon="6.45785">
        <ele>1683.6</ele>
        <time>2016-06-22T14:32:56Z</time>
      </trkpt>
      <trkpt lat="45.67815" lon="6.45779">
        <ele>1681.4</ele>
        <time>2016-06-22T14:32:58Z</time>
      </trkpt>
      <trkpt lat="45.67804" lon="6.45772">
        <ele>1679.4</ele>
        <time>2016-06-22T14:33:00Z</time>
      </trkpt>
      <trkpt lat="45.67795" lon="6.45762">
        <ele>1677</ele>
        <time>2016-06-22T14:33:02Z</time>
      </trkpt>
      <trkpt lat="45.67782" lon="6.45746">
        <ele>1675</ele>
        <time>2016-06-22T14:33:04Z</time>
      </trkpt>
      <trkpt lat="45.67771" lon="6.45732">
        <ele>1672.8</ele>
        <time>2016-06-22T14:33:06Z</time>
      </trkpt>
      <trkpt lat="45.67762" lon="6.45721">
        <ele>1671</ele>
        <time>2016-06-22T14:33:08Z</time>
      </trkpt>
      <trkpt lat="45.67754" lon="6.45713">
        <ele>1669.3</ele>
        <time>2016-06-22T14:33:10Z</time>
      </trkpt>
      <trkpt lat="45.67744" lon="6.45708">
        <ele>1667.7</ele>
        <time>2016-06-22T14:33:12Z</time>
      </trkpt>
      <trkpt lat="45.67732" lon="6.45701">
        <ele>1666.2</ele>
        <time>2016-06-22T14:33:14Z</time>
      </trkpt>
      <trkpt lat="45.67722" lon="6.45689">
        <ele>1664.7</ele>
        <time>2016-06-22T14:33:16Z</time>
      </trkpt>
      <trkpt lat="45.67712" lon="6.45675">
        <ele>1663.4</ele>
        <time>2016-06-22T14:33:18Z</time>
      </trkpt>
      <trkpt lat="45.67705" lon="6.45663">
        <ele>1661.9</ele>
        <time>2016-06-22T14:33:20Z</time>
      </trkpt>
      <trkpt lat="45.67697" lon="6.45652">
        <ele>1660.3</ele>
        <time>2016-06-22T14:33:22Z</time>
      </trkpt>
      <trkpt lat="45.67689" lon="6.4564">
        <ele>1658.3</ele>
        <time>2016-06-22T14:33:25Z</time>
      </trkpt>
      <trkpt lat="45.67683" lon="6.45627">
        <ele>1655</ele>
        <time>2016-06-22T14:33:30Z</time>
      </trkpt>
      <trkpt lat="45.67674" lon="6.45623">
        <ele>1643.5</ele>
        <time>2016-06-22T14:33:57Z</time>
      </trkpt>
      <trkpt lat="45.67665" lon="6.45621">
        <ele>1642.5</ele>
        <time>2016-06-22T14:34:00Z</time>
      </trkpt>
      <trkpt lat="45.67656" lon="6.45629">
        <ele>1639.7</ele>
        <time>2016-06-22T14:34:07Z</time>
      </trkpt>
      <trkpt lat="45.67646" lon="6.4563">
        <ele>1637.4</ele>
        <time>2016-06-22T14:34:11Z</time>
      </trkpt>
      <trkpt lat="45.67635" lon="6.45631">
        <ele>1635.2</ele>
        <time>2016-06-22T14:34:15Z</time>
      </trkpt>
      <trkpt lat="45.67635" lon="6.45646">
        <ele>1632.1</ele>
        <time>2016-06-22T14:34:20Z</time>
      </trkpt>
      <trkpt lat="45.67624" lon="6.45649">
        <ele>1628.8</ele>
        <time>2016-06-22T14:34:25Z</time>
      </trkpt>
      <trkpt lat="45.67614" lon="6.45647">
        <ele>1626.1</ele>
        <time>2016-06-22T14:34:29Z</time>
      </trkpt>
      <trkpt lat="45.67604" lon="6.45648">
        <ele>1623</ele>
        <time>2016-06-22T14:34:33Z</time>
      </trkpt>
      <trkpt lat="45.67595" lon="6.45648">
        <ele>1620.7</ele>
        <time>2016-06-22T14:34:36Z</time>
      </trkpt>
      <trkpt lat="45.67586" lon="6.45656">
        <ele>1616.6</ele>
        <time>2016-06-22T14:34:41Z</time>
      </trkpt>
      <trkpt lat="45.67576" lon="6.45649">
        <ele>1614.1</ele>
        <time>2016-06-22T14:34:44Z</time>
      </trkpt>
      <trkpt lat="45.67567" lon="6.45646">
        <ele>1609.4</ele>
        <time>2016-06-22T14:34:50Z</time>
      </trkpt>
      <trkpt lat="45.67558" lon="6.45639">
        <ele>1605.3</ele>
        <time>2016-06-22T14:34:55Z</time>
      </trkpt>
      <trkpt lat="45.67548" lon="6.45636">
        <ele>1601.8</ele>
        <time>2016-06-22T14:35:00Z</time>
      </trkpt>
      <trkpt lat="45.67543" lon="6.45648">
        <ele>1596.2</ele>
        <time>2016-06-22T14:35:07Z</time>
      </trkpt>
      <trkpt lat="45.67542" lon="6.45662">
        <ele>1592.2</ele>
        <time>2016-06-22T14:35:12Z</time>
      </trkpt>
      <trkpt lat="45.6754" lon="6.45676">
        <ele>1588.2</ele>
        <time>2016-06-22T14:35:17Z</time>
      </trkpt>
      <trkpt lat="45.67538" lon="6.45691">
        <ele>1585</ele>
        <time>2016-06-22T14:35:21Z</time>
      </trkpt>
      <trkpt lat="45.67535" lon="6.45703">
        <ele>1574.7</ele>
        <time>2016-06-22T14:35:37Z</time>
      </trkpt>
      <trkpt lat="45.67524" lon="6.45696">
        <ele>1564.7</ele>
        <time>2016-06-22T14:36:27Z</time>
      </trkpt>
      <trkpt lat="45.67516" lon="6.45692">
        <ele>1563.9</ele>
        <time>2016-06-22T14:36:31Z</time>
      </trkpt>
      <trkpt lat="45.67514" lon="6.45706">
        <ele>1562.6</ele>
        <time>2016-06-22T14:36:35Z</time>
      </trkpt>
      <trkpt lat="45.67513" lon="6.45721">
        <ele>1560.9</ele>
        <time>2016-06-22T14:36:39Z</time>
      </trkpt>
      <trkpt lat="45.67513" lon="6.45735">
        <ele>1559.2</ele>
        <time>2016-06-22T14:36:42Z</time>
      </trkpt>
      <trkpt lat="45.67506" lon="6.45747">
        <ele>1555.3</ele>
        <time>2016-06-22T14:36:48Z</time>
      </trkpt>
      <trkpt lat="45.675" lon="6.45757">
        <ele>1551.4</ele>
        <time>2016-06-22T14:36:54Z</time>
      </trkpt>
      <trkpt lat="45.67491" lon="6.45761">
        <ele>1546.6</ele>
        <time>2016-06-22T14:37:01Z</time>
      </trkpt>
      <trkpt lat="45.67485" lon="6.45771">
        <ele>1543.1</ele>
        <time>2016-06-22T14:37:06Z</time>
      </trkpt>
      <trkpt lat="45.67488" lon="6.45783">
        <ele>1540.9</ele>
        <time>2016-06-22T14:37:09Z</time>
      </trkpt>
      <trkpt lat="45.67488" lon="6.45797">
        <ele>1537.2</ele>
        <time>2016-06-22T14:37:14Z</time>
      </trkpt>
      <trkpt lat="45.67478" lon="6.458">
        <ele>1531.8</ele>
        <time>2016-06-22T14:37:21Z</time>
      </trkpt>
      <trkpt lat="45.6748" lon="6.45817">
        <ele>1526.2</ele>
        <time>2016-06-22T14:37:28Z</time>
      </trkpt>
      <trkpt lat="45.6748" lon="6.4583">
        <ele>1521.5</ele>
        <time>2016-06-22T14:37:34Z</time>
      </trkpt>
      <trkpt lat="45.67473" lon="6.45839">
        <ele>1512.7</ele>
        <time>2016-06-22T14:37:47Z</time>
      </trkpt>
      <trkpt lat="45.67468" lon="6.45851">
        <ele>1509.1</ele>
        <time>2016-06-22T14:37:53Z</time>
      </trkpt>
      <trkpt lat="45.67463" lon="6.45864">
        <ele>1504.7</ele>
        <time>2016-06-22T14:38:00Z</time>
      </trkpt>
      <trkpt lat="45.67454" lon="6.45867">
        <ele>1500.3</ele>
        <time>2016-06-22T14:38:07Z</time>
      </trkpt>
      <trkpt lat="45.67449" lon="6.45878">
        <ele>1496.1</ele>
        <time>2016-06-22T14:38:13Z</time>
      </trkpt>
      <trkpt lat="45.6745" lon="6.45892">
        <ele>1492.8</ele>
        <time>2016-06-22T14:38:18Z</time>
      </trkpt>
      <trkpt lat="45.6744" lon="6.4589">
        <ele>1489</ele>
        <time>2016-06-22T14:38:24Z</time>
      </trkpt>
      <trkpt lat="45.67439" lon="6.45904">
        <ele>1485.6</ele>
        <time>2016-06-22T14:38:29Z</time>
      </trkpt>
      <trkpt lat="45.67442" lon="6.45916">
        <ele>1481.7</ele>
        <time>2016-06-22T14:38:35Z</time>
      </trkpt>
      <trkpt lat="45.6745" lon="6.45925">
        <ele>1477.8</ele>
        <time>2016-06-22T14:38:41Z</time>
      </trkpt>
      <trkpt lat="45.67443" lon="6.45938">
        <ele>1475.1</ele>
        <time>2016-06-22T14:38:45Z</time>
      </trkpt>
      <trkpt lat="45.67435" lon="6.45946">
        <ele>1458.9</ele>
        <time>2016-06-22T14:40:37Z</time>
      </trkpt>
      <trkpt lat="45.67426" lon="6.45955">
        <ele>1457.8</ele>
        <time>2016-06-22T14:40:42Z</time>
      </trkpt>
      <trkpt lat="45.67416" lon="6.45962">
        <ele>1456.5</ele>
        <time>2016-06-22T14:40:46Z</time>
      </trkpt>
      <trkpt lat="45.67413" lon="6.45949">
        <ele>1454.6</ele>
        <time>2016-06-22T14:40:52Z</time>
      </trkpt>
      <trkpt lat="45.67406" lon="6.45938">
        <ele>1452.9</ele>
        <time>2016-06-22T14:40:58Z</time>
      </trkpt>
      <trkpt lat="45.67402" lon="6.45926">
        <ele>1451.6</ele>
        <time>2016-06-22T14:41:05Z</time>
      </trkpt>
      <trkpt lat="45.67396" lon="6.45915">
        <ele>1451</ele>
        <time>2016-06-22T14:41:10Z</time>
      </trkpt>
      <trkpt lat="45.67391" lon="6.45902">
        <ele>1450.4</ele>
        <time>2016-06-22T14:41:16Z</time>
      </trkpt>
      <trkpt lat="45.67387" lon="6.4589">
        <ele>1450</ele>
        <time>2016-06-22T14:41:24Z</time>
      </trkpt>
      <trkpt lat="45.6738" lon="6.45879">
        <ele>1449.7</ele>
        <time>2016-06-22T14:41:30Z</time>
      </trkpt>
      <trkpt lat="45.67375" lon="6.45868">
        <ele>1449.5</ele>
        <time>2016-06-22T14:41:35Z</time>
      </trkpt>
      <trkpt lat="45.67371" lon="6.45857">
        <ele>1449.4</ele>
        <time>2016-06-22T14:41:39Z</time>
      </trkpt>
      <trkpt lat="45.67366" lon="6.45845">
        <ele>1449.1</ele>
        <time>2016-06-22T14:41:45Z</time>
      </trkpt>
      <trkpt lat="45.67365" lon="6.45859">
        <ele>1446.4</ele>
        <time>2016-06-22T14:45:11Z</time>
      </trkpt>
      <trkpt lat="45.6737" lon="6.45874">
        <ele>1446.2</ele>
        <time>2016-06-22T14:45:15Z</time>
      </trkpt>
      <trkpt lat="45.67372" lon="6.45887">
        <ele>1446.2</ele>
        <time>2016-06-22T14:45:17Z</time>
      </trkpt>
      <trkpt lat="45.67374" lon="6.45901">
        <ele>1445.9</ele>
        <time>2016-06-22T14:45:19Z</time>
      </trkpt>
      <trkpt lat="45.67376" lon="6.45914">
        <ele>1445.3</ele>
        <time>2016-06-22T14:45:21Z</time>
      </trkpt>
      <trkpt lat="45.67377" lon="6.45929">
        <ele>1444.8</ele>
        <time>2016-06-22T14:45:23Z</time>
      </trkpt>
      <trkpt lat="45.6738" lon="6.45942">
        <ele>1444.3</ele>
        <time>2016-06-22T14:45:25Z</time>
      </trkpt>
      <trkpt lat="45.67384" lon="6.45958">
        <ele>1443.4</ele>
        <time>2016-06-22T14:45:28Z</time>
      </trkpt>
      <trkpt lat="45.67376" lon="6.45966">
        <ele>1442</ele>
        <time>2016-06-22T14:45:32Z</time>
      </trkpt>
      <trkpt lat="45.67367" lon="6.45959">
        <ele>1441.1</ele>
        <time>2016-06-22T14:45:34Z</time>
      </trkpt>
      <trkpt lat="45.67359" lon="6.45953">
        <ele>1439.8</ele>
        <time>2016-06-22T14:45:36Z</time>
      </trkpt>
      <trkpt lat="45.67352" lon="6.4594">
        <ele>1438.2</ele>
        <time>2016-06-22T14:45:39Z</time>
      </trkpt>
      <trkpt lat="45.67346" lon="6.45921">
        <ele>1436.3</ele>
        <time>2016-06-22T14:45:42Z</time>
      </trkpt>
      <trkpt lat="45.67341" lon="6.45907">
        <ele>1434.7</ele>
        <time>2016-06-22T14:45:44Z</time>
      </trkpt>
      <trkpt lat="45.67335" lon="6.45895">
        <ele>1433.6</ele>
        <time>2016-06-22T14:45:46Z</time>
      </trkpt>
      <trkpt lat="45.67329" lon="6.45884">
        <ele>1432.3</ele>
        <time>2016-06-22T14:45:48Z</time>
      </trkpt>
      <trkpt lat="45.67319" lon="6.4587">
        <ele>1430.9</ele>
        <time>2016-06-22T14:45:50Z</time>
      </trkpt>
      <trkpt lat="45.67311" lon="6.45859">
        <ele>1429.5</ele>
        <time>2016-06-22T14:45:52Z</time>
      </trkpt>
      <trkpt lat="45.67304" lon="6.4585">
        <ele>1427.9</ele>
        <time>2016-06-22T14:45:54Z</time>
      </trkpt>
      <trkpt lat="45.67294" lon="6.45838">
        <ele>1426.5</ele>
        <time>2016-06-22T14:45:56Z</time>
      </trkpt>
      <trkpt lat="45.67284" lon="6.45828">
        <ele>1425</ele>
        <time>2016-06-22T14:45:58Z</time>
      </trkpt>
      <trkpt lat="45.67277" lon="6.4582">
        <ele>1423.6</ele>
        <time>2016-06-22T14:46:00Z</time>
      </trkpt>
      <trkpt lat="45.6727" lon="6.45812">
        <ele>1421.2</ele>
        <time>2016-06-22T14:46:03Z</time>
      </trkpt>
      <trkpt lat="45.67259" lon="6.458">
        <ele>1413.8</ele>
        <time>2016-06-22T14:46:14Z</time>
      </trkpt>
      <trkpt lat="45.67251" lon="6.45791">
        <ele>1412.4</ele>
        <time>2016-06-22T14:46:16Z</time>
      </trkpt>
      <trkpt lat="45.67241" lon="6.45785">
        <ele>1411.1</ele>
        <time>2016-06-22T14:46:18Z</time>
      </trkpt>
      <trkpt lat="45.67232" lon="6.45778">
        <ele>1409.7</ele>
        <time>2016-06-22T14:46:20Z</time>
      </trkpt>
      <trkpt lat="45.67225" lon="6.45769">
        <ele>1408.2</ele>
        <time>2016-06-22T14:46:22Z</time>
      </trkpt>
      <trkpt lat="45.67216" lon="6.4576">
        <ele>1406.6</ele>
        <time>2016-06-22T14:46:24Z</time>
      </trkpt>
      <trkpt lat="45.67208" lon="6.45751">
        <ele>1405.1</ele>
        <time>2016-06-22T14:46:26Z</time>
      </trkpt>
      <trkpt lat="45.672" lon="6.45739">
        <ele>1402.6</ele>
        <time>2016-06-22T14:46:29Z</time>
      </trkpt>
      <trkpt lat="45.67194" lon="6.45725">
        <ele>1399.2</ele>
        <time>2016-06-22T14:46:33Z</time>
      </trkpt>
      <trkpt lat="45.6719" lon="6.45711">
        <ele>1396.1</ele>
        <time>2016-06-22T14:46:36Z</time>
      </trkpt>
      <trkpt lat="45.67189" lon="6.45694">
        <ele>1393.3</ele>
        <time>2016-06-22T14:46:39Z</time>
      </trkpt>
      <trkpt lat="45.67187" lon="6.4568">
        <ele>1390.5</ele>
        <time>2016-06-22T14:46:42Z</time>
      </trkpt>
      <trkpt lat="45.67187" lon="6.4566">
        <ele>1387.6</ele>
        <time>2016-06-22T14:46:45Z</time>
      </trkpt>
      <trkpt lat="45.6719" lon="6.45647">
        <ele>1385.6</ele>
        <time>2016-06-22T14:46:47Z</time>
      </trkpt>
      <trkpt lat="45.67195" lon="6.45633">
        <ele>1383.7</ele>
        <time>2016-06-22T14:46:49Z</time>
      </trkpt>
      <trkpt lat="45.67199" lon="6.45617">
        <ele>1381.8</ele>
        <time>2016-06-22T14:46:51Z</time>
      </trkpt>
      <trkpt lat="45.672" lon="6.45601">
        <ele>1379.7</ele>
        <time>2016-06-22T14:46:53Z</time>
      </trkpt>
      <trkpt lat="45.67199" lon="6.45586">
        <ele>1377.8</ele>
        <time>2016-06-22T14:46:55Z</time>
      </trkpt>
      <trkpt lat="45.67197" lon="6.45573">
        <ele>1375.9</ele>
        <time>2016-06-22T14:46:57Z</time>
      </trkpt>
      <trkpt lat="45.67197" lon="6.45557">
        <ele>1373.4</ele>
        <time>2016-06-22T14:47:00Z</time>
      </trkpt>
      <trkpt lat="45.67195" lon="6.45544">
        <ele>1371.9</ele>
        <time>2016-06-22T14:47:02Z</time>
      </trkpt>
      <trkpt lat="45.67191" lon="6.4553">
        <ele>1370.4</ele>
        <time>2016-06-22T14:47:04Z</time>
      </trkpt>
      <trkpt lat="45.67192" lon="6.45513">
        <ele>1367.7</ele>
        <time>2016-06-22T14:47:08Z</time>
      </trkpt>
      <trkpt lat="45.67198" lon="6.455">
        <ele>1365.8</ele>
        <time>2016-06-22T14:47:11Z</time>
      </trkpt>
      <trkpt lat="45.67207" lon="6.4549">
        <ele>1362.9</ele>
        <time>2016-06-22T14:47:15Z</time>
      </trkpt>
      <trkpt lat="45.67211" lon="6.45478">
        <ele>1361.2</ele>
        <time>2016-06-22T14:47:18Z</time>
      </trkpt>
      <trkpt lat="45.67208" lon="6.45464">
        <ele>1352.1</ele>
        <time>2016-06-22T14:47:56Z</time>
      </trkpt>
      <trkpt lat="45.67201" lon="6.45449">
        <ele>1351.8</ele>
        <time>2016-06-22T14:47:58Z</time>
      </trkpt>
      <trkpt lat="45.67192" lon="6.45441">
        <ele>1351.5</ele>
        <time>2016-06-22T14:48:00Z</time>
      </trkpt>
      <trkpt lat="45.67185" lon="6.4543">
        <ele>1350.1</ele>
        <time>2016-06-22T14:48:05Z</time>
      </trkpt>
      <trkpt lat="45.67179" lon="6.45419">
        <ele>1348.5</ele>
        <time>2016-06-22T14:48:11Z</time>
      </trkpt>
      <trkpt lat="45.67171" lon="6.4541">
        <ele>1346.7</ele>
        <time>2016-06-22T14:48:18Z</time>
      </trkpt>
      <trkpt lat="45.67165" lon="6.454">
        <ele>1346.1</ele>
        <time>2016-06-22T14:48:21Z</time>
      </trkpt>
      <trkpt lat="45.67156" lon="6.4539">
        <ele>1345.2</ele>
        <time>2016-06-22T14:48:24Z</time>
      </trkpt>
      <trkpt lat="45.67149" lon="6.45376">
        <ele>1344.4</ele>
        <time>2016-06-22T14:48:26Z</time>
      </trkpt>
      <trkpt lat="45.67143" lon="6.45362">
        <ele>1343.5</ele>
        <time>2016-06-22T14:48:28Z</time>
      </trkpt>
      <trkpt lat="45.67134" lon="6.45344">
        <ele>1342.9</ele>
        <time>2016-06-22T14:48:30Z</time>
      </trkpt>
      <trkpt lat="45.67125" lon="6.45325">
        <ele>1342.2</ele>
        <time>2016-06-22T14:48:32Z</time>
      </trkpt>
      <trkpt lat="45.67121" lon="6.45308">
        <ele>1341.4</ele>
        <time>2016-06-22T14:48:34Z</time>
      </trkpt>
      <trkpt lat="45.67118" lon="6.45294">
        <ele>1339.7</ele>
        <time>2016-06-22T14:48:38Z</time>
      </trkpt>
      <trkpt lat="45.67111" lon="6.45284">
        <ele>1337.8</ele>
        <time>2016-06-22T14:48:43Z</time>
      </trkpt>
      <trkpt lat="45.67103" lon="6.45275">
        <ele>1336.6</ele>
        <time>2016-06-22T14:48:46Z</time>
      </trkpt>
      <trkpt lat="45.67096" lon="6.45265">
        <ele>1335.6</ele>
        <time>2016-06-22T14:48:49Z</time>
      </trkpt>
      <trkpt lat="45.6709" lon="6.45255">
        <ele>1334.5</ele>
        <time>2016-06-22T14:48:52Z</time>
      </trkpt>
      <trkpt lat="45.67085" lon="6.4524">
        <ele>1333.7</ele>
        <time>2016-06-22T14:48:54Z</time>
      </trkpt>
      <trkpt lat="45.67082" lon="6.45225">
        <ele>1332.9</ele>
        <time>2016-06-22T14:48:56Z</time>
      </trkpt>
      <trkpt lat="45.67076" lon="6.45214">
        <ele>1332</ele>
        <time>2016-06-22T14:48:58Z</time>
      </trkpt>
      <trkpt lat="45.67072" lon="6.45203">
        <ele>1331</ele>
        <time>2016-06-22T14:49:00Z</time>
      </trkpt>
      <trkpt lat="45.67066" lon="6.45191">
        <ele>1329.1</ele>
        <time>2016-06-22T14:49:03Z</time>
      </trkpt>
      <trkpt lat="45.67059" lon="6.45178">
        <ele>1327.3</ele>
        <time>2016-06-22T14:49:06Z</time>
      </trkpt>
      <trkpt lat="45.67049" lon="6.45168">
        <ele>1325.5</ele>
        <time>2016-06-22T14:49:09Z</time>
      </trkpt>
      <trkpt lat="45.67043" lon="6.45159">
        <ele>1324.1</ele>
        <time>2016-06-22T14:49:11Z</time>
      </trkpt>
      <trkpt lat="45.67035" lon="6.45144">
        <ele>1322</ele>
        <time>2016-06-22T14:49:14Z</time>
      </trkpt>
      <trkpt lat="45.67026" lon="6.45129">
        <ele>1319.6</ele>
        <time>2016-06-22T14:49:17Z</time>
      </trkpt>
      <trkpt lat="45.67021" lon="6.45116">
        <ele>1317.9</ele>
        <time>2016-06-22T14:49:19Z</time>
      </trkpt>
      <trkpt lat="45.67014" lon="6.45105">
        <ele>1315.4</ele>
        <time>2016-06-22T14:49:22Z</time>
      </trkpt>
      <trkpt lat="45.67008" lon="6.45094">
        <ele>1312</ele>
        <time>2016-06-22T14:49:26Z</time>
      </trkpt>
      <trkpt lat="45.67004" lon="6.45107">
        <ele>1302</ele>
        <time>2016-06-22T14:49:40Z</time>
      </trkpt>
      <trkpt lat="45.67" lon="6.45118">
        <ele>1300.1</ele>
        <time>2016-06-22T14:49:44Z</time>
      </trkpt>
      <trkpt lat="45.66997" lon="6.45101">
        <ele>1298.4</ele>
        <time>2016-06-22T14:49:48Z</time>
      </trkpt>
      <trkpt lat="45.66994" lon="6.45088">
        <ele>1297.4</ele>
        <time>2016-06-22T14:49:50Z</time>
      </trkpt>
      <trkpt lat="45.66989" lon="6.45075">
        <ele>1296.6</ele>
        <time>2016-06-22T14:49:52Z</time>
      </trkpt>
      <trkpt lat="45.66983" lon="6.45063">
        <ele>1295.6</ele>
        <time>2016-06-22T14:49:54Z</time>
      </trkpt>
      <trkpt lat="45.66975" lon="6.45052">
        <ele>1294.7</ele>
        <time>2016-06-22T14:49:56Z</time>
      </trkpt>
      <trkpt lat="45.66968" lon="6.4504">
        <ele>1293.7</ele>
        <time>2016-06-22T14:49:58Z</time>
      </trkpt>
      <trkpt lat="45.66964" lon="6.45028">
        <ele>1292.5</ele>
        <time>2016-06-22T14:50:00Z</time>
      </trkpt>
      <trkpt lat="45.66959" lon="6.45013">
        <ele>1291.2</ele>
        <time>2016-06-22T14:50:02Z</time>
      </trkpt>
      <trkpt lat="45.66954" lon="6.45002">
        <ele>1289.9</ele>
        <time>2016-06-22T14:50:04Z</time>
      </trkpt>
      <trkpt lat="45.66946" lon="6.44988">
        <ele>1287.6</ele>
        <time>2016-06-22T14:50:07Z</time>
      </trkpt>
      <trkpt lat="45.66939" lon="6.44978">
        <ele>1286.1</ele>
        <time>2016-06-22T14:50:09Z</time>
      </trkpt>
      <trkpt lat="45.66932" lon="6.44969">
        <ele>1284.7</ele>
        <time>2016-06-22T14:50:11Z</time>
      </trkpt>
      <trkpt lat="45.66924" lon="6.44955">
        <ele>1282.2</ele>
        <time>2016-06-22T14:50:14Z</time>
      </trkpt>
      <trkpt lat="45.66919" lon="6.44944">
        <ele>1279.9</ele>
        <time>2016-06-22T14:50:17Z</time>
      </trkpt>
      <trkpt lat="45.66913" lon="6.44932">
        <ele>1277</ele>
        <time>2016-06-22T14:50:22Z</time>
      </trkpt>
      <trkpt lat="45.66905" lon="6.44925">
        <ele>1274.5</ele>
        <time>2016-06-22T14:50:28Z</time>
      </trkpt>
      <trkpt lat="45.66897" lon="6.44915">
        <ele>1273.4</ele>
        <time>2016-06-22T14:50:32Z</time>
      </trkpt>
      <trkpt lat="45.66891" lon="6.44904">
        <ele>1272.6</ele>
        <time>2016-06-22T14:50:36Z</time>
      </trkpt>
      <trkpt lat="45.66886" lon="6.44893">
        <ele>1271.8</ele>
        <time>2016-06-22T14:50:41Z</time>
      </trkpt>
      <trkpt lat="45.66881" lon="6.44881">
        <ele>1271.2</ele>
        <time>2016-06-22T14:50:47Z</time>
      </trkpt>
      <trkpt lat="45.66873" lon="6.4487">
        <ele>1270.8</ele>
        <time>2016-06-22T14:50:53Z</time>
      </trkpt>
      <trkpt lat="45.66866" lon="6.44858">
        <ele>1270.4</ele>
        <time>2016-06-22T14:50:59Z</time>
      </trkpt>
      <trkpt lat="45.66858" lon="6.44846">
        <ele>1269.8</ele>
        <time>2016-06-22T14:51:04Z</time>
      </trkpt>
      <trkpt lat="45.66856" lon="6.44831">
        <ele>1269.3</ele>
        <time>2016-06-22T14:51:09Z</time>
      </trkpt>
      <trkpt lat="45.66857" lon="6.44818">
        <ele>1268.7</ele>
        <time>2016-06-22T14:51:13Z</time>
      </trkpt>
      <trkpt lat="45.66861" lon="6.44806">
        <ele>1267.7</ele>
        <time>2016-06-22T14:51:20Z</time>
      </trkpt>
      <trkpt lat="45.66858" lon="6.44792">
        <ele>1266</ele>
        <time>2016-06-22T14:51:28Z</time>
      </trkpt>
      <trkpt lat="45.66857" lon="6.4478">
        <ele>1265</ele>
        <time>2016-06-22T14:51:32Z</time>
      </trkpt>
      <trkpt lat="45.66855" lon="6.44765">
        <ele>1264.5</ele>
        <time>2016-06-22T14:51:34Z</time>
      </trkpt>
      <trkpt lat="45.66857" lon="6.44749">
        <ele>1263.9</ele>
        <time>2016-06-22T14:51:36Z</time>
      </trkpt>
      <trkpt lat="45.66858" lon="6.44729">
        <ele>1262.9</ele>
        <time>2016-06-22T14:51:38Z</time>
      </trkpt>
      <trkpt lat="45.66858" lon="6.44711">
        <ele>1262</ele>
        <time>2016-06-22T14:51:40Z</time>
      </trkpt>
      <trkpt lat="45.66859" lon="6.44694">
        <ele>1260.8</ele>
        <time>2016-06-22T14:51:43Z</time>
      </trkpt>
      <trkpt lat="45.66861" lon="6.44678">
        <ele>1259.1</ele>
        <time>2016-06-22T14:51:47Z</time>
      </trkpt>
      <trkpt lat="45.66862" lon="6.44659">
        <ele>1257.9</ele>
        <time>2016-06-22T14:51:50Z</time>
      </trkpt>
      <trkpt lat="45.66861" lon="6.44644">
        <ele>1257</ele>
        <time>2016-06-22T14:51:52Z</time>
      </trkpt>
      <trkpt lat="45.66863" lon="6.44624">
        <ele>1256</ele>
        <time>2016-06-22T14:51:54Z</time>
      </trkpt>
      <trkpt lat="45.66865" lon="6.44604">
        <ele>1255.1</ele>
        <time>2016-06-22T14:51:56Z</time>
      </trkpt>
      <trkpt lat="45.66868" lon="6.44589">
        <ele>1254.1</ele>
        <time>2016-06-22T14:51:58Z</time>
      </trkpt>
      <trkpt lat="45.66869" lon="6.44573">
        <ele>1248</ele>
        <time>2016-06-22T14:52:13Z</time>
      </trkpt>
      <trkpt lat="45.66871" lon="6.44558">
        <ele>1247.4</ele>
        <time>2016-06-22T14:52:15Z</time>
      </trkpt>
      <trkpt lat="45.66871" lon="6.44543">
        <ele>1246.7</ele>
        <time>2016-06-22T14:52:17Z</time>
      </trkpt>
      <trkpt lat="45.66873" lon="6.44525">
        <ele>1245.6</ele>
        <time>2016-06-22T14:52:19Z</time>
      </trkpt>
      <trkpt lat="45.66875" lon="6.44502">
        <ele>1244.7</ele>
        <time>2016-06-22T14:52:21Z</time>
      </trkpt>
      <trkpt lat="45.6688" lon="6.44481">
        <ele>1243.6</ele>
        <time>2016-06-22T14:52:23Z</time>
      </trkpt>
      <trkpt lat="45.66884" lon="6.44465">
        <ele>1242.5</ele>
        <time>2016-06-22T14:52:25Z</time>
      </trkpt>
      <trkpt lat="45.66877" lon="6.44452">
        <ele>1240.7</ele>
        <time>2016-06-22T14:52:28Z</time>
      </trkpt>
      <trkpt lat="45.66867" lon="6.44453">
        <ele>1239.5</ele>
        <time>2016-06-22T14:52:30Z</time>
      </trkpt>
      <trkpt lat="45.66859" lon="6.44464">
        <ele>1238.1</ele>
        <time>2016-06-22T14:52:32Z</time>
      </trkpt>
      <trkpt lat="45.66851" lon="6.44475">
        <ele>1236.8</ele>
        <time>2016-06-22T14:52:34Z</time>
      </trkpt>
      <trkpt lat="45.66843" lon="6.4449">
        <ele>1235.1</ele>
        <time>2016-06-22T14:52:37Z</time>
      </trkpt>
      <trkpt lat="45.66839" lon="6.44505">
        <ele>1233.4</ele>
        <time>2016-06-22T14:52:40Z</time>
      </trkpt>
      <trkpt lat="45.66836" lon="6.44518">
        <ele>1232</ele>
        <time>2016-06-22T14:52:43Z</time>
      </trkpt>
      <trkpt lat="45.66837" lon="6.44532">
        <ele>1231.2</ele>
        <time>2016-06-22T14:52:45Z</time>
      </trkpt>
      <trkpt lat="45.66836" lon="6.4455">
        <ele>1230.1</ele>
        <time>2016-06-22T14:52:48Z</time>
      </trkpt>
      <trkpt lat="45.66834" lon="6.44564">
        <ele>1229.5</ele>
        <time>2016-06-22T14:52:50Z</time>
      </trkpt>
      <trkpt lat="45.66829" lon="6.44584">
        <ele>1229</ele>
        <time>2016-06-22T14:52:52Z</time>
      </trkpt>
      <trkpt lat="45.66821" lon="6.44604">
        <ele>1228.4</ele>
        <time>2016-06-22T14:52:54Z</time>
      </trkpt>
      <trkpt lat="45.66815" lon="6.44615">
        <ele>1228</ele>
        <time>2016-06-22T14:52:55Z</time>
      </trkpt>
      <trkpt lat="45.6681" lon="6.44626">
        <ele>1227.7</ele>
        <time>2016-06-22T14:52:56Z</time>
      </trkpt>
      <trkpt lat="45.66801" lon="6.44648">
        <ele>1226.8</ele>
        <time>2016-06-22T14:52:58Z</time>
      </trkpt>
      <trkpt lat="45.66796" lon="6.44659">
        <ele>1226.3</ele>
        <time>2016-06-22T14:52:59Z</time>
      </trkpt>
      <trkpt lat="45.66785" lon="6.44679">
        <ele>1224.8</ele>
        <time>2016-06-22T14:53:01Z</time>
      </trkpt>
      <trkpt lat="45.66778" lon="6.44688">
        <ele>1224.3</ele>
        <time>2016-06-22T14:53:02Z</time>
      </trkpt>
      <trkpt lat="45.66767" lon="6.44706">
        <ele>1223.5</ele>
        <time>2016-06-22T14:53:04Z</time>
      </trkpt>
      <trkpt lat="45.66757" lon="6.44725">
        <ele>1222.4</ele>
        <time>2016-06-22T14:53:06Z</time>
      </trkpt>
      <trkpt lat="45.66745" lon="6.4474">
        <ele>1221.2</ele>
        <time>2016-06-22T14:53:08Z</time>
      </trkpt>
      <trkpt lat="45.66737" lon="6.44756">
        <ele>1219.9</ele>
        <time>2016-06-22T14:53:10Z</time>
      </trkpt>
      <trkpt lat="45.66729" lon="6.44776">
        <ele>1218.7</ele>
        <time>2016-06-22T14:53:12Z</time>
      </trkpt>
      <trkpt lat="45.66725" lon="6.44787">
        <ele>1218.1</ele>
        <time>2016-06-22T14:53:13Z</time>
      </trkpt>
      <trkpt lat="45.6672" lon="6.44799">
        <ele>1217.5</ele>
        <time>2016-06-22T14:53:14Z</time>
      </trkpt>
      <trkpt lat="45.6671" lon="6.44818">
        <ele>1216.1</ele>
        <time>2016-06-22T14:53:16Z</time>
      </trkpt>
      <trkpt lat="45.66703" lon="6.44839">
        <ele>1214.7</ele>
        <time>2016-06-22T14:53:18Z</time>
      </trkpt>
      <trkpt lat="45.66699" lon="6.44856">
        <ele>1213.4</ele>
        <time>2016-06-22T14:53:20Z</time>
      </trkpt>
      <trkpt lat="45.66702" lon="6.44843">
        <ele>1203.2</ele>
        <time>2016-06-22T14:53:39Z</time>
      </trkpt>
      <trkpt lat="45.66705" lon="6.44829">
        <ele>1201.2</ele>
        <time>2016-06-22T14:53:46Z</time>
      </trkpt>
      <trkpt lat="45.66704" lon="6.44816">
        <ele>1200.2</ele>
        <time>2016-06-22T14:53:50Z</time>
      </trkpt>
      <trkpt lat="45.66702" lon="6.44803">
        <ele>1199.2</ele>
        <time>2016-06-22T14:53:55Z</time>
      </trkpt>
      <trkpt lat="45.66699" lon="6.4479">
        <ele>1198.6</ele>
        <time>2016-06-22T14:53:58Z</time>
      </trkpt>
      <trkpt lat="45.66699" lon="6.44774">
        <ele>1198</ele>
        <time>2016-06-22T14:54:02Z</time>
      </trkpt>
      <trkpt lat="45.66701" lon="6.4476">
        <ele>1197</ele>
        <time>2016-06-22T14:54:07Z</time>
      </trkpt>
      <trkpt lat="45.66699" lon="6.44745">
        <ele>1195.9</ele>
        <time>2016-06-22T14:54:11Z</time>
      </trkpt>
      <trkpt lat="45.66707" lon="6.44729">
        <ele>1194.7</ele>
        <time>2016-06-22T14:54:14Z</time>
      </trkpt>
      <trkpt lat="45.66713" lon="6.44715">
        <ele>1193.6</ele>
        <time>2016-06-22T14:54:16Z</time>
      </trkpt>
      <trkpt lat="45.66716" lon="6.447">
        <ele>1191.8</ele>
        <time>2016-06-22T14:54:19Z</time>
      </trkpt>
      <trkpt lat="45.6671" lon="6.4469">
        <ele>1183.6</ele>
        <time>2016-06-22T14:54:32Z</time>
      </trkpt>
      <trkpt lat="45.66714" lon="6.44679">
        <ele>1181.8</ele>
        <time>2016-06-22T14:54:35Z</time>
      </trkpt>
      <trkpt lat="45.6672" lon="6.44663">
        <ele>1179.1</ele>
        <time>2016-06-22T14:54:39Z</time>
      </trkpt>
      <trkpt lat="45.66724" lon="6.44646">
        <ele>1176.8</ele>
        <time>2016-06-22T14:54:42Z</time>
      </trkpt>
      <trkpt lat="45.66724" lon="6.44629">
        <ele>1174.4</ele>
        <time>2016-06-22T14:54:45Z</time>
      </trkpt>
      <trkpt lat="45.66724" lon="6.4461">
        <ele>1172</ele>
        <time>2016-06-22T14:54:48Z</time>
      </trkpt>
      <trkpt lat="45.66724" lon="6.44596">
        <ele>1170.1</ele>
        <time>2016-06-22T14:54:50Z</time>
      </trkpt>
      <trkpt lat="45.66724" lon="6.44581">
        <ele>1168.3</ele>
        <time>2016-06-22T14:54:52Z</time>
      </trkpt>
      <trkpt lat="45.66723" lon="6.44561">
        <ele>1165.4</ele>
        <time>2016-06-22T14:54:55Z</time>
      </trkpt>
      <trkpt lat="45.66722" lon="6.44546">
        <ele>1163.5</ele>
        <time>2016-06-22T14:54:57Z</time>
      </trkpt>
      <trkpt lat="45.66722" lon="6.44529">
        <ele>1161.5</ele>
        <time>2016-06-22T14:54:59Z</time>
      </trkpt>
      <trkpt lat="45.66721" lon="6.44511">
        <ele>1158.5</ele>
        <time>2016-06-22T14:55:02Z</time>
      </trkpt>
      <trkpt lat="45.66717" lon="6.44497">
        <ele>1156.3</ele>
        <time>2016-06-22T14:55:04Z</time>
      </trkpt>
      <trkpt lat="45.66712" lon="6.44481">
        <ele>1154.3</ele>
        <time>2016-06-22T14:55:06Z</time>
      </trkpt>
      <trkpt lat="45.66709" lon="6.44467">
        <ele>1152.3</ele>
        <time>2016-06-22T14:55:08Z</time>
      </trkpt>
      <trkpt lat="45.66706" lon="6.44451">
        <ele>1150</ele>
        <time>2016-06-22T14:55:10Z</time>
      </trkpt>
      <trkpt lat="45.66706" lon="6.44435">
        <ele>1146.5</ele>
        <time>2016-06-22T14:55:13Z</time>
      </trkpt>
      <trkpt lat="45.66709" lon="6.44419">
        <ele>1140.9</ele>
        <time>2016-06-22T14:55:18Z</time>
      </trkpt>
      <trkpt lat="45.6671" lon="6.44404">
        <ele>1137.9</ele>
        <time>2016-06-22T14:55:21Z</time>
      </trkpt>
      <trkpt lat="45.66712" lon="6.4439">
        <ele>1135.3</ele>
        <time>2016-06-22T14:55:24Z</time>
      </trkpt>
      <trkpt lat="45.66714" lon="6.44376">
        <ele>1131.5</ele>
        <time>2016-06-22T14:55:29Z</time>
      </trkpt>
      <trkpt lat="45.66708" lon="6.44362">
        <ele>1120.7</ele>
        <time>2016-06-22T14:56:01Z</time>
      </trkpt>
      <trkpt lat="45.66702" lon="6.44352">
        <ele>1119.9</ele>
        <time>2016-06-22T14:56:04Z</time>
      </trkpt>
      <trkpt lat="45.66693" lon="6.44346">
        <ele>1118.7</ele>
        <time>2016-06-22T14:56:08Z</time>
      </trkpt>
      <trkpt lat="45.66688" lon="6.44334">
        <ele>1117.5</ele>
        <time>2016-06-22T14:56:11Z</time>
      </trkpt>
      <trkpt lat="45.66688" lon="6.44321">
        <ele>1115</ele>
        <time>2016-06-22T14:56:16Z</time>
      </trkpt>
      <trkpt lat="45.66687" lon="6.44304">
        <ele>1111.9</ele>
        <time>2016-06-22T14:56:21Z</time>
      </trkpt>
      <trkpt lat="45.66678" lon="6.44298">
        <ele>1108.7</ele>
        <time>2016-06-22T14:56:26Z</time>
      </trkpt>
      <trkpt lat="45.6667" lon="6.44304">
        <ele>1105.9</ele>
        <time>2016-06-22T14:56:30Z</time>
      </trkpt>
      <trkpt lat="45.66662" lon="6.44293">
        <ele>1101.6</ele>
        <time>2016-06-22T14:56:35Z</time>
      </trkpt>
      <trkpt lat="45.66663" lon="6.4428">
        <ele>1084.2</ele>
        <time>2016-06-22T14:57:07Z</time>
      </trkpt>
      <trkpt lat="45.66655" lon="6.44267">
        <ele>1083.4</ele>
        <time>2016-06-22T14:57:10Z</time>
      </trkpt>
      <trkpt lat="45.66649" lon="6.44253">
        <ele>1082.4</ele>
        <time>2016-06-22T14:57:13Z</time>
      </trkpt>
      <trkpt lat="45.66646" lon="6.4424">
        <ele>1081.5</ele>
        <time>2016-06-22T14:57:15Z</time>
      </trkpt>
      <trkpt lat="45.6664" lon="6.44228">
        <ele>1080</ele>
        <time>2016-06-22T14:57:18Z</time>
      </trkpt>
      <trkpt lat="45.66631" lon="6.44231">
        <ele>1077.7</ele>
        <time>2016-06-22T14:57:22Z</time>
      </trkpt>
      <trkpt lat="45.66621" lon="6.44239">
        <ele>1075.6</ele>
        <time>2016-06-22T14:57:25Z</time>
      </trkpt>
      <trkpt lat="45.66613" lon="6.44246">
        <ele>1073.2</ele>
        <time>2016-06-22T14:57:28Z</time>
      </trkpt>
      <trkpt lat="45.66604" lon="6.44254">
        <ele>1069.6</ele>
        <time>2016-06-22T14:57:32Z</time>
      </trkpt>
      <trkpt lat="45.66594" lon="6.44257">
        <ele>1066.8</ele>
        <time>2016-06-22T14:57:35Z</time>
      </trkpt>
      <trkpt lat="45.66587" lon="6.44265">
        <ele>1064.7</ele>
        <time>2016-06-22T14:57:37Z</time>
      </trkpt>
      <trkpt lat="45.66582" lon="6.44277">
        <ele>1062.5</ele>
        <time>2016-06-22T14:57:39Z</time>
      </trkpt>
      <trkpt lat="45.66579" lon="6.44293">
        <ele>1060.2</ele>
        <time>2016-06-22T14:57:41Z</time>
      </trkpt>
      <trkpt lat="45.66577" lon="6.4431">
        <ele>1056.6</ele>
        <time>2016-06-22T14:57:44Z</time>
      </trkpt>
      <trkpt lat="45.66572" lon="6.44327">
        <ele>1053.1</ele>
        <time>2016-06-22T14:57:47Z</time>
      </trkpt>
      <trkpt lat="45.66568" lon="6.44339">
        <ele>1049.3</ele>
        <time>2016-06-22T14:57:50Z</time>
      </trkpt>
      <trkpt lat="45.66561" lon="6.44351">
        <ele>1045.5</ele>
        <time>2016-06-22T14:57:53Z</time>
      </trkpt>
      <trkpt lat="45.66554" lon="6.44366">
        <ele>1041.7</ele>
        <time>2016-06-22T14:57:56Z</time>
      </trkpt>
      <trkpt lat="45.66549" lon="6.4438">
        <ele>1039</ele>
        <time>2016-06-22T14:57:58Z</time>
      </trkpt>
      <trkpt lat="45.66544" lon="6.44396">
        <ele>1036.5</ele>
        <time>2016-06-22T14:58:00Z</time>
      </trkpt>
      <trkpt lat="45.66541" lon="6.44408">
        <ele>1034.1</ele>
        <time>2016-06-22T14:58:02Z</time>
      </trkpt>
      <trkpt lat="45.66537" lon="6.44423">
        <ele>1030.5</ele>
        <time>2016-06-22T14:58:05Z</time>
      </trkpt>
      <trkpt lat="45.66533" lon="6.44435">
        <ele>1027.2</ele>
        <time>2016-06-22T14:58:08Z</time>
      </trkpt>
      <trkpt lat="45.66526" lon="6.44449">
        <ele>1024</ele>
        <time>2016-06-22T14:58:11Z</time>
      </trkpt>
      <trkpt lat="45.6652" lon="6.44459">
        <ele>1022</ele>
        <time>2016-06-22T14:58:13Z</time>
      </trkpt>
      <trkpt lat="45.66512" lon="6.44467">
        <ele>1017.3</ele>
        <time>2016-06-22T14:58:18Z</time>
      </trkpt>
      <trkpt lat="45.66503" lon="6.44462">
        <ele>1008.4</ele>
        <time>2016-06-22T14:58:29Z</time>
      </trkpt>
      <trkpt lat="45.665" lon="6.44449">
        <ele>994.1</ele>
        <time>2016-06-22T14:58:57Z</time>
      </trkpt>
      <trkpt lat="45.665" lon="6.4443">
        <ele>992.8</ele>
        <time>2016-06-22T14:59:01Z</time>
      </trkpt>
      <trkpt lat="45.66501" lon="6.44411">
        <ele>991.6</ele>
        <time>2016-06-22T14:59:04Z</time>
      </trkpt>
      <trkpt lat="45.66505" lon="6.44397">
        <ele>989.9</ele>
        <time>2016-06-22T14:59:08Z</time>
      </trkpt>
      <trkpt lat="45.665" lon="6.44386">
        <ele>987.2</ele>
        <time>2016-06-22T14:59:13Z</time>
      </trkpt>
      <trkpt lat="45.66491" lon="6.44392">
        <ele>984.9</ele>
        <time>2016-06-22T14:59:17Z</time>
      </trkpt>
      <trkpt lat="45.66482" lon="6.44403">
        <ele>982.8</ele>
        <time>2016-06-22T14:59:20Z</time>
      </trkpt>
      <trkpt lat="45.66471" lon="6.4441">
        <ele>980.6</ele>
        <time>2016-06-22T14:59:23Z</time>
      </trkpt>
      <trkpt lat="45.66461" lon="6.44416">
        <ele>978.2</ele>
        <time>2016-06-22T14:59:26Z</time>
      </trkpt>
      <trkpt lat="45.66452" lon="6.44408">
        <ele>972.8</ele>
        <time>2016-06-22T14:59:32Z</time>
      </trkpt>
      <trkpt lat="45.66443" lon="6.44409">
        <ele>960</ele>
        <time>2016-06-22T14:59:49Z</time>
      </trkpt>
      <trkpt lat="45.66441" lon="6.44396">
        <ele>953.7</ele>
        <time>2016-06-22T15:00:04Z</time>
      </trkpt>
      <trkpt lat="45.6644" lon="6.4438">
        <ele>952.4</ele>
        <time>2016-06-22T15:00:09Z</time>
      </trkpt>
      <trkpt lat="45.66443" lon="6.44367">
        <ele>950.5</ele>
        <time>2016-06-22T15:00:14Z</time>
      </trkpt>
      <trkpt lat="45.66439" lon="6.44352">
        <ele>948.8</ele>
        <time>2016-06-22T15:00:18Z</time>
      </trkpt>
      <trkpt lat="45.66436" lon="6.4434">
        <ele>947.2</ele>
        <time>2016-06-22T15:00:21Z</time>
      </trkpt>
      <trkpt lat="45.66435" lon="6.44324">
        <ele>945.4</ele>
        <time>2016-06-22T15:00:24Z</time>
      </trkpt>
      <trkpt lat="45.66434" lon="6.44307">
        <ele>943.3</ele>
        <time>2016-06-22T15:00:27Z</time>
      </trkpt>
      <trkpt lat="45.66435" lon="6.44293">
        <ele>940</ele>
        <time>2016-06-22T15:00:32Z</time>
      </trkpt>
      <trkpt lat="45.66434" lon="6.44278">
        <ele>930.9</ele>
        <time>2016-06-22T15:00:54Z</time>
      </trkpt>
      <trkpt lat="45.66428" lon="6.44264">
        <ele>929.8</ele>
        <time>2016-06-22T15:00:58Z</time>
      </trkpt>
      <trkpt lat="45.66421" lon="6.44272">
        <ele>927.7</ele>
        <time>2016-06-22T15:01:03Z</time>
      </trkpt>
      <trkpt lat="45.66416" lon="6.44286">
        <ele>926.5</ele>
        <time>2016-06-22T15:01:06Z</time>
      </trkpt>
      <trkpt lat="45.66409" lon="6.443">
        <ele>925.1</ele>
        <time>2016-06-22T15:01:09Z</time>
      </trkpt>
      <trkpt lat="45.66402" lon="6.44313">
        <ele>923.5</ele>
        <time>2016-06-22T15:01:12Z</time>
      </trkpt>
      <trkpt lat="45.66395" lon="6.44301">
        <ele>917.9</ele>
        <time>2016-06-22T15:01:20Z</time>
      </trkpt>
      <trkpt lat="45.66392" lon="6.44289">
        <ele>915.8</ele>
        <time>2016-06-22T15:01:23Z</time>
      </trkpt>
      <trkpt lat="45.66382" lon="6.44286">
        <ele>911.1</ele>
        <time>2016-06-22T15:01:29Z</time>
      </trkpt>
      <trkpt lat="45.66375" lon="6.44294">
        <ele>908.7</ele>
        <time>2016-06-22T15:01:32Z</time>
      </trkpt>
      <trkpt lat="45.66365" lon="6.443">
        <ele>904.5</ele>
        <time>2016-06-22T15:01:37Z</time>
      </trkpt>
      <trkpt lat="45.66355" lon="6.44304">
        <ele>900.9</ele>
        <time>2016-06-22T15:01:41Z</time>
      </trkpt>
      <trkpt lat="45.66347" lon="6.44313">
        <ele>897.9</ele>
        <time>2016-06-22T15:01:44Z</time>
      </trkpt>
      <trkpt lat="45.6634" lon="6.44325">
        <ele>895.1</ele>
        <time>2016-06-22T15:01:47Z</time>
      </trkpt>
      <trkpt lat="45.66336" lon="6.44338">
        <ele>891.2</ele>
        <time>2016-06-22T15:01:51Z</time>
      </trkpt>
      <trkpt lat="45.66334" lon="6.44355">
        <ele>886.3</ele>
        <time>2016-06-22T15:01:56Z</time>
      </trkpt>
      <trkpt lat="45.66324" lon="6.44348">
        <ele>881.6</ele>
        <time>2016-06-22T15:02:01Z</time>
      </trkpt>
      <trkpt lat="45.66315" lon="6.44351">
        <ele>878.2</ele>
        <time>2016-06-22T15:02:05Z</time>
      </trkpt>
      <trkpt lat="45.66308" lon="6.44361">
        <ele>875.3</ele>
        <time>2016-06-22T15:02:08Z</time>
      </trkpt>
      <trkpt lat="45.66302" lon="6.44372">
        <ele>871.3</ele>
        <time>2016-06-22T15:02:12Z</time>
      </trkpt>
      <trkpt lat="45.6629" lon="6.44375">
        <ele>867.2</ele>
        <time>2016-06-22T15:02:16Z</time>
      </trkpt>
      <trkpt lat="45.66285" lon="6.44364">
        <ele>863.3</ele>
        <time>2016-06-22T15:02:20Z</time>
      </trkpt>
      <trkpt lat="45.66286" lon="6.44351">
        <ele>859.2</ele>
        <time>2016-06-22T15:02:24Z</time>
      </trkpt>
      <trkpt lat="45.66276" lon="6.44356">
        <ele>852.2</ele>
        <time>2016-06-22T15:02:31Z</time>
      </trkpt>
      <trkpt lat="45.6627" lon="6.44368">
        <ele>846.6</ele>
        <time>2016-06-22T15:02:37Z</time>
      </trkpt>
      <trkpt lat="45.66264" lon="6.44379">
        <ele>842.8</ele>
        <time>2016-06-22T15:02:41Z</time>
      </trkpt>
      <trkpt lat="45.66257" lon="6.4439">
        <ele>840.1</ele>
        <time>2016-06-22T15:02:44Z</time>
      </trkpt>
      <trkpt lat="45.66247" lon="6.44394">
        <ele>837.5</ele>
        <time>2016-06-22T15:02:47Z</time>
      </trkpt>
      <trkpt lat="45.66247" lon="6.44378">
        <ele>833</ele>
        <time>2016-06-22T15:02:52Z</time>
      </trkpt>
      <trkpt lat="45.66237" lon="6.44373">
        <ele>828.1</ele>
        <time>2016-06-22T15:02:57Z</time>
      </trkpt>
      <trkpt lat="45.66226" lon="6.44377">
        <ele>824.8</ele>
        <time>2016-06-22T15:03:00Z</time>
      </trkpt>
      <trkpt lat="45.66221" lon="6.44365">
        <ele>821.7</ele>
        <time>2016-06-22T15:03:03Z</time>
      </trkpt>
      <trkpt lat="45.6622" lon="6.44346">
        <ele>818.4</ele>
        <time>2016-06-22T15:03:06Z</time>
      </trkpt>
      <trkpt lat="45.66221" lon="6.44332">
        <ele>816.1</ele>
        <time>2016-06-22T15:03:08Z</time>
      </trkpt>
      <trkpt lat="45.66223" lon="6.44317">
        <ele>813.9</ele>
        <time>2016-06-22T15:03:10Z</time>
      </trkpt>
      <trkpt lat="45.66224" lon="6.44304">
        <ele>810.6</ele>
        <time>2016-06-22T15:03:13Z</time>
      </trkpt>
      <trkpt lat="45.66228" lon="6.44288">
        <ele>804.4</ele>
        <time>2016-06-22T15:03:19Z</time>
      </trkpt>
      <trkpt lat="45.66226" lon="6.44273">
        <ele>801.2</ele>
        <time>2016-06-22T15:03:22Z</time>
      </trkpt>
      <trkpt lat="45.66216" lon="6.44266">
        <ele>797.9</ele>
        <time>2016-06-22T15:03:25Z</time>
      </trkpt>
      <trkpt lat="45.66204" lon="6.44266">
        <ele>794.8</ele>
        <time>2016-06-22T15:03:28Z</time>
      </trkpt>
      <trkpt lat="45.66196" lon="6.44256">
        <ele>790.7</ele>
        <time>2016-06-22T15:03:32Z</time>
      </trkpt>
      <trkpt lat="45.66186" lon="6.44261">
        <ele>786.7</ele>
        <time>2016-06-22T15:03:36Z</time>
      </trkpt>
      <trkpt lat="45.66177" lon="6.4427">
        <ele>783.6</ele>
        <time>2016-06-22T15:03:39Z</time>
      </trkpt>
      <trkpt lat="45.6617" lon="6.44281">
        <ele>780.6</ele>
        <time>2016-06-22T15:03:42Z</time>
      </trkpt>
      <trkpt lat="45.66162" lon="6.44289">
        <ele>777.7</ele>
        <time>2016-06-22T15:03:45Z</time>
      </trkpt>
      <trkpt lat="45.66153" lon="6.44296">
        <ele>774.7</ele>
        <time>2016-06-22T15:03:48Z</time>
      </trkpt>
      <trkpt lat="45.66145" lon="6.44305">
        <ele>771.7</ele>
        <time>2016-06-22T15:03:51Z</time>
      </trkpt>
      <trkpt lat="45.66139" lon="6.44318">
        <ele>768.5</ele>
        <time>2016-06-22T15:03:54Z</time>
      </trkpt>
      <trkpt lat="45.66133" lon="6.44329">
        <ele>765.3</ele>
        <time>2016-06-22T15:03:57Z</time>
      </trkpt>
      <trkpt lat="45.66131" lon="6.44345">
        <ele>761.1</ele>
        <time>2016-06-22T15:04:01Z</time>
      </trkpt>
      <trkpt lat="45.66127" lon="6.44358">
        <ele>757</ele>
        <time>2016-06-22T15:04:05Z</time>
      </trkpt>
      <trkpt lat="45.66119" lon="6.44348">
        <ele>751.1</ele>
        <time>2016-06-22T15:04:11Z</time>
      </trkpt>
      <trkpt lat="45.66118" lon="6.44334">
        <ele>748.2</ele>
        <time>2016-06-22T15:04:14Z</time>
      </trkpt>
      <trkpt lat="45.66116" lon="6.44321">
        <ele>745.6</ele>
        <time>2016-06-22T15:04:17Z</time>
      </trkpt>
      <trkpt lat="45.66116" lon="6.44306">
        <ele>741.8</ele>
        <time>2016-06-22T15:04:21Z</time>
      </trkpt>
      <trkpt lat="45.66116" lon="6.44291">
        <ele>737.7</ele>
        <time>2016-06-22T15:04:26Z</time>
      </trkpt>
      <trkpt lat="45.66118" lon="6.44277">
        <ele>733.5</ele>
        <time>2016-06-22T15:04:31Z</time>
      </trkpt>
      <trkpt lat="45.6611" lon="6.44271">
        <ele>729.4</ele>
        <time>2016-06-22T15:04:36Z</time>
      </trkpt>
      <trkpt lat="45.66109" lon="6.44258">
        <ele>724</ele>
        <time>2016-06-22T15:04:43Z</time>
      </trkpt>
      <trkpt lat="45.6611" lon="6.44245">
        <ele>720.5</ele>
        <time>2016-06-22T15:04:48Z</time>
      </trkpt>
      <trkpt lat="45.66114" lon="6.44232">
        <ele>716.2</ele>
        <time>2016-06-22T15:04:54Z</time>
      </trkpt>
      <trkpt lat="45.66106" lon="6.44224">
        <ele>711.9</ele>
        <time>2016-06-22T15:05:00Z</time>
      </trkpt>
      <trkpt lat="45.66104" lon="6.44208">
        <ele>708.6</ele>
        <time>2016-06-22T15:05:05Z</time>
      </trkpt>
      <trkpt lat="45.66107" lon="6.44194">
        <ele>705.6</ele>
        <time>2016-06-22T15:05:09Z</time>
      </trkpt>
      <trkpt lat="45.66108" lon="6.4418">
        <ele>689.8</ele>
        <time>2016-06-22T15:08:31Z</time>
      </trkpt>
      <trkpt lat="45.66114" lon="6.44164">
        <ele>689.8</ele>
        <time>2016-06-22T15:08:35Z</time>
      </trkpt>
      <trkpt lat="45.66119" lon="6.44151">
        <ele>689.6</ele>
        <time>2016-06-22T15:08:37Z</time>
      </trkpt>
      <trkpt lat="45.66127" lon="6.44143">
        <ele>689.3</ele>
        <time>2016-06-22T15:08:39Z</time>
      </trkpt>
      <trkpt lat="45.66135" lon="6.44138">
        <ele>688.5</ele>
        <time>2016-06-22T15:08:42Z</time>
      </trkpt>
      <trkpt lat="45.66128" lon="6.44129">
        <ele>684.5</ele>
        <time>2016-06-22T15:08:54Z</time>
      </trkpt>
      <trkpt lat="45.6612" lon="6.44135">
        <ele>682.6</ele>
        <time>2016-06-22T15:08:59Z</time>
      </trkpt>
      <trkpt lat="45.66111" lon="6.44145">
        <ele>680.8</ele>
        <time>2016-06-22T15:09:04Z</time>
      </trkpt>
      <trkpt lat="45.661" lon="6.44148">
        <ele>678.5</ele>
        <time>2016-06-22T15:09:09Z</time>
      </trkpt>
      <trkpt lat="45.6609" lon="6.44154">
        <ele>676.6</ele>
        <time>2016-06-22T15:09:13Z</time>
      </trkpt>
      <trkpt lat="45.66082" lon="6.44162">
        <ele>674.8</ele>
        <time>2016-06-22T15:09:16Z</time>
      </trkpt>
      <trkpt lat="45.66074" lon="6.44169">
        <ele>673</ele>
        <time>2016-06-22T15:09:19Z</time>
      </trkpt>
      <trkpt lat="45.66066" lon="6.44177">
        <ele>671</ele>
        <time>2016-06-22T15:09:22Z</time>
      </trkpt>
      <trkpt lat="45.6606" lon="6.44188">
        <ele>669</ele>
        <time>2016-06-22T15:09:25Z</time>
      </trkpt>
      <trkpt lat="45.66049" lon="6.44193">
        <ele>666.7</ele>
        <time>2016-06-22T15:09:28Z</time>
      </trkpt>
      <trkpt lat="45.66037" lon="6.442">
        <ele>664.2</ele>
        <time>2016-06-22T15:09:31Z</time>
      </trkpt>
      <trkpt lat="45.66028" lon="6.44212">
        <ele>661.7</ele>
        <time>2016-06-22T15:09:34Z</time>
      </trkpt>
      <trkpt lat="45.66022" lon="6.44223">
        <ele>660.1</ele>
        <time>2016-06-22T15:09:36Z</time>
      </trkpt>
      <trkpt lat="45.66013" lon="6.44233">
        <ele>657.7</ele>
        <time>2016-06-22T15:09:39Z</time>
      </trkpt>
      <trkpt lat="45.66004" lon="6.44243">
        <ele>654.8</ele>
        <time>2016-06-22T15:09:43Z</time>
      </trkpt>
      <trkpt lat="45.65996" lon="6.44257">
        <ele>652.7</ele>
        <time>2016-06-22T15:09:46Z</time>
      </trkpt>
      <trkpt lat="45.65988" lon="6.44264">
        <ele>650.5</ele>
        <time>2016-06-22T15:09:49Z</time>
      </trkpt>
      <trkpt lat="45.65981" lon="6.44273">
        <ele>647.6</ele>
        <time>2016-06-22T15:09:53Z</time>
      </trkpt>
      <trkpt lat="45.65978" lon="6.44286">
        <ele>644.3</ele>
        <time>2016-06-22T15:09:57Z</time>
      </trkpt>
      <trkpt lat="45.65974" lon="6.44298">
        <ele>641.4</ele>
        <time>2016-06-22T15:10:01Z</time>
      </trkpt>
      <trkpt lat="45.65975" lon="6.44311">
        <ele>637.8</ele>
        <time>2016-06-22T15:10:06Z</time>
      </trkpt>
      <trkpt lat="45.65978" lon="6.44326">
        <ele>634.9</ele>
        <time>2016-06-22T15:10:10Z</time>
      </trkpt>
      <trkpt lat="45.6598" lon="6.44341">
        <ele>631.7</ele>
        <time>2016-06-22T15:10:14Z</time>
      </trkpt>
      <trkpt lat="45.65976" lon="6.44356">
        <ele>627.3</ele>
        <time>2016-06-22T15:10:20Z</time>
      </trkpt>
      <trkpt lat="45.65969" lon="6.44367">
        <ele>623.6</ele>
        <time>2016-06-22T15:10:25Z</time>
      </trkpt>
      <trkpt lat="45.6596" lon="6.44364">
        <ele>620.2</ele>
        <time>2016-06-22T15:10:30Z</time>
      </trkpt>
      <trkpt lat="45.65955" lon="6.44376">
        <ele>616.9</ele>
        <time>2016-06-22T15:10:35Z</time>
      </trkpt>
      <trkpt lat="45.65953" lon="6.44392">
        <ele>612.7</ele>
        <time>2016-06-22T15:10:41Z</time>
      </trkpt>
      <trkpt lat="45.65946" lon="6.44401">
        <ele>610.7</ele>
        <time>2016-06-22T15:10:44Z</time>
      </trkpt>
      <trkpt lat="45.65937" lon="6.44392">
        <ele>607.9</ele>
        <time>2016-06-22T15:10:48Z</time>
      </trkpt>
      <trkpt lat="45.65929" lon="6.44404">
        <ele>603.5</ele>
        <time>2016-06-22T15:10:54Z</time>
      </trkpt>
      <trkpt lat="45.65925" lon="6.44417">
        <ele>601.2</ele>
        <time>2016-06-22T15:10:57Z</time>
      </trkpt>
      <trkpt lat="45.6592" lon="6.44431">
        <ele>598.6</ele>
        <time>2016-06-22T15:11:00Z</time>
      </trkpt>
      <trkpt lat="45.65911" lon="6.44425">
        <ele>593.6</ele>
        <time>2016-06-22T15:11:06Z</time>
      </trkpt>
      <trkpt lat="45.65902" lon="6.44433">
        <ele>589.5</ele>
        <time>2016-06-22T15:11:11Z</time>
      </trkpt>
      <trkpt lat="45.65891" lon="6.44428">
        <ele>586.1</ele>
        <time>2016-06-22T15:11:15Z</time>
      </trkpt>
      <trkpt lat="45.6588" lon="6.44431">
        <ele>582.6</ele>
        <time>2016-06-22T15:11:19Z</time>
      </trkpt>
      <trkpt lat="45.65872" lon="6.44434">
        <ele>579.1</ele>
        <time>2016-06-22T15:11:23Z</time>
      </trkpt>
      <trkpt lat="45.65862" lon="6.44437">
        <ele>574.3</ele>
        <time>2016-06-22T15:11:28Z</time>
      </trkpt>
      <trkpt lat="45.65854" lon="6.4443">
        <ele>566.8</ele>
        <time>2016-06-22T15:11:37Z</time>
      </trkpt>
      <trkpt lat="45.65844" lon="6.44426">
        <ele>561.1</ele>
        <time>2016-06-22T15:11:44Z</time>
      </trkpt>
      <trkpt lat="45.65835" lon="6.44427">
        <ele>554.1</ele>
        <time>2016-06-22T15:11:53Z</time>
      </trkpt>
      <trkpt lat="45.65827" lon="6.44416">
        <ele>548.7</ele>
        <time>2016-06-22T15:12:00Z</time>
      </trkpt>
      <trkpt lat="45.65821" lon="6.44406">
        <ele>545.7</ele>
        <time>2016-06-22T15:12:04Z</time>
      </trkpt>
      <trkpt lat="45.65818" lon="6.44394">
        <ele>542.7</ele>
        <time>2016-06-22T15:12:08Z</time>
      </trkpt>
      <trkpt lat="45.65811" lon="6.44383">
        <ele>539.5</ele>
        <time>2016-06-22T15:12:12Z</time>
      </trkpt>
      <trkpt lat="45.65804" lon="6.44376">
        <ele>537.7</ele>
        <time>2016-06-22T15:12:14Z</time>
      </trkpt>
      <trkpt lat="45.65791" lon="6.44373">
        <ele>534.2</ele>
        <time>2016-06-22T15:12:18Z</time>
      </trkpt>
      <trkpt lat="45.65778" lon="6.44366">
        <ele>531.5</ele>
        <time>2016-06-22T15:12:21Z</time>
      </trkpt>
      <trkpt lat="45.65766" lon="6.44362">
        <ele>528.4</ele>
        <time>2016-06-22T15:12:24Z</time>
      </trkpt>
      <trkpt lat="45.65757" lon="6.44362">
        <ele>523.8</ele>
        <time>2016-06-22T15:12:29Z</time>
      </trkpt>
      <trkpt lat="45.65767" lon="6.44351">
        <ele>518.5</ele>
        <time>2016-06-22T15:12:36Z</time>
      </trkpt>
      <trkpt lat="45.65777" lon="6.44351">
        <ele>509</ele>
        <time>2016-06-22T15:13:02Z</time>
      </trkpt>
      <trkpt lat="45.65782" lon="6.44337">
        <ele>508.4</ele>
        <time>2016-06-22T15:13:06Z</time>
      </trkpt>
      <trkpt lat="45.65779" lon="6.4432">
        <ele>508</ele>
        <time>2016-06-22T15:13:08Z</time>
      </trkpt>
      <trkpt lat="45.65783" lon="6.44305">
        <ele>507.7</ele>
        <time>2016-06-22T15:13:09Z</time>
      </trkpt>
      <trkpt lat="45.65778" lon="6.44287">
        <ele>506.5</ele>
        <time>2016-06-22T15:13:13Z</time>
      </trkpt>
      <trkpt lat="45.65783" lon="6.44275">
        <ele>506.2</ele>
        <time>2016-06-22T15:13:14Z</time>
      </trkpt>
      <trkpt lat="45.65785" lon="6.44254">
        <ele>505.1</ele>
        <time>2016-06-22T15:13:17Z</time>
      </trkpt>
      <trkpt lat="45.65788" lon="6.44238">
        <ele>504.4</ele>
        <time>2016-06-22T15:13:19Z</time>
      </trkpt>
      <trkpt lat="45.65789" lon="6.44223">
        <ele>503.4</ele>
        <time>2016-06-22T15:13:21Z</time>
      </trkpt>
      <trkpt lat="45.65793" lon="6.44205">
        <ele>502.4</ele>
        <time>2016-06-22T15:13:23Z</time>
      </trkpt>
      <trkpt lat="45.65796" lon="6.44191">
        <ele>501.2</ele>
        <time>2016-06-22T15:13:25Z</time>
      </trkpt>
      <trkpt lat="45.65799" lon="6.4417">
        <ele>500</ele>
        <time>2016-06-22T15:13:27Z</time>
      </trkpt>
      <trkpt lat="45.65807" lon="6.44157">
        <ele>499.2</ele>
        <time>2016-06-22T15:13:28Z</time>
      </trkpt>
      <trkpt lat="45.65815" lon="6.44135">
        <ele>497.9</ele>
        <time>2016-06-22T15:13:30Z</time>
      </trkpt>
      <trkpt lat="45.65816" lon="6.44115">
        <ele>496.6</ele>
        <time>2016-06-22T15:13:32Z</time>
      </trkpt>
      <trkpt lat="45.6582" lon="6.44098">
        <ele>495.3</ele>
        <time>2016-06-22T15:13:34Z</time>
      </trkpt>
      <trkpt lat="45.65824" lon="6.44085">
        <ele>493.6</ele>
        <time>2016-06-22T15:13:36Z</time>
      </trkpt>
      <trkpt lat="45.6582" lon="6.44072">
        <ele>489.7</ele>
        <time>2016-06-22T15:13:42Z</time>
      </trkpt>
      <trkpt lat="45.65825" lon="6.44056">
        <ele>487.8</ele>
        <time>2016-06-22T15:13:45Z</time>
      </trkpt>
      <trkpt lat="45.65825" lon="6.44041">
        <ele>485.4</ele>
        <time>2016-06-22T15:13:49Z</time>
      </trkpt>
      <trkpt lat="45.65824" lon="6.44023">
        <ele>483.7</ele>
        <time>2016-06-22T15:13:52Z</time>
      </trkpt>
      <trkpt lat="45.65822" lon="6.4401">
        <ele>482.6</ele>
        <time>2016-06-22T15:13:54Z</time>
      </trkpt>
      <trkpt lat="45.65821" lon="6.43994">
        <ele>480.7</ele>
        <time>2016-06-22T15:13:58Z</time>
      </trkpt>
      <trkpt lat="45.65833" lon="6.43996">
        <ele>478.8</ele>
        <time>2016-06-22T15:14:02Z</time>
      </trkpt>
      <trkpt lat="45.65845" lon="6.43999">
        <ele>477.4</ele>
        <time>2016-06-22T15:14:05Z</time>
      </trkpt>
      <trkpt lat="45.65858" lon="6.44">
        <ele>476.1</ele>
        <time>2016-06-22T15:14:08Z</time>
      </trkpt>
      <trkpt lat="45.65867" lon="6.43997">
        <ele>475.2</ele>
        <time>2016-06-22T15:14:10Z</time>
      </trkpt>
      <trkpt lat="45.65877" lon="6.43994">
        <ele>474.3</ele>
        <time>2016-06-22T15:14:12Z</time>
      </trkpt>
      <trkpt lat="45.65888" lon="6.43991">
        <ele>473.1</ele>
        <time>2016-06-22T15:14:15Z</time>
      </trkpt>
      <trkpt lat="45.65899" lon="6.43986">
        <ele>472.1</ele>
        <time>2016-06-22T15:14:18Z</time>
      </trkpt>
      <trkpt lat="45.65899" lon="6.43967">
        <ele>471.1</ele>
        <time>2016-06-22T15:14:21Z</time>
      </trkpt>
      <trkpt lat="45.65898" lon="6.43952">
        <ele>470.5</ele>
        <time>2016-06-22T15:14:23Z</time>
      </trkpt>
      <trkpt lat="45.659" lon="6.43938">
        <ele>469.8</ele>
        <time>2016-06-22T15:14:25Z</time>
      </trkpt>
      <trkpt lat="45.65905" lon="6.43925">
        <ele>469.1</ele>
        <time>2016-06-22T15:14:27Z</time>
      </trkpt>
      <trkpt lat="45.65911" lon="6.43909">
        <ele>468.4</ele>
        <time>2016-06-22T15:14:29Z</time>
      </trkpt>
      <trkpt lat="45.65918" lon="6.43889">
        <ele>467.6</ele>
        <time>2016-06-22T15:14:31Z</time>
      </trkpt>
      <trkpt lat="45.65926" lon="6.43867">
        <ele>466.7</ele>
        <time>2016-06-22T15:14:33Z</time>
      </trkpt>
      <trkpt lat="45.65928" lon="6.43854">
        <ele>466.2</ele>
        <time>2016-06-22T15:14:34Z</time>
      </trkpt>
      <trkpt lat="45.65929" lon="6.4384">
        <ele>465.8</ele>
        <time>2016-06-22T15:14:35Z</time>
      </trkpt>
      <trkpt lat="45.65928" lon="6.43826">
        <ele>465.3</ele>
        <time>2016-06-22T15:14:36Z</time>
      </trkpt>
      <trkpt lat="45.65926" lon="6.43812">
        <ele>464.7</ele>
        <time>2016-06-22T15:14:37Z</time>
      </trkpt>
      <trkpt lat="45.65924" lon="6.43799">
        <ele>464.1</ele>
        <time>2016-06-22T15:14:38Z</time>
      </trkpt>
      <trkpt lat="45.65923" lon="6.43781">
        <ele>462.8</ele>
        <time>2016-06-22T15:14:40Z</time>
      </trkpt>
      <trkpt lat="45.65931" lon="6.43771">
        <ele>461.3</ele>
        <time>2016-06-22T15:14:43Z</time>
      </trkpt>
      <trkpt lat="45.65942" lon="6.43765">
        <ele>459.8</ele>
        <time>2016-06-22T15:14:46Z</time>
      </trkpt>
      <trkpt lat="45.65955" lon="6.4376">
        <ele>458.4</ele>
        <time>2016-06-22T15:14:49Z</time>
      </trkpt>
      <trkpt lat="45.65964" lon="6.43756">
        <ele>457.4</ele>
        <time>2016-06-22T15:14:51Z</time>
      </trkpt>
      <trkpt lat="45.65972" lon="6.43751">
        <ele>456.6</ele>
        <time>2016-06-22T15:14:53Z</time>
      </trkpt>
      <trkpt lat="45.65982" lon="6.43747">
        <ele>455.8</ele>
        <time>2016-06-22T15:14:55Z</time>
      </trkpt>
      <trkpt lat="45.65992" lon="6.43742">
        <ele>455</ele>
        <time>2016-06-22T15:14:57Z</time>
      </trkpt>
      <trkpt lat="45.66002" lon="6.43737">
        <ele>454.3</ele>
        <time>2016-06-22T15:14:59Z</time>
      </trkpt>
      <trkpt lat="45.66012" lon="6.43733">
        <ele>453.7</ele>
        <time>2016-06-22T15:15:01Z</time>
      </trkpt>
      <trkpt lat="45.66023" lon="6.43728">
        <ele>453.1</ele>
        <time>2016-06-22T15:15:03Z</time>
      </trkpt>
      <trkpt lat="45.66033" lon="6.43721">
        <ele>452.5</ele>
        <time>2016-06-22T15:15:05Z</time>
      </trkpt>
      <trkpt lat="45.66043" lon="6.4371">
        <ele>451.9</ele>
        <time>2016-06-22T15:15:07Z</time>
      </trkpt>
      <trkpt lat="45.6605" lon="6.43696">
        <ele>451.2</ele>
        <time>2016-06-22T15:15:09Z</time>
      </trkpt>
      <trkpt lat="45.66057" lon="6.43681">
        <ele>450.6</ele>
        <time>2016-06-22T15:15:11Z</time>
      </trkpt>
      <trkpt lat="45.66063" lon="6.43664">
        <ele>450</ele>
        <time>2016-06-22T15:15:13Z</time>
      </trkpt>
      <trkpt lat="45.6607" lon="6.43647">
        <ele>449.3</ele>
        <time>2016-06-22T15:15:15Z</time>
      </trkpt>
      <trkpt lat="45.66076" lon="6.43629">
        <ele>448.7</ele>
        <time>2016-06-22T15:15:17Z</time>
      </trkpt>
      <trkpt lat="45.66084" lon="6.43611">
        <ele>448</ele>
        <time>2016-06-22T15:15:19Z</time>
      </trkpt>
      <trkpt lat="45.66092" lon="6.43594">
        <ele>447.2</ele>
        <time>2016-06-22T15:15:21Z</time>
      </trkpt>
      <trkpt lat="45.66099" lon="6.43576">
        <ele>446.5</ele>
        <time>2016-06-22T15:15:23Z</time>
      </trkpt>
      <trkpt lat="45.66106" lon="6.43558">
        <ele>445.9</ele>
        <time>2016-06-22T15:15:25Z</time>
      </trkpt>
      <trkpt lat="45.66113" lon="6.43539">
        <ele>445.4</ele>
        <time>2016-06-22T15:15:27Z</time>
      </trkpt>
      <trkpt lat="45.66119" lon="6.4352">
        <ele>444.9</ele>
        <time>2016-06-22T15:15:29Z</time>
      </trkpt>
      <trkpt lat="45.66128" lon="6.43501">
        <ele>444.4</ele>
        <time>2016-06-22T15:15:31Z</time>
      </trkpt>
      <trkpt lat="45.66135" lon="6.43483">
        <ele>444</ele>
        <time>2016-06-22T15:15:33Z</time>
      </trkpt>
      <trkpt lat="45.66143" lon="6.43465">
        <ele>443.4</ele>
        <time>2016-06-22T15:15:35Z</time>
      </trkpt>
      <trkpt lat="45.66151" lon="6.43446">
        <ele>442.9</ele>
        <time>2016-06-22T15:15:37Z</time>
      </trkpt>
      <trkpt lat="45.66157" lon="6.43427">
        <ele>442.3</ele>
        <time>2016-06-22T15:15:39Z</time>
      </trkpt>
      <trkpt lat="45.66162" lon="6.43406">
        <ele>441.8</ele>
        <time>2016-06-22T15:15:41Z</time>
      </trkpt>
      <trkpt lat="45.66163" lon="6.43386">
        <ele>441</ele>
        <time>2016-06-22T15:15:43Z</time>
      </trkpt>
      <trkpt lat="45.66159" lon="6.43365">
        <ele>440.4</ele>
        <time>2016-06-22T15:15:45Z</time>
      </trkpt>
      <trkpt lat="45.66157" lon="6.43347">
        <ele>439.8</ele>
        <time>2016-06-22T15:15:47Z</time>
      </trkpt>
      <trkpt lat="45.66156" lon="6.43332">
        <ele>439.3</ele>
        <time>2016-06-22T15:15:49Z</time>
      </trkpt>
      <trkpt lat="45.66161" lon="6.4332">
        <ele>438.5</ele>
        <time>2016-06-22T15:15:52Z</time>
      </trkpt>
      <trkpt lat="45.6617" lon="6.43315">
        <ele>437.8</ele>
        <time>2016-06-22T15:15:55Z</time>
      </trkpt>
      <trkpt lat="45.66181" lon="6.43313">
        <ele>437.2</ele>
        <time>2016-06-22T15:15:58Z</time>
      </trkpt>
      <trkpt lat="45.66185" lon="6.43301">
        <ele>431.6</ele>
        <time>2016-06-22T15:19:29Z</time>
      </trkpt>
      <trkpt lat="45.66194" lon="6.43293">
        <ele>431.6</ele>
        <time>2016-06-22T15:19:31Z</time>
      </trkpt>
      <trkpt lat="45.66203" lon="6.43284">
        <ele>431.6</ele>
        <time>2016-06-22T15:19:33Z</time>
      </trkpt>
      <trkpt lat="45.66211" lon="6.43273">
        <ele>431.5</ele>
        <time>2016-06-22T15:19:35Z</time>
      </trkpt>
      <trkpt lat="45.66219" lon="6.43259">
        <ele>431.5</ele>
        <time>2016-06-22T15:19:37Z</time>
      </trkpt>
      <trkpt lat="45.66226" lon="6.43247">
        <ele>431.4</ele>
        <time>2016-06-22T15:19:39Z</time>
      </trkpt>
      <trkpt lat="45.66232" lon="6.43233">
        <ele>431.4</ele>
        <time>2016-06-22T15:19:41Z</time>
      </trkpt>
      <trkpt lat="45.66239" lon="6.43218">
        <ele>431.4</ele>
        <time>2016-06-22T15:19:43Z</time>
      </trkpt>
      <trkpt lat="45.66247" lon="6.43203">
        <ele>431.4</ele>
        <time>2016-06-22T15:19:45Z</time>
      </trkpt>
      <trkpt lat="45.66254" lon="6.43183">
        <ele>431.5</ele>
        <time>2016-06-22T15:19:47Z</time>
      </trkpt>
      <trkpt lat="45.6626" lon="6.43163">
        <ele>431.5</ele>
        <time>2016-06-22T15:19:49Z</time>
      </trkpt>
      <trkpt lat="45.66264" lon="6.43144">
        <ele>431.6</ele>
        <time>2016-06-22T15:19:51Z</time>
      </trkpt>
      <trkpt lat="45.66271" lon="6.43125">
        <ele>431.6</ele>
        <time>2016-06-22T15:19:53Z</time>
      </trkpt>
      <trkpt lat="45.66278" lon="6.43106">
        <ele>431.7</ele>
        <time>2016-06-22T15:19:55Z</time>
      </trkpt>
      <trkpt lat="45.66286" lon="6.43088">
        <ele>431.7</ele>
        <time>2016-06-22T15:19:57Z</time>
      </trkpt>
      <trkpt lat="45.66296" lon="6.43071">
        <ele>431.7</ele>
        <time>2016-06-22T15:19:59Z</time>
      </trkpt>
      <trkpt lat="45.66308" lon="6.43058">
        <ele>431.7</ele>
        <time>2016-06-22T15:20:01Z</time>
      </trkpt>
      <trkpt lat="45.6632" lon="6.43045">
        <ele>431.8</ele>
        <time>2016-06-22T15:20:03Z</time>
      </trkpt>
      <trkpt lat="45.66333" lon="6.43034">
        <ele>431.8</ele>
        <time>2016-06-22T15:20:05Z</time>
      </trkpt>
      <trkpt lat="45.66346" lon="6.43024">
        <ele>431.8</ele>
        <time>2016-06-22T15:20:07Z</time>
      </trkpt>
      <trkpt lat="45.6636" lon="6.43016">
        <ele>431.8</ele>
        <time>2016-06-22T15:20:09Z</time>
      </trkpt>
      <trkpt lat="45.66373" lon="6.43008">
        <ele>431.8</ele>
        <time>2016-06-22T15:20:11Z</time>
      </trkpt>
      <trkpt lat="45.66386" lon="6.43">
        <ele>431.8</ele>
        <time>2016-06-22T15:20:13Z</time>
      </trkpt>
      <trkpt lat="45.66399" lon="6.42989">
        <ele>431.9</ele>
        <time>2016-06-22T15:20:15Z</time>
      </trkpt>
      <trkpt lat="45.66411" lon="6.42976">
        <ele>431.9</ele>
        <time>2016-06-22T15:20:17Z</time>
      </trkpt>
      <trkpt lat="45.66419" lon="6.42969">
        <ele>431.9</ele>
        <time>2016-06-22T15:20:18Z</time>
      </trkpt>
      <trkpt lat="45.66432" lon="6.42954">
        <ele>431.9</ele>
        <time>2016-06-22T15:20:20Z</time>
      </trkpt>
      <trkpt lat="45.66443" lon="6.42938">
        <ele>431.9</ele>
        <time>2016-06-22T15:20:22Z</time>
      </trkpt>
      <trkpt lat="45.66452" lon="6.4292">
        <ele>431.9</ele>
        <time>2016-06-22T15:20:24Z</time>
      </trkpt>
      <trkpt lat="45.66457" lon="6.429">
        <ele>431.9</ele>
        <time>2016-06-22T15:20:26Z</time>
      </trkpt>
      <trkpt lat="45.66458" lon="6.42878">
        <ele>431.9</ele>
        <time>2016-06-22T15:20:28Z</time>
      </trkpt>
      <trkpt lat="45.66454" lon="6.42857">
        <ele>431.9</ele>
        <time>2016-06-22T15:20:30Z</time>
      </trkpt>
      <trkpt lat="45.66448" lon="6.42837">
        <ele>431.8</ele>
        <time>2016-06-22T15:20:32Z</time>
      </trkpt>
      <trkpt lat="45.66443" lon="6.42818">
        <ele>431.8</ele>
        <time>2016-06-22T15:20:34Z</time>
      </trkpt>
      <trkpt lat="45.66438" lon="6.428">
        <ele>431.8</ele>
        <time>2016-06-22T15:20:36Z</time>
      </trkpt>
      <trkpt lat="45.66435" lon="6.42783">
        <ele>431.9</ele>
        <time>2016-06-22T15:20:38Z</time>
      </trkpt>
      <trkpt lat="45.66435" lon="6.42768">
        <ele>432</ele>
        <time>2016-06-22T15:20:40Z</time>
      </trkpt>
      <trkpt lat="45.66439" lon="6.42756">
        <ele>432.1</ele>
        <time>2016-06-22T15:20:42Z</time>
      </trkpt>
      <trkpt lat="45.66445" lon="6.42746">
        <ele>432.3</ele>
        <time>2016-06-22T15:20:44Z</time>
      </trkpt>
      <trkpt lat="45.66454" lon="6.42732">
        <ele>432.7</ele>
        <time>2016-06-22T15:20:47Z</time>
      </trkpt>
      <trkpt lat="45.66462" lon="6.42717">
        <ele>433</ele>
        <time>2016-06-22T15:20:50Z</time>
      </trkpt>
      <trkpt lat="45.66471" lon="6.42705">
        <ele>433.3</ele>
        <time>2016-06-22T15:20:53Z</time>
      </trkpt>
      <trkpt lat="45.6648" lon="6.42695">
        <ele>433.5</ele>
        <time>2016-06-22T15:20:56Z</time>
      </trkpt>
      <trkpt lat="45.66489" lon="6.42682">
        <ele>433.7</ele>
        <time>2016-06-22T15:20:59Z</time>
      </trkpt>
      <trkpt lat="45.66497" lon="6.42673">
        <ele>433.8</ele>
        <time>2016-06-22T15:21:01Z</time>
      </trkpt>
      <trkpt lat="45.66503" lon="6.42661">
        <ele>434</ele>
        <time>2016-06-22T15:21:03Z</time>
      </trkpt>
      <trkpt lat="45.66511" lon="6.42649">
        <ele>434</ele>
        <time>2016-06-22T15:21:05Z</time>
      </trkpt>
      <trkpt lat="45.66519" lon="6.42637">
        <ele>434.1</ele>
        <time>2016-06-22T15:21:07Z</time>
      </trkpt>
      <trkpt lat="45.66528" lon="6.42625">
        <ele>434.1</ele>
        <time>2016-06-22T15:21:09Z</time>
      </trkpt>
      <trkpt lat="45.66536" lon="6.42611">
        <ele>434.1</ele>
        <time>2016-06-22T15:21:11Z</time>
      </trkpt>
      <trkpt lat="45.66543" lon="6.42596">
        <ele>434.1</ele>
        <time>2016-06-22T15:21:13Z</time>
      </trkpt>
      <trkpt lat="45.66547" lon="6.4258">
        <ele>434</ele>
        <time>2016-06-22T15:21:15Z</time>
      </trkpt>
      <trkpt lat="45.66549" lon="6.42563">
        <ele>433.9</ele>
        <time>2016-06-22T15:21:17Z</time>
      </trkpt>
      <trkpt lat="45.66549" lon="6.42545">
        <ele>433.9</ele>
        <time>2016-06-22T15:21:19Z</time>
      </trkpt>
      <trkpt lat="45.66547" lon="6.42527">
        <ele>433.8</ele>
        <time>2016-06-22T15:21:21Z</time>
      </trkpt>
      <trkpt lat="45.66545" lon="6.42511">
        <ele>433.7</ele>
        <time>2016-06-22T15:21:23Z</time>
      </trkpt>
      <trkpt lat="45.66543" lon="6.42493">
        <ele>433.7</ele>
        <time>2016-06-22T15:21:25Z</time>
      </trkpt>
      <trkpt lat="45.66541" lon="6.42474">
        <ele>433.7</ele>
        <time>2016-06-22T15:21:27Z</time>
      </trkpt>
      <trkpt lat="45.66539" lon="6.42451">
        <ele>433.6</ele>
        <time>2016-06-22T15:21:29Z</time>
      </trkpt>
      <trkpt lat="45.66538" lon="6.42428">
        <ele>433.5</ele>
        <time>2016-06-22T15:21:31Z</time>
      </trkpt>
      <trkpt lat="45.66537" lon="6.42404">
        <ele>433.4</ele>
        <time>2016-06-22T15:21:33Z</time>
      </trkpt>
      <trkpt lat="45.66534" lon="6.42381">
        <ele>433.2</ele>
        <time>2016-06-22T15:21:35Z</time>
      </trkpt>
      <trkpt lat="45.66533" lon="6.42358">
        <ele>433</ele>
        <time>2016-06-22T15:21:37Z</time>
      </trkpt>
      <trkpt lat="45.66532" lon="6.42336">
        <ele>432.7</ele>
        <time>2016-06-22T15:21:39Z</time>
      </trkpt>
      <trkpt lat="45.6653" lon="6.42315">
        <ele>432.5</ele>
        <time>2016-06-22T15:21:41Z</time>
      </trkpt>
      <trkpt lat="45.66528" lon="6.42294">
        <ele>432.3</ele>
        <time>2016-06-22T15:21:43Z</time>
      </trkpt>
      <trkpt lat="45.66526" lon="6.42273">
        <ele>432.1</ele>
        <time>2016-06-22T15:21:45Z</time>
      </trkpt>
      <trkpt lat="45.66524" lon="6.42252">
        <ele>431.9</ele>
        <time>2016-06-22T15:21:47Z</time>
      </trkpt>
      <trkpt lat="45.66522" lon="6.42231">
        <ele>431.7</ele>
        <time>2016-06-22T15:21:49Z</time>
      </trkpt>
      <trkpt lat="45.66521" lon="6.42212">
        <ele>431.6</ele>
        <time>2016-06-22T15:21:51Z</time>
      </trkpt>
      <trkpt lat="45.66519" lon="6.42191">
        <ele>431.4</ele>
        <time>2016-06-22T15:21:53Z</time>
      </trkpt>
      <trkpt lat="45.66517" lon="6.42172">
        <ele>431.3</ele>
        <time>2016-06-22T15:21:55Z</time>
      </trkpt>
      <trkpt lat="45.66515" lon="6.42152">
        <ele>431.2</ele>
        <time>2016-06-22T15:21:57Z</time>
      </trkpt>
      <trkpt lat="45.66515" lon="6.42133">
        <ele>431</ele>
        <time>2016-06-22T15:21:59Z</time>
      </trkpt>
      <trkpt lat="45.66513" lon="6.42111">
        <ele>430.9</ele>
        <time>2016-06-22T15:22:01Z</time>
      </trkpt>
      <trkpt lat="45.66516" lon="6.42092">
        <ele>430.7</ele>
        <time>2016-06-22T15:22:03Z</time>
      </trkpt>
      <trkpt lat="45.66519" lon="6.42073">
        <ele>430.6</ele>
        <time>2016-06-22T15:22:05Z</time>
      </trkpt>
      <trkpt lat="45.66522" lon="6.42054">
        <ele>430.5</ele>
        <time>2016-06-22T15:22:07Z</time>
      </trkpt>
      <trkpt lat="45.66526" lon="6.42036">
        <ele>430.4</ele>
        <time>2016-06-22T15:22:09Z</time>
      </trkpt>
      <trkpt lat="45.66529" lon="6.42018">
        <ele>430.3</ele>
        <time>2016-06-22T15:22:11Z</time>
      </trkpt>
      <trkpt lat="45.66532" lon="6.42001">
        <ele>430.2</ele>
        <time>2016-06-22T15:22:13Z</time>
      </trkpt>
      <trkpt lat="45.66535" lon="6.41984">
        <ele>430.1</ele>
        <time>2016-06-22T15:22:15Z</time>
      </trkpt>
      <trkpt lat="45.66538" lon="6.41966">
        <ele>430</ele>
        <time>2016-06-22T15:22:17Z</time>
      </trkpt>
      <trkpt lat="45.66541" lon="6.41949">
        <ele>429.9</ele>
        <time>2016-06-22T15:22:19Z</time>
      </trkpt>
      <trkpt lat="45.66545" lon="6.41932">
        <ele>429.8</ele>
        <time>2016-06-22T15:22:21Z</time>
      </trkpt>
      <trkpt lat="45.66548" lon="6.41915">
        <ele>429.8</ele>
        <time>2016-06-22T15:22:23Z</time>
      </trkpt>
      <trkpt lat="45.66551" lon="6.41898">
        <ele>429.7</ele>
        <time>2016-06-22T15:22:25Z</time>
      </trkpt>
      <trkpt lat="45.66553" lon="6.41879">
        <ele>429.6</ele>
        <time>2016-06-22T15:22:27Z</time>
      </trkpt>
      <trkpt lat="45.66556" lon="6.41862">
        <ele>429.6</ele>
        <time>2016-06-22T15:22:29Z</time>
      </trkpt>
      <trkpt lat="45.66558" lon="6.41844">
        <ele>429.5</ele>
        <time>2016-06-22T15:22:31Z</time>
      </trkpt>
      <trkpt lat="45.66559" lon="6.41827">
        <ele>429.5</ele>
        <time>2016-06-22T15:22:33Z</time>
      </trkpt>
      <trkpt lat="45.66559" lon="6.4181">
        <ele>429.5</ele>
        <time>2016-06-22T15:22:35Z</time>
      </trkpt>
      <trkpt lat="45.6656" lon="6.41794">
        <ele>429.4</ele>
        <time>2016-06-22T15:22:37Z</time>
      </trkpt>
      <trkpt lat="45.66562" lon="6.41776">
        <ele>429.4</ele>
        <time>2016-06-22T15:22:39Z</time>
      </trkpt>
      <trkpt lat="45.66566" lon="6.41759">
        <ele>429.4</ele>
        <time>2016-06-22T15:22:41Z</time>
      </trkpt>
      <trkpt lat="45.66571" lon="6.41742">
        <ele>429.4</ele>
        <time>2016-06-22T15:22:43Z</time>
      </trkpt>
      <trkpt lat="45.66576" lon="6.41726">
        <ele>429.3</ele>
        <time>2016-06-22T15:22:45Z</time>
      </trkpt>
      <trkpt lat="45.66581" lon="6.41711">
        <ele>429.3</ele>
        <time>2016-06-22T15:22:47Z</time>
      </trkpt>
      <trkpt lat="45.66587" lon="6.41695">
        <ele>429.3</ele>
        <time>2016-06-22T15:22:49Z</time>
      </trkpt>
      <trkpt lat="45.66593" lon="6.41681">
        <ele>429.3</ele>
        <time>2016-06-22T15:22:51Z</time>
      </trkpt>
      <trkpt lat="45.66599" lon="6.41666">
        <ele>429.2</ele>
        <time>2016-06-22T15:22:53Z</time>
      </trkpt>
      <trkpt lat="45.66602" lon="6.4165">
        <ele>429.1</ele>
        <time>2016-06-22T15:22:55Z</time>
      </trkpt>
      <trkpt lat="45.66605" lon="6.41634">
        <ele>429.1</ele>
        <time>2016-06-22T15:22:57Z</time>
      </trkpt>
      <trkpt lat="45.66608" lon="6.41619">
        <ele>429</ele>
        <time>2016-06-22T15:22:59Z</time>
      </trkpt>
      <trkpt lat="45.66609" lon="6.41602">
        <ele>428.9</ele>
        <time>2016-06-22T15:23:01Z</time>
      </trkpt>
      <trkpt lat="45.6661" lon="6.41585">
        <ele>428.8</ele>
        <time>2016-06-22T15:23:03Z</time>
      </trkpt>
      <trkpt lat="45.66612" lon="6.41568">
        <ele>428.7</ele>
        <time>2016-06-22T15:23:05Z</time>
      </trkpt>
      <trkpt lat="45.66613" lon="6.41552">
        <ele>428.6</ele>
        <time>2016-06-22T15:23:07Z</time>
      </trkpt>
      <trkpt lat="45.66615" lon="6.41537">
        <ele>428.5</ele>
        <time>2016-06-22T15:23:09Z</time>
      </trkpt>
      <trkpt lat="45.66617" lon="6.41522">
        <ele>428.4</ele>
        <time>2016-06-22T15:23:11Z</time>
      </trkpt>
      <trkpt lat="45.6662" lon="6.41508">
        <ele>428.4</ele>
        <time>2016-06-22T15:23:13Z</time>
      </trkpt>
      <trkpt lat="45.66623" lon="6.41493">
        <ele>428.3</ele>
        <time>2016-06-22T15:23:15Z</time>
      </trkpt>
      <trkpt lat="45.66626" lon="6.41478">
        <ele>428.2</ele>
        <time>2016-06-22T15:23:17Z</time>
      </trkpt>
      <trkpt lat="45.66629" lon="6.41464">
        <ele>428.1</ele>
        <time>2016-06-22T15:23:19Z</time>
      </trkpt>
      <trkpt lat="45.66633" lon="6.4145">
        <ele>428.1</ele>
        <time>2016-06-22T15:23:21Z</time>
      </trkpt>
      <trkpt lat="45.66635" lon="6.41437">
        <ele>428</ele>
        <time>2016-06-22T15:23:23Z</time>
      </trkpt>
      <trkpt lat="45.66637" lon="6.41423">
        <ele>427.9</ele>
        <time>2016-06-22T15:23:25Z</time>
      </trkpt>
      <trkpt lat="45.6664" lon="6.41409">
        <ele>427.9</ele>
        <time>2016-06-22T15:23:27Z</time>
      </trkpt>
      <trkpt lat="45.66644" lon="6.41396">
        <ele>427.8</ele>
        <time>2016-06-22T15:23:29Z</time>
      </trkpt>
      <trkpt lat="45.66648" lon="6.41383">
        <ele>427.7</ele>
        <time>2016-06-22T15:23:31Z</time>
      </trkpt>
      <trkpt lat="45.66652" lon="6.4137">
        <ele>427.5</ele>
        <time>2016-06-22T15:23:33Z</time>
      </trkpt>
      <trkpt lat="45.66657" lon="6.41353">
        <ele>427.3</ele>
        <time>2016-06-22T15:23:36Z</time>
      </trkpt>
      <trkpt lat="45.66664" lon="6.41337">
        <ele>427</ele>
        <time>2016-06-22T15:23:39Z</time>
      </trkpt>
      <trkpt lat="45.6667" lon="6.41326">
        <ele>426.9</ele>
        <time>2016-06-22T15:23:41Z</time>
      </trkpt>
      <trkpt lat="45.66675" lon="6.41315">
        <ele>426.8</ele>
        <time>2016-06-22T15:23:43Z</time>
      </trkpt>
      <trkpt lat="45.6668" lon="6.41304">
        <ele>426.7</ele>
        <time>2016-06-22T15:23:45Z</time>
      </trkpt>
      <trkpt lat="45.66688" lon="6.41289">
        <ele>426.5</ele>
        <time>2016-06-22T15:23:48Z</time>
      </trkpt>
      <trkpt lat="45.66696" lon="6.41275">
        <ele>426.4</ele>
        <time>2016-06-22T15:23:51Z</time>
      </trkpt>
      <trkpt lat="45.66704" lon="6.41262">
        <ele>426.3</ele>
        <time>2016-06-22T15:23:54Z</time>
      </trkpt>
      <trkpt lat="45.6671" lon="6.41251">
        <ele>426.3</ele>
        <time>2016-06-22T15:23:56Z</time>
      </trkpt>
      <trkpt lat="45.66717" lon="6.41237">
        <ele>426.2</ele>
        <time>2016-06-22T15:23:59Z</time>
      </trkpt>
      <trkpt lat="45.66726" lon="6.41222">
        <ele>426.1</ele>
        <time>2016-06-22T15:24:02Z</time>
      </trkpt>
      <trkpt lat="45.66732" lon="6.41212">
        <ele>426</ele>
        <time>2016-06-22T15:24:04Z</time>
      </trkpt>
      <trkpt lat="45.66737" lon="6.41201">
        <ele>425.9</ele>
        <time>2016-06-22T15:24:06Z</time>
      </trkpt>
      <trkpt lat="45.66742" lon="6.4119">
        <ele>425.8</ele>
        <time>2016-06-22T15:24:08Z</time>
      </trkpt>
      <trkpt lat="45.66747" lon="6.41178">
        <ele>425.7</ele>
        <time>2016-06-22T15:24:10Z</time>
      </trkpt>
      <trkpt lat="45.6675" lon="6.41166">
        <ele>425.6</ele>
        <time>2016-06-22T15:24:12Z</time>
      </trkpt>
      <trkpt lat="45.66754" lon="6.41154">
        <ele>425.6</ele>
        <time>2016-06-22T15:24:14Z</time>
      </trkpt>
      <trkpt lat="45.66757" lon="6.41141">
        <ele>425.4</ele>
        <time>2016-06-22T15:24:16Z</time>
      </trkpt>
      <trkpt lat="45.6676" lon="6.41128">
        <ele>425.3</ele>
        <time>2016-06-22T15:24:18Z</time>
      </trkpt>
      <trkpt lat="45.66764" lon="6.41115">
        <ele>425.2</ele>
        <time>2016-06-22T15:24:20Z</time>
      </trkpt>
      <trkpt lat="45.66768" lon="6.41103">
        <ele>425.2</ele>
        <time>2016-06-22T15:24:22Z</time>
      </trkpt>
      <trkpt lat="45.66772" lon="6.4109">
        <ele>425.1</ele>
        <time>2016-06-22T15:24:24Z</time>
      </trkpt>
      <trkpt lat="45.66777" lon="6.41078">
        <ele>425</ele>
        <time>2016-06-22T15:24:26Z</time>
      </trkpt>
      <trkpt lat="45.66785" lon="6.41067">
        <ele>425</ele>
        <time>2016-06-22T15:24:28Z</time>
      </trkpt>
      <trkpt lat="45.66793" lon="6.41058">
        <ele>424.9</ele>
        <time>2016-06-22T15:24:30Z</time>
      </trkpt>
      <trkpt lat="45.66801" lon="6.41049">
        <ele>424.9</ele>
        <time>2016-06-22T15:24:32Z</time>
      </trkpt>
      <trkpt lat="45.66809" lon="6.41039">
        <ele>424.9</ele>
        <time>2016-06-22T15:24:34Z</time>
      </trkpt>
      <trkpt lat="45.66816" lon="6.41027">
        <ele>424.8</ele>
        <time>2016-06-22T15:24:36Z</time>
      </trkpt>
      <trkpt lat="45.66824" lon="6.41015">
        <ele>424.8</ele>
        <time>2016-06-22T15:24:38Z</time>
      </trkpt>
      <trkpt lat="45.66831" lon="6.41002">
        <ele>424.7</ele>
        <time>2016-06-22T15:24:40Z</time>
      </trkpt>
      <trkpt lat="45.66838" lon="6.40988">
        <ele>424.7</ele>
        <time>2016-06-22T15:24:42Z</time>
      </trkpt>
      <trkpt lat="45.66844" lon="6.40973">
        <ele>424.6</ele>
        <time>2016-06-22T15:24:44Z</time>
      </trkpt>
      <trkpt lat="45.66848" lon="6.40958">
        <ele>424.6</ele>
        <time>2016-06-22T15:24:46Z</time>
      </trkpt>
      <trkpt lat="45.6685" lon="6.40942">
        <ele>424.5</ele>
        <time>2016-06-22T15:24:48Z</time>
      </trkpt>
      <trkpt lat="45.66852" lon="6.40926">
        <ele>424.5</ele>
        <time>2016-06-22T15:24:50Z</time>
      </trkpt>
      <trkpt lat="45.66853" lon="6.4091">
        <ele>424.5</ele>
        <time>2016-06-22T15:24:52Z</time>
      </trkpt>
      <trkpt lat="45.66855" lon="6.40895">
        <ele>424.4</ele>
        <time>2016-06-22T15:24:54Z</time>
      </trkpt>
      <trkpt lat="45.66857" lon="6.40879">
        <ele>424.4</ele>
        <time>2016-06-22T15:24:56Z</time>
      </trkpt>
      <trkpt lat="45.66858" lon="6.40865">
        <ele>424.4</ele>
        <time>2016-06-22T15:24:58Z</time>
      </trkpt>
      <trkpt lat="45.66861" lon="6.40849">
        <ele>424.4</ele>
        <time>2016-06-22T15:25:00Z</time>
      </trkpt>
      <trkpt lat="45.66863" lon="6.40832">
        <ele>424.4</ele>
        <time>2016-06-22T15:25:02Z</time>
      </trkpt>
      <trkpt lat="45.66865" lon="6.40814">
        <ele>424.4</ele>
        <time>2016-06-22T15:25:04Z</time>
      </trkpt>
      <trkpt lat="45.66866" lon="6.40796">
        <ele>424.3</ele>
        <time>2016-06-22T15:25:06Z</time>
      </trkpt>
      <trkpt lat="45.66867" lon="6.40777">
        <ele>424.3</ele>
        <time>2016-06-22T15:25:08Z</time>
      </trkpt>
      <trkpt lat="45.66869" lon="6.40759">
        <ele>424.3</ele>
        <time>2016-06-22T15:25:10Z</time>
      </trkpt>
      <trkpt lat="45.6687" lon="6.40741">
        <ele>424.3</ele>
        <time>2016-06-22T15:25:12Z</time>
      </trkpt>
      <trkpt lat="45.66871" lon="6.40722">
        <ele>424.3</ele>
        <time>2016-06-22T15:25:14Z</time>
      </trkpt>
      <trkpt lat="45.66875" lon="6.40705">
        <ele>424.3</ele>
        <time>2016-06-22T15:25:16Z</time>
      </trkpt>
      <trkpt lat="45.66877" lon="6.40688">
        <ele>424.3</ele>
        <time>2016-06-22T15:25:18Z</time>
      </trkpt>
      <trkpt lat="45.66877" lon="6.4067">
        <ele>424.3</ele>
        <time>2016-06-22T15:25:20Z</time>
      </trkpt>
      <trkpt lat="45.66877" lon="6.40651">
        <ele>424.3</ele>
        <time>2016-06-22T15:25:22Z</time>
      </trkpt>
      <trkpt lat="45.66878" lon="6.40632">
        <ele>424.3</ele>
        <time>2016-06-22T15:25:24Z</time>
      </trkpt>
      <trkpt lat="45.66879" lon="6.40613">
        <ele>424.3</ele>
        <time>2016-06-22T15:25:26Z</time>
      </trkpt>
      <trkpt lat="45.66879" lon="6.40594">
        <ele>424.3</ele>
        <time>2016-06-22T15:25:28Z</time>
      </trkpt>
      <trkpt lat="45.66879" lon="6.40575">
        <ele>424.3</ele>
        <time>2016-06-22T15:25:30Z</time>
      </trkpt>
      <trkpt lat="45.66879" lon="6.40556">
        <ele>424.3</ele>
        <time>2016-06-22T15:25:32Z</time>
      </trkpt>
      <trkpt lat="45.66878" lon="6.40538">
        <ele>424.3</ele>
        <time>2016-06-22T15:25:34Z</time>
      </trkpt>
      <trkpt lat="45.66878" lon="6.40519">
        <ele>424.3</ele>
        <time>2016-06-22T15:25:36Z</time>
      </trkpt>
      <trkpt lat="45.66878" lon="6.405">
        <ele>424.3</ele>
        <time>2016-06-22T15:25:38Z</time>
      </trkpt>
      <trkpt lat="45.66881" lon="6.40482">
        <ele>424.3</ele>
        <time>2016-06-22T15:25:40Z</time>
      </trkpt>
      <trkpt lat="45.66885" lon="6.40465">
        <ele>424.3</ele>
        <time>2016-06-22T15:25:42Z</time>
      </trkpt>
      <trkpt lat="45.6689" lon="6.40449">
        <ele>424.3</ele>
        <time>2016-06-22T15:25:44Z</time>
      </trkpt>
      <trkpt lat="45.66895" lon="6.40432">
        <ele>424.3</ele>
        <time>2016-06-22T15:25:46Z</time>
      </trkpt>
      <trkpt lat="45.66899" lon="6.40414">
        <ele>424.3</ele>
        <time>2016-06-22T15:25:48Z</time>
      </trkpt>
      <trkpt lat="45.66904" lon="6.40396">
        <ele>424.3</ele>
        <time>2016-06-22T15:25:50Z</time>
      </trkpt>
      <trkpt lat="45.66907" lon="6.40376">
        <ele>424.3</ele>
        <time>2016-06-22T15:25:52Z</time>
      </trkpt>
      <trkpt lat="45.66909" lon="6.40356">
        <ele>424.2</ele>
        <time>2016-06-22T15:25:54Z</time>
      </trkpt>
      <trkpt lat="45.6691" lon="6.40336">
        <ele>424.2</ele>
        <time>2016-06-22T15:25:56Z</time>
      </trkpt>
      <trkpt lat="45.6691" lon="6.40317">
        <ele>424.1</ele>
        <time>2016-06-22T15:25:58Z</time>
      </trkpt>
      <trkpt lat="45.6691" lon="6.40298">
        <ele>424</ele>
        <time>2016-06-22T15:26:00Z</time>
      </trkpt>
      <trkpt lat="45.66909" lon="6.4028">
        <ele>423.9</ele>
        <time>2016-06-22T15:26:02Z</time>
      </trkpt>
      <trkpt lat="45.66907" lon="6.40261">
        <ele>423.9</ele>
        <time>2016-06-22T15:26:04Z</time>
      </trkpt>
      <trkpt lat="45.66904" lon="6.40243">
        <ele>423.8</ele>
        <time>2016-06-22T15:26:06Z</time>
      </trkpt>
      <trkpt lat="45.66902" lon="6.40225">
        <ele>423.8</ele>
        <time>2016-06-22T15:26:08Z</time>
      </trkpt>
      <trkpt lat="45.66899" lon="6.40209">
        <ele>423.8</ele>
        <time>2016-06-22T15:26:10Z</time>
      </trkpt>
      <trkpt lat="45.66896" lon="6.40192">
        <ele>423.7</ele>
        <time>2016-06-22T15:26:12Z</time>
      </trkpt>
      <trkpt lat="45.66893" lon="6.40174">
        <ele>423.7</ele>
        <time>2016-06-22T15:26:14Z</time>
      </trkpt>
      <trkpt lat="45.66889" lon="6.40156">
        <ele>423.7</ele>
        <time>2016-06-22T15:26:16Z</time>
      </trkpt>
      <trkpt lat="45.66884" lon="6.40139">
        <ele>423.7</ele>
        <time>2016-06-22T15:26:18Z</time>
      </trkpt>
      <trkpt lat="45.66877" lon="6.40123">
        <ele>423.7</ele>
        <time>2016-06-22T15:26:20Z</time>
      </trkpt>
      <trkpt lat="45.66868" lon="6.40108">
        <ele>423.7</ele>
        <time>2016-06-22T15:26:22Z</time>
      </trkpt>
      <trkpt lat="45.66858" lon="6.40093">
        <ele>423.7</ele>
        <time>2016-06-22T15:26:24Z</time>
      </trkpt>
      <trkpt lat="45.6685" lon="6.40078">
        <ele>423.8</ele>
        <time>2016-06-22T15:26:26Z</time>
      </trkpt>
      <trkpt lat="45.66841" lon="6.40063">
        <ele>423.8</ele>
        <time>2016-06-22T15:26:28Z</time>
      </trkpt>
      <trkpt lat="45.66831" lon="6.40047">
        <ele>423.7</ele>
        <time>2016-06-22T15:26:30Z</time>
      </trkpt>
      <trkpt lat="45.66823" lon="6.40032">
        <ele>423.7</ele>
        <time>2016-06-22T15:26:32Z</time>
      </trkpt>
      <trkpt lat="45.66813" lon="6.40016">
        <ele>423.6</ele>
        <time>2016-06-22T15:26:34Z</time>
      </trkpt>
      <trkpt lat="45.66806" lon="6.40001">
        <ele>423.6</ele>
        <time>2016-06-22T15:26:36Z</time>
      </trkpt>
      <trkpt lat="45.668" lon="6.39984">
        <ele>423.5</ele>
        <time>2016-06-22T15:26:38Z</time>
      </trkpt>
      <trkpt lat="45.66796" lon="6.39966">
        <ele>423.5</ele>
        <time>2016-06-22T15:26:40Z</time>
      </trkpt>
      <trkpt lat="45.66793" lon="6.39947">
        <ele>423.4</ele>
        <time>2016-06-22T15:26:42Z</time>
      </trkpt>
      <trkpt lat="45.66791" lon="6.3993">
        <ele>423.4</ele>
        <time>2016-06-22T15:26:44Z</time>
      </trkpt>
      <trkpt lat="45.66788" lon="6.39912">
        <ele>423.4</ele>
        <time>2016-06-22T15:26:46Z</time>
      </trkpt>
      <trkpt lat="45.66785" lon="6.39895">
        <ele>423.3</ele>
        <time>2016-06-22T15:26:48Z</time>
      </trkpt>
      <trkpt lat="45.66782" lon="6.39877">
        <ele>423.3</ele>
        <time>2016-06-22T15:26:50Z</time>
      </trkpt>
      <trkpt lat="45.6678" lon="6.3986">
        <ele>423.2</ele>
        <time>2016-06-22T15:26:52Z</time>
      </trkpt>
      <trkpt lat="45.66779" lon="6.39843">
        <ele>423.2</ele>
        <time>2016-06-22T15:26:54Z</time>
      </trkpt>
      <trkpt lat="45.66778" lon="6.39825">
        <ele>423.1</ele>
        <time>2016-06-22T15:26:56Z</time>
      </trkpt>
      <trkpt lat="45.66777" lon="6.39807">
        <ele>423</ele>
        <time>2016-06-22T15:26:58Z</time>
      </trkpt>
      <trkpt lat="45.66777" lon="6.39788">
        <ele>423</ele>
        <time>2016-06-22T15:27:00Z</time>
      </trkpt>
      <trkpt lat="45.66777" lon="6.3977">
        <ele>423</ele>
        <time>2016-06-22T15:27:02Z</time>
      </trkpt>
      <trkpt lat="45.66776" lon="6.3975">
        <ele>422.9</ele>
        <time>2016-06-22T15:27:04Z</time>
      </trkpt>
      <trkpt lat="45.66776" lon="6.39732">
        <ele>422.9</ele>
        <time>2016-06-22T15:27:06Z</time>
      </trkpt>
      <trkpt lat="45.66776" lon="6.39713">
        <ele>422.8</ele>
        <time>2016-06-22T15:27:08Z</time>
      </trkpt>
      <trkpt lat="45.66777" lon="6.39694">
        <ele>422.8</ele>
        <time>2016-06-22T15:27:10Z</time>
      </trkpt>
      <trkpt lat="45.66779" lon="6.39675">
        <ele>422.8</ele>
        <time>2016-06-22T15:27:12Z</time>
      </trkpt>
      <trkpt lat="45.66783" lon="6.39657">
        <ele>422.8</ele>
        <time>2016-06-22T15:27:14Z</time>
      </trkpt>
      <trkpt lat="45.66787" lon="6.39639">
        <ele>422.8</ele>
        <time>2016-06-22T15:27:16Z</time>
      </trkpt>
      <trkpt lat="45.66791" lon="6.39621">
        <ele>422.7</ele>
        <time>2016-06-22T15:27:18Z</time>
      </trkpt>
      <trkpt lat="45.66795" lon="6.39602">
        <ele>422.7</ele>
        <time>2016-06-22T15:27:20Z</time>
      </trkpt>
      <trkpt lat="45.668" lon="6.39584">
        <ele>422.7</ele>
        <time>2016-06-22T15:27:22Z</time>
      </trkpt>
      <trkpt lat="45.66806" lon="6.39567">
        <ele>422.7</ele>
        <time>2016-06-22T15:27:24Z</time>
      </trkpt>
      <trkpt lat="45.66811" lon="6.3955">
        <ele>422.7</ele>
        <time>2016-06-22T15:27:26Z</time>
      </trkpt>
      <trkpt lat="45.66818" lon="6.39534">
        <ele>422.7</ele>
        <time>2016-06-22T15:27:28Z</time>
      </trkpt>
      <trkpt lat="45.66825" lon="6.39519">
        <ele>422.7</ele>
        <time>2016-06-22T15:27:30Z</time>
      </trkpt>
      <trkpt lat="45.66832" lon="6.39504">
        <ele>422.7</ele>
        <time>2016-06-22T15:27:32Z</time>
      </trkpt>
      <trkpt lat="45.66839" lon="6.3949">
        <ele>422.7</ele>
        <time>2016-06-22T15:27:34Z</time>
      </trkpt>
      <trkpt lat="45.66849" lon="6.39479">
        <ele>422.7</ele>
        <time>2016-06-22T15:27:36Z</time>
      </trkpt>
      <trkpt lat="45.66861" lon="6.39472">
        <ele>422.8</ele>
        <time>2016-06-22T15:27:38Z</time>
      </trkpt>
      <trkpt lat="45.66874" lon="6.39468">
        <ele>422.9</ele>
        <time>2016-06-22T15:27:40Z</time>
      </trkpt>
      <trkpt lat="45.66886" lon="6.39466">
        <ele>423</ele>
        <time>2016-06-22T15:27:42Z</time>
      </trkpt>
      <trkpt lat="45.669" lon="6.39463">
        <ele>423</ele>
        <time>2016-06-22T15:27:44Z</time>
      </trkpt>
      <trkpt lat="45.66913" lon="6.39462">
        <ele>423.1</ele>
        <time>2016-06-22T15:27:46Z</time>
      </trkpt>
      <trkpt lat="45.66926" lon="6.39459">
        <ele>423.1</ele>
        <time>2016-06-22T15:27:48Z</time>
      </trkpt>
      <trkpt lat="45.66939" lon="6.39457">
        <ele>423.2</ele>
        <time>2016-06-22T15:27:50Z</time>
      </trkpt>
      <trkpt lat="45.66952" lon="6.39455">
        <ele>423.2</ele>
        <time>2016-06-22T15:27:52Z</time>
      </trkpt>
      <trkpt lat="45.66964" lon="6.39453">
        <ele>423.2</ele>
        <time>2016-06-22T15:27:54Z</time>
      </trkpt>
      <trkpt lat="45.66977" lon="6.3945">
        <ele>423.3</ele>
        <time>2016-06-22T15:27:56Z</time>
      </trkpt>
      <trkpt lat="45.66989" lon="6.39449">
        <ele>423.3</ele>
        <time>2016-06-22T15:27:58Z</time>
      </trkpt>
      <trkpt lat="45.67001" lon="6.39447">
        <ele>423.3</ele>
        <time>2016-06-22T15:28:00Z</time>
      </trkpt>
      <trkpt lat="45.67012" lon="6.39445">
        <ele>423.4</ele>
        <time>2016-06-22T15:28:02Z</time>
      </trkpt>
      <trkpt lat="45.67023" lon="6.39446">
        <ele>423.6</ele>
        <time>2016-06-22T15:28:04Z</time>
      </trkpt>
      <trkpt lat="45.67032" lon="6.39447">
        <ele>423.7</ele>
        <time>2016-06-22T15:28:06Z</time>
      </trkpt>
      <trkpt lat="45.67041" lon="6.39445">
        <ele>423.8</ele>
        <time>2016-06-22T15:28:08Z</time>
      </trkpt>
      <trkpt lat="45.67053" lon="6.39446">
        <ele>424</ele>
        <time>2016-06-22T15:28:11Z</time>
      </trkpt>
      <trkpt lat="45.67061" lon="6.39454">
        <ele>424.1</ele>
        <time>2016-06-22T15:28:14Z</time>
      </trkpt>
      <trkpt lat="45.67066" lon="6.39462">
        <ele>422</ele>
        <time>2016-06-22T15:28:35Z</time>
      </trkpt>
    </trkseg>
  </trk>
</gpx>